<?xml version="1.0" encoding="UTF-8" standalone="no" ?>
<gpx xmlns="http://www.topografix.com/GPX/1/1" xmlns:xsi="http://www.w3.org/2001/XMLSchema-instance" xsi:schemaLocation="http://www.topografix.com/GPX/1/1 http://www.topografix.com/GPX/1/1/gpx.xsd" version="1.1" creator="VisuGPX - https://www.visugpx.com">
  <metadata>
    <name>Villars  ( ruisseau de Vanoce)</name>
  </metadata>
  <trk>
    <name><![CDATA[Villars  01]]></name>
    <trkseg>
      <trkpt lat="47.75083" lon="4.97757">
        <ele>349.55</ele>
        <time>2022-07-04T07:03:54Z</time>
      </trkpt>
      <trkpt lat="47.75077" lon="4.97757">
        <ele>350.3</ele>
        <time>2022-07-04T07:03:57Z</time>
      </trkpt>
      <trkpt lat="47.75081" lon="4.97757">
        <ele>349.8</ele>
        <time>2022-07-04T07:04:22Z</time>
      </trkpt>
      <trkpt lat="47.75081" lon="4.97761">
        <ele>350.06</ele>
        <time>2022-07-04T07:04:50Z</time>
      </trkpt>
      <trkpt lat="47.7508" lon="4.97757">
        <ele>349.92</ele>
        <time>2022-07-04T07:05:29Z</time>
      </trkpt>
      <trkpt lat="47.75082" lon="4.97754">
        <ele>349.47</ele>
        <time>2022-07-04T07:07:13Z</time>
      </trkpt>
      <trkpt lat="47.7508" lon="4.97753">
        <ele>349.67</ele>
        <time>2022-07-04T07:07:26Z</time>
      </trkpt>
      <trkpt lat="47.75077" lon="4.97755">
        <ele>350.19</ele>
        <time>2022-07-04T07:07:50Z</time>
      </trkpt>
      <trkpt lat="47.7508" lon="4.97756">
        <ele>349.86</ele>
        <time>2022-07-04T07:08:00Z</time>
      </trkpt>
      <trkpt lat="47.75083" lon="4.97754">
        <ele>349.33</ele>
        <time>2022-07-04T07:08:02Z</time>
      </trkpt>
      <trkpt lat="47.75084" lon="4.9775">
        <ele>348.93</ele>
        <time>2022-07-04T07:08:06Z</time>
      </trkpt>
      <trkpt lat="47.75086" lon="4.97747">
        <ele>348.58</ele>
        <time>2022-07-04T07:08:08Z</time>
      </trkpt>
      <trkpt lat="47.75089" lon="4.97745">
        <ele>348.13</ele>
        <time>2022-07-04T07:08:11Z</time>
      </trkpt>
      <trkpt lat="47.75092" lon="4.97746">
        <ele>347.83</ele>
        <time>2022-07-04T07:08:13Z</time>
      </trkpt>
      <trkpt lat="47.75095" lon="4.97745">
        <ele>347.41</ele>
        <time>2022-07-04T07:08:17Z</time>
      </trkpt>
      <trkpt lat="47.75098" lon="4.97745">
        <ele>347.05</ele>
        <time>2022-07-04T07:08:19Z</time>
      </trkpt>
      <trkpt lat="47.75101" lon="4.97745">
        <ele>346.68</ele>
        <time>2022-07-04T07:08:22Z</time>
      </trkpt>
      <trkpt lat="47.75103" lon="4.97745">
        <ele>346.44</ele>
        <time>2022-07-04T07:08:24Z</time>
      </trkpt>
      <trkpt lat="47.75106" lon="4.97745">
        <ele>346.08</ele>
        <time>2022-07-04T07:08:28Z</time>
      </trkpt>
      <trkpt lat="47.75109" lon="4.97746">
        <ele>345.82</ele>
        <time>2022-07-04T07:08:33Z</time>
      </trkpt>
      <trkpt lat="47.75112" lon="4.97747">
        <ele>345.53</ele>
        <time>2022-07-04T07:08:36Z</time>
      </trkpt>
      <trkpt lat="47.75115" lon="4.97747">
        <ele>345.02</ele>
        <time>2022-07-04T07:08:39Z</time>
      </trkpt>
      <trkpt lat="47.75118" lon="4.97749">
        <ele>344.68</ele>
        <time>2022-07-04T07:08:55Z</time>
      </trkpt>
      <trkpt lat="47.75119" lon="4.97753">
        <ele>344.73</ele>
        <time>2022-07-04T07:09:00Z</time>
      </trkpt>
      <trkpt lat="47.75121" lon="4.97756">
        <ele>344.5</ele>
        <time>2022-07-04T07:09:11Z</time>
      </trkpt>
      <trkpt lat="47.75123" lon="4.97755">
        <ele>344.07</ele>
        <time>2022-07-04T07:10:11Z</time>
      </trkpt>
      <trkpt lat="47.75125" lon="4.97758">
        <ele>343.79</ele>
        <time>2022-07-04T07:11:06Z</time>
      </trkpt>
      <trkpt lat="47.75126" lon="4.97762">
        <ele>343.72</ele>
        <time>2022-07-04T07:11:16Z</time>
      </trkpt>
      <trkpt lat="47.75123" lon="4.97762">
        <ele>344.35</ele>
        <time>2022-07-04T07:13:05Z</time>
      </trkpt>
      <trkpt lat="47.7512" lon="4.97762">
        <ele>344.99</ele>
        <time>2022-07-04T07:13:11Z</time>
      </trkpt>
      <trkpt lat="47.75119" lon="4.97758">
        <ele>344.99</ele>
        <time>2022-07-04T07:14:01Z</time>
      </trkpt>
      <trkpt lat="47.75121" lon="4.97761">
        <ele>344.73</ele>
        <time>2022-07-04T07:14:54Z</time>
      </trkpt>
      <trkpt lat="47.75123" lon="4.97759">
        <ele>344.23</ele>
        <time>2022-07-04T07:17:23Z</time>
      </trkpt>
      <trkpt lat="47.75123" lon="4.97755">
        <ele>344.07</ele>
        <time>2022-07-04T07:17:29Z</time>
      </trkpt>
      <trkpt lat="47.75121" lon="4.97753">
        <ele>344.36</ele>
        <time>2022-07-04T07:18:06Z</time>
      </trkpt>
      <trkpt lat="47.75118" lon="4.97751">
        <ele>344.81</ele>
        <time>2022-07-04T07:18:10Z</time>
      </trkpt>
      <trkpt lat="47.75115" lon="4.97751">
        <ele>345.36</ele>
        <time>2022-07-04T07:18:13Z</time>
      </trkpt>
      <trkpt lat="47.75112" lon="4.97751">
        <ele>345.91</ele>
        <time>2022-07-04T07:18:16Z</time>
      </trkpt>
      <trkpt lat="47.75109" lon="4.97751">
        <ele>346.3</ele>
        <time>2022-07-04T07:18:19Z</time>
      </trkpt>
      <trkpt lat="47.75105" lon="4.97752">
        <ele>346.8</ele>
        <time>2022-07-04T07:18:21Z</time>
      </trkpt>
      <trkpt lat="47.75103" lon="4.97753">
        <ele>347.09</ele>
        <time>2022-07-04T07:18:23Z</time>
      </trkpt>
      <trkpt lat="47.751" lon="4.97753">
        <ele>347.42</ele>
        <time>2022-07-04T07:18:26Z</time>
      </trkpt>
      <trkpt lat="47.75096" lon="4.97753">
        <ele>347.85</ele>
        <time>2022-07-04T07:18:28Z</time>
      </trkpt>
      <trkpt lat="47.75093" lon="4.97753">
        <ele>348.17</ele>
        <time>2022-07-04T07:18:31Z</time>
      </trkpt>
      <trkpt lat="47.7509" lon="4.97754">
        <ele>348.57</ele>
        <time>2022-07-04T07:18:34Z</time>
      </trkpt>
      <trkpt lat="47.75087" lon="4.97755">
        <ele>348.96</ele>
        <time>2022-07-04T07:18:37Z</time>
      </trkpt>
      <trkpt lat="47.75084" lon="4.97755">
        <ele>349.29</ele>
        <time>2022-07-04T07:18:40Z</time>
      </trkpt>
      <trkpt lat="47.75082" lon="4.97757">
        <ele>349.67</ele>
        <time>2022-07-04T07:18:43Z</time>
      </trkpt>
      <trkpt lat="47.75079" lon="4.97759">
        <ele>350.17</ele>
        <time>2022-07-04T07:18:46Z</time>
      </trkpt>
      <trkpt lat="47.75076" lon="4.97759">
        <ele>350.53</ele>
        <time>2022-07-04T07:18:48Z</time>
      </trkpt>
      <trkpt lat="47.75073" lon="4.97758">
        <ele>350.85</ele>
        <time>2022-07-04T07:18:50Z</time>
      </trkpt>
      <trkpt lat="47.7507" lon="4.97757">
        <ele>351.18</ele>
        <time>2022-07-04T07:18:53Z</time>
      </trkpt>
      <trkpt lat="47.75067" lon="4.97758">
        <ele>351.59</ele>
        <time>2022-07-04T07:18:55Z</time>
      </trkpt>
      <trkpt lat="47.75064" lon="4.97758">
        <ele>351.96</ele>
        <time>2022-07-04T07:18:57Z</time>
      </trkpt>
      <trkpt lat="47.75061" lon="4.97759">
        <ele>352.34</ele>
        <time>2022-07-04T07:19:00Z</time>
      </trkpt>
      <trkpt lat="47.75058" lon="4.97759">
        <ele>352.71</ele>
        <time>2022-07-04T07:19:03Z</time>
      </trkpt>
      <trkpt lat="47.75055" lon="4.9776">
        <ele>353.09</ele>
        <time>2022-07-04T07:19:05Z</time>
      </trkpt>
      <trkpt lat="47.75053" lon="4.9776">
        <ele>353.39</ele>
        <time>2022-07-04T07:19:08Z</time>
      </trkpt>
      <trkpt lat="47.7505" lon="4.97761">
        <ele>353.84</ele>
        <time>2022-07-04T07:19:10Z</time>
      </trkpt>
      <trkpt lat="47.75047" lon="4.97762">
        <ele>354.27</ele>
        <time>2022-07-04T07:19:12Z</time>
      </trkpt>
      <trkpt lat="47.75044" lon="4.97763">
        <ele>354.69</ele>
        <time>2022-07-04T07:19:14Z</time>
      </trkpt>
      <trkpt lat="47.75041" lon="4.97764">
        <ele>355.09</ele>
        <time>2022-07-04T07:19:16Z</time>
      </trkpt>
      <trkpt lat="47.75038" lon="4.97765">
        <ele>355.48</ele>
        <time>2022-07-04T07:19:19Z</time>
      </trkpt>
      <trkpt lat="47.75036" lon="4.97766">
        <ele>355.71</ele>
        <time>2022-07-04T07:19:21Z</time>
      </trkpt>
      <trkpt lat="47.75033" lon="4.97766">
        <ele>356.12</ele>
        <time>2022-07-04T07:19:24Z</time>
      </trkpt>
      <trkpt lat="47.7503" lon="4.97767">
        <ele>356.47</ele>
        <time>2022-07-04T07:19:26Z</time>
      </trkpt>
      <trkpt lat="47.75027" lon="4.97768">
        <ele>356.77</ele>
        <time>2022-07-04T07:19:30Z</time>
      </trkpt>
      <trkpt lat="47.75024" lon="4.9777">
        <ele>356.89</ele>
        <time>2022-07-04T07:19:32Z</time>
      </trkpt>
      <trkpt lat="47.75021" lon="4.97773">
        <ele>356.99</ele>
        <time>2022-07-04T07:19:35Z</time>
      </trkpt>
      <trkpt lat="47.75018" lon="4.97775">
        <ele>357.19</ele>
        <time>2022-07-04T07:19:38Z</time>
      </trkpt>
      <trkpt lat="47.75015" lon="4.97776">
        <ele>357.45</ele>
        <time>2022-07-04T07:19:39Z</time>
      </trkpt>
      <trkpt lat="47.75013" lon="4.97778">
        <ele>357.59</ele>
        <time>2022-07-04T07:19:42Z</time>
      </trkpt>
      <trkpt lat="47.7501" lon="4.97779">
        <ele>357.9</ele>
        <time>2022-07-04T07:19:45Z</time>
      </trkpt>
      <trkpt lat="47.75007" lon="4.97781">
        <ele>358.21</ele>
        <time>2022-07-04T07:19:47Z</time>
      </trkpt>
      <trkpt lat="47.75004" lon="4.97784">
        <ele>358.54</ele>
        <time>2022-07-04T07:19:50Z</time>
      </trkpt>
      <trkpt lat="47.75001" lon="4.97786">
        <ele>358.88</ele>
        <time>2022-07-04T07:19:52Z</time>
      </trkpt>
      <trkpt lat="47.74998" lon="4.97788">
        <ele>359.12</ele>
        <time>2022-07-04T07:19:56Z</time>
      </trkpt>
      <trkpt lat="47.74995" lon="4.97789">
        <ele>359.33</ele>
        <time>2022-07-04T07:19:59Z</time>
      </trkpt>
      <trkpt lat="47.74992" lon="4.97791">
        <ele>359.56</ele>
        <time>2022-07-04T07:20:01Z</time>
      </trkpt>
      <trkpt lat="47.74989" lon="4.97792">
        <ele>359.8</ele>
        <time>2022-07-04T07:20:05Z</time>
      </trkpt>
      <trkpt lat="47.74986" lon="4.97793">
        <ele>360.06</ele>
        <time>2022-07-04T07:20:07Z</time>
      </trkpt>
      <trkpt lat="47.74983" lon="4.97796">
        <ele>360.41</ele>
        <time>2022-07-04T07:20:11Z</time>
      </trkpt>
      <trkpt lat="47.7498" lon="4.97798">
        <ele>360.77</ele>
        <time>2022-07-04T07:20:14Z</time>
      </trkpt>
      <trkpt lat="47.74978" lon="4.97801">
        <ele>361.12</ele>
        <time>2022-07-04T07:20:15Z</time>
      </trkpt>
      <trkpt lat="47.74976" lon="4.97804">
        <ele>361.5</ele>
        <time>2022-07-04T07:20:17Z</time>
      </trkpt>
      <trkpt lat="47.74973" lon="4.97806">
        <ele>361.85</ele>
        <time>2022-07-04T07:20:20Z</time>
      </trkpt>
      <trkpt lat="47.7497" lon="4.97809">
        <ele>361.51</ele>
        <time>2022-07-04T07:20:23Z</time>
      </trkpt>
      <trkpt lat="47.74967" lon="4.97811">
        <ele>361.25</ele>
        <time>2022-07-04T07:20:25Z</time>
      </trkpt>
      <trkpt lat="47.74965" lon="4.97814">
        <ele>360.86</ele>
        <time>2022-07-04T07:20:28Z</time>
      </trkpt>
      <trkpt lat="47.74962" lon="4.97815">
        <ele>360.77</ele>
        <time>2022-07-04T07:20:31Z</time>
      </trkpt>
      <trkpt lat="47.7496" lon="4.97816">
        <ele>360.66</ele>
        <time>2022-07-04T07:20:33Z</time>
      </trkpt>
      <trkpt lat="47.74957" lon="4.97818">
        <ele>360.45</ele>
        <time>2022-07-04T07:20:35Z</time>
      </trkpt>
      <trkpt lat="47.74954" lon="4.97819">
        <ele>360.38</ele>
        <time>2022-07-04T07:20:38Z</time>
      </trkpt>
      <trkpt lat="47.74951" lon="4.9782">
        <ele>360.32</ele>
        <time>2022-07-04T07:20:40Z</time>
      </trkpt>
      <trkpt lat="47.74948" lon="4.97821">
        <ele>360.26</ele>
        <time>2022-07-04T07:20:43Z</time>
      </trkpt>
      <trkpt lat="47.74945" lon="4.97821">
        <ele>360.32</ele>
        <time>2022-07-04T07:20:47Z</time>
      </trkpt>
      <trkpt lat="47.74942" lon="4.97822">
        <ele>360.42</ele>
        <time>2022-07-04T07:20:49Z</time>
      </trkpt>
      <trkpt lat="47.74939" lon="4.97823">
        <ele>360.56</ele>
        <time>2022-07-04T07:20:52Z</time>
      </trkpt>
      <trkpt lat="47.74936" lon="4.97824">
        <ele>360.72</ele>
        <time>2022-07-04T07:20:54Z</time>
      </trkpt>
      <trkpt lat="47.74933" lon="4.97825">
        <ele>360.89</ele>
        <time>2022-07-04T07:20:56Z</time>
      </trkpt>
      <trkpt lat="47.7493" lon="4.97824">
        <ele>361.22</ele>
        <time>2022-07-04T07:21:00Z</time>
      </trkpt>
      <trkpt lat="47.74927" lon="4.97824">
        <ele>361.47</ele>
        <time>2022-07-04T07:21:02Z</time>
      </trkpt>
      <trkpt lat="47.74923" lon="4.97823">
        <ele>361.86</ele>
        <time>2022-07-04T07:21:05Z</time>
      </trkpt>
      <trkpt lat="47.7492" lon="4.97822">
        <ele>362.15</ele>
        <time>2022-07-04T07:21:07Z</time>
      </trkpt>
      <trkpt lat="47.74918" lon="4.9782">
        <ele>362.38</ele>
        <time>2022-07-04T07:21:11Z</time>
      </trkpt>
      <trkpt lat="47.74915" lon="4.97821">
        <ele>362.35</ele>
        <time>2022-07-04T07:21:29Z</time>
      </trkpt>
      <trkpt lat="47.74912" lon="4.97821">
        <ele>362.18</ele>
        <time>2022-07-04T07:21:32Z</time>
      </trkpt>
      <trkpt lat="47.74909" lon="4.9782">
        <ele>362.06</ele>
        <time>2022-07-04T07:21:33Z</time>
      </trkpt>
      <trkpt lat="47.74906" lon="4.97819">
        <ele>361.95</ele>
        <time>2022-07-04T07:21:36Z</time>
      </trkpt>
      <trkpt lat="47.74903" lon="4.97819">
        <ele>361.79</ele>
        <time>2022-07-04T07:21:38Z</time>
      </trkpt>
      <trkpt lat="47.749" lon="4.97817">
        <ele>361.74</ele>
        <time>2022-07-04T07:21:41Z</time>
      </trkpt>
      <trkpt lat="47.74897" lon="4.97817">
        <ele>361.59</ele>
        <time>2022-07-04T07:21:44Z</time>
      </trkpt>
      <trkpt lat="47.74893" lon="4.97815">
        <ele>361.52</ele>
        <time>2022-07-04T07:21:47Z</time>
      </trkpt>
      <trkpt lat="47.7489" lon="4.97814">
        <ele>361.44</ele>
        <time>2022-07-04T07:21:50Z</time>
      </trkpt>
      <trkpt lat="47.74888" lon="4.97812">
        <ele>361.57</ele>
        <time>2022-07-04T07:21:52Z</time>
      </trkpt>
      <trkpt lat="47.74885" lon="4.97811">
        <ele>361.75</ele>
        <time>2022-07-04T07:21:54Z</time>
      </trkpt>
      <trkpt lat="47.74882" lon="4.9781">
        <ele>361.93</ele>
        <time>2022-07-04T07:21:56Z</time>
      </trkpt>
      <trkpt lat="47.74879" lon="4.97809">
        <ele>362.11</ele>
        <time>2022-07-04T07:21:59Z</time>
      </trkpt>
      <trkpt lat="47.74876" lon="4.97807">
        <ele>362.36</ele>
        <time>2022-07-04T07:22:03Z</time>
      </trkpt>
      <trkpt lat="47.74873" lon="4.97806">
        <ele>362.54</ele>
        <time>2022-07-04T07:22:05Z</time>
      </trkpt>
      <trkpt lat="47.7487" lon="4.97804">
        <ele>362.75</ele>
        <time>2022-07-04T07:22:08Z</time>
      </trkpt>
      <trkpt lat="47.74868" lon="4.97802">
        <ele>362.91</ele>
        <time>2022-07-04T07:22:10Z</time>
      </trkpt>
      <trkpt lat="47.74864" lon="4.97801">
        <ele>363.08</ele>
        <time>2022-07-04T07:22:13Z</time>
      </trkpt>
      <trkpt lat="47.74862" lon="4.97801">
        <ele>363.14</ele>
        <time>2022-07-04T07:22:14Z</time>
      </trkpt>
      <trkpt lat="47.74858" lon="4.97801">
        <ele>362.73</ele>
        <time>2022-07-04T07:22:17Z</time>
      </trkpt>
      <trkpt lat="47.74856" lon="4.97801">
        <ele>362.46</ele>
        <time>2022-07-04T07:22:19Z</time>
      </trkpt>
      <trkpt lat="47.74852" lon="4.97801">
        <ele>361.91</ele>
        <time>2022-07-04T07:22:22Z</time>
      </trkpt>
      <trkpt lat="47.74849" lon="4.97802">
        <ele>361.44</ele>
        <time>2022-07-04T07:22:25Z</time>
      </trkpt>
      <trkpt lat="47.74847" lon="4.97802">
        <ele>361.16</ele>
        <time>2022-07-04T07:22:27Z</time>
      </trkpt>
      <trkpt lat="47.74844" lon="4.97803">
        <ele>360.68</ele>
        <time>2022-07-04T07:22:29Z</time>
      </trkpt>
      <trkpt lat="47.74841" lon="4.97804">
        <ele>360.2</ele>
        <time>2022-07-04T07:22:32Z</time>
      </trkpt>
      <trkpt lat="47.74838" lon="4.97804">
        <ele>359.77</ele>
        <time>2022-07-04T07:22:34Z</time>
      </trkpt>
      <trkpt lat="47.74834" lon="4.97805">
        <ele>359.14</ele>
        <time>2022-07-04T07:22:37Z</time>
      </trkpt>
      <trkpt lat="47.74831" lon="4.97806">
        <ele>358.82</ele>
        <time>2022-07-04T07:22:39Z</time>
      </trkpt>
      <trkpt lat="47.74828" lon="4.97808">
        <ele>358.53</ele>
        <time>2022-07-04T07:22:42Z</time>
      </trkpt>
      <trkpt lat="47.74825" lon="4.9781">
        <ele>358.24</ele>
        <time>2022-07-04T07:22:43Z</time>
      </trkpt>
      <trkpt lat="47.74823" lon="4.97811">
        <ele>358.06</ele>
        <time>2022-07-04T07:22:45Z</time>
      </trkpt>
      <trkpt lat="47.7482" lon="4.97812">
        <ele>357.81</ele>
        <time>2022-07-04T07:22:48Z</time>
      </trkpt>
      <trkpt lat="47.74817" lon="4.97813">
        <ele>357.56</ele>
        <time>2022-07-04T07:22:51Z</time>
      </trkpt>
      <trkpt lat="47.74814" lon="4.97814">
        <ele>357.3</ele>
        <time>2022-07-04T07:22:53Z</time>
      </trkpt>
      <trkpt lat="47.74811" lon="4.97816">
        <ele>357.02</ele>
        <time>2022-07-04T07:22:55Z</time>
      </trkpt>
      <trkpt lat="47.74808" lon="4.97817">
        <ele>356.76</ele>
        <time>2022-07-04T07:22:58Z</time>
      </trkpt>
      <trkpt lat="47.74805" lon="4.97819">
        <ele>356.44</ele>
        <time>2022-07-04T07:23:00Z</time>
      </trkpt>
      <trkpt lat="47.74802" lon="4.97821">
        <ele>355.95</ele>
        <time>2022-07-04T07:23:02Z</time>
      </trkpt>
      <trkpt lat="47.74799" lon="4.97822">
        <ele>355.51</ele>
        <time>2022-07-04T07:23:05Z</time>
      </trkpt>
      <trkpt lat="47.74797" lon="4.97823">
        <ele>355.22</ele>
        <time>2022-07-04T07:23:07Z</time>
      </trkpt>
      <trkpt lat="47.74793" lon="4.97824">
        <ele>354.68</ele>
        <time>2022-07-04T07:23:09Z</time>
      </trkpt>
      <trkpt lat="47.74791" lon="4.97826">
        <ele>354.42</ele>
        <time>2022-07-04T07:23:12Z</time>
      </trkpt>
      <trkpt lat="47.74788" lon="4.97827">
        <ele>354.04</ele>
        <time>2022-07-04T07:23:14Z</time>
      </trkpt>
      <trkpt lat="47.74785" lon="4.97828">
        <ele>353.69</ele>
        <time>2022-07-04T07:23:17Z</time>
      </trkpt>
      <trkpt lat="47.74783" lon="4.97831">
        <ele>353.51</ele>
        <time>2022-07-04T07:23:19Z</time>
      </trkpt>
      <trkpt lat="47.7478" lon="4.97833">
        <ele>353.23</ele>
        <time>2022-07-04T07:23:23Z</time>
      </trkpt>
      <trkpt lat="47.74777" lon="4.97836">
        <ele>353.55</ele>
        <time>2022-07-04T07:23:25Z</time>
      </trkpt>
      <trkpt lat="47.74775" lon="4.97839">
        <ele>354.38</ele>
        <time>2022-07-04T07:23:28Z</time>
      </trkpt>
      <trkpt lat="47.74773" lon="4.97841">
        <ele>355.04</ele>
        <time>2022-07-04T07:23:30Z</time>
      </trkpt>
      <trkpt lat="47.7477" lon="4.97842">
        <ele>355.75</ele>
        <time>2022-07-04T07:23:33Z</time>
      </trkpt>
      <trkpt lat="47.74767" lon="4.97842">
        <ele>356.33</ele>
        <time>2022-07-04T07:23:35Z</time>
      </trkpt>
      <trkpt lat="47.74764" lon="4.97843">
        <ele>357.02</ele>
        <time>2022-07-04T07:23:38Z</time>
      </trkpt>
      <trkpt lat="47.74761" lon="4.97842">
        <ele>357.5</ele>
        <time>2022-07-04T07:23:40Z</time>
      </trkpt>
      <trkpt lat="47.74758" lon="4.97842">
        <ele>358.08</ele>
        <time>2022-07-04T07:23:42Z</time>
      </trkpt>
      <trkpt lat="47.74755" lon="4.97841">
        <ele>358.57</ele>
        <time>2022-07-04T07:23:45Z</time>
      </trkpt>
      <trkpt lat="47.74752" lon="4.97841">
        <ele>359.16</ele>
        <time>2022-07-04T07:23:47Z</time>
      </trkpt>
      <trkpt lat="47.74749" lon="4.97841">
        <ele>359.56</ele>
        <time>2022-07-04T07:23:50Z</time>
      </trkpt>
      <trkpt lat="47.74746" lon="4.97841">
        <ele>359.59</ele>
        <time>2022-07-04T07:23:52Z</time>
      </trkpt>
      <trkpt lat="47.74743" lon="4.97843">
        <ele>359.78</ele>
        <time>2022-07-04T07:23:54Z</time>
      </trkpt>
      <trkpt lat="47.7474" lon="4.97845">
        <ele>359.99</ele>
        <time>2022-07-04T07:23:57Z</time>
      </trkpt>
      <trkpt lat="47.74737" lon="4.97846">
        <ele>360.13</ele>
        <time>2022-07-04T07:23:59Z</time>
      </trkpt>
      <trkpt lat="47.74734" lon="4.97847">
        <ele>360.27</ele>
        <time>2022-07-04T07:24:02Z</time>
      </trkpt>
      <trkpt lat="47.74731" lon="4.97847">
        <ele>360.32</ele>
        <time>2022-07-04T07:24:03Z</time>
      </trkpt>
      <trkpt lat="47.74728" lon="4.97848">
        <ele>360.47</ele>
        <time>2022-07-04T07:24:06Z</time>
      </trkpt>
      <trkpt lat="47.74725" lon="4.97847">
        <ele>360.43</ele>
        <time>2022-07-04T07:24:08Z</time>
      </trkpt>
      <trkpt lat="47.74722" lon="4.97846">
        <ele>360.35</ele>
        <time>2022-07-04T07:24:10Z</time>
      </trkpt>
      <trkpt lat="47.74718" lon="4.97843">
        <ele>359.73</ele>
        <time>2022-07-04T07:24:13Z</time>
      </trkpt>
      <trkpt lat="47.74716" lon="4.97842">
        <ele>359.5</ele>
        <time>2022-07-04T07:24:14Z</time>
      </trkpt>
      <trkpt lat="47.74712" lon="4.97841">
        <ele>359.16</ele>
        <time>2022-07-04T07:24:17Z</time>
      </trkpt>
      <trkpt lat="47.74706" lon="4.9784">
        <ele>358.72</ele>
        <time>2022-07-04T07:24:22Z</time>
      </trkpt>
      <trkpt lat="47.74701" lon="4.9784">
        <ele>358.41</ele>
        <time>2022-07-04T07:24:24Z</time>
      </trkpt>
      <trkpt lat="47.74698" lon="4.97841">
        <ele>358.23</ele>
        <time>2022-07-04T07:24:26Z</time>
      </trkpt>
      <trkpt lat="47.74695" lon="4.97842">
        <ele>358.04</ele>
        <time>2022-07-04T07:24:28Z</time>
      </trkpt>
      <trkpt lat="47.74693" lon="4.97843">
        <ele>358.05</ele>
        <time>2022-07-04T07:24:31Z</time>
      </trkpt>
      <trkpt lat="47.74689" lon="4.97844">
        <ele>358.2</ele>
        <time>2022-07-04T07:24:35Z</time>
      </trkpt>
      <trkpt lat="47.74684" lon="4.97846">
        <ele>358.38</ele>
        <time>2022-07-04T07:24:38Z</time>
      </trkpt>
      <trkpt lat="47.74677" lon="4.97849">
        <ele>358.63</ele>
        <time>2022-07-04T07:24:44Z</time>
      </trkpt>
      <trkpt lat="47.74672" lon="4.97852">
        <ele>358.81</ele>
        <time>2022-07-04T07:24:47Z</time>
      </trkpt>
      <trkpt lat="47.74667" lon="4.97857">
        <ele>358.99</ele>
        <time>2022-07-04T07:24:51Z</time>
      </trkpt>
      <trkpt lat="47.74662" lon="4.9786">
        <ele>358.66</ele>
        <time>2022-07-04T07:24:55Z</time>
      </trkpt>
      <trkpt lat="47.74658" lon="4.97863">
        <ele>358.44</ele>
        <time>2022-07-04T07:24:58Z</time>
      </trkpt>
      <trkpt lat="47.74653" lon="4.97867">
        <ele>358.23</ele>
        <time>2022-07-04T07:25:04Z</time>
      </trkpt>
      <trkpt lat="47.74648" lon="4.97871">
        <ele>358.01</ele>
        <time>2022-07-04T07:25:07Z</time>
      </trkpt>
      <trkpt lat="47.74645" lon="4.97873">
        <ele>357.87</ele>
        <time>2022-07-04T07:25:09Z</time>
      </trkpt>
      <trkpt lat="47.74642" lon="4.97878">
        <ele>357.83</ele>
        <time>2022-07-04T07:25:12Z</time>
      </trkpt>
      <trkpt lat="47.74639" lon="4.97882">
        <ele>357.76</ele>
        <time>2022-07-04T07:25:16Z</time>
      </trkpt>
      <trkpt lat="47.74637" lon="4.97884">
        <ele>357.96</ele>
        <time>2022-07-04T07:25:18Z</time>
      </trkpt>
      <trkpt lat="47.74634" lon="4.97886">
        <ele>358.25</ele>
        <time>2022-07-04T07:25:20Z</time>
      </trkpt>
      <trkpt lat="47.74632" lon="4.97889">
        <ele>358.5</ele>
        <time>2022-07-04T07:25:23Z</time>
      </trkpt>
      <trkpt lat="47.74629" lon="4.97891">
        <ele>358.77</ele>
        <time>2022-07-04T07:25:24Z</time>
      </trkpt>
      <trkpt lat="47.74627" lon="4.97892">
        <ele>358.95</ele>
        <time>2022-07-04T07:25:27Z</time>
      </trkpt>
      <trkpt lat="47.74623" lon="4.97892">
        <ele>359.27</ele>
        <time>2022-07-04T07:25:30Z</time>
      </trkpt>
      <trkpt lat="47.7462" lon="4.9789">
        <ele>359.41</ele>
        <time>2022-07-04T07:25:32Z</time>
      </trkpt>
      <trkpt lat="47.74618" lon="4.97889">
        <ele>359.51</ele>
        <time>2022-07-04T07:25:33Z</time>
      </trkpt>
      <trkpt lat="47.74611" lon="4.97888">
        <ele>359.98</ele>
        <time>2022-07-04T07:25:40Z</time>
      </trkpt>
      <trkpt lat="47.74607" lon="4.97887">
        <ele>360.53</ele>
        <time>2022-07-04T07:25:42Z</time>
      </trkpt>
      <trkpt lat="47.74605" lon="4.97886">
        <ele>360.8</ele>
        <time>2022-07-04T07:25:44Z</time>
      </trkpt>
      <trkpt lat="47.74602" lon="4.97884">
        <ele>361.19</ele>
        <time>2022-07-04T07:25:48Z</time>
      </trkpt>
      <trkpt lat="47.74599" lon="4.97882">
        <ele>361.6</ele>
        <time>2022-07-04T07:25:50Z</time>
      </trkpt>
      <trkpt lat="47.74595" lon="4.9788">
        <ele>362.19</ele>
        <time>2022-07-04T07:25:53Z</time>
      </trkpt>
      <trkpt lat="47.7459" lon="4.97875">
        <ele>362.92</ele>
        <time>2022-07-04T07:25:56Z</time>
      </trkpt>
      <trkpt lat="47.74586" lon="4.97872">
        <ele>363.56</ele>
        <time>2022-07-04T07:26:01Z</time>
      </trkpt>
      <trkpt lat="47.74582" lon="4.97868">
        <ele>364.16</ele>
        <time>2022-07-04T07:26:04Z</time>
      </trkpt>
      <trkpt lat="47.74578" lon="4.97866">
        <ele>364.61</ele>
        <time>2022-07-04T07:26:06Z</time>
      </trkpt>
      <trkpt lat="47.74576" lon="4.97863">
        <ele>364.81</ele>
        <time>2022-07-04T07:26:09Z</time>
      </trkpt>
      <trkpt lat="47.74573" lon="4.97861">
        <ele>365.12</ele>
        <time>2022-07-04T07:26:12Z</time>
      </trkpt>
      <trkpt lat="47.7457" lon="4.97857">
        <ele>365.45</ele>
        <time>2022-07-04T07:26:15Z</time>
      </trkpt>
      <trkpt lat="47.74567" lon="4.97853">
        <ele>365.71</ele>
        <time>2022-07-04T07:26:18Z</time>
      </trkpt>
      <trkpt lat="47.74564" lon="4.9785">
        <ele>365.93</ele>
        <time>2022-07-04T07:26:20Z</time>
      </trkpt>
      <trkpt lat="47.74562" lon="4.97847">
        <ele>366.03</ele>
        <time>2022-07-04T07:26:22Z</time>
      </trkpt>
      <trkpt lat="47.74559" lon="4.97844">
        <ele>366.16</ele>
        <time>2022-07-04T07:26:25Z</time>
      </trkpt>
      <trkpt lat="47.74555" lon="4.97841">
        <ele>366.37</ele>
        <time>2022-07-04T07:26:28Z</time>
      </trkpt>
      <trkpt lat="47.74552" lon="4.97838">
        <ele>366.79</ele>
        <time>2022-07-04T07:26:31Z</time>
      </trkpt>
      <trkpt lat="47.7455" lon="4.97836">
        <ele>367.08</ele>
        <time>2022-07-04T07:26:32Z</time>
      </trkpt>
      <trkpt lat="47.74548" lon="4.97833">
        <ele>367.38</ele>
        <time>2022-07-04T07:26:34Z</time>
      </trkpt>
      <trkpt lat="47.74543" lon="4.97828">
        <ele>368.64</ele>
        <time>2022-07-04T07:26:39Z</time>
      </trkpt>
      <trkpt lat="47.74538" lon="4.97822">
        <ele>369.98</ele>
        <time>2022-07-04T07:26:44Z</time>
      </trkpt>
      <trkpt lat="47.74534" lon="4.97816">
        <ele>371.13</ele>
        <time>2022-07-04T07:26:48Z</time>
      </trkpt>
      <trkpt lat="47.74529" lon="4.97811">
        <ele>372.39</ele>
        <time>2022-07-04T07:26:52Z</time>
      </trkpt>
      <trkpt lat="47.74526" lon="4.97806">
        <ele>373.03</ele>
        <time>2022-07-04T07:26:55Z</time>
      </trkpt>
      <trkpt lat="47.74524" lon="4.97803">
        <ele>373.02</ele>
        <time>2022-07-04T07:26:57Z</time>
      </trkpt>
      <trkpt lat="47.74521" lon="4.97799">
        <ele>372.89</ele>
        <time>2022-07-04T07:27:00Z</time>
      </trkpt>
      <trkpt lat="47.74518" lon="4.97796">
        <ele>372.77</ele>
        <time>2022-07-04T07:27:03Z</time>
      </trkpt>
      <trkpt lat="47.74516" lon="4.97794">
        <ele>372.66</ele>
        <time>2022-07-04T07:27:05Z</time>
      </trkpt>
      <trkpt lat="47.74511" lon="4.97789">
        <ele>372.29</ele>
        <time>2022-07-04T07:27:10Z</time>
      </trkpt>
      <trkpt lat="47.74507" lon="4.97784">
        <ele>371.81</ele>
        <time>2022-07-04T07:27:14Z</time>
      </trkpt>
      <trkpt lat="47.74504" lon="4.97781">
        <ele>371.46</ele>
        <time>2022-07-04T07:27:16Z</time>
      </trkpt>
      <trkpt lat="47.74502" lon="4.97778">
        <ele>371.09</ele>
        <time>2022-07-04T07:27:18Z</time>
      </trkpt>
      <trkpt lat="47.74498" lon="4.97774">
        <ele>370.72</ele>
        <time>2022-07-04T07:27:22Z</time>
      </trkpt>
      <trkpt lat="47.74492" lon="4.97768">
        <ele>370.84</ele>
        <time>2022-07-04T07:27:27Z</time>
      </trkpt>
      <trkpt lat="47.74489" lon="4.97766">
        <ele>371.13</ele>
        <time>2022-07-04T07:27:30Z</time>
      </trkpt>
      <trkpt lat="47.74486" lon="4.97764">
        <ele>371.52</ele>
        <time>2022-07-04T07:27:32Z</time>
      </trkpt>
      <trkpt lat="47.74484" lon="4.97762">
        <ele>371.84</ele>
        <time>2022-07-04T07:27:34Z</time>
      </trkpt>
      <trkpt lat="47.74481" lon="4.9776">
        <ele>372.39</ele>
        <time>2022-07-04T07:27:36Z</time>
      </trkpt>
      <trkpt lat="47.74477" lon="4.97758">
        <ele>373.23</ele>
        <time>2022-07-04T07:27:39Z</time>
      </trkpt>
      <trkpt lat="47.74475" lon="4.97756">
        <ele>373.78</ele>
        <time>2022-07-04T07:27:42Z</time>
      </trkpt>
      <trkpt lat="47.74472" lon="4.97754">
        <ele>374.6</ele>
        <time>2022-07-04T07:27:44Z</time>
      </trkpt>
      <trkpt lat="47.7447" lon="4.97752">
        <ele>375.13</ele>
        <time>2022-07-04T07:27:46Z</time>
      </trkpt>
      <trkpt lat="47.74467" lon="4.97749">
        <ele>375.68</ele>
        <time>2022-07-04T07:27:48Z</time>
      </trkpt>
      <trkpt lat="47.74462" lon="4.97745">
        <ele>376.11</ele>
        <time>2022-07-04T07:27:54Z</time>
      </trkpt>
      <trkpt lat="47.74458" lon="4.97741">
        <ele>376.4</ele>
        <time>2022-07-04T07:27:58Z</time>
      </trkpt>
      <trkpt lat="47.74455" lon="4.97739">
        <ele>376.69</ele>
        <time>2022-07-04T07:28:00Z</time>
      </trkpt>
      <trkpt lat="47.74452" lon="4.97737">
        <ele>376.98</ele>
        <time>2022-07-04T07:28:02Z</time>
      </trkpt>
      <trkpt lat="47.74448" lon="4.97735">
        <ele>377.41</ele>
        <time>2022-07-04T07:28:05Z</time>
      </trkpt>
      <trkpt lat="47.74445" lon="4.97733">
        <ele>377.7</ele>
        <time>2022-07-04T07:28:08Z</time>
      </trkpt>
      <trkpt lat="47.74442" lon="4.97731">
        <ele>377.75</ele>
        <time>2022-07-04T07:28:10Z</time>
      </trkpt>
      <trkpt lat="47.7444" lon="4.9773">
        <ele>377.76</ele>
        <time>2022-07-04T07:28:11Z</time>
      </trkpt>
      <trkpt lat="47.74437" lon="4.97727">
        <ele>377.66</ele>
        <time>2022-07-04T07:28:14Z</time>
      </trkpt>
      <trkpt lat="47.74435" lon="4.97725">
        <ele>377.57</ele>
        <time>2022-07-04T07:28:16Z</time>
      </trkpt>
      <trkpt lat="47.74431" lon="4.97723">
        <ele>377.55</ele>
        <time>2022-07-04T07:28:20Z</time>
      </trkpt>
      <trkpt lat="47.74427" lon="4.9772">
        <ele>377.35</ele>
        <time>2022-07-04T07:28:23Z</time>
      </trkpt>
      <trkpt lat="47.74422" lon="4.97716">
        <ele>377.19</ele>
        <time>2022-07-04T07:28:27Z</time>
      </trkpt>
      <trkpt lat="47.74419" lon="4.97712">
        <ele>377.06</ele>
        <time>2022-07-04T07:28:31Z</time>
      </trkpt>
      <trkpt lat="47.74416" lon="4.97709">
        <ele>377.08</ele>
        <time>2022-07-04T07:28:33Z</time>
      </trkpt>
      <trkpt lat="47.74414" lon="4.97706">
        <ele>376.98</ele>
        <time>2022-07-04T07:28:35Z</time>
      </trkpt>
      <trkpt lat="47.74411" lon="4.97702">
        <ele>376.9</ele>
        <time>2022-07-04T07:28:38Z</time>
      </trkpt>
      <trkpt lat="47.74408" lon="4.97699">
        <ele>376.9</ele>
        <time>2022-07-04T07:28:40Z</time>
      </trkpt>
      <trkpt lat="47.74406" lon="4.97695">
        <ele>376.8</ele>
        <time>2022-07-04T07:28:43Z</time>
      </trkpt>
      <trkpt lat="47.74403" lon="4.97692">
        <ele>377.07</ele>
        <time>2022-07-04T07:28:46Z</time>
      </trkpt>
      <trkpt lat="47.74401" lon="4.9769">
        <ele>377.33</ele>
        <time>2022-07-04T07:28:47Z</time>
      </trkpt>
      <trkpt lat="47.74398" lon="4.97687">
        <ele>377.8</ele>
        <time>2022-07-04T07:28:50Z</time>
      </trkpt>
      <trkpt lat="47.74396" lon="4.97684">
        <ele>378.23</ele>
        <time>2022-07-04T07:28:52Z</time>
      </trkpt>
      <trkpt lat="47.74394" lon="4.97681">
        <ele>378.73</ele>
        <time>2022-07-04T07:28:54Z</time>
      </trkpt>
      <trkpt lat="47.74392" lon="4.97678">
        <ele>379.29</ele>
        <time>2022-07-04T07:28:57Z</time>
      </trkpt>
      <trkpt lat="47.74388" lon="4.97673">
        <ele>380.39</ele>
        <time>2022-07-04T07:29:00Z</time>
      </trkpt>
      <trkpt lat="47.74386" lon="4.9767">
        <ele>380.87</ele>
        <time>2022-07-04T07:29:02Z</time>
      </trkpt>
      <trkpt lat="47.74384" lon="4.97667">
        <ele>381.32</ele>
        <time>2022-07-04T07:29:05Z</time>
      </trkpt>
      <trkpt lat="47.74381" lon="4.97661">
        <ele>380.9</ele>
        <time>2022-07-04T07:29:10Z</time>
      </trkpt>
      <trkpt lat="47.74378" lon="4.97656">
        <ele>380.48</ele>
        <time>2022-07-04T07:29:13Z</time>
      </trkpt>
      <trkpt lat="47.74376" lon="4.97653">
        <ele>380.22</ele>
        <time>2022-07-04T07:29:14Z</time>
      </trkpt>
      <trkpt lat="47.74374" lon="4.9765">
        <ele>379.95</ele>
        <time>2022-07-04T07:29:16Z</time>
      </trkpt>
      <trkpt lat="47.74371" lon="4.97646">
        <ele>379.58</ele>
        <time>2022-07-04T07:29:20Z</time>
      </trkpt>
      <trkpt lat="47.74368" lon="4.97643">
        <ele>379.31</ele>
        <time>2022-07-04T07:29:23Z</time>
      </trkpt>
      <trkpt lat="47.74366" lon="4.9764">
        <ele>378.98</ele>
        <time>2022-07-04T07:29:25Z</time>
      </trkpt>
      <trkpt lat="47.74364" lon="4.97637">
        <ele>378.62</ele>
        <time>2022-07-04T07:29:27Z</time>
      </trkpt>
      <trkpt lat="47.74362" lon="4.97633">
        <ele>378.12</ele>
        <time>2022-07-04T07:29:30Z</time>
      </trkpt>
      <trkpt lat="47.7436" lon="4.9763">
        <ele>377.59</ele>
        <time>2022-07-04T07:29:32Z</time>
      </trkpt>
      <trkpt lat="47.74356" lon="4.97625">
        <ele>376.45</ele>
        <time>2022-07-04T07:29:36Z</time>
      </trkpt>
      <trkpt lat="47.74354" lon="4.97622">
        <ele>375.86</ele>
        <time>2022-07-04T07:29:38Z</time>
      </trkpt>
      <trkpt lat="47.74352" lon="4.97619">
        <ele>375.29</ele>
        <time>2022-07-04T07:29:41Z</time>
      </trkpt>
      <trkpt lat="47.7435" lon="4.97616">
        <ele>374.76</ele>
        <time>2022-07-04T07:29:43Z</time>
      </trkpt>
      <trkpt lat="47.74346" lon="4.97612">
        <ele>374.01</ele>
        <time>2022-07-04T07:29:47Z</time>
      </trkpt>
      <trkpt lat="47.74343" lon="4.97608">
        <ele>373.58</ele>
        <time>2022-07-04T07:29:49Z</time>
      </trkpt>
      <trkpt lat="47.7434" lon="4.97605">
        <ele>373.26</ele>
        <time>2022-07-04T07:29:51Z</time>
      </trkpt>
      <trkpt lat="47.74338" lon="4.97602">
        <ele>373.01</ele>
        <time>2022-07-04T07:29:54Z</time>
      </trkpt>
      <trkpt lat="47.74335" lon="4.97598">
        <ele>372.65</ele>
        <time>2022-07-04T07:29:58Z</time>
      </trkpt>
      <trkpt lat="47.74331" lon="4.97593">
        <ele>372.48</ele>
        <time>2022-07-04T07:30:01Z</time>
      </trkpt>
      <trkpt lat="47.74327" lon="4.97587">
        <ele>372.7</ele>
        <time>2022-07-04T07:30:06Z</time>
      </trkpt>
      <trkpt lat="47.74322" lon="4.97581">
        <ele>373.27</ele>
        <time>2022-07-04T07:30:12Z</time>
      </trkpt>
      <trkpt lat="47.74318" lon="4.97575">
        <ele>373.79</ele>
        <time>2022-07-04T07:30:15Z</time>
      </trkpt>
      <trkpt lat="47.74316" lon="4.97571">
        <ele>374.04</ele>
        <time>2022-07-04T07:30:18Z</time>
      </trkpt>
      <trkpt lat="47.74314" lon="4.97568">
        <ele>374.26</ele>
        <time>2022-07-04T07:30:20Z</time>
      </trkpt>
      <trkpt lat="47.74312" lon="4.97564">
        <ele>374.47</ele>
        <time>2022-07-04T07:30:23Z</time>
      </trkpt>
      <trkpt lat="47.74309" lon="4.97561">
        <ele>374.73</ele>
        <time>2022-07-04T07:30:25Z</time>
      </trkpt>
      <trkpt lat="47.74306" lon="4.97558">
        <ele>374.97</ele>
        <time>2022-07-04T07:30:27Z</time>
      </trkpt>
      <trkpt lat="47.74304" lon="4.97554">
        <ele>375.12</ele>
        <time>2022-07-04T07:30:30Z</time>
      </trkpt>
      <trkpt lat="47.74301" lon="4.9755">
        <ele>375.4</ele>
        <time>2022-07-04T07:30:33Z</time>
      </trkpt>
      <trkpt lat="47.74298" lon="4.97545">
        <ele>375.76</ele>
        <time>2022-07-04T07:30:37Z</time>
      </trkpt>
      <trkpt lat="47.74295" lon="4.97541">
        <ele>376.1</ele>
        <time>2022-07-04T07:30:40Z</time>
      </trkpt>
      <trkpt lat="47.74292" lon="4.97536">
        <ele>376.54</ele>
        <time>2022-07-04T07:30:44Z</time>
      </trkpt>
      <trkpt lat="47.7429" lon="4.97532">
        <ele>376.88</ele>
        <time>2022-07-04T07:30:46Z</time>
      </trkpt>
      <trkpt lat="47.74288" lon="4.97529">
        <ele>377.19</ele>
        <time>2022-07-04T07:30:49Z</time>
      </trkpt>
      <trkpt lat="47.74286" lon="4.97526">
        <ele>377.34</ele>
        <time>2022-07-04T07:30:51Z</time>
      </trkpt>
      <trkpt lat="47.74284" lon="4.97522">
        <ele>377.34</ele>
        <time>2022-07-04T07:30:53Z</time>
      </trkpt>
      <trkpt lat="47.74282" lon="4.97518">
        <ele>377.34</ele>
        <time>2022-07-04T07:30:56Z</time>
      </trkpt>
      <trkpt lat="47.7428" lon="4.97515">
        <ele>377.38</ele>
        <time>2022-07-04T07:30:59Z</time>
      </trkpt>
      <trkpt lat="47.74278" lon="4.97511">
        <ele>377.38</ele>
        <time>2022-07-04T07:31:02Z</time>
      </trkpt>
      <trkpt lat="47.74277" lon="4.97508">
        <ele>377.3</ele>
        <time>2022-07-04T07:31:04Z</time>
      </trkpt>
      <trkpt lat="47.74275" lon="4.97505">
        <ele>377.2</ele>
        <time>2022-07-04T07:31:05Z</time>
      </trkpt>
      <trkpt lat="47.74273" lon="4.97501">
        <ele>377.04</ele>
        <time>2022-07-04T07:31:08Z</time>
      </trkpt>
      <trkpt lat="47.74271" lon="4.97496">
        <ele>376.78</ele>
        <time>2022-07-04T07:31:11Z</time>
      </trkpt>
      <trkpt lat="47.74269" lon="4.97491">
        <ele>376.56</ele>
        <time>2022-07-04T07:31:14Z</time>
      </trkpt>
      <trkpt lat="47.74266" lon="4.97485">
        <ele>376.38</ele>
        <time>2022-07-04T07:31:18Z</time>
      </trkpt>
      <trkpt lat="47.74264" lon="4.97481">
        <ele>376.31</ele>
        <time>2022-07-04T07:31:20Z</time>
      </trkpt>
      <trkpt lat="47.74262" lon="4.97477">
        <ele>376.28</ele>
        <time>2022-07-04T07:31:23Z</time>
      </trkpt>
      <trkpt lat="47.7426" lon="4.97472">
        <ele>376.28</ele>
        <time>2022-07-04T07:31:26Z</time>
      </trkpt>
      <trkpt lat="47.74257" lon="4.97465">
        <ele>376.43</ele>
        <time>2022-07-04T07:31:29Z</time>
      </trkpt>
      <trkpt lat="47.74255" lon="4.97458">
        <ele>376.55</ele>
        <time>2022-07-04T07:31:34Z</time>
      </trkpt>
      <trkpt lat="47.74253" lon="4.97454">
        <ele>376.71</ele>
        <time>2022-07-04T07:31:36Z</time>
      </trkpt>
      <trkpt lat="47.74251" lon="4.9745">
        <ele>376.9</ele>
        <time>2022-07-04T07:31:39Z</time>
      </trkpt>
      <trkpt lat="47.7425" lon="4.97446">
        <ele>377</ele>
        <time>2022-07-04T07:31:41Z</time>
      </trkpt>
      <trkpt lat="47.74248" lon="4.97442">
        <ele>376.92</ele>
        <time>2022-07-04T07:31:43Z</time>
      </trkpt>
      <trkpt lat="47.74246" lon="4.97437">
        <ele>376.77</ele>
        <time>2022-07-04T07:31:47Z</time>
      </trkpt>
      <trkpt lat="47.74245" lon="4.97434">
        <ele>376.69</ele>
        <time>2022-07-04T07:31:49Z</time>
      </trkpt>
      <trkpt lat="47.74243" lon="4.97428">
        <ele>376.56</ele>
        <time>2022-07-04T07:31:52Z</time>
      </trkpt>
      <trkpt lat="47.74241" lon="4.97425">
        <ele>376.53</ele>
        <time>2022-07-04T07:31:54Z</time>
      </trkpt>
      <trkpt lat="47.7424" lon="4.97421">
        <ele>376.46</ele>
        <time>2022-07-04T07:31:56Z</time>
      </trkpt>
      <trkpt lat="47.74238" lon="4.97418">
        <ele>376.46</ele>
        <time>2022-07-04T07:31:59Z</time>
      </trkpt>
      <trkpt lat="47.74236" lon="4.97414">
        <ele>376.5</ele>
        <time>2022-07-04T07:32:01Z</time>
      </trkpt>
      <trkpt lat="47.74233" lon="4.97411">
        <ele>376.61</ele>
        <time>2022-07-04T07:32:03Z</time>
      </trkpt>
      <trkpt lat="47.74231" lon="4.97407">
        <ele>376.68</ele>
        <time>2022-07-04T07:32:06Z</time>
      </trkpt>
      <trkpt lat="47.74229" lon="4.97404">
        <ele>376.76</ele>
        <time>2022-07-04T07:32:08Z</time>
      </trkpt>
      <trkpt lat="47.74227" lon="4.97401">
        <ele>376.83</ele>
        <time>2022-07-04T07:32:12Z</time>
      </trkpt>
      <trkpt lat="47.74224" lon="4.97397">
        <ele>376.94</ele>
        <time>2022-07-04T07:32:14Z</time>
      </trkpt>
      <trkpt lat="47.74222" lon="4.97394">
        <ele>376.99</ele>
        <time>2022-07-04T07:32:16Z</time>
      </trkpt>
      <trkpt lat="47.74221" lon="4.97391">
        <ele>376.96</ele>
        <time>2022-07-04T07:32:19Z</time>
      </trkpt>
      <trkpt lat="47.74218" lon="4.97387">
        <ele>376.9</ele>
        <time>2022-07-04T07:32:21Z</time>
      </trkpt>
      <trkpt lat="47.74216" lon="4.97383">
        <ele>376.89</ele>
        <time>2022-07-04T07:32:24Z</time>
      </trkpt>
      <trkpt lat="47.74215" lon="4.97377">
        <ele>376.95</ele>
        <time>2022-07-04T07:32:27Z</time>
      </trkpt>
      <trkpt lat="47.74212" lon="4.97372">
        <ele>376.79</ele>
        <time>2022-07-04T07:32:31Z</time>
      </trkpt>
      <trkpt lat="47.7421" lon="4.97368">
        <ele>376.65</ele>
        <time>2022-07-04T07:32:34Z</time>
      </trkpt>
      <trkpt lat="47.74208" lon="4.97363">
        <ele>376.47</ele>
        <time>2022-07-04T07:32:37Z</time>
      </trkpt>
      <trkpt lat="47.74206" lon="4.97359">
        <ele>376.1</ele>
        <time>2022-07-04T07:32:39Z</time>
      </trkpt>
      <trkpt lat="47.74204" lon="4.97354">
        <ele>375.52</ele>
        <time>2022-07-04T07:32:42Z</time>
      </trkpt>
      <trkpt lat="47.74203" lon="4.97351">
        <ele>375.2</ele>
        <time>2022-07-04T07:32:44Z</time>
      </trkpt>
      <trkpt lat="47.74202" lon="4.97346">
        <ele>374.73</ele>
        <time>2022-07-04T07:32:46Z</time>
      </trkpt>
      <trkpt lat="47.742" lon="4.97342">
        <ele>374.22</ele>
        <time>2022-07-04T07:32:49Z</time>
      </trkpt>
      <trkpt lat="47.74199" lon="4.97338">
        <ele>373.83</ele>
        <time>2022-07-04T07:32:51Z</time>
      </trkpt>
      <trkpt lat="47.74198" lon="4.97333">
        <ele>373.39</ele>
        <time>2022-07-04T07:32:54Z</time>
      </trkpt>
      <trkpt lat="47.74196" lon="4.97329">
        <ele>373.18</ele>
        <time>2022-07-04T07:32:56Z</time>
      </trkpt>
      <trkpt lat="47.74195" lon="4.97325">
        <ele>373.07</ele>
        <time>2022-07-04T07:32:59Z</time>
      </trkpt>
      <trkpt lat="47.74194" lon="4.97321">
        <ele>372.98</ele>
        <time>2022-07-04T07:33:01Z</time>
      </trkpt>
      <trkpt lat="47.74192" lon="4.97314">
        <ele>372.89</ele>
        <time>2022-07-04T07:33:04Z</time>
      </trkpt>
      <trkpt lat="47.7419" lon="4.97309">
        <ele>372.82</ele>
        <time>2022-07-04T07:33:07Z</time>
      </trkpt>
      <trkpt lat="47.74188" lon="4.97305">
        <ele>372.77</ele>
        <time>2022-07-04T07:33:09Z</time>
      </trkpt>
      <trkpt lat="47.74187" lon="4.97301">
        <ele>372.78</ele>
        <time>2022-07-04T07:33:13Z</time>
      </trkpt>
      <trkpt lat="47.74186" lon="4.97297">
        <ele>372.79</ele>
        <time>2022-07-04T07:33:15Z</time>
      </trkpt>
      <trkpt lat="47.74184" lon="4.97292">
        <ele>372.81</ele>
        <time>2022-07-04T07:33:17Z</time>
      </trkpt>
      <trkpt lat="47.74183" lon="4.97288">
        <ele>372.85</ele>
        <time>2022-07-04T07:33:19Z</time>
      </trkpt>
      <trkpt lat="47.74179" lon="4.97281">
        <ele>372.94</ele>
        <time>2022-07-04T07:33:24Z</time>
      </trkpt>
      <trkpt lat="47.74177" lon="4.97277">
        <ele>372.95</ele>
        <time>2022-07-04T07:33:27Z</time>
      </trkpt>
      <trkpt lat="47.74175" lon="4.97274">
        <ele>372.78</ele>
        <time>2022-07-04T07:33:30Z</time>
      </trkpt>
      <trkpt lat="47.74173" lon="4.9727">
        <ele>372.59</ele>
        <time>2022-07-04T07:33:31Z</time>
      </trkpt>
      <trkpt lat="47.74171" lon="4.97268">
        <ele>372.54</ele>
        <time>2022-07-04T07:33:34Z</time>
      </trkpt>
      <trkpt lat="47.74169" lon="4.97265">
        <ele>372.46</ele>
        <time>2022-07-04T07:33:36Z</time>
      </trkpt>
      <trkpt lat="47.74167" lon="4.9726">
        <ele>372.34</ele>
        <time>2022-07-04T07:33:39Z</time>
      </trkpt>
      <trkpt lat="47.74165" lon="4.97257">
        <ele>372.27</ele>
        <time>2022-07-04T07:33:41Z</time>
      </trkpt>
      <trkpt lat="47.74163" lon="4.97254">
        <ele>372.22</ele>
        <time>2022-07-04T07:33:42Z</time>
      </trkpt>
      <trkpt lat="47.7416" lon="4.97251">
        <ele>372.25</ele>
        <time>2022-07-04T07:33:45Z</time>
      </trkpt>
      <trkpt lat="47.74159" lon="4.97248">
        <ele>372.16</ele>
        <time>2022-07-04T07:33:47Z</time>
      </trkpt>
      <trkpt lat="47.74156" lon="4.97245">
        <ele>372.19</ele>
        <time>2022-07-04T07:33:49Z</time>
      </trkpt>
      <trkpt lat="47.74154" lon="4.97241">
        <ele>372.22</ele>
        <time>2022-07-04T07:33:52Z</time>
      </trkpt>
      <trkpt lat="47.74152" lon="4.97238">
        <ele>372.37</ele>
        <time>2022-07-04T07:33:54Z</time>
      </trkpt>
      <trkpt lat="47.74149" lon="4.97235">
        <ele>372.73</ele>
        <time>2022-07-04T07:33:58Z</time>
      </trkpt>
      <trkpt lat="47.74146" lon="4.97231">
        <ele>373.24</ele>
        <time>2022-07-04T07:34:01Z</time>
      </trkpt>
      <trkpt lat="47.74144" lon="4.97228">
        <ele>373.67</ele>
        <time>2022-07-04T07:34:03Z</time>
      </trkpt>
      <trkpt lat="47.74141" lon="4.97225">
        <ele>374.38</ele>
        <time>2022-07-04T07:34:05Z</time>
      </trkpt>
      <trkpt lat="47.74138" lon="4.97222">
        <ele>375</ele>
        <time>2022-07-04T07:34:08Z</time>
      </trkpt>
      <trkpt lat="47.74136" lon="4.9722">
        <ele>374.83</ele>
        <time>2022-07-04T07:34:10Z</time>
      </trkpt>
      <trkpt lat="47.74133" lon="4.97218">
        <ele>374.77</ele>
        <time>2022-07-04T07:34:12Z</time>
      </trkpt>
      <trkpt lat="47.74131" lon="4.97215">
        <ele>374.61</ele>
        <time>2022-07-04T07:34:16Z</time>
      </trkpt>
      <trkpt lat="47.74128" lon="4.97212">
        <ele>374.64</ele>
        <time>2022-07-04T07:34:18Z</time>
      </trkpt>
      <trkpt lat="47.74125" lon="4.97208">
        <ele>374.73</ele>
        <time>2022-07-04T07:34:22Z</time>
      </trkpt>
      <trkpt lat="47.74121" lon="4.97205">
        <ele>375.16</ele>
        <time>2022-07-04T07:34:24Z</time>
      </trkpt>
      <trkpt lat="47.74115" lon="4.97202">
        <ele>376.08</ele>
        <time>2022-07-04T07:34:31Z</time>
      </trkpt>
      <trkpt lat="47.74112" lon="4.97198">
        <ele>376.7</ele>
        <time>2022-07-04T07:34:34Z</time>
      </trkpt>
      <trkpt lat="47.7411" lon="4.97195">
        <ele>376.82</ele>
        <time>2022-07-04T07:34:36Z</time>
      </trkpt>
      <trkpt lat="47.74107" lon="4.97192">
        <ele>376.22</ele>
        <time>2022-07-04T07:34:39Z</time>
      </trkpt>
      <trkpt lat="47.74104" lon="4.97191">
        <ele>375.79</ele>
        <time>2022-07-04T07:34:40Z</time>
      </trkpt>
      <trkpt lat="47.74101" lon="4.9719">
        <ele>375.41</ele>
        <time>2022-07-04T07:34:42Z</time>
      </trkpt>
      <trkpt lat="47.74098" lon="4.97189">
        <ele>375.08</ele>
        <time>2022-07-04T07:34:44Z</time>
      </trkpt>
      <trkpt lat="47.74095" lon="4.97189">
        <ele>374.77</ele>
        <time>2022-07-04T07:34:47Z</time>
      </trkpt>
      <trkpt lat="47.74091" lon="4.97188">
        <ele>374.42</ele>
        <time>2022-07-04T07:34:50Z</time>
      </trkpt>
      <trkpt lat="47.74087" lon="4.97188">
        <ele>374.04</ele>
        <time>2022-07-04T07:34:52Z</time>
      </trkpt>
      <trkpt lat="47.74081" lon="4.97187">
        <ele>373.65</ele>
        <time>2022-07-04T07:34:57Z</time>
      </trkpt>
      <trkpt lat="47.74077" lon="4.97186">
        <ele>373.48</ele>
        <time>2022-07-04T07:35:01Z</time>
      </trkpt>
      <trkpt lat="47.74074" lon="4.97185">
        <ele>373.34</ele>
        <time>2022-07-04T07:35:04Z</time>
      </trkpt>
      <trkpt lat="47.74071" lon="4.97184">
        <ele>373.18</ele>
        <time>2022-07-04T07:35:06Z</time>
      </trkpt>
      <trkpt lat="47.74068" lon="4.97182">
        <ele>373.05</ele>
        <time>2022-07-04T07:35:08Z</time>
      </trkpt>
      <trkpt lat="47.74065" lon="4.9718">
        <ele>372.87</ele>
        <time>2022-07-04T07:35:11Z</time>
      </trkpt>
      <trkpt lat="47.74062" lon="4.97179">
        <ele>372.62</ele>
        <time>2022-07-04T07:35:14Z</time>
      </trkpt>
      <trkpt lat="47.74059" lon="4.97177">
        <ele>372.36</ele>
        <time>2022-07-04T07:35:17Z</time>
      </trkpt>
      <trkpt lat="47.74056" lon="4.97175">
        <ele>372.05</ele>
        <time>2022-07-04T07:35:19Z</time>
      </trkpt>
      <trkpt lat="47.74053" lon="4.97175">
        <ele>371.82</ele>
        <time>2022-07-04T07:35:21Z</time>
      </trkpt>
      <trkpt lat="47.7405" lon="4.97174">
        <ele>371.6</ele>
        <time>2022-07-04T07:35:23Z</time>
      </trkpt>
      <trkpt lat="47.74047" lon="4.97173">
        <ele>371.38</ele>
        <time>2022-07-04T07:35:26Z</time>
      </trkpt>
      <trkpt lat="47.74045" lon="4.97172">
        <ele>371.24</ele>
        <time>2022-07-04T07:35:28Z</time>
      </trkpt>
      <trkpt lat="47.74042" lon="4.97171">
        <ele>371.02</ele>
        <time>2022-07-04T07:35:30Z</time>
      </trkpt>
      <trkpt lat="47.74039" lon="4.97169">
        <ele>370.81</ele>
        <time>2022-07-04T07:35:33Z</time>
      </trkpt>
      <trkpt lat="47.74036" lon="4.97168">
        <ele>370.59</ele>
        <time>2022-07-04T07:35:35Z</time>
      </trkpt>
      <trkpt lat="47.74033" lon="4.97167">
        <ele>370.38</ele>
        <time>2022-07-04T07:35:39Z</time>
      </trkpt>
      <trkpt lat="47.74031" lon="4.97165">
        <ele>370.2</ele>
        <time>2022-07-04T07:35:41Z</time>
      </trkpt>
      <trkpt lat="47.74028" lon="4.97163">
        <ele>370.01</ele>
        <time>2022-07-04T07:35:43Z</time>
      </trkpt>
      <trkpt lat="47.74024" lon="4.97161">
        <ele>370.98</ele>
        <time>2022-07-04T07:35:47Z</time>
      </trkpt>
      <trkpt lat="47.74021" lon="4.9716">
        <ele>371.72</ele>
        <time>2022-07-04T07:35:49Z</time>
      </trkpt>
      <trkpt lat="47.74018" lon="4.97159">
        <ele>372.43</ele>
        <time>2022-07-04T07:35:51Z</time>
      </trkpt>
      <trkpt lat="47.74015" lon="4.97158">
        <ele>373.11</ele>
        <time>2022-07-04T07:35:53Z</time>
      </trkpt>
      <trkpt lat="47.74012" lon="4.97156">
        <ele>373.67</ele>
        <time>2022-07-04T07:35:55Z</time>
      </trkpt>
      <trkpt lat="47.74009" lon="4.97154">
        <ele>374.17</ele>
        <time>2022-07-04T07:35:58Z</time>
      </trkpt>
      <trkpt lat="47.74007" lon="4.97152">
        <ele>374.4</ele>
        <time>2022-07-04T07:36:00Z</time>
      </trkpt>
      <trkpt lat="47.74004" lon="4.9715">
        <ele>374.79</ele>
        <time>2022-07-04T07:36:02Z</time>
      </trkpt>
      <trkpt lat="47.74002" lon="4.97148">
        <ele>374.93</ele>
        <time>2022-07-04T07:36:05Z</time>
      </trkpt>
      <trkpt lat="47.74" lon="4.97145">
        <ele>374.88</ele>
        <time>2022-07-04T07:36:07Z</time>
      </trkpt>
      <trkpt lat="47.73997" lon="4.97143">
        <ele>374.98</ele>
        <time>2022-07-04T07:36:10Z</time>
      </trkpt>
      <trkpt lat="47.73994" lon="4.97141">
        <ele>375.12</ele>
        <time>2022-07-04T07:36:11Z</time>
      </trkpt>
      <trkpt lat="47.73992" lon="4.97138">
        <ele>375.06</ele>
        <time>2022-07-04T07:36:13Z</time>
      </trkpt>
      <trkpt lat="47.73989" lon="4.97136">
        <ele>375.33</ele>
        <time>2022-07-04T07:36:15Z</time>
      </trkpt>
      <trkpt lat="47.73987" lon="4.97134">
        <ele>375.5</ele>
        <time>2022-07-04T07:36:18Z</time>
      </trkpt>
      <trkpt lat="47.73984" lon="4.97132">
        <ele>375.88</ele>
        <time>2022-07-04T07:36:21Z</time>
      </trkpt>
      <trkpt lat="47.73981" lon="4.97131">
        <ele>376.38</ele>
        <time>2022-07-04T07:36:24Z</time>
      </trkpt>
      <trkpt lat="47.73978" lon="4.97129">
        <ele>376.87</ele>
        <time>2022-07-04T07:36:27Z</time>
      </trkpt>
      <trkpt lat="47.73975" lon="4.97128">
        <ele>377.44</ele>
        <time>2022-07-04T07:36:29Z</time>
      </trkpt>
      <trkpt lat="47.73973" lon="4.97127">
        <ele>377.84</ele>
        <time>2022-07-04T07:36:32Z</time>
      </trkpt>
      <trkpt lat="47.7397" lon="4.97125">
        <ele>378.44</ele>
        <time>2022-07-04T07:36:34Z</time>
      </trkpt>
      <trkpt lat="47.73967" lon="4.97122">
        <ele>378.97</ele>
        <time>2022-07-04T07:36:37Z</time>
      </trkpt>
      <trkpt lat="47.73964" lon="4.9712">
        <ele>379.47</ele>
        <time>2022-07-04T07:36:40Z</time>
      </trkpt>
      <trkpt lat="47.73961" lon="4.97117">
        <ele>379.87</ele>
        <time>2022-07-04T07:36:43Z</time>
      </trkpt>
      <trkpt lat="47.73958" lon="4.97115">
        <ele>380.26</ele>
        <time>2022-07-04T07:36:45Z</time>
      </trkpt>
      <trkpt lat="47.73955" lon="4.97112">
        <ele>380.54</ele>
        <time>2022-07-04T07:36:48Z</time>
      </trkpt>
      <trkpt lat="47.73953" lon="4.97109">
        <ele>380.41</ele>
        <time>2022-07-04T07:36:51Z</time>
      </trkpt>
      <trkpt lat="47.73951" lon="4.97107">
        <ele>380.35</ele>
        <time>2022-07-04T07:37:06Z</time>
      </trkpt>
      <trkpt lat="47.73948" lon="4.97106">
        <ele>380.59</ele>
        <time>2022-07-04T07:37:09Z</time>
      </trkpt>
      <trkpt lat="47.73946" lon="4.97102">
        <ele>380.15</ele>
        <time>2022-07-04T07:37:13Z</time>
      </trkpt>
      <trkpt lat="47.73943" lon="4.97099">
        <ele>379.89</ele>
        <time>2022-07-04T07:37:17Z</time>
      </trkpt>
      <trkpt lat="47.73941" lon="4.97096">
        <ele>379.48</ele>
        <time>2022-07-04T07:37:18Z</time>
      </trkpt>
      <trkpt lat="47.73939" lon="4.97093">
        <ele>379.12</ele>
        <time>2022-07-04T07:37:21Z</time>
      </trkpt>
      <trkpt lat="47.73936" lon="4.97089">
        <ele>378.75</ele>
        <time>2022-07-04T07:37:23Z</time>
      </trkpt>
      <trkpt lat="47.73935" lon="4.97085">
        <ele>378.26</ele>
        <time>2022-07-04T07:37:27Z</time>
      </trkpt>
      <trkpt lat="47.73933" lon="4.97081">
        <ele>377.73</ele>
        <time>2022-07-04T07:37:30Z</time>
      </trkpt>
      <trkpt lat="47.7393" lon="4.97078">
        <ele>377.41</ele>
        <time>2022-07-04T07:37:33Z</time>
      </trkpt>
      <trkpt lat="47.73928" lon="4.97076">
        <ele>377.19</ele>
        <time>2022-07-04T07:37:35Z</time>
      </trkpt>
      <trkpt lat="47.73925" lon="4.97074">
        <ele>377.08</ele>
        <time>2022-07-04T07:37:37Z</time>
      </trkpt>
      <trkpt lat="47.73923" lon="4.97071">
        <ele>376.65</ele>
        <time>2022-07-04T07:37:40Z</time>
      </trkpt>
      <trkpt lat="47.73921" lon="4.97068">
        <ele>376.22</ele>
        <time>2022-07-04T07:37:42Z</time>
      </trkpt>
      <trkpt lat="47.73918" lon="4.97064">
        <ele>375.68</ele>
        <time>2022-07-04T07:37:45Z</time>
      </trkpt>
      <trkpt lat="47.73916" lon="4.9706">
        <ele>374.98</ele>
        <time>2022-07-04T07:37:49Z</time>
      </trkpt>
      <trkpt lat="47.73914" lon="4.97056">
        <ele>374.28</ele>
        <time>2022-07-04T07:37:51Z</time>
      </trkpt>
      <trkpt lat="47.73912" lon="4.97054">
        <ele>374.1</ele>
        <time>2022-07-04T07:37:54Z</time>
      </trkpt>
      <trkpt lat="47.7391" lon="4.97051">
        <ele>373.78</ele>
        <time>2022-07-04T07:37:57Z</time>
      </trkpt>
      <trkpt lat="47.73907" lon="4.97048">
        <ele>373.51</ele>
        <time>2022-07-04T07:37:59Z</time>
      </trkpt>
      <trkpt lat="47.73904" lon="4.97046">
        <ele>373.38</ele>
        <time>2022-07-04T07:38:03Z</time>
      </trkpt>
      <trkpt lat="47.73901" lon="4.97044">
        <ele>373.23</ele>
        <time>2022-07-04T07:38:05Z</time>
      </trkpt>
      <trkpt lat="47.73899" lon="4.97042">
        <ele>373.01</ele>
        <time>2022-07-04T07:38:07Z</time>
      </trkpt>
      <trkpt lat="47.73896" lon="4.9704">
        <ele>372.83</ele>
        <time>2022-07-04T07:38:11Z</time>
      </trkpt>
      <trkpt lat="47.73893" lon="4.97038">
        <ele>372.64</ele>
        <time>2022-07-04T07:38:14Z</time>
      </trkpt>
      <trkpt lat="47.73891" lon="4.97036">
        <ele>372.38</ele>
        <time>2022-07-04T07:38:17Z</time>
      </trkpt>
      <trkpt lat="47.73888" lon="4.97035">
        <ele>372.3</ele>
        <time>2022-07-04T07:38:19Z</time>
      </trkpt>
      <trkpt lat="47.73885" lon="4.97034">
        <ele>372.11</ele>
        <time>2022-07-04T07:38:22Z</time>
      </trkpt>
      <trkpt lat="47.73882" lon="4.97033">
        <ele>371.88</ele>
        <time>2022-07-04T07:38:25Z</time>
      </trkpt>
      <trkpt lat="47.73879" lon="4.97032">
        <ele>371.62</ele>
        <time>2022-07-04T07:38:27Z</time>
      </trkpt>
      <trkpt lat="47.73876" lon="4.9703">
        <ele>371.08</ele>
        <time>2022-07-04T07:38:31Z</time>
      </trkpt>
      <trkpt lat="47.73874" lon="4.97029">
        <ele>370.78</ele>
        <time>2022-07-04T07:38:33Z</time>
      </trkpt>
      <trkpt lat="47.73871" lon="4.97028">
        <ele>370.42</ele>
        <time>2022-07-04T07:38:36Z</time>
      </trkpt>
      <trkpt lat="47.73868" lon="4.97027">
        <ele>370.22</ele>
        <time>2022-07-04T07:38:38Z</time>
      </trkpt>
      <trkpt lat="47.73865" lon="4.97027">
        <ele>370.11</ele>
        <time>2022-07-04T07:38:41Z</time>
      </trkpt>
      <trkpt lat="47.73862" lon="4.97026">
        <ele>369.97</ele>
        <time>2022-07-04T07:38:47Z</time>
      </trkpt>
      <trkpt lat="47.73859" lon="4.97025">
        <ele>369.8</ele>
        <time>2022-07-04T07:38:49Z</time>
      </trkpt>
      <trkpt lat="47.73856" lon="4.97023">
        <ele>369.55</ele>
        <time>2022-07-04T07:38:50Z</time>
      </trkpt>
      <trkpt lat="47.73853" lon="4.9702">
        <ele>369.18</ele>
        <time>2022-07-04T07:38:53Z</time>
      </trkpt>
      <trkpt lat="47.73851" lon="4.97017">
        <ele>368.82</ele>
        <time>2022-07-04T07:38:55Z</time>
      </trkpt>
      <trkpt lat="47.73848" lon="4.97014">
        <ele>368.33</ele>
        <time>2022-07-04T07:38:58Z</time>
      </trkpt>
      <trkpt lat="47.73846" lon="4.97011">
        <ele>367.87</ele>
        <time>2022-07-04T07:39:01Z</time>
      </trkpt>
      <trkpt lat="47.73844" lon="4.97008">
        <ele>367.36</ele>
        <time>2022-07-04T07:39:03Z</time>
      </trkpt>
      <trkpt lat="47.73842" lon="4.97005">
        <ele>366.8</ele>
        <time>2022-07-04T07:39:06Z</time>
      </trkpt>
      <trkpt lat="47.7384" lon="4.97003">
        <ele>366.31</ele>
        <time>2022-07-04T07:39:11Z</time>
      </trkpt>
      <trkpt lat="47.73836" lon="4.97002">
        <ele>365.65</ele>
        <time>2022-07-04T07:39:15Z</time>
      </trkpt>
      <trkpt lat="47.73833" lon="4.97001">
        <ele>365.11</ele>
        <time>2022-07-04T07:39:18Z</time>
      </trkpt>
      <trkpt lat="47.7383" lon="4.97">
        <ele>364.64</ele>
        <time>2022-07-04T07:39:20Z</time>
      </trkpt>
      <trkpt lat="47.73828" lon="4.96998">
        <ele>364.48</ele>
        <time>2022-07-04T07:39:24Z</time>
      </trkpt>
      <trkpt lat="47.73825" lon="4.96997">
        <ele>364.18</ele>
        <time>2022-07-04T07:39:27Z</time>
      </trkpt>
      <trkpt lat="47.73822" lon="4.96996">
        <ele>363.86</ele>
        <time>2022-07-04T07:39:30Z</time>
      </trkpt>
      <trkpt lat="47.73819" lon="4.96993">
        <ele>363.57</ele>
        <time>2022-07-04T07:39:32Z</time>
      </trkpt>
      <trkpt lat="47.73817" lon="4.9699">
        <ele>363.38</ele>
        <time>2022-07-04T07:39:38Z</time>
      </trkpt>
      <trkpt lat="47.73814" lon="4.96986">
        <ele>363.07</ele>
        <time>2022-07-04T07:39:41Z</time>
      </trkpt>
      <trkpt lat="47.73812" lon="4.96983">
        <ele>362.84</ele>
        <time>2022-07-04T07:39:43Z</time>
      </trkpt>
      <trkpt lat="47.73809" lon="4.96981">
        <ele>362.46</ele>
        <time>2022-07-04T07:39:46Z</time>
      </trkpt>
      <trkpt lat="47.73806" lon="4.96979">
        <ele>362.06</ele>
        <time>2022-07-04T07:39:48Z</time>
      </trkpt>
      <trkpt lat="47.73803" lon="4.96978">
        <ele>362.16</ele>
        <time>2022-07-04T07:39:51Z</time>
      </trkpt>
      <trkpt lat="47.738" lon="4.96974">
        <ele>362.39</ele>
        <time>2022-07-04T07:39:54Z</time>
      </trkpt>
      <trkpt lat="47.73798" lon="4.96972">
        <ele>362.59</ele>
        <time>2022-07-04T07:39:57Z</time>
      </trkpt>
      <trkpt lat="47.73796" lon="4.96969">
        <ele>363.26</ele>
        <time>2022-07-04T07:39:59Z</time>
      </trkpt>
      <trkpt lat="47.73793" lon="4.96966">
        <ele>363.86</ele>
        <time>2022-07-04T07:40:03Z</time>
      </trkpt>
      <trkpt lat="47.73791" lon="4.96964">
        <ele>364.19</ele>
        <time>2022-07-04T07:40:04Z</time>
      </trkpt>
      <trkpt lat="47.73788" lon="4.96961">
        <ele>364.56</ele>
        <time>2022-07-04T07:40:08Z</time>
      </trkpt>
      <trkpt lat="47.73786" lon="4.96958">
        <ele>364.83</ele>
        <time>2022-07-04T07:40:11Z</time>
      </trkpt>
      <trkpt lat="47.73782" lon="4.96955">
        <ele>364.88</ele>
        <time>2022-07-04T07:40:14Z</time>
      </trkpt>
      <trkpt lat="47.7378" lon="4.96952">
        <ele>364.92</ele>
        <time>2022-07-04T07:40:18Z</time>
      </trkpt>
      <trkpt lat="47.73777" lon="4.9695">
        <ele>364.83</ele>
        <time>2022-07-04T07:40:20Z</time>
      </trkpt>
      <trkpt lat="47.73774" lon="4.96946">
        <ele>365.08</ele>
        <time>2022-07-04T07:40:23Z</time>
      </trkpt>
      <trkpt lat="47.73772" lon="4.96944">
        <ele>365.29</ele>
        <time>2022-07-04T07:40:25Z</time>
      </trkpt>
      <trkpt lat="47.73769" lon="4.96942">
        <ele>365.76</ele>
        <time>2022-07-04T07:40:28Z</time>
      </trkpt>
      <trkpt lat="47.73767" lon="4.9694">
        <ele>366.19</ele>
        <time>2022-07-04T07:40:32Z</time>
      </trkpt>
      <trkpt lat="47.73764" lon="4.96938">
        <ele>366.66</ele>
        <time>2022-07-04T07:40:35Z</time>
      </trkpt>
      <trkpt lat="47.73761" lon="4.96936">
        <ele>367.12</ele>
        <time>2022-07-04T07:40:38Z</time>
      </trkpt>
      <trkpt lat="47.73759" lon="4.96934">
        <ele>367.56</ele>
        <time>2022-07-04T07:40:41Z</time>
      </trkpt>
      <trkpt lat="47.73755" lon="4.96933">
        <ele>367.88</ele>
        <time>2022-07-04T07:40:43Z</time>
      </trkpt>
      <trkpt lat="47.73753" lon="4.96931">
        <ele>368.31</ele>
        <time>2022-07-04T07:40:46Z</time>
      </trkpt>
      <trkpt lat="47.7375" lon="4.9693">
        <ele>368.6</ele>
        <time>2022-07-04T07:40:49Z</time>
      </trkpt>
      <trkpt lat="47.73747" lon="4.96928">
        <ele>369</ele>
        <time>2022-07-04T07:40:52Z</time>
      </trkpt>
      <trkpt lat="47.73745" lon="4.96926">
        <ele>369.38</ele>
        <time>2022-07-04T07:40:54Z</time>
      </trkpt>
      <trkpt lat="47.73742" lon="4.96923">
        <ele>369.93</ele>
        <time>2022-07-04T07:40:57Z</time>
      </trkpt>
      <trkpt lat="47.73739" lon="4.96922">
        <ele>370.12</ele>
        <time>2022-07-04T07:40:58Z</time>
      </trkpt>
      <trkpt lat="47.73736" lon="4.9692">
        <ele>370.46</ele>
        <time>2022-07-04T07:41:00Z</time>
      </trkpt>
      <trkpt lat="47.73733" lon="4.96919">
        <ele>370.63</ele>
        <time>2022-07-04T07:41:03Z</time>
      </trkpt>
      <trkpt lat="47.7373" lon="4.96918">
        <ele>370.79</ele>
        <time>2022-07-04T07:41:07Z</time>
      </trkpt>
      <trkpt lat="47.73727" lon="4.96916">
        <ele>371.12</ele>
        <time>2022-07-04T07:41:08Z</time>
      </trkpt>
      <trkpt lat="47.73725" lon="4.96914">
        <ele>371.48</ele>
        <time>2022-07-04T07:41:11Z</time>
      </trkpt>
      <trkpt lat="47.73721" lon="4.96913">
        <ele>371.74</ele>
        <time>2022-07-04T07:41:14Z</time>
      </trkpt>
      <trkpt lat="47.73719" lon="4.96911">
        <ele>372.23</ele>
        <time>2022-07-04T07:41:16Z</time>
      </trkpt>
      <trkpt lat="47.73714" lon="4.96909">
        <ele>372.89</ele>
        <time>2022-07-04T07:41:20Z</time>
      </trkpt>
      <trkpt lat="47.73711" lon="4.96908">
        <ele>373.24</ele>
        <time>2022-07-04T07:41:22Z</time>
      </trkpt>
      <trkpt lat="47.73708" lon="4.96906">
        <ele>373.75</ele>
        <time>2022-07-04T07:41:24Z</time>
      </trkpt>
      <trkpt lat="47.73705" lon="4.96905">
        <ele>374.08</ele>
        <time>2022-07-04T07:41:26Z</time>
      </trkpt>
      <trkpt lat="47.73701" lon="4.96904">
        <ele>374.46</ele>
        <time>2022-07-04T07:41:30Z</time>
      </trkpt>
      <trkpt lat="47.73698" lon="4.96903">
        <ele>374.77</ele>
        <time>2022-07-04T07:41:33Z</time>
      </trkpt>
      <trkpt lat="47.73695" lon="4.96902">
        <ele>375.08</ele>
        <time>2022-07-04T07:41:35Z</time>
      </trkpt>
      <trkpt lat="47.73693" lon="4.969">
        <ele>375.66</ele>
        <time>2022-07-04T07:41:37Z</time>
      </trkpt>
      <trkpt lat="47.7369" lon="4.96899">
        <ele>376.34</ele>
        <time>2022-07-04T07:41:40Z</time>
      </trkpt>
      <trkpt lat="47.73687" lon="4.96897">
        <ele>377.17</ele>
        <time>2022-07-04T07:41:42Z</time>
      </trkpt>
      <trkpt lat="47.73683" lon="4.96895">
        <ele>378.18</ele>
        <time>2022-07-04T07:41:45Z</time>
      </trkpt>
      <trkpt lat="47.73681" lon="4.96894">
        <ele>378.68</ele>
        <time>2022-07-04T07:41:47Z</time>
      </trkpt>
      <trkpt lat="47.73678" lon="4.96892">
        <ele>379.51</ele>
        <time>2022-07-04T07:41:49Z</time>
      </trkpt>
      <trkpt lat="47.73675" lon="4.96891">
        <ele>380.2</ele>
        <time>2022-07-04T07:41:52Z</time>
      </trkpt>
      <trkpt lat="47.73673" lon="4.96889">
        <ele>380.84</ele>
        <time>2022-07-04T07:41:54Z</time>
      </trkpt>
      <trkpt lat="47.7367" lon="4.96888">
        <ele>381.48</ele>
        <time>2022-07-04T07:41:57Z</time>
      </trkpt>
      <trkpt lat="47.73667" lon="4.96886">
        <ele>382.15</ele>
        <time>2022-07-04T07:41:59Z</time>
      </trkpt>
      <trkpt lat="47.73664" lon="4.96885">
        <ele>382.46</ele>
        <time>2022-07-04T07:42:02Z</time>
      </trkpt>
      <trkpt lat="47.73661" lon="4.96884">
        <ele>382.72</ele>
        <time>2022-07-04T07:42:05Z</time>
      </trkpt>
      <trkpt lat="47.73659" lon="4.96882">
        <ele>382.98</ele>
        <time>2022-07-04T07:42:08Z</time>
      </trkpt>
      <trkpt lat="47.73656" lon="4.96879">
        <ele>383.34</ele>
        <time>2022-07-04T07:42:10Z</time>
      </trkpt>
      <trkpt lat="47.73653" lon="4.96878">
        <ele>383.58</ele>
        <time>2022-07-04T07:42:12Z</time>
      </trkpt>
      <trkpt lat="47.7365" lon="4.96877">
        <ele>383.8</ele>
        <time>2022-07-04T07:42:15Z</time>
      </trkpt>
      <trkpt lat="47.73648" lon="4.96876">
        <ele>383.96</ele>
        <time>2022-07-04T07:42:16Z</time>
      </trkpt>
      <trkpt lat="47.73645" lon="4.96875">
        <ele>384.17</ele>
        <time>2022-07-04T07:42:19Z</time>
      </trkpt>
      <trkpt lat="47.73642" lon="4.96873">
        <ele>384.41</ele>
        <time>2022-07-04T07:42:21Z</time>
      </trkpt>
      <trkpt lat="47.7364" lon="4.96871">
        <ele>384.59</ele>
        <time>2022-07-04T07:42:22Z</time>
      </trkpt>
      <trkpt lat="47.73637" lon="4.96868">
        <ele>385.09</ele>
        <time>2022-07-04T07:42:25Z</time>
      </trkpt>
      <trkpt lat="47.73635" lon="4.96865">
        <ele>385.56</ele>
        <time>2022-07-04T07:42:28Z</time>
      </trkpt>
      <trkpt lat="47.73633" lon="4.96863">
        <ele>385.99</ele>
        <time>2022-07-04T07:42:29Z</time>
      </trkpt>
      <trkpt lat="47.7363" lon="4.96861">
        <ele>386.58</ele>
        <time>2022-07-04T07:42:32Z</time>
      </trkpt>
      <trkpt lat="47.73627" lon="4.96859">
        <ele>386.78</ele>
        <time>2022-07-04T07:42:34Z</time>
      </trkpt>
      <trkpt lat="47.73625" lon="4.96857">
        <ele>386.76</ele>
        <time>2022-07-04T07:42:36Z</time>
      </trkpt>
      <trkpt lat="47.73622" lon="4.96857">
        <ele>387.24</ele>
        <time>2022-07-04T07:42:40Z</time>
      </trkpt>
      <trkpt lat="47.73619" lon="4.96857">
        <ele>387.71</ele>
        <time>2022-07-04T07:42:43Z</time>
      </trkpt>
      <trkpt lat="47.73615" lon="4.96856">
        <ele>388.12</ele>
        <time>2022-07-04T07:42:45Z</time>
      </trkpt>
      <trkpt lat="47.73612" lon="4.96855">
        <ele>388.33</ele>
        <time>2022-07-04T07:42:48Z</time>
      </trkpt>
      <trkpt lat="47.73609" lon="4.96854">
        <ele>388.27</ele>
        <time>2022-07-04T07:42:50Z</time>
      </trkpt>
      <trkpt lat="47.73606" lon="4.96853">
        <ele>388.12</ele>
        <time>2022-07-04T07:42:55Z</time>
      </trkpt>
      <trkpt lat="47.73603" lon="4.96853">
        <ele>388.21</ele>
        <time>2022-07-04T07:42:58Z</time>
      </trkpt>
      <trkpt lat="47.736" lon="4.96852">
        <ele>388.1</ele>
        <time>2022-07-04T07:43:01Z</time>
      </trkpt>
      <trkpt lat="47.73597" lon="4.96852">
        <ele>388.2</ele>
        <time>2022-07-04T07:43:04Z</time>
      </trkpt>
      <trkpt lat="47.73594" lon="4.96853">
        <ele>388.5</ele>
        <time>2022-07-04T07:43:08Z</time>
      </trkpt>
      <trkpt lat="47.73591" lon="4.96853">
        <ele>388.59</ele>
        <time>2022-07-04T07:43:09Z</time>
      </trkpt>
      <trkpt lat="47.73588" lon="4.96853">
        <ele>388.68</ele>
        <time>2022-07-04T07:43:11Z</time>
      </trkpt>
      <trkpt lat="47.73585" lon="4.96852">
        <ele>388.63</ele>
        <time>2022-07-04T07:43:15Z</time>
      </trkpt>
      <trkpt lat="47.73582" lon="4.96852">
        <ele>388.8</ele>
        <time>2022-07-04T07:43:17Z</time>
      </trkpt>
      <trkpt lat="47.73579" lon="4.96851">
        <ele>388.91</ele>
        <time>2022-07-04T07:43:20Z</time>
      </trkpt>
      <trkpt lat="47.73575" lon="4.96849">
        <ele>388.99</ele>
        <time>2022-07-04T07:43:24Z</time>
      </trkpt>
      <trkpt lat="47.73572" lon="4.96849">
        <ele>389.25</ele>
        <time>2022-07-04T07:43:25Z</time>
      </trkpt>
      <trkpt lat="47.73569" lon="4.96849">
        <ele>389.51</ele>
        <time>2022-07-04T07:43:29Z</time>
      </trkpt>
      <trkpt lat="47.73565" lon="4.96849">
        <ele>389.86</ele>
        <time>2022-07-04T07:43:31Z</time>
      </trkpt>
      <trkpt lat="47.73562" lon="4.96849">
        <ele>390.13</ele>
        <time>2022-07-04T07:43:34Z</time>
      </trkpt>
      <trkpt lat="47.7356" lon="4.96849">
        <ele>390.3</ele>
        <time>2022-07-04T07:43:39Z</time>
      </trkpt>
      <trkpt lat="47.73557" lon="4.96847">
        <ele>390.35</ele>
        <time>2022-07-04T07:43:42Z</time>
      </trkpt>
      <trkpt lat="47.73554" lon="4.96846">
        <ele>390.46</ele>
        <time>2022-07-04T07:43:45Z</time>
      </trkpt>
      <trkpt lat="47.73552" lon="4.96846">
        <ele>390.58</ele>
        <time>2022-07-04T07:43:47Z</time>
      </trkpt>
      <trkpt lat="47.73549" lon="4.96847">
        <ele>390.84</ele>
        <time>2022-07-04T07:43:49Z</time>
      </trkpt>
      <trkpt lat="47.73546" lon="4.96848">
        <ele>391.07</ele>
        <time>2022-07-04T07:43:54Z</time>
      </trkpt>
      <trkpt lat="47.73543" lon="4.96847">
        <ele>391.16</ele>
        <time>2022-07-04T07:43:57Z</time>
      </trkpt>
      <trkpt lat="47.7354" lon="4.96846">
        <ele>391.28</ele>
        <time>2022-07-04T07:44:00Z</time>
      </trkpt>
      <trkpt lat="47.73538" lon="4.96844">
        <ele>391.32</ele>
        <time>2022-07-04T07:44:03Z</time>
      </trkpt>
      <trkpt lat="47.73535" lon="4.96841">
        <ele>391.44</ele>
        <time>2022-07-04T07:44:08Z</time>
      </trkpt>
      <trkpt lat="47.73533" lon="4.96838">
        <ele>391.53</ele>
        <time>2022-07-04T07:44:10Z</time>
      </trkpt>
      <trkpt lat="47.7353" lon="4.96837">
        <ele>391.79</ele>
        <time>2022-07-04T07:44:13Z</time>
      </trkpt>
      <trkpt lat="47.73527" lon="4.96835">
        <ele>392.05</ele>
        <time>2022-07-04T07:44:15Z</time>
      </trkpt>
      <trkpt lat="47.73524" lon="4.96833">
        <ele>392.3</ele>
        <time>2022-07-04T07:44:20Z</time>
      </trkpt>
      <trkpt lat="47.73521" lon="4.96832">
        <ele>392.6</ele>
        <time>2022-07-04T07:44:24Z</time>
      </trkpt>
      <trkpt lat="47.73518" lon="4.96832">
        <ele>392.82</ele>
        <time>2022-07-04T07:44:28Z</time>
      </trkpt>
      <trkpt lat="47.73515" lon="4.96832">
        <ele>393.04</ele>
        <time>2022-07-04T07:44:31Z</time>
      </trkpt>
      <trkpt lat="47.73512" lon="4.96831">
        <ele>393.35</ele>
        <time>2022-07-04T07:44:34Z</time>
      </trkpt>
      <trkpt lat="47.73509" lon="4.9683">
        <ele>393.67</ele>
        <time>2022-07-04T07:44:37Z</time>
      </trkpt>
      <trkpt lat="47.73506" lon="4.96829">
        <ele>394</ele>
        <time>2022-07-04T07:44:39Z</time>
      </trkpt>
      <trkpt lat="47.73503" lon="4.96827">
        <ele>394.44</ele>
        <time>2022-07-04T07:44:42Z</time>
      </trkpt>
      <trkpt lat="47.73501" lon="4.96825">
        <ele>394.82</ele>
        <time>2022-07-04T07:44:45Z</time>
      </trkpt>
      <trkpt lat="47.73498" lon="4.96824">
        <ele>395.25</ele>
        <time>2022-07-04T07:44:47Z</time>
      </trkpt>
      <trkpt lat="47.73495" lon="4.96823">
        <ele>395.72</ele>
        <time>2022-07-04T07:44:50Z</time>
      </trkpt>
      <trkpt lat="47.73492" lon="4.96822">
        <ele>396.21</ele>
        <time>2022-07-04T07:44:54Z</time>
      </trkpt>
      <trkpt lat="47.73489" lon="4.96821">
        <ele>396.7</ele>
        <time>2022-07-04T07:44:57Z</time>
      </trkpt>
      <trkpt lat="47.73485" lon="4.9682">
        <ele>397.32</ele>
        <time>2022-07-04T07:45:01Z</time>
      </trkpt>
      <trkpt lat="47.73483" lon="4.96818">
        <ele>397.83</ele>
        <time>2022-07-04T07:45:04Z</time>
      </trkpt>
      <trkpt lat="47.73479" lon="4.96816">
        <ele>398.61</ele>
        <time>2022-07-04T07:45:06Z</time>
      </trkpt>
      <trkpt lat="47.73477" lon="4.96815">
        <ele>399.01</ele>
        <time>2022-07-04T07:45:10Z</time>
      </trkpt>
      <trkpt lat="47.73474" lon="4.96813">
        <ele>399.69</ele>
        <time>2022-07-04T07:45:14Z</time>
      </trkpt>
      <trkpt lat="47.73472" lon="4.96811">
        <ele>400.25</ele>
        <time>2022-07-04T07:45:18Z</time>
      </trkpt>
      <trkpt lat="47.73469" lon="4.96809">
        <ele>400.97</ele>
        <time>2022-07-04T07:45:22Z</time>
      </trkpt>
      <trkpt lat="47.73465" lon="4.96808">
        <ele>401.69</ele>
        <time>2022-07-04T07:45:27Z</time>
      </trkpt>
      <trkpt lat="47.73463" lon="4.96808">
        <ele>401.98</ele>
        <time>2022-07-04T07:45:30Z</time>
      </trkpt>
      <trkpt lat="47.7346" lon="4.96808">
        <ele>402.41</ele>
        <time>2022-07-04T07:45:32Z</time>
      </trkpt>
      <trkpt lat="47.73457" lon="4.96808">
        <ele>402.84</ele>
        <time>2022-07-04T07:45:35Z</time>
      </trkpt>
      <trkpt lat="47.73454" lon="4.96807">
        <ele>403.42</ele>
        <time>2022-07-04T07:45:37Z</time>
      </trkpt>
      <trkpt lat="47.73451" lon="4.96806">
        <ele>403.99</ele>
        <time>2022-07-04T07:45:40Z</time>
      </trkpt>
      <trkpt lat="47.73448" lon="4.96805">
        <ele>404.49</ele>
        <time>2022-07-04T07:45:44Z</time>
      </trkpt>
      <trkpt lat="47.73444" lon="4.96805">
        <ele>405.03</ele>
        <time>2022-07-04T07:45:46Z</time>
      </trkpt>
      <trkpt lat="47.73442" lon="4.96804">
        <ele>405.18</ele>
        <time>2022-07-04T07:45:50Z</time>
      </trkpt>
      <trkpt lat="47.73439" lon="4.96803">
        <ele>405.41</ele>
        <time>2022-07-04T07:45:53Z</time>
      </trkpt>
      <trkpt lat="47.73436" lon="4.96803">
        <ele>405.64</ele>
        <time>2022-07-04T07:45:57Z</time>
      </trkpt>
      <trkpt lat="47.73433" lon="4.96804">
        <ele>405.85</ele>
        <time>2022-07-04T07:45:58Z</time>
      </trkpt>
      <trkpt lat="47.73429" lon="4.96803">
        <ele>406.16</ele>
        <time>2022-07-04T07:46:02Z</time>
      </trkpt>
      <trkpt lat="47.73426" lon="4.96803">
        <ele>406.39</ele>
        <time>2022-07-04T07:46:03Z</time>
      </trkpt>
      <trkpt lat="47.73423" lon="4.96802">
        <ele>406.64</ele>
        <time>2022-07-04T07:46:07Z</time>
      </trkpt>
      <trkpt lat="47.7342" lon="4.96801">
        <ele>406.9</ele>
        <time>2022-07-04T07:46:10Z</time>
      </trkpt>
      <trkpt lat="47.73418" lon="4.968">
        <ele>407.09</ele>
        <time>2022-07-04T07:46:13Z</time>
      </trkpt>
      <trkpt lat="47.73415" lon="4.96798">
        <ele>407.05</ele>
        <time>2022-07-04T07:46:17Z</time>
      </trkpt>
      <trkpt lat="47.73412" lon="4.96796">
        <ele>406.73</ele>
        <time>2022-07-04T07:46:21Z</time>
      </trkpt>
      <trkpt lat="47.73409" lon="4.96794">
        <ele>406.43</ele>
        <time>2022-07-04T07:46:22Z</time>
      </trkpt>
      <trkpt lat="47.73406" lon="4.96793">
        <ele>406.09</ele>
        <time>2022-07-04T07:46:26Z</time>
      </trkpt>
      <trkpt lat="47.73403" lon="4.96792">
        <ele>405.76</ele>
        <time>2022-07-04T07:46:29Z</time>
      </trkpt>
      <trkpt lat="47.734" lon="4.96791">
        <ele>405.44</ele>
        <time>2022-07-04T07:46:31Z</time>
      </trkpt>
      <trkpt lat="47.73397" lon="4.96789">
        <ele>405.19</ele>
        <time>2022-07-04T07:46:35Z</time>
      </trkpt>
      <trkpt lat="47.73394" lon="4.96789">
        <ele>404.82</ele>
        <time>2022-07-04T07:46:38Z</time>
      </trkpt>
      <trkpt lat="47.73391" lon="4.96789">
        <ele>404.45</ele>
        <time>2022-07-04T07:46:42Z</time>
      </trkpt>
      <trkpt lat="47.73388" lon="4.96789">
        <ele>404.21</ele>
        <time>2022-07-04T07:46:46Z</time>
      </trkpt>
      <trkpt lat="47.73385" lon="4.96788">
        <ele>404.35</ele>
        <time>2022-07-04T07:46:50Z</time>
      </trkpt>
      <trkpt lat="47.73382" lon="4.96787">
        <ele>404.5</ele>
        <time>2022-07-04T07:46:52Z</time>
      </trkpt>
      <trkpt lat="47.73378" lon="4.96787">
        <ele>404.6</ele>
        <time>2022-07-04T07:46:54Z</time>
      </trkpt>
      <trkpt lat="47.73375" lon="4.96786">
        <ele>404.76</ele>
        <time>2022-07-04T07:46:57Z</time>
      </trkpt>
      <trkpt lat="47.73372" lon="4.96786">
        <ele>404.84</ele>
        <time>2022-07-04T07:47:00Z</time>
      </trkpt>
      <trkpt lat="47.73369" lon="4.96786">
        <ele>404.91</ele>
        <time>2022-07-04T07:47:02Z</time>
      </trkpt>
      <trkpt lat="47.73366" lon="4.96786">
        <ele>404.99</ele>
        <time>2022-07-04T07:47:05Z</time>
      </trkpt>
      <trkpt lat="47.73363" lon="4.96786">
        <ele>405.06</ele>
        <time>2022-07-04T07:47:08Z</time>
      </trkpt>
      <trkpt lat="47.7336" lon="4.96786">
        <ele>405.23</ele>
        <time>2022-07-04T07:47:09Z</time>
      </trkpt>
      <trkpt lat="47.73357" lon="4.96786">
        <ele>405.56</ele>
        <time>2022-07-04T07:47:12Z</time>
      </trkpt>
      <trkpt lat="47.73354" lon="4.96785">
        <ele>405.99</ele>
        <time>2022-07-04T07:47:18Z</time>
      </trkpt>
      <trkpt lat="47.73351" lon="4.96785">
        <ele>406.31</ele>
        <time>2022-07-04T07:47:21Z</time>
      </trkpt>
      <trkpt lat="47.73348" lon="4.96786">
        <ele>406.53</ele>
        <time>2022-07-04T07:47:23Z</time>
      </trkpt>
      <trkpt lat="47.73345" lon="4.96785">
        <ele>406.96</ele>
        <time>2022-07-04T07:47:25Z</time>
      </trkpt>
      <trkpt lat="47.73341" lon="4.96784">
        <ele>407.5</ele>
        <time>2022-07-04T07:47:28Z</time>
      </trkpt>
      <trkpt lat="47.73339" lon="4.96784">
        <ele>407.72</ele>
        <time>2022-07-04T07:47:31Z</time>
      </trkpt>
      <trkpt lat="47.73336" lon="4.96783">
        <ele>408.15</ele>
        <time>2022-07-04T07:47:35Z</time>
      </trkpt>
      <trkpt lat="47.73333" lon="4.96783">
        <ele>408.52</ele>
        <time>2022-07-04T07:47:38Z</time>
      </trkpt>
      <trkpt lat="47.7333" lon="4.96782">
        <ele>409.4</ele>
        <time>2022-07-04T07:47:41Z</time>
      </trkpt>
      <trkpt lat="47.73327" lon="4.9678">
        <ele>410.37</ele>
        <time>2022-07-04T07:47:43Z</time>
      </trkpt>
      <trkpt lat="47.73324" lon="4.96779">
        <ele>411.23</ele>
        <time>2022-07-04T07:47:46Z</time>
      </trkpt>
      <trkpt lat="47.7332" lon="4.96777">
        <ele>412.4</ele>
        <time>2022-07-04T07:47:50Z</time>
      </trkpt>
      <trkpt lat="47.73318" lon="4.96775">
        <ele>412.99</ele>
        <time>2022-07-04T07:47:52Z</time>
      </trkpt>
      <trkpt lat="47.73315" lon="4.96774">
        <ele>413.72</ele>
        <time>2022-07-04T07:47:56Z</time>
      </trkpt>
      <trkpt lat="47.73312" lon="4.96773">
        <ele>414.4</ele>
        <time>2022-07-04T07:47:59Z</time>
      </trkpt>
      <trkpt lat="47.73308" lon="4.96772">
        <ele>415.27</ele>
        <time>2022-07-04T07:48:01Z</time>
      </trkpt>
      <trkpt lat="47.73304" lon="4.96772">
        <ele>415.82</ele>
        <time>2022-07-04T07:48:03Z</time>
      </trkpt>
      <trkpt lat="47.73301" lon="4.96772">
        <ele>415.86</ele>
        <time>2022-07-04T07:48:07Z</time>
      </trkpt>
      <trkpt lat="47.73298" lon="4.96773">
        <ele>415.92</ele>
        <time>2022-07-04T07:48:08Z</time>
      </trkpt>
      <trkpt lat="47.73295" lon="4.96773">
        <ele>415.96</ele>
        <time>2022-07-04T07:48:10Z</time>
      </trkpt>
      <trkpt lat="47.73291" lon="4.96772">
        <ele>416.01</ele>
        <time>2022-07-04T07:48:13Z</time>
      </trkpt>
      <trkpt lat="47.73288" lon="4.96771">
        <ele>416.06</ele>
        <time>2022-07-04T07:48:16Z</time>
      </trkpt>
      <trkpt lat="47.73286" lon="4.9677">
        <ele>416.11</ele>
        <time>2022-07-04T07:48:19Z</time>
      </trkpt>
      <trkpt lat="47.73283" lon="4.9677">
        <ele>416.17</ele>
        <time>2022-07-04T07:48:24Z</time>
      </trkpt>
      <trkpt lat="47.7328" lon="4.9677">
        <ele>416.24</ele>
        <time>2022-07-04T07:48:26Z</time>
      </trkpt>
      <trkpt lat="47.73277" lon="4.9677">
        <ele>416.32</ele>
        <time>2022-07-04T07:48:30Z</time>
      </trkpt>
      <trkpt lat="47.73275" lon="4.9677">
        <ele>416.44</ele>
        <time>2022-07-04T07:48:33Z</time>
      </trkpt>
      <trkpt lat="47.73271" lon="4.96769">
        <ele>416.71</ele>
        <time>2022-07-04T07:48:36Z</time>
      </trkpt>
      <trkpt lat="47.73268" lon="4.96768">
        <ele>416.95</ele>
        <time>2022-07-04T07:48:38Z</time>
      </trkpt>
      <trkpt lat="47.73265" lon="4.96767">
        <ele>417.2</ele>
        <time>2022-07-04T07:48:42Z</time>
      </trkpt>
      <trkpt lat="47.73262" lon="4.96766">
        <ele>417.47</ele>
        <time>2022-07-04T07:48:45Z</time>
      </trkpt>
      <trkpt lat="47.73259" lon="4.96764">
        <ele>417.84</ele>
        <time>2022-07-04T07:48:47Z</time>
      </trkpt>
      <trkpt lat="47.73256" lon="4.96762">
        <ele>418.24</ele>
        <time>2022-07-04T07:48:50Z</time>
      </trkpt>
      <trkpt lat="47.73253" lon="4.9676">
        <ele>418.67</ele>
        <time>2022-07-04T07:48:53Z</time>
      </trkpt>
      <trkpt lat="47.7325" lon="4.96758">
        <ele>419.14</ele>
        <time>2022-07-04T07:48:54Z</time>
      </trkpt>
      <trkpt lat="47.73247" lon="4.96756">
        <ele>419.24</ele>
        <time>2022-07-04T07:48:57Z</time>
      </trkpt>
      <trkpt lat="47.73245" lon="4.96754">
        <ele>419.39</ele>
        <time>2022-07-04T07:48:59Z</time>
      </trkpt>
      <trkpt lat="47.73242" lon="4.96752">
        <ele>419.5</ele>
        <time>2022-07-04T07:49:03Z</time>
      </trkpt>
      <trkpt lat="47.73239" lon="4.9675">
        <ele>419.6</ele>
        <time>2022-07-04T07:49:05Z</time>
      </trkpt>
      <trkpt lat="47.73236" lon="4.96749">
        <ele>419.53</ele>
        <time>2022-07-04T07:49:08Z</time>
      </trkpt>
      <trkpt lat="47.73234" lon="4.96748">
        <ele>419.52</ele>
        <time>2022-07-04T07:49:09Z</time>
      </trkpt>
      <trkpt lat="47.73231" lon="4.96747">
        <ele>419.5</ele>
        <time>2022-07-04T07:49:11Z</time>
      </trkpt>
      <trkpt lat="47.73228" lon="4.96746">
        <ele>419.52</ele>
        <time>2022-07-04T07:49:13Z</time>
      </trkpt>
      <trkpt lat="47.73225" lon="4.96745">
        <ele>419.57</ele>
        <time>2022-07-04T07:49:15Z</time>
      </trkpt>
      <trkpt lat="47.73223" lon="4.96743">
        <ele>419.76</ele>
        <time>2022-07-04T07:49:19Z</time>
      </trkpt>
      <trkpt lat="47.73221" lon="4.96741">
        <ele>420.13</ele>
        <time>2022-07-04T07:49:24Z</time>
      </trkpt>
      <trkpt lat="47.73219" lon="4.96738">
        <ele>420.71</ele>
        <time>2022-07-04T07:49:28Z</time>
      </trkpt>
      <trkpt lat="47.73216" lon="4.96736">
        <ele>421.3</ele>
        <time>2022-07-04T07:49:32Z</time>
      </trkpt>
      <trkpt lat="47.73214" lon="4.96734">
        <ele>421.74</ele>
        <time>2022-07-04T07:49:34Z</time>
      </trkpt>
      <trkpt lat="47.73211" lon="4.96731">
        <ele>422.39</ele>
        <time>2022-07-04T07:49:37Z</time>
      </trkpt>
      <trkpt lat="47.73209" lon="4.96729">
        <ele>422.81</ele>
        <time>2022-07-04T07:49:41Z</time>
      </trkpt>
      <trkpt lat="47.73206" lon="4.96728">
        <ele>423.25</ele>
        <time>2022-07-04T07:49:44Z</time>
      </trkpt>
      <trkpt lat="47.73203" lon="4.96727">
        <ele>423.68</ele>
        <time>2022-07-04T07:49:46Z</time>
      </trkpt>
      <trkpt lat="47.732" lon="4.96726">
        <ele>424.1</ele>
        <time>2022-07-04T07:49:48Z</time>
      </trkpt>
      <trkpt lat="47.73196" lon="4.96724">
        <ele>424.7</ele>
        <time>2022-07-04T07:49:51Z</time>
      </trkpt>
      <trkpt lat="47.73193" lon="4.96723">
        <ele>424.95</ele>
        <time>2022-07-04T07:49:52Z</time>
      </trkpt>
      <trkpt lat="47.73191" lon="4.96721">
        <ele>424.97</ele>
        <time>2022-07-04T07:49:55Z</time>
      </trkpt>
      <trkpt lat="47.73188" lon="4.96718">
        <ele>424.92</ele>
        <time>2022-07-04T07:49:57Z</time>
      </trkpt>
      <trkpt lat="47.73185" lon="4.96716">
        <ele>424.93</ele>
        <time>2022-07-04T07:50:00Z</time>
      </trkpt>
      <trkpt lat="47.73182" lon="4.96714">
        <ele>424.97</ele>
        <time>2022-07-04T07:50:02Z</time>
      </trkpt>
      <trkpt lat="47.7318" lon="4.96713">
        <ele>425.01</ele>
        <time>2022-07-04T07:50:05Z</time>
      </trkpt>
      <trkpt lat="47.73176" lon="4.96712">
        <ele>425.12</ele>
        <time>2022-07-04T07:50:07Z</time>
      </trkpt>
      <trkpt lat="47.73173" lon="4.96711">
        <ele>425.22</ele>
        <time>2022-07-04T07:50:11Z</time>
      </trkpt>
      <trkpt lat="47.73171" lon="4.96711">
        <ele>425.28</ele>
        <time>2022-07-04T07:50:14Z</time>
      </trkpt>
      <trkpt lat="47.73168" lon="4.96709">
        <ele>425.43</ele>
        <time>2022-07-04T07:50:20Z</time>
      </trkpt>
      <trkpt lat="47.73165" lon="4.96708">
        <ele>425.6</ele>
        <time>2022-07-04T07:50:22Z</time>
      </trkpt>
      <trkpt lat="47.73163" lon="4.96706">
        <ele>425.77</ele>
        <time>2022-07-04T07:50:26Z</time>
      </trkpt>
      <trkpt lat="47.7316" lon="4.96703">
        <ele>426.01</ele>
        <time>2022-07-04T07:50:28Z</time>
      </trkpt>
      <trkpt lat="47.73158" lon="4.96701">
        <ele>426.15</ele>
        <time>2022-07-04T07:50:30Z</time>
      </trkpt>
      <trkpt lat="47.73155" lon="4.967">
        <ele>426.3</ele>
        <time>2022-07-04T07:50:32Z</time>
      </trkpt>
      <trkpt lat="47.73152" lon="4.967">
        <ele>426.43</ele>
        <time>2022-07-04T07:50:35Z</time>
      </trkpt>
      <trkpt lat="47.73149" lon="4.96699">
        <ele>426.58</ele>
        <time>2022-07-04T07:50:38Z</time>
      </trkpt>
      <trkpt lat="47.73146" lon="4.96697">
        <ele>426.72</ele>
        <time>2022-07-04T07:50:41Z</time>
      </trkpt>
      <trkpt lat="47.73143" lon="4.96695">
        <ele>426.85</ele>
        <time>2022-07-04T07:50:44Z</time>
      </trkpt>
      <trkpt lat="47.7314" lon="4.96693">
        <ele>427.01</ele>
        <time>2022-07-04T07:50:47Z</time>
      </trkpt>
      <trkpt lat="47.73138" lon="4.96691">
        <ele>427.18</ele>
        <time>2022-07-04T07:50:50Z</time>
      </trkpt>
      <trkpt lat="47.73134" lon="4.9669">
        <ele>427.43</ele>
        <time>2022-07-04T07:50:53Z</time>
      </trkpt>
      <trkpt lat="47.73132" lon="4.96689">
        <ele>427.55</ele>
        <time>2022-07-04T07:50:56Z</time>
      </trkpt>
      <trkpt lat="47.73129" lon="4.96687">
        <ele>427.69</ele>
        <time>2022-07-04T07:51:02Z</time>
      </trkpt>
      <trkpt lat="47.73126" lon="4.96685">
        <ele>427.79</ele>
        <time>2022-07-04T07:51:04Z</time>
      </trkpt>
      <trkpt lat="47.73124" lon="4.96682">
        <ele>427.8</ele>
        <time>2022-07-04T07:51:07Z</time>
      </trkpt>
      <trkpt lat="47.73121" lon="4.9668">
        <ele>427.8</ele>
        <time>2022-07-04T07:51:14Z</time>
      </trkpt>
      <trkpt lat="47.73119" lon="4.96679">
        <ele>427.79</ele>
        <time>2022-07-04T07:51:19Z</time>
      </trkpt>
      <trkpt lat="47.73116" lon="4.96678">
        <ele>427.78</ele>
        <time>2022-07-04T07:51:24Z</time>
      </trkpt>
      <trkpt lat="47.73113" lon="4.96676">
        <ele>427.67</ele>
        <time>2022-07-04T07:51:29Z</time>
      </trkpt>
      <trkpt lat="47.7311" lon="4.96676">
        <ele>427.71</ele>
        <time>2022-07-04T07:51:44Z</time>
      </trkpt>
      <trkpt lat="47.73107" lon="4.96677">
        <ele>427.89</ele>
        <time>2022-07-04T07:51:52Z</time>
      </trkpt>
      <trkpt lat="47.73106" lon="4.96681">
        <ele>428.22</ele>
        <time>2022-07-04T07:51:59Z</time>
      </trkpt>
      <trkpt lat="47.73109" lon="4.96682">
        <ele>428.18</ele>
        <time>2022-07-04T07:52:11Z</time>
      </trkpt>
      <trkpt lat="47.7311" lon="4.96687">
        <ele>428.5</ele>
        <time>2022-07-04T07:52:18Z</time>
      </trkpt>
      <trkpt lat="47.73111" lon="4.96691">
        <ele>428.76</ele>
        <time>2022-07-04T07:52:27Z</time>
      </trkpt>
      <trkpt lat="47.73108" lon="4.96693">
        <ele>429.01</ele>
        <time>2022-07-04T07:52:42Z</time>
      </trkpt>
      <trkpt lat="47.73111" lon="4.9669">
        <ele>428.68</ele>
        <time>2022-07-04T07:53:05Z</time>
      </trkpt>
      <trkpt lat="47.7311" lon="4.96687">
        <ele>428.5</ele>
        <time>2022-07-04T07:53:17Z</time>
      </trkpt>
      <trkpt lat="47.73107" lon="4.96687">
        <ele>428.61</ele>
        <time>2022-07-04T07:53:23Z</time>
      </trkpt>
      <trkpt lat="47.73104" lon="4.96687">
        <ele>428.72</ele>
        <time>2022-07-04T07:53:38Z</time>
      </trkpt>
      <trkpt lat="47.73102" lon="4.9669">
        <ele>429.01</ele>
        <time>2022-07-04T07:53:52Z</time>
      </trkpt>
      <trkpt lat="47.73101" lon="4.96686">
        <ele>428.76</ele>
        <time>2022-07-04T07:54:11Z</time>
      </trkpt>
      <trkpt lat="47.73099" lon="4.96683">
        <ele>428.61</ele>
        <time>2022-07-04T07:54:47Z</time>
      </trkpt>
      <trkpt lat="47.73096" lon="4.96681">
        <ele>428.58</ele>
        <time>2022-07-04T07:54:59Z</time>
      </trkpt>
      <trkpt lat="47.73093" lon="4.96683">
        <ele>428.83</ele>
        <time>2022-07-04T07:55:04Z</time>
      </trkpt>
      <trkpt lat="47.73091" lon="4.96684">
        <ele>428.97</ele>
        <time>2022-07-04T07:55:07Z</time>
      </trkpt>
      <trkpt lat="47.73088" lon="4.96686">
        <ele>429.22</ele>
        <time>2022-07-04T07:55:10Z</time>
      </trkpt>
      <trkpt lat="47.73085" lon="4.96689">
        <ele>429.55</ele>
        <time>2022-07-04T07:55:12Z</time>
      </trkpt>
      <trkpt lat="47.73083" lon="4.96691">
        <ele>429.81</ele>
        <time>2022-07-04T07:55:14Z</time>
      </trkpt>
      <trkpt lat="47.73081" lon="4.96694">
        <ele>430.39</ele>
        <time>2022-07-04T07:55:17Z</time>
      </trkpt>
      <trkpt lat="47.73078" lon="4.96698">
        <ele>430.88</ele>
        <time>2022-07-04T07:55:21Z</time>
      </trkpt>
      <trkpt lat="47.73076" lon="4.96701">
        <ele>431.21</ele>
        <time>2022-07-04T07:55:24Z</time>
      </trkpt>
      <trkpt lat="47.73073" lon="4.96704">
        <ele>431.77</ele>
        <time>2022-07-04T07:55:26Z</time>
      </trkpt>
      <trkpt lat="47.73071" lon="4.96707">
        <ele>432.17</ele>
        <time>2022-07-04T07:55:29Z</time>
      </trkpt>
      <trkpt lat="47.73069" lon="4.96709">
        <ele>432.6</ele>
        <time>2022-07-04T07:55:32Z</time>
      </trkpt>
      <trkpt lat="47.73066" lon="4.96712">
        <ele>433.28</ele>
        <time>2022-07-04T07:55:36Z</time>
      </trkpt>
      <trkpt lat="47.73063" lon="4.96714">
        <ele>433.99</ele>
        <time>2022-07-04T07:55:38Z</time>
      </trkpt>
      <trkpt lat="47.73061" lon="4.96716">
        <ele>434.49</ele>
        <time>2022-07-04T07:55:41Z</time>
      </trkpt>
      <trkpt lat="47.73058" lon="4.96718">
        <ele>435.26</ele>
        <time>2022-07-04T07:55:43Z</time>
      </trkpt>
      <trkpt lat="47.73056" lon="4.96721">
        <ele>435.85</ele>
        <time>2022-07-04T07:55:48Z</time>
      </trkpt>
      <trkpt lat="47.73053" lon="4.96722">
        <ele>436.18</ele>
        <time>2022-07-04T07:55:51Z</time>
      </trkpt>
      <trkpt lat="47.7305" lon="4.96722">
        <ele>436.39</ele>
        <time>2022-07-04T07:55:53Z</time>
      </trkpt>
      <trkpt lat="47.73047" lon="4.96722">
        <ele>436.61</ele>
        <time>2022-07-04T07:55:58Z</time>
      </trkpt>
      <trkpt lat="47.73044" lon="4.96723">
        <ele>436.79</ele>
        <time>2022-07-04T07:56:00Z</time>
      </trkpt>
      <trkpt lat="47.73041" lon="4.96724">
        <ele>436.95</ele>
        <time>2022-07-04T07:56:04Z</time>
      </trkpt>
      <trkpt lat="47.73038" lon="4.96724">
        <ele>437.18</ele>
        <time>2022-07-04T07:56:06Z</time>
      </trkpt>
      <trkpt lat="47.73035" lon="4.96725">
        <ele>437.35</ele>
        <time>2022-07-04T07:56:08Z</time>
      </trkpt>
      <trkpt lat="47.73032" lon="4.96724">
        <ele>437.62</ele>
        <time>2022-07-04T07:56:11Z</time>
      </trkpt>
      <trkpt lat="47.73029" lon="4.96723">
        <ele>437.88</ele>
        <time>2022-07-04T07:56:14Z</time>
      </trkpt>
      <trkpt lat="47.73026" lon="4.96722">
        <ele>437.87</ele>
        <time>2022-07-04T07:56:16Z</time>
      </trkpt>
      <trkpt lat="47.73023" lon="4.9672">
        <ele>437.66</ele>
        <time>2022-07-04T07:56:18Z</time>
      </trkpt>
      <trkpt lat="47.73021" lon="4.96719">
        <ele>437.51</ele>
        <time>2022-07-04T07:56:20Z</time>
      </trkpt>
      <trkpt lat="47.73018" lon="4.96717">
        <ele>437.3</ele>
        <time>2022-07-04T07:56:23Z</time>
      </trkpt>
      <trkpt lat="47.73016" lon="4.96714">
        <ele>437.15</ele>
        <time>2022-07-04T07:56:25Z</time>
      </trkpt>
      <trkpt lat="47.73014" lon="4.96709">
        <ele>437.01</ele>
        <time>2022-07-04T07:56:28Z</time>
      </trkpt>
      <trkpt lat="47.73013" lon="4.96706">
        <ele>436.94</ele>
        <time>2022-07-04T07:56:31Z</time>
      </trkpt>
      <trkpt lat="47.73011" lon="4.96701">
        <ele>436.79</ele>
        <time>2022-07-04T07:56:34Z</time>
      </trkpt>
      <trkpt lat="47.73009" lon="4.96697">
        <ele>436.65</ele>
        <time>2022-07-04T07:56:38Z</time>
      </trkpt>
      <trkpt lat="47.73007" lon="4.96693">
        <ele>436.53</ele>
        <time>2022-07-04T07:56:40Z</time>
      </trkpt>
      <trkpt lat="47.73005" lon="4.9669">
        <ele>436.46</ele>
        <time>2022-07-04T07:56:43Z</time>
      </trkpt>
      <trkpt lat="47.73002" lon="4.96686">
        <ele>436.4</ele>
        <time>2022-07-04T07:56:46Z</time>
      </trkpt>
      <trkpt lat="47.72998" lon="4.96683">
        <ele>436.44</ele>
        <time>2022-07-04T07:56:48Z</time>
      </trkpt>
      <trkpt lat="47.72996" lon="4.96679">
        <ele>436.64</ele>
        <time>2022-07-04T07:56:51Z</time>
      </trkpt>
      <trkpt lat="47.72996" lon="4.96674">
        <ele>436.84</ele>
        <time>2022-07-04T07:56:54Z</time>
      </trkpt>
      <trkpt lat="47.72995" lon="4.9667">
        <ele>437.04</ele>
        <time>2022-07-04T07:56:56Z</time>
      </trkpt>
      <trkpt lat="47.72994" lon="4.96665">
        <ele>437.1</ele>
        <time>2022-07-04T07:56:59Z</time>
      </trkpt>
      <trkpt lat="47.72993" lon="4.96661">
        <ele>436.84</ele>
        <time>2022-07-04T07:57:02Z</time>
      </trkpt>
      <trkpt lat="47.72991" lon="4.96658">
        <ele>436.7</ele>
        <time>2022-07-04T07:57:03Z</time>
      </trkpt>
      <trkpt lat="47.72989" lon="4.96654">
        <ele>436.48</ele>
        <time>2022-07-04T07:57:06Z</time>
      </trkpt>
      <trkpt lat="47.72987" lon="4.96652">
        <ele>436.41</ele>
        <time>2022-07-04T07:57:08Z</time>
      </trkpt>
      <trkpt lat="47.72984" lon="4.96649">
        <ele>436.3</ele>
        <time>2022-07-04T07:57:11Z</time>
      </trkpt>
      <trkpt lat="47.72981" lon="4.96648">
        <ele>436.34</ele>
        <time>2022-07-04T07:57:13Z</time>
      </trkpt>
      <trkpt lat="47.72978" lon="4.96646">
        <ele>436.3</ele>
        <time>2022-07-04T07:57:16Z</time>
      </trkpt>
      <trkpt lat="47.72975" lon="4.96644">
        <ele>436.27</ele>
        <time>2022-07-04T07:57:19Z</time>
      </trkpt>
      <trkpt lat="47.72972" lon="4.96641">
        <ele>436.15</ele>
        <time>2022-07-04T07:57:21Z</time>
      </trkpt>
      <trkpt lat="47.7297" lon="4.96639">
        <ele>436.01</ele>
        <time>2022-07-04T07:57:23Z</time>
      </trkpt>
      <trkpt lat="47.72967" lon="4.96637">
        <ele>435.94</ele>
        <time>2022-07-04T07:57:25Z</time>
      </trkpt>
      <trkpt lat="47.72965" lon="4.96635">
        <ele>435.9</ele>
        <time>2022-07-04T07:57:27Z</time>
      </trkpt>
      <trkpt lat="47.72962" lon="4.96633">
        <ele>435.87</ele>
        <time>2022-07-04T07:57:30Z</time>
      </trkpt>
      <trkpt lat="47.72959" lon="4.96631">
        <ele>435.85</ele>
        <time>2022-07-04T07:57:32Z</time>
      </trkpt>
      <trkpt lat="47.72956" lon="4.96628">
        <ele>435.84</ele>
        <time>2022-07-04T07:57:35Z</time>
      </trkpt>
      <trkpt lat="47.72954" lon="4.96626">
        <ele>435.84</ele>
        <time>2022-07-04T07:57:38Z</time>
      </trkpt>
      <trkpt lat="47.72952" lon="4.96623">
        <ele>435.84</ele>
        <time>2022-07-04T07:57:40Z</time>
      </trkpt>
      <trkpt lat="47.7295" lon="4.9662">
        <ele>435.86</ele>
        <time>2022-07-04T07:57:42Z</time>
      </trkpt>
      <trkpt lat="47.72948" lon="4.96617">
        <ele>435.9</ele>
        <time>2022-07-04T07:57:45Z</time>
      </trkpt>
      <trkpt lat="47.72945" lon="4.96614">
        <ele>435.98</ele>
        <time>2022-07-04T07:57:48Z</time>
      </trkpt>
      <trkpt lat="47.72943" lon="4.96611">
        <ele>436.16</ele>
        <time>2022-07-04T07:57:50Z</time>
      </trkpt>
      <trkpt lat="47.7294" lon="4.96609">
        <ele>436.46</ele>
        <time>2022-07-04T07:57:53Z</time>
      </trkpt>
      <trkpt lat="47.72938" lon="4.96606">
        <ele>436.61</ele>
        <time>2022-07-04T07:57:55Z</time>
      </trkpt>
      <trkpt lat="47.72935" lon="4.96604">
        <ele>436.85</ele>
        <time>2022-07-04T07:57:58Z</time>
      </trkpt>
      <trkpt lat="47.72932" lon="4.96602">
        <ele>437.05</ele>
        <time>2022-07-04T07:58:00Z</time>
      </trkpt>
      <trkpt lat="47.72928" lon="4.96598">
        <ele>437.22</ele>
        <time>2022-07-04T07:58:03Z</time>
      </trkpt>
      <trkpt lat="47.72924" lon="4.96596">
        <ele>437.41</ele>
        <time>2022-07-04T07:58:07Z</time>
      </trkpt>
      <trkpt lat="47.72921" lon="4.96593">
        <ele>437.43</ele>
        <time>2022-07-04T07:58:09Z</time>
      </trkpt>
      <trkpt lat="47.72918" lon="4.96592">
        <ele>437.55</ele>
        <time>2022-07-04T07:58:11Z</time>
      </trkpt>
      <trkpt lat="47.72916" lon="4.96589">
        <ele>437.49</ele>
        <time>2022-07-04T07:58:14Z</time>
      </trkpt>
      <trkpt lat="47.72913" lon="4.96587">
        <ele>437.74</ele>
        <time>2022-07-04T07:58:17Z</time>
      </trkpt>
      <trkpt lat="47.72911" lon="4.96584">
        <ele>437.85</ele>
        <time>2022-07-04T07:58:19Z</time>
      </trkpt>
      <trkpt lat="47.72908" lon="4.96581">
        <ele>438.02</ele>
        <time>2022-07-04T07:58:21Z</time>
      </trkpt>
      <trkpt lat="47.72906" lon="4.96578">
        <ele>438.03</ele>
        <time>2022-07-04T07:58:24Z</time>
      </trkpt>
      <trkpt lat="47.72904" lon="4.96575">
        <ele>438.06</ele>
        <time>2022-07-04T07:58:27Z</time>
      </trkpt>
      <trkpt lat="47.72901" lon="4.96573">
        <ele>438.35</ele>
        <time>2022-07-04T07:58:29Z</time>
      </trkpt>
      <trkpt lat="47.72896" lon="4.96571">
        <ele>438.97</ele>
        <time>2022-07-04T07:58:33Z</time>
      </trkpt>
      <trkpt lat="47.72892" lon="4.96569">
        <ele>439.46</ele>
        <time>2022-07-04T07:58:35Z</time>
      </trkpt>
      <trkpt lat="47.72889" lon="4.96567">
        <ele>439.81</ele>
        <time>2022-07-04T07:58:38Z</time>
      </trkpt>
      <trkpt lat="47.72884" lon="4.96563">
        <ele>438.83</ele>
        <time>2022-07-04T07:58:41Z</time>
      </trkpt>
      <trkpt lat="47.72878" lon="4.96558">
        <ele>437.61</ele>
        <time>2022-07-04T07:58:45Z</time>
      </trkpt>
      <trkpt lat="47.72874" lon="4.96554">
        <ele>436.69</ele>
        <time>2022-07-04T07:58:49Z</time>
      </trkpt>
      <trkpt lat="47.72871" lon="4.96552">
        <ele>436.08</ele>
        <time>2022-07-04T07:58:51Z</time>
      </trkpt>
      <trkpt lat="47.72869" lon="4.96549">
        <ele>435.53</ele>
        <time>2022-07-04T07:58:53Z</time>
      </trkpt>
      <trkpt lat="47.72866" lon="4.96547">
        <ele>434.98</ele>
        <time>2022-07-04T07:58:56Z</time>
      </trkpt>
      <trkpt lat="47.72864" lon="4.96544">
        <ele>434.5</ele>
        <time>2022-07-04T07:58:59Z</time>
      </trkpt>
      <trkpt lat="47.72862" lon="4.96541">
        <ele>434.05</ele>
        <time>2022-07-04T07:59:02Z</time>
      </trkpt>
      <trkpt lat="47.72859" lon="4.96538">
        <ele>433.8</ele>
        <time>2022-07-04T07:59:03Z</time>
      </trkpt>
      <trkpt lat="47.72857" lon="4.96536">
        <ele>433.76</ele>
        <time>2022-07-04T07:59:06Z</time>
      </trkpt>
      <trkpt lat="47.72855" lon="4.96533">
        <ele>433.69</ele>
        <time>2022-07-04T07:59:08Z</time>
      </trkpt>
      <trkpt lat="47.72852" lon="4.96531">
        <ele>433.77</ele>
        <time>2022-07-04T07:59:12Z</time>
      </trkpt>
      <trkpt lat="47.72849" lon="4.96529">
        <ele>433.9</ele>
        <time>2022-07-04T07:59:14Z</time>
      </trkpt>
      <trkpt lat="47.72846" lon="4.96527">
        <ele>434.09</ele>
        <time>2022-07-04T07:59:15Z</time>
      </trkpt>
      <trkpt lat="47.72843" lon="4.96524">
        <ele>434.3</ele>
        <time>2022-07-04T07:59:18Z</time>
      </trkpt>
      <trkpt lat="47.72841" lon="4.96522">
        <ele>434.45</ele>
        <time>2022-07-04T07:59:20Z</time>
      </trkpt>
      <trkpt lat="47.72839" lon="4.96519">
        <ele>434.59</ele>
        <time>2022-07-04T07:59:23Z</time>
      </trkpt>
      <trkpt lat="47.72836" lon="4.96517">
        <ele>434.81</ele>
        <time>2022-07-04T07:59:25Z</time>
      </trkpt>
      <trkpt lat="47.72833" lon="4.96515">
        <ele>435.02</ele>
        <time>2022-07-04T07:59:28Z</time>
      </trkpt>
      <trkpt lat="47.7283" lon="4.96512">
        <ele>435.19</ele>
        <time>2022-07-04T07:59:30Z</time>
      </trkpt>
      <trkpt lat="47.72828" lon="4.96509">
        <ele>435.32</ele>
        <time>2022-07-04T07:59:33Z</time>
      </trkpt>
      <trkpt lat="47.72825" lon="4.96506">
        <ele>435.54</ele>
        <time>2022-07-04T07:59:36Z</time>
      </trkpt>
      <trkpt lat="47.72823" lon="4.96502">
        <ele>435.72</ele>
        <time>2022-07-04T07:59:37Z</time>
      </trkpt>
      <trkpt lat="47.7282" lon="4.96499">
        <ele>435.93</ele>
        <time>2022-07-04T07:59:40Z</time>
      </trkpt>
      <trkpt lat="47.72817" lon="4.96497">
        <ele>436.05</ele>
        <time>2022-07-04T07:59:43Z</time>
      </trkpt>
      <trkpt lat="47.72814" lon="4.96494">
        <ele>436.09</ele>
        <time>2022-07-04T07:59:46Z</time>
      </trkpt>
      <trkpt lat="47.72812" lon="4.96491">
        <ele>436.04</ele>
        <time>2022-07-04T07:59:49Z</time>
      </trkpt>
      <trkpt lat="47.72809" lon="4.96488">
        <ele>436</ele>
        <time>2022-07-04T07:59:51Z</time>
      </trkpt>
      <trkpt lat="47.72806" lon="4.96486">
        <ele>435.98</ele>
        <time>2022-07-04T07:59:54Z</time>
      </trkpt>
      <trkpt lat="47.72804" lon="4.96482">
        <ele>435.63</ele>
        <time>2022-07-04T07:59:57Z</time>
      </trkpt>
      <trkpt lat="47.72802" lon="4.9648">
        <ele>435.4</ele>
        <time>2022-07-04T08:00:02Z</time>
      </trkpt>
      <trkpt lat="47.72799" lon="4.96477">
        <ele>435.07</ele>
        <time>2022-07-04T08:00:04Z</time>
      </trkpt>
      <trkpt lat="47.72796" lon="4.96476">
        <ele>434.88</ele>
        <time>2022-07-04T08:00:07Z</time>
      </trkpt>
      <trkpt lat="47.72793" lon="4.96473">
        <ele>434.59</ele>
        <time>2022-07-04T08:00:09Z</time>
      </trkpt>
      <trkpt lat="47.7279" lon="4.96471">
        <ele>434.21</ele>
        <time>2022-07-04T08:00:12Z</time>
      </trkpt>
      <trkpt lat="47.72787" lon="4.96468">
        <ele>433.52</ele>
        <time>2022-07-04T08:00:14Z</time>
      </trkpt>
      <trkpt lat="47.72783" lon="4.96465">
        <ele>432.73</ele>
        <time>2022-07-04T08:00:17Z</time>
      </trkpt>
      <trkpt lat="47.72781" lon="4.96461">
        <ele>431.79</ele>
        <time>2022-07-04T08:00:21Z</time>
      </trkpt>
      <trkpt lat="47.72779" lon="4.96458">
        <ele>431.02</ele>
        <time>2022-07-04T08:00:23Z</time>
      </trkpt>
      <trkpt lat="47.72775" lon="4.96455">
        <ele>430.29</ele>
        <time>2022-07-04T08:00:25Z</time>
      </trkpt>
      <trkpt lat="47.72772" lon="4.96453">
        <ele>429.94</ele>
        <time>2022-07-04T08:00:28Z</time>
      </trkpt>
      <trkpt lat="47.72769" lon="4.96451">
        <ele>429.68</ele>
        <time>2022-07-04T08:00:31Z</time>
      </trkpt>
      <trkpt lat="47.72766" lon="4.9645">
        <ele>429.62</ele>
        <time>2022-07-04T08:00:34Z</time>
      </trkpt>
      <trkpt lat="47.72763" lon="4.96447">
        <ele>429.37</ele>
        <time>2022-07-04T08:00:36Z</time>
      </trkpt>
      <trkpt lat="47.7276" lon="4.96446">
        <ele>429.44</ele>
        <time>2022-07-04T08:00:38Z</time>
      </trkpt>
      <trkpt lat="47.72757" lon="4.96444">
        <ele>429.46</ele>
        <time>2022-07-04T08:00:41Z</time>
      </trkpt>
      <trkpt lat="47.72754" lon="4.96442">
        <ele>429.54</ele>
        <time>2022-07-04T08:00:44Z</time>
      </trkpt>
      <trkpt lat="47.72752" lon="4.96439">
        <ele>429.46</ele>
        <time>2022-07-04T08:00:45Z</time>
      </trkpt>
      <trkpt lat="47.72749" lon="4.96437">
        <ele>429.46</ele>
        <time>2022-07-04T08:00:48Z</time>
      </trkpt>
      <trkpt lat="47.72747" lon="4.96435">
        <ele>429.32</ele>
        <time>2022-07-04T08:00:50Z</time>
      </trkpt>
      <trkpt lat="47.72744" lon="4.96433">
        <ele>429.23</ele>
        <time>2022-07-04T08:00:53Z</time>
      </trkpt>
      <trkpt lat="47.72741" lon="4.9643">
        <ele>429.14</ele>
        <time>2022-07-04T08:00:55Z</time>
      </trkpt>
      <trkpt lat="47.72738" lon="4.96427">
        <ele>429.13</ele>
        <time>2022-07-04T08:00:58Z</time>
      </trkpt>
      <trkpt lat="47.72735" lon="4.96423">
        <ele>429.17</ele>
        <time>2022-07-04T08:01:01Z</time>
      </trkpt>
      <trkpt lat="47.72733" lon="4.9642">
        <ele>429.24</ele>
        <time>2022-07-04T08:01:03Z</time>
      </trkpt>
      <trkpt lat="47.7273" lon="4.96417">
        <ele>429.44</ele>
        <time>2022-07-04T08:01:05Z</time>
      </trkpt>
      <trkpt lat="47.72728" lon="4.96415">
        <ele>429.52</ele>
        <time>2022-07-04T08:01:08Z</time>
      </trkpt>
      <trkpt lat="47.72725" lon="4.96413">
        <ele>429.67</ele>
        <time>2022-07-04T08:01:11Z</time>
      </trkpt>
      <trkpt lat="47.72723" lon="4.9641">
        <ele>429.7</ele>
        <time>2022-07-04T08:01:13Z</time>
      </trkpt>
      <trkpt lat="47.7272" lon="4.96408">
        <ele>429.55</ele>
        <time>2022-07-04T08:01:15Z</time>
      </trkpt>
      <trkpt lat="47.72717" lon="4.96405">
        <ele>429.28</ele>
        <time>2022-07-04T08:01:18Z</time>
      </trkpt>
      <trkpt lat="47.72714" lon="4.96403">
        <ele>429.06</ele>
        <time>2022-07-04T08:01:22Z</time>
      </trkpt>
      <trkpt lat="47.72711" lon="4.96401">
        <ele>428.86</ele>
        <time>2022-07-04T08:01:24Z</time>
      </trkpt>
      <trkpt lat="47.72709" lon="4.96399">
        <ele>428.71</ele>
        <time>2022-07-04T08:01:25Z</time>
      </trkpt>
      <trkpt lat="47.72706" lon="4.96396">
        <ele>428.52</ele>
        <time>2022-07-04T08:01:28Z</time>
      </trkpt>
      <trkpt lat="47.72703" lon="4.96394">
        <ele>428.36</ele>
        <time>2022-07-04T08:01:30Z</time>
      </trkpt>
      <trkpt lat="47.72701" lon="4.96392">
        <ele>428.26</ele>
        <time>2022-07-04T08:01:32Z</time>
      </trkpt>
      <trkpt lat="47.72698" lon="4.96389">
        <ele>428.13</ele>
        <time>2022-07-04T08:01:35Z</time>
      </trkpt>
      <trkpt lat="47.72695" lon="4.96387">
        <ele>428.01</ele>
        <time>2022-07-04T08:01:37Z</time>
      </trkpt>
      <trkpt lat="47.72692" lon="4.96385">
        <ele>427.81</ele>
        <time>2022-07-04T08:01:39Z</time>
      </trkpt>
      <trkpt lat="47.7269" lon="4.96384">
        <ele>427.65</ele>
        <time>2022-07-04T08:01:41Z</time>
      </trkpt>
      <trkpt lat="47.72687" lon="4.96381">
        <ele>427.39</ele>
        <time>2022-07-04T08:01:45Z</time>
      </trkpt>
      <trkpt lat="47.72684" lon="4.96379">
        <ele>427.11</ele>
        <time>2022-07-04T08:01:46Z</time>
      </trkpt>
      <trkpt lat="47.72681" lon="4.96377">
        <ele>426.82</ele>
        <time>2022-07-04T08:01:49Z</time>
      </trkpt>
      <trkpt lat="47.72679" lon="4.96374">
        <ele>426.59</ele>
        <time>2022-07-04T08:01:52Z</time>
      </trkpt>
      <trkpt lat="47.72677" lon="4.96371">
        <ele>426.34</ele>
        <time>2022-07-04T08:01:55Z</time>
      </trkpt>
      <trkpt lat="47.72674" lon="4.96369">
        <ele>426</ele>
        <time>2022-07-04T08:01:56Z</time>
      </trkpt>
      <trkpt lat="47.72671" lon="4.96367">
        <ele>425.65</ele>
        <time>2022-07-04T08:01:59Z</time>
      </trkpt>
      <trkpt lat="47.72669" lon="4.96366">
        <ele>425.41</ele>
        <time>2022-07-04T08:02:02Z</time>
      </trkpt>
      <trkpt lat="47.72667" lon="4.96363">
        <ele>425.1</ele>
        <time>2022-07-04T08:02:04Z</time>
      </trkpt>
      <trkpt lat="47.72664" lon="4.96361">
        <ele>424.9</ele>
        <time>2022-07-04T08:02:06Z</time>
      </trkpt>
      <trkpt lat="47.72661" lon="4.96359">
        <ele>424.75</ele>
        <time>2022-07-04T08:02:08Z</time>
      </trkpt>
      <trkpt lat="47.72657" lon="4.96354">
        <ele>424.57</ele>
        <time>2022-07-04T08:02:12Z</time>
      </trkpt>
      <trkpt lat="47.72655" lon="4.96349">
        <ele>424.51</ele>
        <time>2022-07-04T08:02:15Z</time>
      </trkpt>
      <trkpt lat="47.72652" lon="4.96346">
        <ele>424.5</ele>
        <time>2022-07-04T08:02:17Z</time>
      </trkpt>
      <trkpt lat="47.7265" lon="4.96345">
        <ele>424.52</ele>
        <time>2022-07-04T08:02:19Z</time>
      </trkpt>
      <trkpt lat="47.72647" lon="4.96342">
        <ele>424.58</ele>
        <time>2022-07-04T08:02:22Z</time>
      </trkpt>
      <trkpt lat="47.72645" lon="4.9634">
        <ele>424.65</ele>
        <time>2022-07-04T08:02:23Z</time>
      </trkpt>
      <trkpt lat="47.72642" lon="4.96339">
        <ele>424.73</ele>
        <time>2022-07-04T08:02:26Z</time>
      </trkpt>
      <trkpt lat="47.7264" lon="4.96337">
        <ele>424.84</ele>
        <time>2022-07-04T08:02:28Z</time>
      </trkpt>
      <trkpt lat="47.72637" lon="4.96336">
        <ele>425.03</ele>
        <time>2022-07-04T08:02:30Z</time>
      </trkpt>
      <trkpt lat="47.72634" lon="4.96333">
        <ele>425.35</ele>
        <time>2022-07-04T08:02:32Z</time>
      </trkpt>
      <trkpt lat="47.72632" lon="4.96331">
        <ele>425.5</ele>
        <time>2022-07-04T08:02:35Z</time>
      </trkpt>
      <trkpt lat="47.72629" lon="4.96329">
        <ele>425.71</ele>
        <time>2022-07-04T08:02:38Z</time>
      </trkpt>
      <trkpt lat="47.72627" lon="4.96326">
        <ele>425.86</ele>
        <time>2022-07-04T08:02:40Z</time>
      </trkpt>
      <trkpt lat="47.72624" lon="4.96324">
        <ele>426.07</ele>
        <time>2022-07-04T08:02:42Z</time>
      </trkpt>
      <trkpt lat="47.72622" lon="4.96321">
        <ele>426.22</ele>
        <time>2022-07-04T08:02:44Z</time>
      </trkpt>
      <trkpt lat="47.7262" lon="4.96319">
        <ele>426.36</ele>
        <time>2022-07-04T08:02:46Z</time>
      </trkpt>
      <trkpt lat="47.72617" lon="4.96316">
        <ele>426.58</ele>
        <time>2022-07-04T08:02:50Z</time>
      </trkpt>
      <trkpt lat="47.72615" lon="4.96313">
        <ele>426.72</ele>
        <time>2022-07-04T08:02:52Z</time>
      </trkpt>
      <trkpt lat="47.72613" lon="4.9631">
        <ele>426.86</ele>
        <time>2022-07-04T08:02:54Z</time>
      </trkpt>
      <trkpt lat="47.7261" lon="4.96308">
        <ele>426.96</ele>
        <time>2022-07-04T08:02:56Z</time>
      </trkpt>
      <trkpt lat="47.72607" lon="4.96305">
        <ele>426.8</ele>
        <time>2022-07-04T08:02:59Z</time>
      </trkpt>
      <trkpt lat="47.72605" lon="4.96303">
        <ele>426.58</ele>
        <time>2022-07-04T08:03:01Z</time>
      </trkpt>
      <trkpt lat="47.72601" lon="4.963">
        <ele>426.33</ele>
        <time>2022-07-04T08:03:04Z</time>
      </trkpt>
      <trkpt lat="47.72598" lon="4.96298">
        <ele>426.23</ele>
        <time>2022-07-04T08:03:07Z</time>
      </trkpt>
      <trkpt lat="47.72596" lon="4.96296">
        <ele>426.17</ele>
        <time>2022-07-04T08:03:08Z</time>
      </trkpt>
      <trkpt lat="47.72593" lon="4.96294">
        <ele>426.18</ele>
        <time>2022-07-04T08:03:11Z</time>
      </trkpt>
      <trkpt lat="47.72591" lon="4.96293">
        <ele>426.23</ele>
        <time>2022-07-04T08:03:13Z</time>
      </trkpt>
      <trkpt lat="47.72587" lon="4.96291">
        <ele>426.38</ele>
        <time>2022-07-04T08:03:17Z</time>
      </trkpt>
      <trkpt lat="47.72585" lon="4.96289">
        <ele>426.51</ele>
        <time>2022-07-04T08:03:18Z</time>
      </trkpt>
      <trkpt lat="47.72582" lon="4.96287">
        <ele>426.72</ele>
        <time>2022-07-04T08:03:20Z</time>
      </trkpt>
      <trkpt lat="47.72579" lon="4.96285">
        <ele>426.9</ele>
        <time>2022-07-04T08:03:22Z</time>
      </trkpt>
      <trkpt lat="47.72577" lon="4.96283">
        <ele>427.04</ele>
        <time>2022-07-04T08:03:24Z</time>
      </trkpt>
      <trkpt lat="47.72574" lon="4.96281">
        <ele>427.22</ele>
        <time>2022-07-04T08:03:26Z</time>
      </trkpt>
      <trkpt lat="47.72572" lon="4.96279">
        <ele>427.36</ele>
        <time>2022-07-04T08:03:29Z</time>
      </trkpt>
      <trkpt lat="47.72569" lon="4.96276">
        <ele>427.61</ele>
        <time>2022-07-04T08:03:31Z</time>
      </trkpt>
      <trkpt lat="47.72566" lon="4.96274">
        <ele>427.84</ele>
        <time>2022-07-04T08:03:34Z</time>
      </trkpt>
      <trkpt lat="47.72563" lon="4.96272">
        <ele>428.09</ele>
        <time>2022-07-04T08:03:36Z</time>
      </trkpt>
      <trkpt lat="47.7256" lon="4.96269">
        <ele>428.42</ele>
        <time>2022-07-04T08:03:39Z</time>
      </trkpt>
      <trkpt lat="47.72557" lon="4.96266">
        <ele>428.77</ele>
        <time>2022-07-04T08:03:40Z</time>
      </trkpt>
      <trkpt lat="47.72555" lon="4.96263">
        <ele>429.03</ele>
        <time>2022-07-04T08:03:42Z</time>
      </trkpt>
      <trkpt lat="47.72552" lon="4.96261">
        <ele>429.03</ele>
        <time>2022-07-04T08:03:46Z</time>
      </trkpt>
      <trkpt lat="47.7255" lon="4.96258">
        <ele>429.17</ele>
        <time>2022-07-04T08:03:48Z</time>
      </trkpt>
      <trkpt lat="47.72547" lon="4.96256">
        <ele>429.19</ele>
        <time>2022-07-04T08:03:50Z</time>
      </trkpt>
      <trkpt lat="47.72544" lon="4.96252">
        <ele>429.41</ele>
        <time>2022-07-04T08:03:52Z</time>
      </trkpt>
      <trkpt lat="47.7254" lon="4.96249">
        <ele>429.69</ele>
        <time>2022-07-04T08:03:55Z</time>
      </trkpt>
      <trkpt lat="47.72538" lon="4.96248">
        <ele>429.9</ele>
        <time>2022-07-04T08:03:57Z</time>
      </trkpt>
      <trkpt lat="47.72535" lon="4.96246">
        <ele>430.44</ele>
        <time>2022-07-04T08:04:00Z</time>
      </trkpt>
      <trkpt lat="47.72532" lon="4.96244">
        <ele>431.08</ele>
        <time>2022-07-04T08:04:02Z</time>
      </trkpt>
      <trkpt lat="47.7253" lon="4.96241">
        <ele>432.14</ele>
        <time>2022-07-04T08:04:04Z</time>
      </trkpt>
      <trkpt lat="47.72528" lon="4.96238">
        <ele>433.3</ele>
        <time>2022-07-04T08:04:06Z</time>
      </trkpt>
      <trkpt lat="47.72525" lon="4.96235">
        <ele>433.98</ele>
        <time>2022-07-04T08:04:08Z</time>
      </trkpt>
      <trkpt lat="47.72522" lon="4.96234">
        <ele>433.83</ele>
        <time>2022-07-04T08:04:11Z</time>
      </trkpt>
      <trkpt lat="47.72519" lon="4.96232">
        <ele>433.94</ele>
        <time>2022-07-04T08:04:14Z</time>
      </trkpt>
      <trkpt lat="47.72517" lon="4.9623">
        <ele>434.14</ele>
        <time>2022-07-04T08:04:15Z</time>
      </trkpt>
      <trkpt lat="47.72514" lon="4.96227">
        <ele>434.32</ele>
        <time>2022-07-04T08:04:19Z</time>
      </trkpt>
      <trkpt lat="47.72511" lon="4.96225">
        <ele>434.13</ele>
        <time>2022-07-04T08:04:22Z</time>
      </trkpt>
      <trkpt lat="47.72507" lon="4.96224">
        <ele>433.41</ele>
        <time>2022-07-04T08:04:25Z</time>
      </trkpt>
      <trkpt lat="47.72505" lon="4.96222">
        <ele>433.29</ele>
        <time>2022-07-04T08:04:26Z</time>
      </trkpt>
      <trkpt lat="47.72502" lon="4.96221">
        <ele>432.67</ele>
        <time>2022-07-04T08:04:28Z</time>
      </trkpt>
      <trkpt lat="47.72499" lon="4.96219">
        <ele>432.38</ele>
        <time>2022-07-04T08:04:31Z</time>
      </trkpt>
      <trkpt lat="47.72496" lon="4.96217">
        <ele>432.38</ele>
        <time>2022-07-04T08:04:34Z</time>
      </trkpt>
      <trkpt lat="47.72494" lon="4.96214">
        <ele>432.56</ele>
        <time>2022-07-04T08:04:36Z</time>
      </trkpt>
      <trkpt lat="47.72491" lon="4.96212">
        <ele>432.47</ele>
        <time>2022-07-04T08:04:37Z</time>
      </trkpt>
      <trkpt lat="47.72488" lon="4.9621">
        <ele>432.33</ele>
        <time>2022-07-04T08:04:39Z</time>
      </trkpt>
      <trkpt lat="47.72484" lon="4.96207">
        <ele>432.09</ele>
        <time>2022-07-04T08:04:43Z</time>
      </trkpt>
      <trkpt lat="47.72481" lon="4.96205">
        <ele>431.84</ele>
        <time>2022-07-04T08:04:44Z</time>
      </trkpt>
      <trkpt lat="47.72479" lon="4.96203">
        <ele>431.69</ele>
        <time>2022-07-04T08:04:47Z</time>
      </trkpt>
      <trkpt lat="47.72475" lon="4.96201">
        <ele>431.19</ele>
        <time>2022-07-04T08:04:48Z</time>
      </trkpt>
      <trkpt lat="47.72473" lon="4.96199">
        <ele>430.96</ele>
        <time>2022-07-04T08:04:50Z</time>
      </trkpt>
      <trkpt lat="47.7247" lon="4.96197">
        <ele>430.66</ele>
        <time>2022-07-04T08:04:53Z</time>
      </trkpt>
      <trkpt lat="47.72466" lon="4.96194">
        <ele>430.38</ele>
        <time>2022-07-04T08:04:56Z</time>
      </trkpt>
      <trkpt lat="47.72464" lon="4.96192">
        <ele>430.41</ele>
        <time>2022-07-04T08:04:59Z</time>
      </trkpt>
      <trkpt lat="47.72461" lon="4.9619">
        <ele>430.3</ele>
        <time>2022-07-04T08:05:01Z</time>
      </trkpt>
      <trkpt lat="47.72459" lon="4.96188">
        <ele>430.28</ele>
        <time>2022-07-04T08:05:03Z</time>
      </trkpt>
      <trkpt lat="47.72457" lon="4.96185">
        <ele>430.34</ele>
        <time>2022-07-04T08:05:06Z</time>
      </trkpt>
      <trkpt lat="47.72455" lon="4.96183">
        <ele>430.28</ele>
        <time>2022-07-04T08:05:08Z</time>
      </trkpt>
      <trkpt lat="47.72452" lon="4.9618">
        <ele>430.14</ele>
        <time>2022-07-04T08:05:11Z</time>
      </trkpt>
      <trkpt lat="47.7245" lon="4.96177">
        <ele>430.11</ele>
        <time>2022-07-04T08:05:13Z</time>
      </trkpt>
      <trkpt lat="47.72447" lon="4.96175">
        <ele>429.8</ele>
        <time>2022-07-04T08:05:15Z</time>
      </trkpt>
      <trkpt lat="47.72445" lon="4.96173">
        <ele>429.63</ele>
        <time>2022-07-04T08:05:17Z</time>
      </trkpt>
      <trkpt lat="47.72442" lon="4.96172">
        <ele>429.64</ele>
        <time>2022-07-04T08:05:19Z</time>
      </trkpt>
      <trkpt lat="47.72439" lon="4.9617">
        <ele>429.86</ele>
        <time>2022-07-04T08:05:22Z</time>
      </trkpt>
      <trkpt lat="47.72437" lon="4.96167">
        <ele>430.23</ele>
        <time>2022-07-04T08:05:24Z</time>
      </trkpt>
      <trkpt lat="47.72435" lon="4.96164">
        <ele>430.56</ele>
        <time>2022-07-04T08:05:26Z</time>
      </trkpt>
      <trkpt lat="47.72432" lon="4.96162">
        <ele>430.8</ele>
        <time>2022-07-04T08:05:29Z</time>
      </trkpt>
      <trkpt lat="47.72429" lon="4.96159">
        <ele>431.08</ele>
        <time>2022-07-04T08:05:32Z</time>
      </trkpt>
      <trkpt lat="47.72426" lon="4.96158">
        <ele>431.19</ele>
        <time>2022-07-04T08:05:34Z</time>
      </trkpt>
      <trkpt lat="47.72424" lon="4.96155">
        <ele>431.38</ele>
        <time>2022-07-04T08:05:36Z</time>
      </trkpt>
      <trkpt lat="47.72421" lon="4.96153">
        <ele>431.49</ele>
        <time>2022-07-04T08:05:38Z</time>
      </trkpt>
      <trkpt lat="47.72418" lon="4.9615">
        <ele>431.61</ele>
        <time>2022-07-04T08:05:40Z</time>
      </trkpt>
      <trkpt lat="47.72416" lon="4.96147">
        <ele>431.56</ele>
        <time>2022-07-04T08:05:43Z</time>
      </trkpt>
      <trkpt lat="47.72414" lon="4.96145">
        <ele>431.18</ele>
        <time>2022-07-04T08:05:44Z</time>
      </trkpt>
      <trkpt lat="47.72412" lon="4.96142">
        <ele>430.86</ele>
        <time>2022-07-04T08:05:46Z</time>
      </trkpt>
      <trkpt lat="47.72409" lon="4.96139">
        <ele>430.34</ele>
        <time>2022-07-04T08:05:48Z</time>
      </trkpt>
      <trkpt lat="47.72405" lon="4.96137">
        <ele>429.61</ele>
        <time>2022-07-04T08:05:51Z</time>
      </trkpt>
      <trkpt lat="47.72402" lon="4.96135">
        <ele>429.12</ele>
        <time>2022-07-04T08:05:54Z</time>
      </trkpt>
      <trkpt lat="47.724" lon="4.96133">
        <ele>428.87</ele>
        <time>2022-07-04T08:05:56Z</time>
      </trkpt>
      <trkpt lat="47.72397" lon="4.96131">
        <ele>428.44</ele>
        <time>2022-07-04T08:05:57Z</time>
      </trkpt>
      <trkpt lat="47.72395" lon="4.96128">
        <ele>428.32</ele>
        <time>2022-07-04T08:06:00Z</time>
      </trkpt>
      <trkpt lat="47.72392" lon="4.96125">
        <ele>428.06</ele>
        <time>2022-07-04T08:06:04Z</time>
      </trkpt>
      <trkpt lat="47.7239" lon="4.96123">
        <ele>427.91</ele>
        <time>2022-07-04T08:06:05Z</time>
      </trkpt>
      <trkpt lat="47.72387" lon="4.9612">
        <ele>427.66</ele>
        <time>2022-07-04T08:06:07Z</time>
      </trkpt>
      <trkpt lat="47.72385" lon="4.96116">
        <ele>427.72</ele>
        <time>2022-07-04T08:06:10Z</time>
      </trkpt>
      <trkpt lat="47.72383" lon="4.96112">
        <ele>427.83</ele>
        <time>2022-07-04T08:06:11Z</time>
      </trkpt>
      <trkpt lat="47.72381" lon="4.96109">
        <ele>427.92</ele>
        <time>2022-07-04T08:06:14Z</time>
      </trkpt>
      <trkpt lat="47.72378" lon="4.96107">
        <ele>427.77</ele>
        <time>2022-07-04T08:06:15Z</time>
      </trkpt>
      <trkpt lat="47.72376" lon="4.96104">
        <ele>428.04</ele>
        <time>2022-07-04T08:06:17Z</time>
      </trkpt>
      <trkpt lat="47.72373" lon="4.96102">
        <ele>428.06</ele>
        <time>2022-07-04T08:06:19Z</time>
      </trkpt>
      <trkpt lat="47.72371" lon="4.96099">
        <ele>428.49</ele>
        <time>2022-07-04T08:06:22Z</time>
      </trkpt>
      <trkpt lat="47.72368" lon="4.96096">
        <ele>428.92</ele>
        <time>2022-07-04T08:06:25Z</time>
      </trkpt>
      <trkpt lat="47.72366" lon="4.96093">
        <ele>429.52</ele>
        <time>2022-07-04T08:06:27Z</time>
      </trkpt>
      <trkpt lat="47.72363" lon="4.96091">
        <ele>429.89</ele>
        <time>2022-07-04T08:06:28Z</time>
      </trkpt>
      <trkpt lat="47.72361" lon="4.96088">
        <ele>430.64</ele>
        <time>2022-07-04T08:06:30Z</time>
      </trkpt>
      <trkpt lat="47.72359" lon="4.96084">
        <ele>431.43</ele>
        <time>2022-07-04T08:06:32Z</time>
      </trkpt>
      <trkpt lat="47.72357" lon="4.96081">
        <ele>431.44</ele>
        <time>2022-07-04T08:06:34Z</time>
      </trkpt>
      <trkpt lat="47.72354" lon="4.96078">
        <ele>431.15</ele>
        <time>2022-07-04T08:06:37Z</time>
      </trkpt>
      <trkpt lat="47.72353" lon="4.96074">
        <ele>431.31</ele>
        <time>2022-07-04T08:06:40Z</time>
      </trkpt>
      <trkpt lat="47.72351" lon="4.96071">
        <ele>431.23</ele>
        <time>2022-07-04T08:06:42Z</time>
      </trkpt>
      <trkpt lat="47.72349" lon="4.96068">
        <ele>431.16</ele>
        <time>2022-07-04T08:06:43Z</time>
      </trkpt>
      <trkpt lat="47.72346" lon="4.96065">
        <ele>430.96</ele>
        <time>2022-07-04T08:06:46Z</time>
      </trkpt>
      <trkpt lat="47.72343" lon="4.96062">
        <ele>430.78</ele>
        <time>2022-07-04T08:06:49Z</time>
      </trkpt>
      <trkpt lat="47.72341" lon="4.96059">
        <ele>430.77</ele>
        <time>2022-07-04T08:06:52Z</time>
      </trkpt>
      <trkpt lat="47.72338" lon="4.96055">
        <ele>430.67</ele>
        <time>2022-07-04T08:06:54Z</time>
      </trkpt>
      <trkpt lat="47.72335" lon="4.9605">
        <ele>430.22</ele>
        <time>2022-07-04T08:06:57Z</time>
      </trkpt>
      <trkpt lat="47.72333" lon="4.96046">
        <ele>429.93</ele>
        <time>2022-07-04T08:07:01Z</time>
      </trkpt>
      <trkpt lat="47.72332" lon="4.96043">
        <ele>429.71</ele>
        <time>2022-07-04T08:07:03Z</time>
      </trkpt>
      <trkpt lat="47.7233" lon="4.96039">
        <ele>429.28</ele>
        <time>2022-07-04T08:07:05Z</time>
      </trkpt>
      <trkpt lat="47.72328" lon="4.96035">
        <ele>428.85</ele>
        <time>2022-07-04T08:07:08Z</time>
      </trkpt>
      <trkpt lat="47.72325" lon="4.96032">
        <ele>428.2</ele>
        <time>2022-07-04T08:07:11Z</time>
      </trkpt>
      <trkpt lat="47.72323" lon="4.96028">
        <ele>427.77</ele>
        <time>2022-07-04T08:07:13Z</time>
      </trkpt>
      <trkpt lat="47.7232" lon="4.96025">
        <ele>427.27</ele>
        <time>2022-07-04T08:07:15Z</time>
      </trkpt>
      <trkpt lat="47.72318" lon="4.96021">
        <ele>427.07</ele>
        <time>2022-07-04T08:07:18Z</time>
      </trkpt>
      <trkpt lat="47.72315" lon="4.96019">
        <ele>426.56</ele>
        <time>2022-07-04T08:07:20Z</time>
      </trkpt>
      <trkpt lat="47.72313" lon="4.96016">
        <ele>426.34</ele>
        <time>2022-07-04T08:07:23Z</time>
      </trkpt>
      <trkpt lat="47.7231" lon="4.96013">
        <ele>425.94</ele>
        <time>2022-07-04T08:07:25Z</time>
      </trkpt>
      <trkpt lat="47.72308" lon="4.96008">
        <ele>425.89</ele>
        <time>2022-07-04T08:07:28Z</time>
      </trkpt>
      <trkpt lat="47.72305" lon="4.96005">
        <ele>425.69</ele>
        <time>2022-07-04T08:07:31Z</time>
      </trkpt>
      <trkpt lat="47.72303" lon="4.96002">
        <ele>426.11</ele>
        <time>2022-07-04T08:07:33Z</time>
      </trkpt>
      <trkpt lat="47.72302" lon="4.95999">
        <ele>426.46</ele>
        <time>2022-07-04T08:07:35Z</time>
      </trkpt>
      <trkpt lat="47.723" lon="4.95995">
        <ele>426.96</ele>
        <time>2022-07-04T08:07:37Z</time>
      </trkpt>
      <trkpt lat="47.72298" lon="4.95991">
        <ele>427.46</ele>
        <time>2022-07-04T08:07:39Z</time>
      </trkpt>
      <trkpt lat="47.72296" lon="4.95987">
        <ele>427.97</ele>
        <time>2022-07-04T08:07:41Z</time>
      </trkpt>
      <trkpt lat="47.72294" lon="4.95983">
        <ele>428.47</ele>
        <time>2022-07-04T08:07:44Z</time>
      </trkpt>
      <trkpt lat="47.72292" lon="4.9598">
        <ele>428.9</ele>
        <time>2022-07-04T08:07:47Z</time>
      </trkpt>
      <trkpt lat="47.7229" lon="4.95977">
        <ele>429.34</ele>
        <time>2022-07-04T08:07:49Z</time>
      </trkpt>
      <trkpt lat="47.72288" lon="4.95974">
        <ele>429.77</ele>
        <time>2022-07-04T08:07:52Z</time>
      </trkpt>
      <trkpt lat="47.72285" lon="4.95973">
        <ele>430.16</ele>
        <time>2022-07-04T08:07:58Z</time>
      </trkpt>
      <trkpt lat="47.72282" lon="4.95972">
        <ele>430.57</ele>
        <time>2022-07-04T08:08:07Z</time>
      </trkpt>
      <trkpt lat="47.7228" lon="4.9597">
        <ele>431</ele>
        <time>2022-07-04T08:08:16Z</time>
      </trkpt>
      <trkpt lat="47.72278" lon="4.95967">
        <ele>431.54</ele>
        <time>2022-07-04T08:08:40Z</time>
      </trkpt>
      <trkpt lat="47.72276" lon="4.95967">
        <ele>431.68</ele>
        <time>2022-07-04T08:08:44Z</time>
      </trkpt>
      <trkpt lat="47.72274" lon="4.9597">
        <ele>431.42</ele>
        <time>2022-07-04T08:08:46Z</time>
      </trkpt>
      <trkpt lat="47.72272" lon="4.95974">
        <ele>431.01</ele>
        <time>2022-07-04T08:08:50Z</time>
      </trkpt>
      <trkpt lat="47.72271" lon="4.95978">
        <ele>430.57</ele>
        <time>2022-07-04T08:08:54Z</time>
      </trkpt>
      <trkpt lat="47.72271" lon="4.95983">
        <ele>429.99</ele>
        <time>2022-07-04T08:08:58Z</time>
      </trkpt>
      <trkpt lat="47.72271" lon="4.95987">
        <ele>429.53</ele>
        <time>2022-07-04T08:09:01Z</time>
      </trkpt>
      <trkpt lat="47.72271" lon="4.95991">
        <ele>429.07</ele>
        <time>2022-07-04T08:09:07Z</time>
      </trkpt>
      <trkpt lat="47.72271" lon="4.95996">
        <ele>428.49</ele>
        <time>2022-07-04T08:09:11Z</time>
      </trkpt>
      <trkpt lat="47.72273" lon="4.96">
        <ele>428.31</ele>
        <time>2022-07-04T08:09:13Z</time>
      </trkpt>
      <trkpt lat="47.72274" lon="4.96004">
        <ele>427.61</ele>
        <time>2022-07-04T08:09:16Z</time>
      </trkpt>
      <trkpt lat="47.72276" lon="4.96008">
        <ele>427.03</ele>
        <time>2022-07-04T08:09:21Z</time>
      </trkpt>
      <trkpt lat="47.72277" lon="4.96011">
        <ele>426.52</ele>
        <time>2022-07-04T08:09:23Z</time>
      </trkpt>
      <trkpt lat="47.72279" lon="4.96017">
        <ele>425.3</ele>
        <time>2022-07-04T08:09:26Z</time>
      </trkpt>
      <trkpt lat="47.7228" lon="4.96021">
        <ele>424.47</ele>
        <time>2022-07-04T08:09:28Z</time>
      </trkpt>
      <trkpt lat="47.72281" lon="4.96025">
        <ele>423.67</ele>
        <time>2022-07-04T08:09:30Z</time>
      </trkpt>
      <trkpt lat="47.72282" lon="4.9603">
        <ele>423.02</ele>
        <time>2022-07-04T08:09:33Z</time>
      </trkpt>
      <trkpt lat="47.72282" lon="4.96034">
        <ele>422.77</ele>
        <time>2022-07-04T08:09:38Z</time>
      </trkpt>
      <trkpt lat="47.72283" lon="4.96039">
        <ele>422.53</ele>
        <time>2022-07-04T08:09:40Z</time>
      </trkpt>
      <trkpt lat="47.72283" lon="4.96043">
        <ele>422.3</ele>
        <time>2022-07-04T08:09:43Z</time>
      </trkpt>
      <trkpt lat="47.72283" lon="4.96047">
        <ele>422.06</ele>
        <time>2022-07-04T08:09:45Z</time>
      </trkpt>
      <trkpt lat="47.72283" lon="4.96052">
        <ele>421.77</ele>
        <time>2022-07-04T08:09:48Z</time>
      </trkpt>
      <trkpt lat="47.72283" lon="4.96057">
        <ele>421.35</ele>
        <time>2022-07-04T08:09:52Z</time>
      </trkpt>
      <trkpt lat="47.72283" lon="4.96062">
        <ele>420.59</ele>
        <time>2022-07-04T08:09:54Z</time>
      </trkpt>
      <trkpt lat="47.72283" lon="4.96066">
        <ele>419.99</ele>
        <time>2022-07-04T08:09:57Z</time>
      </trkpt>
      <trkpt lat="47.72284" lon="4.9607">
        <ele>419.48</ele>
        <time>2022-07-04T08:10:02Z</time>
      </trkpt>
      <trkpt lat="47.72285" lon="4.96074">
        <ele>418.95</ele>
        <time>2022-07-04T08:10:04Z</time>
      </trkpt>
      <trkpt lat="47.72287" lon="4.96078">
        <ele>418.5</ele>
        <time>2022-07-04T08:10:06Z</time>
      </trkpt>
      <trkpt lat="47.72288" lon="4.96082">
        <ele>417.95</ele>
        <time>2022-07-04T08:10:09Z</time>
      </trkpt>
      <trkpt lat="47.7229" lon="4.96086">
        <ele>417.2</ele>
        <time>2022-07-04T08:10:12Z</time>
      </trkpt>
      <trkpt lat="47.72292" lon="4.9609">
        <ele>416.35</ele>
        <time>2022-07-04T08:10:14Z</time>
      </trkpt>
      <trkpt lat="47.72294" lon="4.96092">
        <ele>416.04</ele>
        <time>2022-07-04T08:10:18Z</time>
      </trkpt>
      <trkpt lat="47.72296" lon="4.96095">
        <ele>415.5</ele>
        <time>2022-07-04T08:10:20Z</time>
      </trkpt>
      <trkpt lat="47.72297" lon="4.96099">
        <ele>414.65</ele>
        <time>2022-07-04T08:10:23Z</time>
      </trkpt>
      <trkpt lat="47.72299" lon="4.96103">
        <ele>413.95</ele>
        <time>2022-07-04T08:10:25Z</time>
      </trkpt>
      <trkpt lat="47.723" lon="4.96107">
        <ele>413.15</ele>
        <time>2022-07-04T08:10:28Z</time>
      </trkpt>
      <trkpt lat="47.72301" lon="4.96111">
        <ele>412.37</ele>
        <time>2022-07-04T08:10:30Z</time>
      </trkpt>
      <trkpt lat="47.72303" lon="4.96116">
        <ele>411.43</ele>
        <time>2022-07-04T08:10:34Z</time>
      </trkpt>
      <trkpt lat="47.72303" lon="4.9612">
        <ele>410.45</ele>
        <time>2022-07-04T08:10:39Z</time>
      </trkpt>
      <trkpt lat="47.72305" lon="4.96124">
        <ele>409.69</ele>
        <time>2022-07-04T08:10:42Z</time>
      </trkpt>
      <trkpt lat="47.72307" lon="4.96128">
        <ele>408.96</ele>
        <time>2022-07-04T08:10:45Z</time>
      </trkpt>
      <trkpt lat="47.72309" lon="4.96131">
        <ele>408.47</ele>
        <time>2022-07-04T08:10:47Z</time>
      </trkpt>
      <trkpt lat="47.72312" lon="4.96134">
        <ele>408.05</ele>
        <time>2022-07-04T08:10:49Z</time>
      </trkpt>
      <trkpt lat="47.72314" lon="4.96136">
        <ele>407.73</ele>
        <time>2022-07-04T08:10:51Z</time>
      </trkpt>
      <trkpt lat="47.72317" lon="4.9614">
        <ele>406.98</ele>
        <time>2022-07-04T08:10:54Z</time>
      </trkpt>
      <trkpt lat="47.72318" lon="4.96144">
        <ele>406.16</ele>
        <time>2022-07-04T08:10:56Z</time>
      </trkpt>
      <trkpt lat="47.7232" lon="4.96148">
        <ele>405.42</ele>
        <time>2022-07-04T08:10:58Z</time>
      </trkpt>
      <trkpt lat="47.72322" lon="4.96152">
        <ele>404.66</ele>
        <time>2022-07-04T08:11:00Z</time>
      </trkpt>
      <trkpt lat="47.72324" lon="4.96155">
        <ele>404.13</ele>
        <time>2022-07-04T08:11:03Z</time>
      </trkpt>
      <trkpt lat="47.72324" lon="4.9616">
        <ele>402.93</ele>
        <time>2022-07-04T08:11:05Z</time>
      </trkpt>
      <trkpt lat="47.72324" lon="4.96164">
        <ele>401.97</ele>
        <time>2022-07-04T08:11:10Z</time>
      </trkpt>
      <trkpt lat="47.72323" lon="4.96168">
        <ele>401.12</ele>
        <time>2022-07-04T08:11:14Z</time>
      </trkpt>
      <trkpt lat="47.72322" lon="4.96171">
        <ele>400.74</ele>
        <time>2022-07-04T08:11:18Z</time>
      </trkpt>
      <trkpt lat="47.7232" lon="4.96175">
        <ele>400.15</ele>
        <time>2022-07-04T08:11:21Z</time>
      </trkpt>
      <trkpt lat="47.7232" lon="4.96179">
        <ele>399.73</ele>
        <time>2022-07-04T08:11:23Z</time>
      </trkpt>
      <trkpt lat="47.7232" lon="4.96184">
        <ele>399.19</ele>
        <time>2022-07-04T08:11:26Z</time>
      </trkpt>
      <trkpt lat="47.72319" lon="4.96188">
        <ele>398.64</ele>
        <time>2022-07-04T08:11:30Z</time>
      </trkpt>
      <trkpt lat="47.72318" lon="4.96192">
        <ele>398.07</ele>
        <time>2022-07-04T08:11:33Z</time>
      </trkpt>
      <trkpt lat="47.72317" lon="4.96196">
        <ele>397.38</ele>
        <time>2022-07-04T08:11:36Z</time>
      </trkpt>
      <trkpt lat="47.72316" lon="4.96201">
        <ele>396.38</ele>
        <time>2022-07-04T08:11:40Z</time>
      </trkpt>
      <trkpt lat="47.72316" lon="4.96205">
        <ele>395.7</ele>
        <time>2022-07-04T08:11:43Z</time>
      </trkpt>
      <trkpt lat="47.72315" lon="4.9621">
        <ele>394.74</ele>
        <time>2022-07-04T08:11:47Z</time>
      </trkpt>
      <trkpt lat="47.72314" lon="4.96214">
        <ele>393.97</ele>
        <time>2022-07-04T08:11:49Z</time>
      </trkpt>
      <trkpt lat="47.72313" lon="4.96218">
        <ele>393.23</ele>
        <time>2022-07-04T08:11:53Z</time>
      </trkpt>
      <trkpt lat="47.72312" lon="4.96222">
        <ele>392.5</ele>
        <time>2022-07-04T08:11:55Z</time>
      </trkpt>
      <trkpt lat="47.72311" lon="4.96227">
        <ele>392.12</ele>
        <time>2022-07-04T08:11:59Z</time>
      </trkpt>
      <trkpt lat="47.7231" lon="4.96231">
        <ele>391.79</ele>
        <time>2022-07-04T08:12:01Z</time>
      </trkpt>
      <trkpt lat="47.7231" lon="4.96235">
        <ele>391.55</ele>
        <time>2022-07-04T08:12:04Z</time>
      </trkpt>
      <trkpt lat="47.72309" lon="4.96239">
        <ele>391.19</ele>
        <time>2022-07-04T08:12:07Z</time>
      </trkpt>
      <trkpt lat="47.72307" lon="4.96245">
        <ele>390.55</ele>
        <time>2022-07-04T08:12:10Z</time>
      </trkpt>
      <trkpt lat="47.72305" lon="4.96249">
        <ele>390.05</ele>
        <time>2022-07-04T08:12:13Z</time>
      </trkpt>
      <trkpt lat="47.72303" lon="4.96251">
        <ele>389.91</ele>
        <time>2022-07-04T08:12:16Z</time>
      </trkpt>
      <trkpt lat="47.72301" lon="4.96254">
        <ele>389.88</ele>
        <time>2022-07-04T08:12:20Z</time>
      </trkpt>
      <trkpt lat="47.72298" lon="4.96255">
        <ele>389.83</ele>
        <time>2022-07-04T08:12:24Z</time>
      </trkpt>
      <trkpt lat="47.72296" lon="4.96258">
        <ele>389.85</ele>
        <time>2022-07-04T08:12:29Z</time>
      </trkpt>
      <trkpt lat="47.72296" lon="4.96263">
        <ele>389.98</ele>
        <time>2022-07-04T08:12:30Z</time>
      </trkpt>
      <trkpt lat="47.72296" lon="4.96269">
        <ele>390.13</ele>
        <time>2022-07-04T08:12:34Z</time>
      </trkpt>
      <trkpt lat="47.72295" lon="4.96273">
        <ele>390.25</ele>
        <time>2022-07-04T08:12:37Z</time>
      </trkpt>
      <trkpt lat="47.72295" lon="4.96278">
        <ele>390.39</ele>
        <time>2022-07-04T08:12:40Z</time>
      </trkpt>
      <trkpt lat="47.72294" lon="4.96283">
        <ele>390.64</ele>
        <time>2022-07-04T08:12:42Z</time>
      </trkpt>
      <trkpt lat="47.72294" lon="4.96287">
        <ele>390.8</ele>
        <time>2022-07-04T08:12:45Z</time>
      </trkpt>
      <trkpt lat="47.72294" lon="4.96291">
        <ele>390.97</ele>
        <time>2022-07-04T08:12:47Z</time>
      </trkpt>
      <trkpt lat="47.72294" lon="4.96296">
        <ele>391.18</ele>
        <time>2022-07-04T08:12:50Z</time>
      </trkpt>
      <trkpt lat="47.72294" lon="4.96301">
        <ele>391.39</ele>
        <time>2022-07-04T08:12:52Z</time>
      </trkpt>
      <trkpt lat="47.72293" lon="4.96305">
        <ele>391.53</ele>
        <time>2022-07-04T08:12:56Z</time>
      </trkpt>
      <trkpt lat="47.72293" lon="4.9631">
        <ele>392.12</ele>
        <time>2022-07-04T08:12:58Z</time>
      </trkpt>
      <trkpt lat="47.72292" lon="4.96314">
        <ele>392.58</ele>
        <time>2022-07-04T08:13:02Z</time>
      </trkpt>
      <trkpt lat="47.72291" lon="4.96318">
        <ele>393.03</ele>
        <time>2022-07-04T08:13:04Z</time>
      </trkpt>
      <trkpt lat="47.7229" lon="4.96321">
        <ele>393.35</ele>
        <time>2022-07-04T08:13:07Z</time>
      </trkpt>
      <trkpt lat="47.72288" lon="4.96325">
        <ele>393.73</ele>
        <time>2022-07-04T08:13:10Z</time>
      </trkpt>
      <trkpt lat="47.72287" lon="4.96329">
        <ele>394.14</ele>
        <time>2022-07-04T08:13:13Z</time>
      </trkpt>
      <trkpt lat="47.72286" lon="4.96334">
        <ele>394.58</ele>
        <time>2022-07-04T08:13:17Z</time>
      </trkpt>
      <trkpt lat="47.72285" lon="4.96338">
        <ele>394.44</ele>
        <time>2022-07-04T08:13:19Z</time>
      </trkpt>
      <trkpt lat="47.72284" lon="4.96342">
        <ele>394.28</ele>
        <time>2022-07-04T08:13:23Z</time>
      </trkpt>
      <trkpt lat="47.72282" lon="4.96345">
        <ele>394.01</ele>
        <time>2022-07-04T08:13:28Z</time>
      </trkpt>
      <trkpt lat="47.72281" lon="4.9635">
        <ele>393.77</ele>
        <time>2022-07-04T08:13:30Z</time>
      </trkpt>
      <trkpt lat="47.72278" lon="4.96353">
        <ele>393.32</ele>
        <time>2022-07-04T08:13:33Z</time>
      </trkpt>
      <trkpt lat="47.72276" lon="4.96356">
        <ele>393.53</ele>
        <time>2022-07-04T08:13:37Z</time>
      </trkpt>
      <trkpt lat="47.72274" lon="4.96359">
        <ele>393.86</ele>
        <time>2022-07-04T08:13:41Z</time>
      </trkpt>
      <trkpt lat="47.72272" lon="4.96363">
        <ele>394.44</ele>
        <time>2022-07-04T08:13:43Z</time>
      </trkpt>
      <trkpt lat="47.7227" lon="4.96367">
        <ele>395.17</ele>
        <time>2022-07-04T08:13:45Z</time>
      </trkpt>
      <trkpt lat="47.72268" lon="4.96369">
        <ele>395.65</ele>
        <time>2022-07-04T08:13:49Z</time>
      </trkpt>
      <trkpt lat="47.72266" lon="4.96373">
        <ele>396.17</ele>
        <time>2022-07-04T08:13:52Z</time>
      </trkpt>
      <trkpt lat="47.72264" lon="4.96376">
        <ele>396.52</ele>
        <time>2022-07-04T08:13:55Z</time>
      </trkpt>
      <trkpt lat="47.72262" lon="4.96379">
        <ele>396.79</ele>
        <time>2022-07-04T08:13:57Z</time>
      </trkpt>
      <trkpt lat="47.7226" lon="4.96381">
        <ele>396.95</ele>
        <time>2022-07-04T08:14:00Z</time>
      </trkpt>
      <trkpt lat="47.72258" lon="4.96384">
        <ele>397.05</ele>
        <time>2022-07-04T08:14:12Z</time>
      </trkpt>
      <trkpt lat="47.72258" lon="4.96389">
        <ele>396.99</ele>
        <time>2022-07-04T08:14:18Z</time>
      </trkpt>
      <trkpt lat="47.72257" lon="4.96393">
        <ele>396.63</ele>
        <time>2022-07-04T08:14:23Z</time>
      </trkpt>
      <trkpt lat="47.72257" lon="4.96397">
        <ele>396.27</ele>
        <time>2022-07-04T08:14:28Z</time>
      </trkpt>
      <trkpt lat="47.72257" lon="4.96401">
        <ele>395.91</ele>
        <time>2022-07-04T08:14:30Z</time>
      </trkpt>
      <trkpt lat="47.72256" lon="4.96405">
        <ele>395.59</ele>
        <time>2022-07-04T08:14:35Z</time>
      </trkpt>
      <trkpt lat="47.72254" lon="4.9641">
        <ele>395.26</ele>
        <time>2022-07-04T08:14:39Z</time>
      </trkpt>
      <trkpt lat="47.72252" lon="4.96413">
        <ele>395.14</ele>
        <time>2022-07-04T08:14:43Z</time>
      </trkpt>
      <trkpt lat="47.7225" lon="4.96417">
        <ele>394.99</ele>
        <time>2022-07-04T08:14:48Z</time>
      </trkpt>
      <trkpt lat="47.72249" lon="4.96422">
        <ele>394.83</ele>
        <time>2022-07-04T08:14:52Z</time>
      </trkpt>
      <trkpt lat="47.72247" lon="4.96425">
        <ele>394.8</ele>
        <time>2022-07-04T08:14:54Z</time>
      </trkpt>
      <trkpt lat="47.72244" lon="4.96428">
        <ele>394.86</ele>
        <time>2022-07-04T08:14:58Z</time>
      </trkpt>
      <trkpt lat="47.72242" lon="4.96432">
        <ele>394.92</ele>
        <time>2022-07-04T08:15:02Z</time>
      </trkpt>
      <trkpt lat="47.72241" lon="4.96436">
        <ele>394.98</ele>
        <time>2022-07-04T08:15:04Z</time>
      </trkpt>
      <trkpt lat="47.7224" lon="4.96441">
        <ele>395.07</ele>
        <time>2022-07-04T08:15:07Z</time>
      </trkpt>
      <trkpt lat="47.72237" lon="4.96444">
        <ele>395.4</ele>
        <time>2022-07-04T08:15:09Z</time>
      </trkpt>
      <trkpt lat="47.72235" lon="4.96447">
        <ele>395.8</ele>
        <time>2022-07-04T08:15:11Z</time>
      </trkpt>
      <trkpt lat="47.72233" lon="4.96449">
        <ele>396.16</ele>
        <time>2022-07-04T08:15:14Z</time>
      </trkpt>
      <trkpt lat="47.72231" lon="4.96452">
        <ele>396.6</ele>
        <time>2022-07-04T08:15:16Z</time>
      </trkpt>
      <trkpt lat="47.72228" lon="4.96456">
        <ele>397.21</ele>
        <time>2022-07-04T08:15:21Z</time>
      </trkpt>
      <trkpt lat="47.72226" lon="4.96459">
        <ele>397.64</ele>
        <time>2022-07-04T08:15:22Z</time>
      </trkpt>
      <trkpt lat="47.72224" lon="4.96461">
        <ele>398</ele>
        <time>2022-07-04T08:15:26Z</time>
      </trkpt>
      <trkpt lat="47.72221" lon="4.96463">
        <ele>398.22</ele>
        <time>2022-07-04T08:15:33Z</time>
      </trkpt>
      <trkpt lat="47.72218" lon="4.96465">
        <ele>398.1</ele>
        <time>2022-07-04T08:15:35Z</time>
      </trkpt>
      <trkpt lat="47.72215" lon="4.96467">
        <ele>398.01</ele>
        <time>2022-07-04T08:15:40Z</time>
      </trkpt>
      <trkpt lat="47.72212" lon="4.96468">
        <ele>397.85</ele>
        <time>2022-07-04T08:15:42Z</time>
      </trkpt>
      <trkpt lat="47.72209" lon="4.9647">
        <ele>397.81</ele>
        <time>2022-07-04T08:15:47Z</time>
      </trkpt>
      <trkpt lat="47.72206" lon="4.96471">
        <ele>397.69</ele>
        <time>2022-07-04T08:15:50Z</time>
      </trkpt>
      <trkpt lat="47.72202" lon="4.96473">
        <ele>397.59</ele>
        <time>2022-07-04T08:15:52Z</time>
      </trkpt>
      <trkpt lat="47.72199" lon="4.96475">
        <ele>397.46</ele>
        <time>2022-07-04T08:15:55Z</time>
      </trkpt>
      <trkpt lat="47.72196" lon="4.96476">
        <ele>397.26</ele>
        <time>2022-07-04T08:15:56Z</time>
      </trkpt>
      <trkpt lat="47.72194" lon="4.96478">
        <ele>397.09</ele>
        <time>2022-07-04T08:15:59Z</time>
      </trkpt>
      <trkpt lat="47.7219" lon="4.96479">
        <ele>396.04</ele>
        <time>2022-07-04T08:16:02Z</time>
      </trkpt>
      <trkpt lat="47.72187" lon="4.96481">
        <ele>395.34</ele>
        <time>2022-07-04T08:16:03Z</time>
      </trkpt>
      <trkpt lat="47.72183" lon="4.96482">
        <ele>394.35</ele>
        <time>2022-07-04T08:16:07Z</time>
      </trkpt>
      <trkpt lat="47.72181" lon="4.96484">
        <ele>393.96</ele>
        <time>2022-07-04T08:16:09Z</time>
      </trkpt>
      <trkpt lat="47.72178" lon="4.96485">
        <ele>393.27</ele>
        <time>2022-07-04T08:16:11Z</time>
      </trkpt>
      <trkpt lat="47.72175" lon="4.96486">
        <ele>392.59</ele>
        <time>2022-07-04T08:16:13Z</time>
      </trkpt>
      <trkpt lat="47.72172" lon="4.96488">
        <ele>392.02</ele>
        <time>2022-07-04T08:16:16Z</time>
      </trkpt>
      <trkpt lat="47.72169" lon="4.96488">
        <ele>391.28</ele>
        <time>2022-07-04T08:16:21Z</time>
      </trkpt>
      <trkpt lat="47.72166" lon="4.96488">
        <ele>390.7</ele>
        <time>2022-07-04T08:16:22Z</time>
      </trkpt>
      <trkpt lat="47.72163" lon="4.96489">
        <ele>390.81</ele>
        <time>2022-07-04T08:16:25Z</time>
      </trkpt>
      <trkpt lat="47.7216" lon="4.9649">
        <ele>390.92</ele>
        <time>2022-07-04T08:16:28Z</time>
      </trkpt>
      <trkpt lat="47.72157" lon="4.96491">
        <ele>391.03</ele>
        <time>2022-07-04T08:16:30Z</time>
      </trkpt>
      <trkpt lat="47.72154" lon="4.96492">
        <ele>391.14</ele>
        <time>2022-07-04T08:16:32Z</time>
      </trkpt>
      <trkpt lat="47.72151" lon="4.96493">
        <ele>391.24</ele>
        <time>2022-07-04T08:16:36Z</time>
      </trkpt>
      <trkpt lat="47.72148" lon="4.96494">
        <ele>391.35</ele>
        <time>2022-07-04T08:16:38Z</time>
      </trkpt>
      <trkpt lat="47.72146" lon="4.96496">
        <ele>391.57</ele>
        <time>2022-07-04T08:16:41Z</time>
      </trkpt>
      <trkpt lat="47.72142" lon="4.96497">
        <ele>391.68</ele>
        <time>2022-07-04T08:16:44Z</time>
      </trkpt>
      <trkpt lat="47.72139" lon="4.96496">
        <ele>391.57</ele>
        <time>2022-07-04T08:16:47Z</time>
      </trkpt>
      <trkpt lat="47.72137" lon="4.96495">
        <ele>391.79</ele>
        <time>2022-07-04T08:16:51Z</time>
      </trkpt>
      <trkpt lat="47.72134" lon="4.96496">
        <ele>392.42</ele>
        <time>2022-07-04T08:16:53Z</time>
      </trkpt>
      <trkpt lat="47.72131" lon="4.96497">
        <ele>393.07</ele>
        <time>2022-07-04T08:16:55Z</time>
      </trkpt>
      <trkpt lat="47.72128" lon="4.96497">
        <ele>393.59</ele>
        <time>2022-07-04T08:16:58Z</time>
      </trkpt>
      <trkpt lat="47.72125" lon="4.96498">
        <ele>394.25</ele>
        <time>2022-07-04T08:17:00Z</time>
      </trkpt>
      <trkpt lat="47.72122" lon="4.965">
        <ele>395.04</ele>
        <time>2022-07-04T08:17:04Z</time>
      </trkpt>
      <trkpt lat="47.72119" lon="4.96501">
        <ele>395.72</ele>
        <time>2022-07-04T08:17:07Z</time>
      </trkpt>
      <trkpt lat="47.72116" lon="4.96502">
        <ele>396.41</ele>
        <time>2022-07-04T08:17:08Z</time>
      </trkpt>
      <trkpt lat="47.72113" lon="4.96503">
        <ele>397.09</ele>
        <time>2022-07-04T08:17:12Z</time>
      </trkpt>
      <trkpt lat="47.7211" lon="4.96504">
        <ele>397.74</ele>
        <time>2022-07-04T08:17:15Z</time>
      </trkpt>
      <trkpt lat="47.72107" lon="4.96504">
        <ele>398.19</ele>
        <time>2022-07-04T08:17:17Z</time>
      </trkpt>
      <trkpt lat="47.72104" lon="4.96504">
        <ele>398.64</ele>
        <time>2022-07-04T08:17:21Z</time>
      </trkpt>
      <trkpt lat="47.72101" lon="4.96504">
        <ele>399.08</ele>
        <time>2022-07-04T08:17:23Z</time>
      </trkpt>
      <trkpt lat="47.72098" lon="4.96505">
        <ele>399.69</ele>
        <time>2022-07-04T08:17:26Z</time>
      </trkpt>
      <trkpt lat="47.72095" lon="4.96506">
        <ele>400.31</ele>
        <time>2022-07-04T08:17:28Z</time>
      </trkpt>
      <trkpt lat="47.72092" lon="4.96507">
        <ele>400.93</ele>
        <time>2022-07-04T08:17:30Z</time>
      </trkpt>
      <trkpt lat="47.72088" lon="4.96508">
        <ele>401.72</ele>
        <time>2022-07-04T08:17:33Z</time>
      </trkpt>
      <trkpt lat="47.72084" lon="4.9651">
        <ele>402.7</ele>
        <time>2022-07-04T08:17:35Z</time>
      </trkpt>
      <trkpt lat="47.72082" lon="4.96511">
        <ele>402.95</ele>
        <time>2022-07-04T08:17:38Z</time>
      </trkpt>
      <trkpt lat="47.72078" lon="4.9651">
        <ele>402.68</ele>
        <time>2022-07-04T08:17:40Z</time>
      </trkpt>
      <trkpt lat="47.72075" lon="4.9651">
        <ele>402.61</ele>
        <time>2022-07-04T08:17:42Z</time>
      </trkpt>
      <trkpt lat="47.72072" lon="4.9651">
        <ele>402.54</ele>
        <time>2022-07-04T08:17:45Z</time>
      </trkpt>
      <trkpt lat="47.72069" lon="4.96511">
        <ele>402.67</ele>
        <time>2022-07-04T08:17:48Z</time>
      </trkpt>
      <trkpt lat="47.72066" lon="4.96513">
        <ele>403.01</ele>
        <time>2022-07-04T08:17:51Z</time>
      </trkpt>
      <trkpt lat="47.72063" lon="4.96514">
        <ele>403.16</ele>
        <time>2022-07-04T08:17:54Z</time>
      </trkpt>
      <trkpt lat="47.7206" lon="4.96515">
        <ele>403.31</ele>
        <time>2022-07-04T08:17:57Z</time>
      </trkpt>
      <trkpt lat="47.72057" lon="4.96516">
        <ele>403.48</ele>
        <time>2022-07-04T08:18:00Z</time>
      </trkpt>
      <trkpt lat="47.72054" lon="4.96518">
        <ele>403.98</ele>
        <time>2022-07-04T08:18:04Z</time>
      </trkpt>
      <trkpt lat="47.72051" lon="4.9652">
        <ele>404.58</ele>
        <time>2022-07-04T08:18:06Z</time>
      </trkpt>
      <trkpt lat="47.72047" lon="4.96522">
        <ele>405.19</ele>
        <time>2022-07-04T08:18:10Z</time>
      </trkpt>
      <trkpt lat="47.72045" lon="4.96522">
        <ele>405.29</ele>
        <time>2022-07-04T08:18:11Z</time>
      </trkpt>
      <trkpt lat="47.72041" lon="4.96522">
        <ele>405.49</ele>
        <time>2022-07-04T08:18:15Z</time>
      </trkpt>
      <trkpt lat="47.72038" lon="4.96522">
        <ele>405.65</ele>
        <time>2022-07-04T08:18:17Z</time>
      </trkpt>
      <trkpt lat="47.72035" lon="4.96522">
        <ele>405.8</ele>
        <time>2022-07-04T08:18:19Z</time>
      </trkpt>
      <trkpt lat="47.72032" lon="4.96523">
        <ele>406.11</ele>
        <time>2022-07-04T08:18:23Z</time>
      </trkpt>
      <trkpt lat="47.72029" lon="4.96523">
        <ele>406.25</ele>
        <time>2022-07-04T08:18:24Z</time>
      </trkpt>
      <trkpt lat="47.72025" lon="4.96522">
        <ele>406.03</ele>
        <time>2022-07-04T08:18:28Z</time>
      </trkpt>
      <trkpt lat="47.72022" lon="4.96522">
        <ele>405.87</ele>
        <time>2022-07-04T08:18:31Z</time>
      </trkpt>
      <trkpt lat="47.7202" lon="4.96523">
        <ele>405.94</ele>
        <time>2022-07-04T08:18:32Z</time>
      </trkpt>
      <trkpt lat="47.72016" lon="4.96524">
        <ele>405.92</ele>
        <time>2022-07-04T08:18:35Z</time>
      </trkpt>
      <trkpt lat="47.72012" lon="4.96526">
        <ele>406.1</ele>
        <time>2022-07-04T08:18:37Z</time>
      </trkpt>
      <trkpt lat="47.72009" lon="4.96527">
        <ele>406.17</ele>
        <time>2022-07-04T08:18:40Z</time>
      </trkpt>
      <trkpt lat="47.72006" lon="4.96528">
        <ele>406.24</ele>
        <time>2022-07-04T08:18:44Z</time>
      </trkpt>
      <trkpt lat="47.72003" lon="4.96528">
        <ele>406.13</ele>
        <time>2022-07-04T08:18:47Z</time>
      </trkpt>
      <trkpt lat="47.72" lon="4.96529">
        <ele>406.13</ele>
        <time>2022-07-04T08:18:51Z</time>
      </trkpt>
      <trkpt lat="47.71997" lon="4.9653">
        <ele>406.25</ele>
        <time>2022-07-04T08:18:54Z</time>
      </trkpt>
      <trkpt lat="47.71993" lon="4.96532">
        <ele>406.49</ele>
        <time>2022-07-04T08:18:58Z</time>
      </trkpt>
      <trkpt lat="47.7199" lon="4.96533">
        <ele>406.63</ele>
        <time>2022-07-04T08:19:00Z</time>
      </trkpt>
      <trkpt lat="47.71987" lon="4.96533">
        <ele>406.65</ele>
        <time>2022-07-04T08:19:01Z</time>
      </trkpt>
      <trkpt lat="47.71984" lon="4.96534">
        <ele>406.8</ele>
        <time>2022-07-04T08:19:04Z</time>
      </trkpt>
      <trkpt lat="47.71979" lon="4.96534">
        <ele>406.84</ele>
        <time>2022-07-04T08:19:08Z</time>
      </trkpt>
      <trkpt lat="47.71976" lon="4.96535">
        <ele>407</ele>
        <time>2022-07-04T08:19:10Z</time>
      </trkpt>
      <trkpt lat="47.71973" lon="4.96535">
        <ele>407.03</ele>
        <time>2022-07-04T08:19:12Z</time>
      </trkpt>
      <trkpt lat="47.7197" lon="4.96536">
        <ele>407.3</ele>
        <time>2022-07-04T08:19:14Z</time>
      </trkpt>
      <trkpt lat="47.71968" lon="4.96537">
        <ele>407.53</ele>
        <time>2022-07-04T08:19:16Z</time>
      </trkpt>
      <trkpt lat="47.71964" lon="4.96538">
        <ele>407.85</ele>
        <time>2022-07-04T08:19:19Z</time>
      </trkpt>
      <trkpt lat="47.71962" lon="4.9654">
        <ele>408.17</ele>
        <time>2022-07-04T08:19:21Z</time>
      </trkpt>
      <trkpt lat="47.71959" lon="4.96542">
        <ele>408.51</ele>
        <time>2022-07-04T08:19:23Z</time>
      </trkpt>
      <trkpt lat="47.71956" lon="4.96544">
        <ele>408.82</ele>
        <time>2022-07-04T08:19:26Z</time>
      </trkpt>
      <trkpt lat="47.71953" lon="4.96546">
        <ele>409.1</ele>
        <time>2022-07-04T08:19:27Z</time>
      </trkpt>
      <trkpt lat="47.7195" lon="4.96547">
        <ele>409.26</ele>
        <time>2022-07-04T08:19:30Z</time>
      </trkpt>
      <trkpt lat="47.71947" lon="4.96548">
        <ele>409.41</ele>
        <time>2022-07-04T08:19:32Z</time>
      </trkpt>
      <trkpt lat="47.71945" lon="4.96549">
        <ele>409.52</ele>
        <time>2022-07-04T08:19:34Z</time>
      </trkpt>
      <trkpt lat="47.71942" lon="4.9655">
        <ele>409.81</ele>
        <time>2022-07-04T08:19:37Z</time>
      </trkpt>
      <trkpt lat="47.71939" lon="4.96551">
        <ele>410.16</ele>
        <time>2022-07-04T08:19:38Z</time>
      </trkpt>
      <trkpt lat="47.71935" lon="4.96553">
        <ele>410.74</ele>
        <time>2022-07-04T08:19:42Z</time>
      </trkpt>
      <trkpt lat="47.71932" lon="4.96554">
        <ele>411.16</ele>
        <time>2022-07-04T08:19:44Z</time>
      </trkpt>
      <trkpt lat="47.71929" lon="4.96555">
        <ele>411.59</ele>
        <time>2022-07-04T08:19:46Z</time>
      </trkpt>
      <trkpt lat="47.71926" lon="4.96557">
        <ele>412.23</ele>
        <time>2022-07-04T08:19:49Z</time>
      </trkpt>
      <trkpt lat="47.71924" lon="4.96559">
        <ele>412.77</ele>
        <time>2022-07-04T08:19:51Z</time>
      </trkpt>
      <trkpt lat="47.71921" lon="4.96561">
        <ele>413.38</ele>
        <time>2022-07-04T08:19:55Z</time>
      </trkpt>
      <trkpt lat="47.71918" lon="4.96562">
        <ele>413.81</ele>
        <time>2022-07-04T08:19:59Z</time>
      </trkpt>
      <trkpt lat="47.71915" lon="4.96564">
        <ele>414.04</ele>
        <time>2022-07-04T08:20:02Z</time>
      </trkpt>
      <trkpt lat="47.71912" lon="4.96566">
        <ele>413.98</ele>
        <time>2022-07-04T08:20:05Z</time>
      </trkpt>
      <trkpt lat="47.71909" lon="4.96567">
        <ele>413.75</ele>
        <time>2022-07-04T08:20:07Z</time>
      </trkpt>
      <trkpt lat="47.71906" lon="4.96569">
        <ele>413.61</ele>
        <time>2022-07-04T08:20:10Z</time>
      </trkpt>
      <trkpt lat="47.71904" lon="4.9657">
        <ele>413.46</ele>
        <time>2022-07-04T08:20:11Z</time>
      </trkpt>
      <trkpt lat="47.71901" lon="4.96572">
        <ele>413.24</ele>
        <time>2022-07-04T08:20:14Z</time>
      </trkpt>
      <trkpt lat="47.71898" lon="4.96574">
        <ele>412.97</ele>
        <time>2022-07-04T08:20:15Z</time>
      </trkpt>
      <trkpt lat="47.71895" lon="4.96577">
        <ele>412.72</ele>
        <time>2022-07-04T08:20:18Z</time>
      </trkpt>
      <trkpt lat="47.71892" lon="4.96579">
        <ele>412.35</ele>
        <time>2022-07-04T08:20:21Z</time>
      </trkpt>
      <trkpt lat="47.71889" lon="4.96581">
        <ele>411.93</ele>
        <time>2022-07-04T08:20:23Z</time>
      </trkpt>
      <trkpt lat="47.71887" lon="4.96583">
        <ele>411.58</ele>
        <time>2022-07-04T08:20:24Z</time>
      </trkpt>
      <trkpt lat="47.71884" lon="4.96585">
        <ele>411.28</ele>
        <time>2022-07-04T08:20:26Z</time>
      </trkpt>
      <trkpt lat="47.71881" lon="4.96588">
        <ele>411.28</ele>
        <time>2022-07-04T08:20:29Z</time>
      </trkpt>
      <trkpt lat="47.71879" lon="4.96591">
        <ele>411.54</ele>
        <time>2022-07-04T08:20:30Z</time>
      </trkpt>
      <trkpt lat="47.71875" lon="4.96594">
        <ele>411.5</ele>
        <time>2022-07-04T08:20:33Z</time>
      </trkpt>
      <trkpt lat="47.71873" lon="4.96596">
        <ele>411.63</ele>
        <time>2022-07-04T08:20:35Z</time>
      </trkpt>
      <trkpt lat="47.7187" lon="4.96599">
        <ele>411.89</ele>
        <time>2022-07-04T08:20:38Z</time>
      </trkpt>
      <trkpt lat="47.71867" lon="4.96602">
        <ele>412.22</ele>
        <time>2022-07-04T08:20:39Z</time>
      </trkpt>
      <trkpt lat="47.71865" lon="4.96604">
        <ele>412.48</ele>
        <time>2022-07-04T08:20:42Z</time>
      </trkpt>
      <trkpt lat="47.71862" lon="4.96607">
        <ele>412.93</ele>
        <time>2022-07-04T08:20:43Z</time>
      </trkpt>
      <trkpt lat="47.7186" lon="4.9661">
        <ele>413.52</ele>
        <time>2022-07-04T08:20:46Z</time>
      </trkpt>
      <trkpt lat="47.71857" lon="4.96613">
        <ele>413.85</ele>
        <time>2022-07-04T08:20:47Z</time>
      </trkpt>
      <trkpt lat="47.71854" lon="4.96615">
        <ele>413.92</ele>
        <time>2022-07-04T08:20:49Z</time>
      </trkpt>
      <trkpt lat="47.71852" lon="4.96617">
        <ele>414.17</ele>
        <time>2022-07-04T08:20:52Z</time>
      </trkpt>
      <trkpt lat="47.71849" lon="4.9662">
        <ele>414.59</ele>
        <time>2022-07-04T08:20:54Z</time>
      </trkpt>
      <trkpt lat="47.71847" lon="4.96623">
        <ele>415.19</ele>
        <time>2022-07-04T08:20:57Z</time>
      </trkpt>
      <trkpt lat="47.71845" lon="4.96626">
        <ele>415.83</ele>
        <time>2022-07-04T08:20:59Z</time>
      </trkpt>
      <trkpt lat="47.71842" lon="4.9663">
        <ele>416.73</ele>
        <time>2022-07-04T08:21:02Z</time>
      </trkpt>
      <trkpt lat="47.7184" lon="4.96632">
        <ele>417.19</ele>
        <time>2022-07-04T08:21:04Z</time>
      </trkpt>
      <trkpt lat="47.71838" lon="4.96634">
        <ele>417.67</ele>
        <time>2022-07-04T08:21:05Z</time>
      </trkpt>
      <trkpt lat="47.71834" lon="4.96636">
        <ele>418.1</ele>
        <time>2022-07-04T08:21:08Z</time>
      </trkpt>
      <trkpt lat="47.71831" lon="4.96638">
        <ele>418.38</ele>
        <time>2022-07-04T08:21:09Z</time>
      </trkpt>
      <trkpt lat="47.71829" lon="4.9664">
        <ele>418.54</ele>
        <time>2022-07-04T08:21:12Z</time>
      </trkpt>
      <trkpt lat="47.71826" lon="4.96642">
        <ele>418.42</ele>
        <time>2022-07-04T08:21:13Z</time>
      </trkpt>
      <trkpt lat="47.71824" lon="4.96645">
        <ele>418.61</ele>
        <time>2022-07-04T08:21:15Z</time>
      </trkpt>
      <trkpt lat="47.71821" lon="4.96648">
        <ele>418.68</ele>
        <time>2022-07-04T08:21:19Z</time>
      </trkpt>
      <trkpt lat="47.71818" lon="4.96651">
        <ele>418.78</ele>
        <time>2022-07-04T08:21:20Z</time>
      </trkpt>
      <trkpt lat="47.71815" lon="4.96654">
        <ele>418.9</ele>
        <time>2022-07-04T08:21:23Z</time>
      </trkpt>
      <trkpt lat="47.71813" lon="4.96658">
        <ele>419.33</ele>
        <time>2022-07-04T08:21:26Z</time>
      </trkpt>
      <trkpt lat="47.71811" lon="4.96661">
        <ele>419.61</ele>
        <time>2022-07-04T08:21:28Z</time>
      </trkpt>
      <trkpt lat="47.71809" lon="4.96665">
        <ele>420.08</ele>
        <time>2022-07-04T08:21:30Z</time>
      </trkpt>
      <trkpt lat="47.71806" lon="4.96669">
        <ele>420.3</ele>
        <time>2022-07-04T08:21:33Z</time>
      </trkpt>
      <trkpt lat="47.71804" lon="4.96672">
        <ele>420.57</ele>
        <time>2022-07-04T08:21:34Z</time>
      </trkpt>
      <trkpt lat="47.71802" lon="4.96675">
        <ele>420.86</ele>
        <time>2022-07-04T08:21:37Z</time>
      </trkpt>
      <trkpt lat="47.718" lon="4.96679">
        <ele>421.24</ele>
        <time>2022-07-04T08:21:40Z</time>
      </trkpt>
      <trkpt lat="47.71798" lon="4.96682">
        <ele>421.51</ele>
        <time>2022-07-04T08:21:41Z</time>
      </trkpt>
      <trkpt lat="47.71795" lon="4.96684">
        <ele>421.63</ele>
        <time>2022-07-04T08:21:44Z</time>
      </trkpt>
      <trkpt lat="47.71793" lon="4.96688">
        <ele>421.96</ele>
        <time>2022-07-04T08:21:46Z</time>
      </trkpt>
      <trkpt lat="47.7179" lon="4.96691">
        <ele>422.14</ele>
        <time>2022-07-04T08:21:49Z</time>
      </trkpt>
      <trkpt lat="47.71788" lon="4.96694">
        <ele>422.33</ele>
        <time>2022-07-04T08:21:51Z</time>
      </trkpt>
      <trkpt lat="47.71786" lon="4.96698">
        <ele>422.46</ele>
        <time>2022-07-04T08:21:53Z</time>
      </trkpt>
      <trkpt lat="47.71784" lon="4.96702">
        <ele>422.56</ele>
        <time>2022-07-04T08:21:55Z</time>
      </trkpt>
      <trkpt lat="47.71782" lon="4.96705">
        <ele>422.59</ele>
        <time>2022-07-04T08:21:58Z</time>
      </trkpt>
      <trkpt lat="47.7178" lon="4.96707">
        <ele>422.57</ele>
        <time>2022-07-04T08:21:59Z</time>
      </trkpt>
      <trkpt lat="47.71777" lon="4.9671">
        <ele>422.54</ele>
        <time>2022-07-04T08:22:02Z</time>
      </trkpt>
      <trkpt lat="47.71775" lon="4.96714">
        <ele>422.63</ele>
        <time>2022-07-04T08:22:05Z</time>
      </trkpt>
      <trkpt lat="47.71772" lon="4.96717">
        <ele>422.64</ele>
        <time>2022-07-04T08:22:08Z</time>
      </trkpt>
      <trkpt lat="47.7177" lon="4.9672">
        <ele>422.66</ele>
        <time>2022-07-04T08:22:10Z</time>
      </trkpt>
      <trkpt lat="47.71769" lon="4.96723">
        <ele>422.8</ele>
        <time>2022-07-04T08:22:13Z</time>
      </trkpt>
      <trkpt lat="47.71767" lon="4.96727">
        <ele>423.27</ele>
        <time>2022-07-04T08:22:15Z</time>
      </trkpt>
      <trkpt lat="47.71766" lon="4.9673">
        <ele>423.62</ele>
        <time>2022-07-04T08:22:18Z</time>
      </trkpt>
      <trkpt lat="47.71765" lon="4.96735">
        <ele>424.21</ele>
        <time>2022-07-04T08:22:20Z</time>
      </trkpt>
      <trkpt lat="47.71763" lon="4.96739">
        <ele>424.52</ele>
        <time>2022-07-04T08:22:22Z</time>
      </trkpt>
      <trkpt lat="47.71762" lon="4.96743">
        <ele>424.9</ele>
        <time>2022-07-04T08:22:25Z</time>
      </trkpt>
      <trkpt lat="47.7176" lon="4.96747">
        <ele>425.11</ele>
        <time>2022-07-04T08:22:29Z</time>
      </trkpt>
      <trkpt lat="47.7176" lon="4.96751">
        <ele>425.44</ele>
        <time>2022-07-04T08:22:32Z</time>
      </trkpt>
      <trkpt lat="47.7176" lon="4.96756">
        <ele>425.42</ele>
        <time>2022-07-04T08:22:34Z</time>
      </trkpt>
      <trkpt lat="47.7176" lon="4.9676">
        <ele>425.41</ele>
        <time>2022-07-04T08:22:37Z</time>
      </trkpt>
      <trkpt lat="47.7176" lon="4.96764">
        <ele>425.4</ele>
        <time>2022-07-04T08:22:39Z</time>
      </trkpt>
      <trkpt lat="47.7176" lon="4.96769">
        <ele>425.39</ele>
        <time>2022-07-04T08:22:42Z</time>
      </trkpt>
      <trkpt lat="47.71759" lon="4.96775">
        <ele>425.32</ele>
        <time>2022-07-04T08:22:44Z</time>
      </trkpt>
      <trkpt lat="47.71758" lon="4.96779">
        <ele>425.34</ele>
        <time>2022-07-04T08:22:46Z</time>
      </trkpt>
      <trkpt lat="47.71756" lon="4.96783">
        <ele>425.38</ele>
        <time>2022-07-04T08:22:48Z</time>
      </trkpt>
      <trkpt lat="47.71755" lon="4.96788">
        <ele>425.44</ele>
        <time>2022-07-04T08:22:51Z</time>
      </trkpt>
      <trkpt lat="47.71754" lon="4.96793">
        <ele>425.46</ele>
        <time>2022-07-04T08:22:54Z</time>
      </trkpt>
      <trkpt lat="47.71754" lon="4.96798">
        <ele>425.56</ele>
        <time>2022-07-04T08:22:55Z</time>
      </trkpt>
      <trkpt lat="47.71753" lon="4.96802">
        <ele>425.48</ele>
        <time>2022-07-04T08:22:57Z</time>
      </trkpt>
      <trkpt lat="47.71752" lon="4.96807">
        <ele>425.46</ele>
        <time>2022-07-04T08:22:59Z</time>
      </trkpt>
      <trkpt lat="47.71751" lon="4.96811">
        <ele>425.56</ele>
        <time>2022-07-04T08:23:02Z</time>
      </trkpt>
      <trkpt lat="47.7175" lon="4.96815">
        <ele>425.68</ele>
        <time>2022-07-04T08:23:04Z</time>
      </trkpt>
      <trkpt lat="47.71748" lon="4.96819">
        <ele>426.22</ele>
        <time>2022-07-04T08:23:08Z</time>
      </trkpt>
      <trkpt lat="47.71746" lon="4.96823">
        <ele>426.74</ele>
        <time>2022-07-04T08:23:11Z</time>
      </trkpt>
      <trkpt lat="47.71745" lon="4.96829">
        <ele>427.26</ele>
        <time>2022-07-04T08:23:14Z</time>
      </trkpt>
      <trkpt lat="47.71744" lon="4.96833">
        <ele>427.63</ele>
        <time>2022-07-04T08:23:17Z</time>
      </trkpt>
      <trkpt lat="47.71742" lon="4.96838">
        <ele>428.25</ele>
        <time>2022-07-04T08:23:18Z</time>
      </trkpt>
      <trkpt lat="47.71741" lon="4.96842">
        <ele>428.7</ele>
        <time>2022-07-04T08:23:21Z</time>
      </trkpt>
      <trkpt lat="47.7174" lon="4.96848">
        <ele>429.33</ele>
        <time>2022-07-04T08:23:24Z</time>
      </trkpt>
      <trkpt lat="47.7174" lon="4.96853">
        <ele>429.75</ele>
        <time>2022-07-04T08:23:27Z</time>
      </trkpt>
      <trkpt lat="47.71739" lon="4.96858">
        <ele>430.32</ele>
        <time>2022-07-04T08:23:30Z</time>
      </trkpt>
      <trkpt lat="47.71739" lon="4.96863">
        <ele>430.83</ele>
        <time>2022-07-04T08:23:34Z</time>
      </trkpt>
      <trkpt lat="47.71739" lon="4.96868">
        <ele>431.48</ele>
        <time>2022-07-04T08:23:35Z</time>
      </trkpt>
      <trkpt lat="47.71738" lon="4.96873">
        <ele>432.26</ele>
        <time>2022-07-04T08:23:40Z</time>
      </trkpt>
      <trkpt lat="47.71737" lon="4.96877">
        <ele>432.89</ele>
        <time>2022-07-04T08:23:42Z</time>
      </trkpt>
      <trkpt lat="47.71736" lon="4.96883">
        <ele>433.77</ele>
        <time>2022-07-04T08:23:45Z</time>
      </trkpt>
      <trkpt lat="47.71736" lon="4.96888">
        <ele>434.4</ele>
        <time>2022-07-04T08:23:49Z</time>
      </trkpt>
      <trkpt lat="47.71735" lon="4.96893">
        <ele>435.13</ele>
        <time>2022-07-04T08:23:51Z</time>
      </trkpt>
      <trkpt lat="47.71734" lon="4.96897">
        <ele>435.73</ele>
        <time>2022-07-04T08:23:56Z</time>
      </trkpt>
      <trkpt lat="47.71733" lon="4.96902">
        <ele>436.44</ele>
        <time>2022-07-04T08:24:00Z</time>
      </trkpt>
      <trkpt lat="47.71732" lon="4.96905">
        <ele>436.89</ele>
        <time>2022-07-04T08:24:10Z</time>
      </trkpt>
      <trkpt lat="47.71733" lon="4.96909">
        <ele>437.29</ele>
        <time>2022-07-04T08:24:17Z</time>
      </trkpt>
      <trkpt lat="47.71732" lon="4.96914">
        <ele>437.97</ele>
        <time>2022-07-04T08:24:22Z</time>
      </trkpt>
      <trkpt lat="47.7173" lon="4.96919">
        <ele>438.69</ele>
        <time>2022-07-04T08:24:26Z</time>
      </trkpt>
      <trkpt lat="47.71728" lon="4.96923">
        <ele>439.27</ele>
        <time>2022-07-04T08:24:30Z</time>
      </trkpt>
      <trkpt lat="47.71727" lon="4.96927">
        <ele>439.77</ele>
        <time>2022-07-04T08:24:32Z</time>
      </trkpt>
      <trkpt lat="47.71726" lon="4.96932">
        <ele>440.38</ele>
        <time>2022-07-04T08:24:36Z</time>
      </trkpt>
      <trkpt lat="47.71725" lon="4.96936">
        <ele>440.89</ele>
        <time>2022-07-04T08:24:41Z</time>
      </trkpt>
      <trkpt lat="47.71723" lon="4.9694">
        <ele>441.46</ele>
        <time>2022-07-04T08:24:47Z</time>
      </trkpt>
      <trkpt lat="47.71721" lon="4.96943">
        <ele>441.8</ele>
        <time>2022-07-04T08:24:57Z</time>
      </trkpt>
      <trkpt lat="47.71718" lon="4.9694">
        <ele>441.34</ele>
        <time>2022-07-04T08:25:02Z</time>
      </trkpt>
      <trkpt lat="47.71721" lon="4.96941">
        <ele>441.58</ele>
        <time>2022-07-04T08:26:40Z</time>
      </trkpt>
      <trkpt lat="47.71722" lon="4.96945">
        <ele>442.03</ele>
        <time>2022-07-04T08:28:05Z</time>
      </trkpt>
      <trkpt lat="47.71724" lon="4.96948">
        <ele>442.12</ele>
        <time>2022-07-04T08:29:06Z</time>
      </trkpt>
      <trkpt lat="47.71728" lon="4.96949">
        <ele>441.88</ele>
        <time>2022-07-04T08:29:07Z</time>
      </trkpt>
      <trkpt lat="47.71731" lon="4.96949">
        <ele>441.64</ele>
        <time>2022-07-04T08:29:10Z</time>
      </trkpt>
      <trkpt lat="47.71734" lon="4.96947">
        <ele>441.3</ele>
        <time>2022-07-04T08:29:13Z</time>
      </trkpt>
      <trkpt lat="47.71736" lon="4.96942">
        <ele>440.74</ele>
        <time>2022-07-04T08:29:16Z</time>
      </trkpt>
      <trkpt lat="47.71738" lon="4.96939">
        <ele>440.28</ele>
        <time>2022-07-04T08:29:19Z</time>
      </trkpt>
      <trkpt lat="47.71741" lon="4.96937">
        <ele>439.84</ele>
        <time>2022-07-04T08:29:22Z</time>
      </trkpt>
      <trkpt lat="47.71743" lon="4.96935">
        <ele>439.48</ele>
        <time>2022-07-04T08:29:23Z</time>
      </trkpt>
      <trkpt lat="47.71746" lon="4.96932">
        <ele>438.94</ele>
        <time>2022-07-04T08:29:26Z</time>
      </trkpt>
      <trkpt lat="47.71748" lon="4.9693">
        <ele>438.58</ele>
        <time>2022-07-04T08:29:29Z</time>
      </trkpt>
      <trkpt lat="47.71751" lon="4.96927">
        <ele>438.16</ele>
        <time>2022-07-04T08:29:32Z</time>
      </trkpt>
      <trkpt lat="47.71753" lon="4.96925">
        <ele>438.05</ele>
        <time>2022-07-04T08:29:33Z</time>
      </trkpt>
      <trkpt lat="47.71755" lon="4.96922">
        <ele>437.87</ele>
        <time>2022-07-04T08:29:36Z</time>
      </trkpt>
      <trkpt lat="47.71757" lon="4.96918">
        <ele>437.62</ele>
        <time>2022-07-04T08:29:39Z</time>
      </trkpt>
      <trkpt lat="47.71759" lon="4.96914">
        <ele>437.33</ele>
        <time>2022-07-04T08:29:41Z</time>
      </trkpt>
      <trkpt lat="47.7176" lon="4.9691">
        <ele>436.93</ele>
        <time>2022-07-04T08:29:44Z</time>
      </trkpt>
      <trkpt lat="47.71762" lon="4.96906">
        <ele>436.66</ele>
        <time>2022-07-04T08:29:47Z</time>
      </trkpt>
      <trkpt lat="47.71763" lon="4.96903">
        <ele>436.43</ele>
        <time>2022-07-04T08:29:49Z</time>
      </trkpt>
      <trkpt lat="47.71765" lon="4.96898">
        <ele>436.12</ele>
        <time>2022-07-04T08:29:52Z</time>
      </trkpt>
      <trkpt lat="47.71767" lon="4.96894">
        <ele>435.96</ele>
        <time>2022-07-04T08:29:55Z</time>
      </trkpt>
      <trkpt lat="47.71769" lon="4.9689">
        <ele>435.84</ele>
        <time>2022-07-04T08:29:57Z</time>
      </trkpt>
      <trkpt lat="47.7177" lon="4.96886">
        <ele>435.54</ele>
        <time>2022-07-04T08:30:00Z</time>
      </trkpt>
      <trkpt lat="47.7177" lon="4.96882">
        <ele>435.07</ele>
        <time>2022-07-04T08:30:02Z</time>
      </trkpt>
      <trkpt lat="47.71771" lon="4.96877">
        <ele>434.64</ele>
        <time>2022-07-04T08:30:04Z</time>
      </trkpt>
      <trkpt lat="47.71772" lon="4.96874">
        <ele>434.45</ele>
        <time>2022-07-04T08:30:07Z</time>
      </trkpt>
      <trkpt lat="47.71774" lon="4.96871">
        <ele>434.44</ele>
        <time>2022-07-04T08:30:10Z</time>
      </trkpt>
      <trkpt lat="47.71776" lon="4.96868">
        <ele>434.44</ele>
        <time>2022-07-04T08:30:13Z</time>
      </trkpt>
      <trkpt lat="47.71779" lon="4.96865">
        <ele>434.76</ele>
        <time>2022-07-04T08:30:16Z</time>
      </trkpt>
      <trkpt lat="47.71782" lon="4.96862">
        <ele>435.3</ele>
        <time>2022-07-04T08:30:19Z</time>
      </trkpt>
      <trkpt lat="47.71784" lon="4.96859">
        <ele>435.6</ele>
        <time>2022-07-04T08:30:22Z</time>
      </trkpt>
      <trkpt lat="47.71786" lon="4.96856">
        <ele>435.92</ele>
        <time>2022-07-04T08:30:24Z</time>
      </trkpt>
      <trkpt lat="47.71787" lon="4.96852">
        <ele>435.89</ele>
        <time>2022-07-04T08:30:27Z</time>
      </trkpt>
      <trkpt lat="47.71789" lon="4.96849">
        <ele>436.28</ele>
        <time>2022-07-04T08:30:30Z</time>
      </trkpt>
      <trkpt lat="47.71791" lon="4.96846">
        <ele>436.69</ele>
        <time>2022-07-04T08:30:32Z</time>
      </trkpt>
      <trkpt lat="47.71793" lon="4.96842">
        <ele>437.07</ele>
        <time>2022-07-04T08:30:35Z</time>
      </trkpt>
      <trkpt lat="47.71794" lon="4.96838">
        <ele>437.15</ele>
        <time>2022-07-04T08:30:38Z</time>
      </trkpt>
      <trkpt lat="47.71797" lon="4.96835">
        <ele>438.02</ele>
        <time>2022-07-04T08:30:41Z</time>
      </trkpt>
      <trkpt lat="47.71799" lon="4.96833">
        <ele>438.63</ele>
        <time>2022-07-04T08:30:43Z</time>
      </trkpt>
      <trkpt lat="47.71802" lon="4.96831">
        <ele>439.64</ele>
        <time>2022-07-04T08:30:46Z</time>
      </trkpt>
      <trkpt lat="47.71805" lon="4.96829">
        <ele>440.64</ele>
        <time>2022-07-04T08:30:48Z</time>
      </trkpt>
      <trkpt lat="47.71808" lon="4.96828">
        <ele>441.37</ele>
        <time>2022-07-04T08:30:50Z</time>
      </trkpt>
      <trkpt lat="47.71811" lon="4.96826">
        <ele>441.95</ele>
        <time>2022-07-04T08:30:53Z</time>
      </trkpt>
      <trkpt lat="47.71814" lon="4.96823">
        <ele>442.42</ele>
        <time>2022-07-04T08:30:57Z</time>
      </trkpt>
      <trkpt lat="47.71816" lon="4.9682">
        <ele>442.61</ele>
        <time>2022-07-04T08:30:59Z</time>
      </trkpt>
      <trkpt lat="47.71818" lon="4.96818">
        <ele>442.84</ele>
        <time>2022-07-04T08:31:01Z</time>
      </trkpt>
      <trkpt lat="47.71822" lon="4.96816">
        <ele>443.41</ele>
        <time>2022-07-04T08:31:05Z</time>
      </trkpt>
      <trkpt lat="47.71825" lon="4.96814">
        <ele>443.74</ele>
        <time>2022-07-04T08:31:07Z</time>
      </trkpt>
      <trkpt lat="47.71827" lon="4.96812">
        <ele>443.86</ele>
        <time>2022-07-04T08:31:10Z</time>
      </trkpt>
      <trkpt lat="47.71831" lon="4.96812">
        <ele>444.53</ele>
        <time>2022-07-04T08:31:12Z</time>
      </trkpt>
      <trkpt lat="47.71834" lon="4.96811">
        <ele>444.87</ele>
        <time>2022-07-04T08:31:16Z</time>
      </trkpt>
      <trkpt lat="47.71837" lon="4.9681">
        <ele>445.08</ele>
        <time>2022-07-04T08:31:18Z</time>
      </trkpt>
      <trkpt lat="47.71839" lon="4.96807">
        <ele>444.84</ele>
        <time>2022-07-04T08:31:21Z</time>
      </trkpt>
      <trkpt lat="47.71841" lon="4.96804">
        <ele>444.62</ele>
        <time>2022-07-04T08:31:24Z</time>
      </trkpt>
      <trkpt lat="47.71843" lon="4.96801">
        <ele>444.45</ele>
        <time>2022-07-04T08:31:27Z</time>
      </trkpt>
      <trkpt lat="47.71845" lon="4.96798">
        <ele>444.29</ele>
        <time>2022-07-04T08:31:31Z</time>
      </trkpt>
      <trkpt lat="47.71848" lon="4.96797">
        <ele>444.51</ele>
        <time>2022-07-04T08:31:33Z</time>
      </trkpt>
      <trkpt lat="47.71851" lon="4.96795">
        <ele>444.63</ele>
        <time>2022-07-04T08:31:35Z</time>
      </trkpt>
      <trkpt lat="47.71854" lon="4.96793">
        <ele>444.76</ele>
        <time>2022-07-04T08:31:38Z</time>
      </trkpt>
      <trkpt lat="47.71857" lon="4.96792">
        <ele>445.02</ele>
        <time>2022-07-04T08:31:41Z</time>
      </trkpt>
      <trkpt lat="47.7186" lon="4.96791">
        <ele>445.29</ele>
        <time>2022-07-04T08:31:43Z</time>
      </trkpt>
      <trkpt lat="47.71863" lon="4.9679">
        <ele>445.65</ele>
        <time>2022-07-04T08:31:45Z</time>
      </trkpt>
      <trkpt lat="47.71866" lon="4.96789">
        <ele>446.06</ele>
        <time>2022-07-04T08:31:48Z</time>
      </trkpt>
      <trkpt lat="47.71869" lon="4.96788">
        <ele>446.45</ele>
        <time>2022-07-04T08:31:50Z</time>
      </trkpt>
      <trkpt lat="47.71872" lon="4.96786">
        <ele>446.69</ele>
        <time>2022-07-04T08:31:53Z</time>
      </trkpt>
      <trkpt lat="47.71875" lon="4.96784">
        <ele>446.9</ele>
        <time>2022-07-04T08:31:56Z</time>
      </trkpt>
      <trkpt lat="47.71878" lon="4.96783">
        <ele>447.22</ele>
        <time>2022-07-04T08:31:57Z</time>
      </trkpt>
      <trkpt lat="47.71881" lon="4.96781">
        <ele>447.38</ele>
        <time>2022-07-04T08:32:01Z</time>
      </trkpt>
      <trkpt lat="47.71883" lon="4.96779">
        <ele>447.35</ele>
        <time>2022-07-04T08:32:04Z</time>
      </trkpt>
      <trkpt lat="47.71886" lon="4.96777">
        <ele>447.34</ele>
        <time>2022-07-04T08:32:07Z</time>
      </trkpt>
      <trkpt lat="47.71889" lon="4.96775">
        <ele>447.1</ele>
        <time>2022-07-04T08:32:09Z</time>
      </trkpt>
      <trkpt lat="47.71891" lon="4.96772">
        <ele>446.19</ele>
        <time>2022-07-04T08:32:13Z</time>
      </trkpt>
      <trkpt lat="47.71894" lon="4.96769">
        <ele>445.39</ele>
        <time>2022-07-04T08:32:17Z</time>
      </trkpt>
      <trkpt lat="47.71897" lon="4.96768">
        <ele>445.24</ele>
        <time>2022-07-04T08:32:22Z</time>
      </trkpt>
      <trkpt lat="47.719" lon="4.96767">
        <ele>445.13</ele>
        <time>2022-07-04T08:32:26Z</time>
      </trkpt>
      <trkpt lat="47.71903" lon="4.96766">
        <ele>445.05</ele>
        <time>2022-07-04T08:32:30Z</time>
      </trkpt>
      <trkpt lat="47.71905" lon="4.96767">
        <ele>445.41</ele>
        <time>2022-07-04T08:32:32Z</time>
      </trkpt>
      <trkpt lat="47.71908" lon="4.96767">
        <ele>445.58</ele>
        <time>2022-07-04T08:32:36Z</time>
      </trkpt>
      <trkpt lat="47.71911" lon="4.96767">
        <ele>445.74</ele>
        <time>2022-07-04T08:32:38Z</time>
      </trkpt>
      <trkpt lat="47.71915" lon="4.96768">
        <ele>446.16</ele>
        <time>2022-07-04T08:32:40Z</time>
      </trkpt>
      <trkpt lat="47.71918" lon="4.96768">
        <ele>446.14</ele>
        <time>2022-07-04T08:32:42Z</time>
      </trkpt>
      <trkpt lat="47.7192" lon="4.96767">
        <ele>445.8</ele>
        <time>2022-07-04T08:32:45Z</time>
      </trkpt>
      <trkpt lat="47.71923" lon="4.96765">
        <ele>445.16</ele>
        <time>2022-07-04T08:32:47Z</time>
      </trkpt>
      <trkpt lat="47.71926" lon="4.96764">
        <ele>444.68</ele>
        <time>2022-07-04T08:32:50Z</time>
      </trkpt>
      <trkpt lat="47.71929" lon="4.96763">
        <ele>444.19</ele>
        <time>2022-07-04T08:32:53Z</time>
      </trkpt>
      <trkpt lat="47.71932" lon="4.96761">
        <ele>443.43</ele>
        <time>2022-07-04T08:32:55Z</time>
      </trkpt>
      <trkpt lat="47.71935" lon="4.96759">
        <ele>442.62</ele>
        <time>2022-07-04T08:32:57Z</time>
      </trkpt>
      <trkpt lat="47.71938" lon="4.96758">
        <ele>442.03</ele>
        <time>2022-07-04T08:33:00Z</time>
      </trkpt>
      <trkpt lat="47.71941" lon="4.96756">
        <ele>441.14</ele>
        <time>2022-07-04T08:33:04Z</time>
      </trkpt>
      <trkpt lat="47.71944" lon="4.96755">
        <ele>440.5</ele>
        <time>2022-07-04T08:33:08Z</time>
      </trkpt>
      <trkpt lat="47.71946" lon="4.96755">
        <ele>440.49</ele>
        <time>2022-07-04T08:33:13Z</time>
      </trkpt>
      <trkpt lat="47.71949" lon="4.96755">
        <ele>440.57</ele>
        <time>2022-07-04T08:33:15Z</time>
      </trkpt>
      <trkpt lat="47.71952" lon="4.96756">
        <ele>440.94</ele>
        <time>2022-07-04T08:33:18Z</time>
      </trkpt>
      <trkpt lat="47.71955" lon="4.96757">
        <ele>441.3</ele>
        <time>2022-07-04T08:33:21Z</time>
      </trkpt>
      <trkpt lat="47.71958" lon="4.96759">
        <ele>441.92</ele>
        <time>2022-07-04T08:33:23Z</time>
      </trkpt>
      <trkpt lat="47.71961" lon="4.9676">
        <ele>442.26</ele>
        <time>2022-07-04T08:33:25Z</time>
      </trkpt>
      <trkpt lat="47.71964" lon="4.96761">
        <ele>442.59</ele>
        <time>2022-07-04T08:33:27Z</time>
      </trkpt>
      <trkpt lat="47.71967" lon="4.96762">
        <ele>442.92</ele>
        <time>2022-07-04T08:33:30Z</time>
      </trkpt>
      <trkpt lat="47.7197" lon="4.96762">
        <ele>442.98</ele>
        <time>2022-07-04T08:33:32Z</time>
      </trkpt>
      <trkpt lat="47.71974" lon="4.96762">
        <ele>443</ele>
        <time>2022-07-04T08:33:35Z</time>
      </trkpt>
      <trkpt lat="47.71978" lon="4.96761">
        <ele>442.69</ele>
        <time>2022-07-04T08:33:38Z</time>
      </trkpt>
      <trkpt lat="47.71981" lon="4.96761">
        <ele>442.65</ele>
        <time>2022-07-04T08:33:39Z</time>
      </trkpt>
      <trkpt lat="47.71984" lon="4.96761">
        <ele>442.6</ele>
        <time>2022-07-04T08:33:41Z</time>
      </trkpt>
      <trkpt lat="47.71987" lon="4.96762">
        <ele>442.79</ele>
        <time>2022-07-04T08:33:44Z</time>
      </trkpt>
      <trkpt lat="47.7199" lon="4.96763">
        <ele>442.98</ele>
        <time>2022-07-04T08:33:46Z</time>
      </trkpt>
      <trkpt lat="47.71993" lon="4.96764">
        <ele>443.15</ele>
        <time>2022-07-04T08:33:49Z</time>
      </trkpt>
      <trkpt lat="47.71997" lon="4.96765">
        <ele>443.3</ele>
        <time>2022-07-04T08:33:53Z</time>
      </trkpt>
      <trkpt lat="47.72" lon="4.96765">
        <ele>443.24</ele>
        <time>2022-07-04T08:33:55Z</time>
      </trkpt>
      <trkpt lat="47.72002" lon="4.96766">
        <ele>443.66</ele>
        <time>2022-07-04T08:33:58Z</time>
      </trkpt>
      <trkpt lat="47.72005" lon="4.96766">
        <ele>443.97</ele>
        <time>2022-07-04T08:34:00Z</time>
      </trkpt>
      <trkpt lat="47.72008" lon="4.96765">
        <ele>444.08</ele>
        <time>2022-07-04T08:34:03Z</time>
      </trkpt>
      <trkpt lat="47.72011" lon="4.96765">
        <ele>444.4</ele>
        <time>2022-07-04T08:34:05Z</time>
      </trkpt>
      <trkpt lat="47.72014" lon="4.96765">
        <ele>444.71</ele>
        <time>2022-07-04T08:34:08Z</time>
      </trkpt>
      <trkpt lat="47.72017" lon="4.96766">
        <ele>445.2</ele>
        <time>2022-07-04T08:34:11Z</time>
      </trkpt>
      <trkpt lat="47.7202" lon="4.96768">
        <ele>445.83</ele>
        <time>2022-07-04T08:34:14Z</time>
      </trkpt>
      <trkpt lat="47.72023" lon="4.96769">
        <ele>446.28</ele>
        <time>2022-07-04T08:34:18Z</time>
      </trkpt>
      <trkpt lat="47.72026" lon="4.9677">
        <ele>446.72</ele>
        <time>2022-07-04T08:34:20Z</time>
      </trkpt>
      <trkpt lat="47.72029" lon="4.96771">
        <ele>446.94</ele>
        <time>2022-07-04T08:34:22Z</time>
      </trkpt>
      <trkpt lat="47.72031" lon="4.96771">
        <ele>446.79</ele>
        <time>2022-07-04T08:34:25Z</time>
      </trkpt>
      <trkpt lat="47.72035" lon="4.96772">
        <ele>446.65</ele>
        <time>2022-07-04T08:34:27Z</time>
      </trkpt>
      <trkpt lat="47.72038" lon="4.96772">
        <ele>446.43</ele>
        <time>2022-07-04T08:34:30Z</time>
      </trkpt>
      <trkpt lat="47.72041" lon="4.96773">
        <ele>446.36</ele>
        <time>2022-07-04T08:34:32Z</time>
      </trkpt>
      <trkpt lat="47.72044" lon="4.96774">
        <ele>446.29</ele>
        <time>2022-07-04T08:34:35Z</time>
      </trkpt>
      <trkpt lat="47.72047" lon="4.96775">
        <ele>446.22</ele>
        <time>2022-07-04T08:34:37Z</time>
      </trkpt>
      <trkpt lat="47.7205" lon="4.96776">
        <ele>446.14</ele>
        <time>2022-07-04T08:34:41Z</time>
      </trkpt>
      <trkpt lat="47.72053" lon="4.96777">
        <ele>446.07</ele>
        <time>2022-07-04T08:34:43Z</time>
      </trkpt>
      <trkpt lat="47.72055" lon="4.96779">
        <ele>446.22</ele>
        <time>2022-07-04T08:34:46Z</time>
      </trkpt>
      <trkpt lat="47.72058" lon="4.96781">
        <ele>446.3</ele>
        <time>2022-07-04T08:34:48Z</time>
      </trkpt>
      <trkpt lat="47.72061" lon="4.96783">
        <ele>446.4</ele>
        <time>2022-07-04T08:34:51Z</time>
      </trkpt>
      <trkpt lat="47.72063" lon="4.96785">
        <ele>446.57</ele>
        <time>2022-07-04T08:34:53Z</time>
      </trkpt>
      <trkpt lat="47.72066" lon="4.96788">
        <ele>446.86</ele>
        <time>2022-07-04T08:34:55Z</time>
      </trkpt>
      <trkpt lat="47.72068" lon="4.96791">
        <ele>447.22</ele>
        <time>2022-07-04T08:34:58Z</time>
      </trkpt>
      <trkpt lat="47.72071" lon="4.96794">
        <ele>447.55</ele>
        <time>2022-07-04T08:35:01Z</time>
      </trkpt>
      <trkpt lat="47.72073" lon="4.96796">
        <ele>447.78</ele>
        <time>2022-07-04T08:35:04Z</time>
      </trkpt>
      <trkpt lat="47.72076" lon="4.96798">
        <ele>447.98</ele>
        <time>2022-07-04T08:35:06Z</time>
      </trkpt>
      <trkpt lat="47.72079" lon="4.968">
        <ele>448.19</ele>
        <time>2022-07-04T08:35:09Z</time>
      </trkpt>
      <trkpt lat="47.72082" lon="4.968">
        <ele>448.06</ele>
        <time>2022-07-04T08:35:11Z</time>
      </trkpt>
      <trkpt lat="47.72085" lon="4.96801">
        <ele>447.92</ele>
        <time>2022-07-04T08:35:16Z</time>
      </trkpt>
      <trkpt lat="47.72087" lon="4.96801">
        <ele>447.61</ele>
        <time>2022-07-04T08:35:20Z</time>
      </trkpt>
      <trkpt lat="47.72091" lon="4.96803">
        <ele>447.26</ele>
        <time>2022-07-04T08:35:22Z</time>
      </trkpt>
      <trkpt lat="47.72094" lon="4.96805">
        <ele>447.01</ele>
        <time>2022-07-04T08:35:24Z</time>
      </trkpt>
      <trkpt lat="47.72098" lon="4.96806">
        <ele>446.42</ele>
        <time>2022-07-04T08:35:26Z</time>
      </trkpt>
      <trkpt lat="47.72102" lon="4.96807">
        <ele>445.87</ele>
        <time>2022-07-04T08:35:29Z</time>
      </trkpt>
      <trkpt lat="47.72104" lon="4.9681">
        <ele>446</ele>
        <time>2022-07-04T08:35:31Z</time>
      </trkpt>
      <trkpt lat="47.72107" lon="4.96811">
        <ele>445.66</ele>
        <time>2022-07-04T08:35:34Z</time>
      </trkpt>
      <trkpt lat="47.7211" lon="4.96812">
        <ele>445.34</ele>
        <time>2022-07-04T08:35:37Z</time>
      </trkpt>
      <trkpt lat="47.72113" lon="4.96815">
        <ele>445.61</ele>
        <time>2022-07-04T08:35:40Z</time>
      </trkpt>
      <trkpt lat="47.72116" lon="4.96816">
        <ele>445.62</ele>
        <time>2022-07-04T08:35:42Z</time>
      </trkpt>
      <trkpt lat="47.72119" lon="4.96818">
        <ele>445.73</ele>
        <time>2022-07-04T08:35:43Z</time>
      </trkpt>
      <trkpt lat="47.72121" lon="4.96819">
        <ele>445.73</ele>
        <time>2022-07-04T08:35:46Z</time>
      </trkpt>
      <trkpt lat="47.72124" lon="4.96821">
        <ele>445.75</ele>
        <time>2022-07-04T08:35:48Z</time>
      </trkpt>
      <trkpt lat="47.72127" lon="4.96823">
        <ele>445.7</ele>
        <time>2022-07-04T08:35:52Z</time>
      </trkpt>
      <trkpt lat="47.7213" lon="4.96825">
        <ele>445.6</ele>
        <time>2022-07-04T08:35:54Z</time>
      </trkpt>
      <trkpt lat="47.72133" lon="4.96827">
        <ele>445.43</ele>
        <time>2022-07-04T08:35:57Z</time>
      </trkpt>
      <trkpt lat="47.72136" lon="4.96829">
        <ele>445.2</ele>
        <time>2022-07-04T08:35:58Z</time>
      </trkpt>
      <trkpt lat="47.72139" lon="4.96831">
        <ele>444.92</ele>
        <time>2022-07-04T08:36:02Z</time>
      </trkpt>
      <trkpt lat="47.72142" lon="4.96833">
        <ele>445.1</ele>
        <time>2022-07-04T08:36:04Z</time>
      </trkpt>
      <trkpt lat="47.72144" lon="4.96836">
        <ele>445.68</ele>
        <time>2022-07-04T08:36:06Z</time>
      </trkpt>
      <trkpt lat="47.72147" lon="4.96838">
        <ele>446.18</ele>
        <time>2022-07-04T08:36:09Z</time>
      </trkpt>
      <trkpt lat="47.7215" lon="4.9684">
        <ele>446.7</ele>
        <time>2022-07-04T08:36:12Z</time>
      </trkpt>
      <trkpt lat="47.72152" lon="4.96842">
        <ele>447.18</ele>
        <time>2022-07-04T08:36:13Z</time>
      </trkpt>
      <trkpt lat="47.72155" lon="4.96845">
        <ele>447.92</ele>
        <time>2022-07-04T08:36:16Z</time>
      </trkpt>
      <trkpt lat="47.72158" lon="4.96847">
        <ele>448.49</ele>
        <time>2022-07-04T08:36:18Z</time>
      </trkpt>
      <trkpt lat="47.72161" lon="4.96848">
        <ele>448.86</ele>
        <time>2022-07-04T08:36:20Z</time>
      </trkpt>
      <trkpt lat="47.72163" lon="4.9685">
        <ele>449.39</ele>
        <time>2022-07-04T08:36:22Z</time>
      </trkpt>
      <trkpt lat="47.72167" lon="4.96851">
        <ele>449.8</ele>
        <time>2022-07-04T08:36:25Z</time>
      </trkpt>
      <trkpt lat="47.7217" lon="4.96852">
        <ele>449.83</ele>
        <time>2022-07-04T08:36:27Z</time>
      </trkpt>
      <trkpt lat="47.72173" lon="4.96853">
        <ele>449.83</ele>
        <time>2022-07-04T08:36:29Z</time>
      </trkpt>
      <trkpt lat="47.72176" lon="4.96854">
        <ele>449.8</ele>
        <time>2022-07-04T08:36:31Z</time>
      </trkpt>
      <trkpt lat="47.72179" lon="4.96855">
        <ele>449.74</ele>
        <time>2022-07-04T08:36:33Z</time>
      </trkpt>
      <trkpt lat="47.72181" lon="4.96856">
        <ele>449.73</ele>
        <time>2022-07-04T08:36:36Z</time>
      </trkpt>
      <trkpt lat="47.72184" lon="4.96859">
        <ele>449.86</ele>
        <time>2022-07-04T08:36:38Z</time>
      </trkpt>
      <trkpt lat="47.72186" lon="4.96861">
        <ele>449.9</ele>
        <time>2022-07-04T08:36:41Z</time>
      </trkpt>
      <trkpt lat="47.72189" lon="4.96863">
        <ele>449.81</ele>
        <time>2022-07-04T08:36:43Z</time>
      </trkpt>
      <trkpt lat="47.72192" lon="4.96865">
        <ele>449.7</ele>
        <time>2022-07-04T08:36:46Z</time>
      </trkpt>
      <trkpt lat="47.72195" lon="4.96867">
        <ele>449.6</ele>
        <time>2022-07-04T08:36:48Z</time>
      </trkpt>
      <trkpt lat="47.72197" lon="4.96868">
        <ele>449.56</ele>
        <time>2022-07-04T08:36:51Z</time>
      </trkpt>
      <trkpt lat="47.722" lon="4.96869">
        <ele>449.45</ele>
        <time>2022-07-04T08:36:53Z</time>
      </trkpt>
      <trkpt lat="47.72203" lon="4.9687">
        <ele>449.34</ele>
        <time>2022-07-04T08:36:56Z</time>
      </trkpt>
      <trkpt lat="47.72206" lon="4.9687">
        <ele>449.13</ele>
        <time>2022-07-04T08:36:59Z</time>
      </trkpt>
      <trkpt lat="47.72209" lon="4.96872">
        <ele>449.13</ele>
        <time>2022-07-04T08:37:01Z</time>
      </trkpt>
      <trkpt lat="47.72212" lon="4.96873">
        <ele>449.02</ele>
        <time>2022-07-04T08:37:03Z</time>
      </trkpt>
      <trkpt lat="47.72215" lon="4.96874">
        <ele>448.91</ele>
        <time>2022-07-04T08:37:06Z</time>
      </trkpt>
      <trkpt lat="47.72218" lon="4.96876">
        <ele>448.91</ele>
        <time>2022-07-04T08:37:08Z</time>
      </trkpt>
      <trkpt lat="47.72221" lon="4.96877">
        <ele>448.8</ele>
        <time>2022-07-04T08:37:11Z</time>
      </trkpt>
      <trkpt lat="47.72223" lon="4.96879">
        <ele>448.89</ele>
        <time>2022-07-04T08:37:14Z</time>
      </trkpt>
      <trkpt lat="47.72225" lon="4.96882">
        <ele>449.08</ele>
        <time>2022-07-04T08:37:16Z</time>
      </trkpt>
      <trkpt lat="47.72227" lon="4.96885">
        <ele>449.26</ele>
        <time>2022-07-04T08:37:19Z</time>
      </trkpt>
      <trkpt lat="47.7223" lon="4.96888">
        <ele>449.35</ele>
        <time>2022-07-04T08:37:22Z</time>
      </trkpt>
      <trkpt lat="47.72232" lon="4.96891">
        <ele>449.52</ele>
        <time>2022-07-04T08:37:25Z</time>
      </trkpt>
      <trkpt lat="47.72235" lon="4.96893">
        <ele>449.52</ele>
        <time>2022-07-04T08:37:29Z</time>
      </trkpt>
      <trkpt lat="47.72237" lon="4.96895">
        <ele>449.6</ele>
        <time>2022-07-04T08:37:31Z</time>
      </trkpt>
      <trkpt lat="47.7224" lon="4.96897">
        <ele>449.6</ele>
        <time>2022-07-04T08:37:33Z</time>
      </trkpt>
      <trkpt lat="47.72243" lon="4.96898">
        <ele>449.49</ele>
        <time>2022-07-04T08:37:35Z</time>
      </trkpt>
      <trkpt lat="47.72246" lon="4.96899">
        <ele>449.38</ele>
        <time>2022-07-04T08:37:38Z</time>
      </trkpt>
      <trkpt lat="47.72249" lon="4.969">
        <ele>449.27</ele>
        <time>2022-07-04T08:37:39Z</time>
      </trkpt>
      <trkpt lat="47.72252" lon="4.969">
        <ele>449.1</ele>
        <time>2022-07-04T08:37:42Z</time>
      </trkpt>
      <trkpt lat="47.72255" lon="4.96902">
        <ele>449.15</ele>
        <time>2022-07-04T08:37:45Z</time>
      </trkpt>
      <trkpt lat="47.72257" lon="4.96904">
        <ele>449.24</ele>
        <time>2022-07-04T08:37:47Z</time>
      </trkpt>
      <trkpt lat="47.7226" lon="4.96906">
        <ele>449.27</ele>
        <time>2022-07-04T08:37:48Z</time>
      </trkpt>
      <trkpt lat="47.72262" lon="4.96908">
        <ele>449.33</ele>
        <time>2022-07-04T08:37:51Z</time>
      </trkpt>
      <trkpt lat="47.72265" lon="4.96911">
        <ele>449.42</ele>
        <time>2022-07-04T08:37:55Z</time>
      </trkpt>
      <trkpt lat="47.72267" lon="4.96914">
        <ele>449.55</ele>
        <time>2022-07-04T08:37:57Z</time>
      </trkpt>
      <trkpt lat="47.7227" lon="4.96916">
        <ele>449.51</ele>
        <time>2022-07-04T08:37:58Z</time>
      </trkpt>
      <trkpt lat="47.72272" lon="4.96918">
        <ele>449.51</ele>
        <time>2022-07-04T08:38:01Z</time>
      </trkpt>
      <trkpt lat="47.72275" lon="4.9692">
        <ele>449.44</ele>
        <time>2022-07-04T08:38:04Z</time>
      </trkpt>
      <trkpt lat="47.72278" lon="4.96922">
        <ele>449.34</ele>
        <time>2022-07-04T08:38:06Z</time>
      </trkpt>
      <trkpt lat="47.7228" lon="4.96925">
        <ele>449.14</ele>
        <time>2022-07-04T08:38:07Z</time>
      </trkpt>
      <trkpt lat="47.72283" lon="4.96927">
        <ele>448.69</ele>
        <time>2022-07-04T08:38:09Z</time>
      </trkpt>
      <trkpt lat="47.72285" lon="4.9693">
        <ele>448.52</ele>
        <time>2022-07-04T08:38:11Z</time>
      </trkpt>
      <trkpt lat="47.72288" lon="4.96932">
        <ele>448.1</ele>
        <time>2022-07-04T08:38:14Z</time>
      </trkpt>
      <trkpt lat="47.72291" lon="4.96934">
        <ele>447.69</ele>
        <time>2022-07-04T08:38:16Z</time>
      </trkpt>
      <trkpt lat="47.72293" lon="4.96937">
        <ele>447.58</ele>
        <time>2022-07-04T08:38:19Z</time>
      </trkpt>
      <trkpt lat="47.72296" lon="4.96939">
        <ele>447.2</ele>
        <time>2022-07-04T08:38:22Z</time>
      </trkpt>
      <trkpt lat="47.72298" lon="4.96941">
        <ele>447.02</ele>
        <time>2022-07-04T08:38:24Z</time>
      </trkpt>
      <trkpt lat="47.72301" lon="4.96943">
        <ele>446.67</ele>
        <time>2022-07-04T08:38:26Z</time>
      </trkpt>
      <trkpt lat="47.72304" lon="4.96945">
        <ele>446.32</ele>
        <time>2022-07-04T08:38:29Z</time>
      </trkpt>
      <trkpt lat="47.72306" lon="4.96947">
        <ele>446.11</ele>
        <time>2022-07-04T08:38:30Z</time>
      </trkpt>
      <trkpt lat="47.72309" lon="4.96951">
        <ele>445.88</ele>
        <time>2022-07-04T08:38:34Z</time>
      </trkpt>
      <trkpt lat="47.72311" lon="4.96954">
        <ele>445.78</ele>
        <time>2022-07-04T08:38:36Z</time>
      </trkpt>
      <trkpt lat="47.72313" lon="4.96957">
        <ele>445.69</ele>
        <time>2022-07-04T08:38:39Z</time>
      </trkpt>
      <trkpt lat="47.72315" lon="4.9696">
        <ele>445.61</ele>
        <time>2022-07-04T08:38:40Z</time>
      </trkpt>
      <trkpt lat="47.72317" lon="4.96964">
        <ele>445.64</ele>
        <time>2022-07-04T08:38:42Z</time>
      </trkpt>
      <trkpt lat="47.72319" lon="4.96968">
        <ele>445.69</ele>
        <time>2022-07-04T08:38:45Z</time>
      </trkpt>
      <trkpt lat="47.72321" lon="4.96971">
        <ele>445.66</ele>
        <time>2022-07-04T08:38:46Z</time>
      </trkpt>
      <trkpt lat="47.72323" lon="4.96974">
        <ele>445.62</ele>
        <time>2022-07-04T08:38:48Z</time>
      </trkpt>
      <trkpt lat="47.72326" lon="4.96976">
        <ele>445.33</ele>
        <time>2022-07-04T08:38:51Z</time>
      </trkpt>
      <trkpt lat="47.72329" lon="4.96978">
        <ele>445.04</ele>
        <time>2022-07-04T08:38:53Z</time>
      </trkpt>
      <trkpt lat="47.72332" lon="4.9698">
        <ele>444.75</ele>
        <time>2022-07-04T08:38:55Z</time>
      </trkpt>
      <trkpt lat="47.72334" lon="4.96981">
        <ele>444.56</ele>
        <time>2022-07-04T08:38:58Z</time>
      </trkpt>
      <trkpt lat="47.72337" lon="4.96983">
        <ele>444.4</ele>
        <time>2022-07-04T08:39:03Z</time>
      </trkpt>
      <trkpt lat="47.7234" lon="4.96984">
        <ele>444.19</ele>
        <time>2022-07-04T08:39:09Z</time>
      </trkpt>
      <trkpt lat="47.72344" lon="4.96984">
        <ele>443.8</ele>
        <time>2022-07-04T08:39:13Z</time>
      </trkpt>
      <trkpt lat="47.72347" lon="4.96985">
        <ele>443.63</ele>
        <time>2022-07-04T08:39:17Z</time>
      </trkpt>
      <trkpt lat="47.7235" lon="4.96985">
        <ele>443.35</ele>
        <time>2022-07-04T08:39:22Z</time>
      </trkpt>
      <trkpt lat="47.72353" lon="4.96986">
        <ele>443.21</ele>
        <time>2022-07-04T08:39:25Z</time>
      </trkpt>
      <trkpt lat="47.72356" lon="4.96985">
        <ele>442.78</ele>
        <time>2022-07-04T08:39:30Z</time>
      </trkpt>
      <trkpt lat="47.72358" lon="4.96982">
        <ele>442.09</ele>
        <time>2022-07-04T08:39:43Z</time>
      </trkpt>
      <trkpt lat="47.7236" lon="4.96985">
        <ele>442.4</ele>
        <time>2022-07-04T08:39:52Z</time>
      </trkpt>
      <trkpt lat="47.72363" lon="4.96988">
        <ele>442.41</ele>
        <time>2022-07-04T08:39:55Z</time>
      </trkpt>
      <trkpt lat="47.72365" lon="4.9699">
        <ele>442.28</ele>
        <time>2022-07-04T08:39:59Z</time>
      </trkpt>
      <trkpt lat="47.72367" lon="4.96993">
        <ele>442.26</ele>
        <time>2022-07-04T08:40:02Z</time>
      </trkpt>
      <trkpt lat="47.7237" lon="4.96996">
        <ele>441.9</ele>
        <time>2022-07-04T08:40:06Z</time>
      </trkpt>
      <trkpt lat="47.72371" lon="4.97">
        <ele>442.15</ele>
        <time>2022-07-04T08:40:11Z</time>
      </trkpt>
      <trkpt lat="47.72374" lon="4.97002">
        <ele>441.43</ele>
        <time>2022-07-04T08:40:14Z</time>
      </trkpt>
      <trkpt lat="47.72376" lon="4.97005">
        <ele>441.07</ele>
        <time>2022-07-04T08:40:16Z</time>
      </trkpt>
      <trkpt lat="47.72379" lon="4.97008">
        <ele>440.42</ele>
        <time>2022-07-04T08:40:18Z</time>
      </trkpt>
      <trkpt lat="47.72381" lon="4.9701">
        <ele>439.99</ele>
        <time>2022-07-04T08:40:21Z</time>
      </trkpt>
      <trkpt lat="47.72383" lon="4.97012">
        <ele>439.56</ele>
        <time>2022-07-04T08:40:23Z</time>
      </trkpt>
      <trkpt lat="47.72386" lon="4.97013">
        <ele>438.77</ele>
        <time>2022-07-04T08:40:26Z</time>
      </trkpt>
      <trkpt lat="47.72389" lon="4.97016">
        <ele>438.14</ele>
        <time>2022-07-04T08:40:30Z</time>
      </trkpt>
      <trkpt lat="47.72391" lon="4.97018">
        <ele>437.99</ele>
        <time>2022-07-04T08:40:32Z</time>
      </trkpt>
      <trkpt lat="47.72393" lon="4.97022">
        <ele>437.99</ele>
        <time>2022-07-04T08:40:34Z</time>
      </trkpt>
      <trkpt lat="47.72395" lon="4.97025">
        <ele>437.92</ele>
        <time>2022-07-04T08:40:37Z</time>
      </trkpt>
      <trkpt lat="47.72398" lon="4.97027">
        <ele>437.63</ele>
        <time>2022-07-04T08:40:39Z</time>
      </trkpt>
      <trkpt lat="47.724" lon="4.97029">
        <ele>437.51</ele>
        <time>2022-07-04T08:40:42Z</time>
      </trkpt>
      <trkpt lat="47.72402" lon="4.97031">
        <ele>437.41</ele>
        <time>2022-07-04T08:40:44Z</time>
      </trkpt>
      <trkpt lat="47.72404" lon="4.97034">
        <ele>437.37</ele>
        <time>2022-07-04T08:40:47Z</time>
      </trkpt>
      <trkpt lat="47.72406" lon="4.97038">
        <ele>437.41</ele>
        <time>2022-07-04T08:40:49Z</time>
      </trkpt>
      <trkpt lat="47.72409" lon="4.97041">
        <ele>437.19</ele>
        <time>2022-07-04T08:40:53Z</time>
      </trkpt>
      <trkpt lat="47.72411" lon="4.97044">
        <ele>437.1</ele>
        <time>2022-07-04T08:40:54Z</time>
      </trkpt>
      <trkpt lat="47.72414" lon="4.97047">
        <ele>436.83</ele>
        <time>2022-07-04T08:40:56Z</time>
      </trkpt>
      <trkpt lat="47.72416" lon="4.9705">
        <ele>436.72</ele>
        <time>2022-07-04T08:40:59Z</time>
      </trkpt>
      <trkpt lat="47.72418" lon="4.97054">
        <ele>436.65</ele>
        <time>2022-07-04T08:41:01Z</time>
      </trkpt>
      <trkpt lat="47.7242" lon="4.97057">
        <ele>436.5</ele>
        <time>2022-07-04T08:41:04Z</time>
      </trkpt>
      <trkpt lat="47.72422" lon="4.97061">
        <ele>436.43</ele>
        <time>2022-07-04T08:41:08Z</time>
      </trkpt>
      <trkpt lat="47.72424" lon="4.97065">
        <ele>436.36</ele>
        <time>2022-07-04T08:41:11Z</time>
      </trkpt>
      <trkpt lat="47.72426" lon="4.97068">
        <ele>436.22</ele>
        <time>2022-07-04T08:41:14Z</time>
      </trkpt>
      <trkpt lat="47.72428" lon="4.97071">
        <ele>436.07</ele>
        <time>2022-07-04T08:41:17Z</time>
      </trkpt>
      <trkpt lat="47.72431" lon="4.97074">
        <ele>435.75</ele>
        <time>2022-07-04T08:41:19Z</time>
      </trkpt>
      <trkpt lat="47.72432" lon="4.97078">
        <ele>435.86</ele>
        <time>2022-07-04T08:41:21Z</time>
      </trkpt>
      <trkpt lat="47.72434" lon="4.97082">
        <ele>435.78</ele>
        <time>2022-07-04T08:41:25Z</time>
      </trkpt>
      <trkpt lat="47.72437" lon="4.97084">
        <ele>435.38</ele>
        <time>2022-07-04T08:41:28Z</time>
      </trkpt>
      <trkpt lat="47.72439" lon="4.97087">
        <ele>435.22</ele>
        <time>2022-07-04T08:41:30Z</time>
      </trkpt>
      <trkpt lat="47.72441" lon="4.97089">
        <ele>435</ele>
        <time>2022-07-04T08:41:33Z</time>
      </trkpt>
      <trkpt lat="47.72444" lon="4.97092">
        <ele>434.7</ele>
        <time>2022-07-04T08:41:35Z</time>
      </trkpt>
      <trkpt lat="47.72446" lon="4.97095">
        <ele>434.56</ele>
        <time>2022-07-04T08:41:38Z</time>
      </trkpt>
      <trkpt lat="47.72448" lon="4.97097">
        <ele>434.34</ele>
        <time>2022-07-04T08:41:40Z</time>
      </trkpt>
      <trkpt lat="47.72451" lon="4.97099">
        <ele>433.95</ele>
        <time>2022-07-04T08:41:42Z</time>
      </trkpt>
      <trkpt lat="47.72454" lon="4.97101">
        <ele>433.55</ele>
        <time>2022-07-04T08:41:45Z</time>
      </trkpt>
      <trkpt lat="47.72456" lon="4.97103">
        <ele>433.34</ele>
        <time>2022-07-04T08:41:47Z</time>
      </trkpt>
      <trkpt lat="47.72458" lon="4.97106">
        <ele>433.19</ele>
        <time>2022-07-04T08:41:49Z</time>
      </trkpt>
      <trkpt lat="47.7246" lon="4.9711">
        <ele>433.12</ele>
        <time>2022-07-04T08:41:52Z</time>
      </trkpt>
      <trkpt lat="47.72462" lon="4.97114">
        <ele>433.27</ele>
        <time>2022-07-04T08:41:55Z</time>
      </trkpt>
      <trkpt lat="47.72464" lon="4.97119">
        <ele>433.76</ele>
        <time>2022-07-04T08:41:57Z</time>
      </trkpt>
      <trkpt lat="47.72467" lon="4.97122">
        <ele>433.92</ele>
        <time>2022-07-04T08:41:58Z</time>
      </trkpt>
      <trkpt lat="47.72469" lon="4.97125">
        <ele>434.29</ele>
        <time>2022-07-04T08:42:01Z</time>
      </trkpt>
      <trkpt lat="47.72471" lon="4.97128">
        <ele>434.73</ele>
        <time>2022-07-04T08:42:03Z</time>
      </trkpt>
      <trkpt lat="47.72473" lon="4.97131">
        <ele>435.12</ele>
        <time>2022-07-04T08:42:04Z</time>
      </trkpt>
      <trkpt lat="47.72476" lon="4.97133">
        <ele>434.83</ele>
        <time>2022-07-04T08:42:06Z</time>
      </trkpt>
      <trkpt lat="47.72479" lon="4.97136">
        <ele>434.72</ele>
        <time>2022-07-04T08:42:09Z</time>
      </trkpt>
      <trkpt lat="47.72481" lon="4.9714">
        <ele>434.82</ele>
        <time>2022-07-04T08:42:11Z</time>
      </trkpt>
      <trkpt lat="47.72483" lon="4.97143">
        <ele>434.37</ele>
        <time>2022-07-04T08:42:14Z</time>
      </trkpt>
      <trkpt lat="47.72485" lon="4.97147">
        <ele>433.94</ele>
        <time>2022-07-04T08:42:17Z</time>
      </trkpt>
      <trkpt lat="47.72487" lon="4.9715">
        <ele>433.46</ele>
        <time>2022-07-04T08:42:19Z</time>
      </trkpt>
      <trkpt lat="47.72487" lon="4.97154">
        <ele>433.53</ele>
        <time>2022-07-04T08:42:22Z</time>
      </trkpt>
      <trkpt lat="47.72487" lon="4.97158">
        <ele>433.6</ele>
        <time>2022-07-04T08:42:24Z</time>
      </trkpt>
      <trkpt lat="47.72487" lon="4.97163">
        <ele>433.68</ele>
        <time>2022-07-04T08:42:26Z</time>
      </trkpt>
      <trkpt lat="47.72486" lon="4.97167">
        <ele>434.01</ele>
        <time>2022-07-04T08:42:30Z</time>
      </trkpt>
      <trkpt lat="47.72488" lon="4.97171">
        <ele>433.25</ele>
        <time>2022-07-04T08:42:33Z</time>
      </trkpt>
      <trkpt lat="47.72489" lon="4.97175">
        <ele>432.81</ele>
        <time>2022-07-04T08:42:35Z</time>
      </trkpt>
      <trkpt lat="47.7249" lon="4.9718">
        <ele>432.36</ele>
        <time>2022-07-04T08:42:39Z</time>
      </trkpt>
      <trkpt lat="47.72491" lon="4.97185">
        <ele>431.95</ele>
        <time>2022-07-04T08:42:42Z</time>
      </trkpt>
      <trkpt lat="47.72492" lon="4.97189">
        <ele>431.61</ele>
        <time>2022-07-04T08:42:44Z</time>
      </trkpt>
      <trkpt lat="47.72494" lon="4.97192">
        <ele>431.14</ele>
        <time>2022-07-04T08:42:46Z</time>
      </trkpt>
      <trkpt lat="47.72496" lon="4.97196">
        <ele>430.57</ele>
        <time>2022-07-04T08:42:49Z</time>
      </trkpt>
      <trkpt lat="47.72497" lon="4.97199">
        <ele>430.08</ele>
        <time>2022-07-04T08:42:51Z</time>
      </trkpt>
      <trkpt lat="47.72499" lon="4.97203">
        <ele>429.28</ele>
        <time>2022-07-04T08:42:53Z</time>
      </trkpt>
      <trkpt lat="47.72501" lon="4.97206">
        <ele>428.67</ele>
        <time>2022-07-04T08:42:56Z</time>
      </trkpt>
      <trkpt lat="47.72504" lon="4.9721">
        <ele>428.07</ele>
        <time>2022-07-04T08:42:58Z</time>
      </trkpt>
      <trkpt lat="47.72506" lon="4.97212">
        <ele>427.79</ele>
        <time>2022-07-04T08:43:00Z</time>
      </trkpt>
      <trkpt lat="47.72508" lon="4.97215">
        <ele>427.48</ele>
        <time>2022-07-04T08:43:01Z</time>
      </trkpt>
      <trkpt lat="47.72511" lon="4.97218">
        <ele>427.22</ele>
        <time>2022-07-04T08:43:04Z</time>
      </trkpt>
      <trkpt lat="47.72513" lon="4.9722">
        <ele>427.09</ele>
        <time>2022-07-04T08:43:06Z</time>
      </trkpt>
      <trkpt lat="47.72516" lon="4.97223">
        <ele>427.01</ele>
        <time>2022-07-04T08:43:09Z</time>
      </trkpt>
      <trkpt lat="47.72518" lon="4.97225">
        <ele>427.01</ele>
        <time>2022-07-04T08:43:11Z</time>
      </trkpt>
      <trkpt lat="47.72521" lon="4.97228">
        <ele>426.94</ele>
        <time>2022-07-04T08:43:14Z</time>
      </trkpt>
      <trkpt lat="47.72523" lon="4.97231">
        <ele>426.85</ele>
        <time>2022-07-04T08:43:16Z</time>
      </trkpt>
      <trkpt lat="47.72526" lon="4.97233">
        <ele>426.69</ele>
        <time>2022-07-04T08:43:18Z</time>
      </trkpt>
      <trkpt lat="47.72528" lon="4.97237">
        <ele>426.46</ele>
        <time>2022-07-04T08:43:21Z</time>
      </trkpt>
      <trkpt lat="47.72529" lon="4.9724">
        <ele>426.31</ele>
        <time>2022-07-04T08:43:23Z</time>
      </trkpt>
      <trkpt lat="47.72532" lon="4.97243">
        <ele>426.14</ele>
        <time>2022-07-04T08:43:26Z</time>
      </trkpt>
      <trkpt lat="47.72535" lon="4.97244">
        <ele>426.05</ele>
        <time>2022-07-04T08:43:28Z</time>
      </trkpt>
      <trkpt lat="47.72538" lon="4.97246">
        <ele>425.99</ele>
        <time>2022-07-04T08:43:30Z</time>
      </trkpt>
      <trkpt lat="47.7254" lon="4.97247">
        <ele>425.97</ele>
        <time>2022-07-04T08:43:33Z</time>
      </trkpt>
      <trkpt lat="47.72543" lon="4.97249">
        <ele>425.98</ele>
        <time>2022-07-04T08:43:34Z</time>
      </trkpt>
      <trkpt lat="47.72546" lon="4.9725">
        <ele>426</ele>
        <time>2022-07-04T08:43:36Z</time>
      </trkpt>
      <trkpt lat="47.72549" lon="4.9725">
        <ele>426</ele>
        <time>2022-07-04T08:43:39Z</time>
      </trkpt>
      <trkpt lat="47.72553" lon="4.9725">
        <ele>426</ele>
        <time>2022-07-04T08:43:40Z</time>
      </trkpt>
      <trkpt lat="47.72556" lon="4.97251">
        <ele>426.11</ele>
        <time>2022-07-04T08:43:43Z</time>
      </trkpt>
      <trkpt lat="47.72559" lon="4.97252">
        <ele>426.22</ele>
        <time>2022-07-04T08:43:44Z</time>
      </trkpt>
      <trkpt lat="47.72562" lon="4.97253">
        <ele>426.32</ele>
        <time>2022-07-04T08:43:46Z</time>
      </trkpt>
      <trkpt lat="47.72565" lon="4.97255">
        <ele>426.54</ele>
        <time>2022-07-04T08:43:49Z</time>
      </trkpt>
      <trkpt lat="47.72569" lon="4.97255">
        <ele>426.54</ele>
        <time>2022-07-04T08:43:51Z</time>
      </trkpt>
      <trkpt lat="47.72571" lon="4.97255">
        <ele>426.54</ele>
        <time>2022-07-04T08:43:53Z</time>
      </trkpt>
      <trkpt lat="47.72574" lon="4.97256">
        <ele>426.65</ele>
        <time>2022-07-04T08:43:55Z</time>
      </trkpt>
      <trkpt lat="47.72577" lon="4.97256">
        <ele>426.65</ele>
        <time>2022-07-04T08:43:57Z</time>
      </trkpt>
      <trkpt lat="47.7258" lon="4.97257">
        <ele>426.76</ele>
        <time>2022-07-04T08:44:00Z</time>
      </trkpt>
      <trkpt lat="47.72583" lon="4.97259">
        <ele>426.97</ele>
        <time>2022-07-04T08:44:02Z</time>
      </trkpt>
      <trkpt lat="47.72586" lon="4.97261">
        <ele>426.8</ele>
        <time>2022-07-04T08:44:04Z</time>
      </trkpt>
      <trkpt lat="47.72588" lon="4.97263">
        <ele>426.73</ele>
        <time>2022-07-04T08:44:06Z</time>
      </trkpt>
      <trkpt lat="47.72591" lon="4.97264">
        <ele>426.41</ele>
        <time>2022-07-04T08:44:08Z</time>
      </trkpt>
      <trkpt lat="47.72594" lon="4.97265">
        <ele>426.08</ele>
        <time>2022-07-04T08:44:10Z</time>
      </trkpt>
      <trkpt lat="47.72597" lon="4.97265">
        <ele>425.65</ele>
        <time>2022-07-04T08:44:12Z</time>
      </trkpt>
      <trkpt lat="47.726" lon="4.97265">
        <ele>425.22</ele>
        <time>2022-07-04T08:44:15Z</time>
      </trkpt>
      <trkpt lat="47.72603" lon="4.97266">
        <ele>424.9</ele>
        <time>2022-07-04T08:44:17Z</time>
      </trkpt>
      <trkpt lat="47.72606" lon="4.97267">
        <ele>424.57</ele>
        <time>2022-07-04T08:44:21Z</time>
      </trkpt>
      <trkpt lat="47.72609" lon="4.97269">
        <ele>424.36</ele>
        <time>2022-07-04T08:44:23Z</time>
      </trkpt>
      <trkpt lat="47.72613" lon="4.9727">
        <ele>424.08</ele>
        <time>2022-07-04T08:44:26Z</time>
      </trkpt>
      <trkpt lat="47.72616" lon="4.97272">
        <ele>424.23</ele>
        <time>2022-07-04T08:44:29Z</time>
      </trkpt>
      <trkpt lat="47.72619" lon="4.97273">
        <ele>424.29</ele>
        <time>2022-07-04T08:44:31Z</time>
      </trkpt>
      <trkpt lat="47.72622" lon="4.97275">
        <ele>424.54</ele>
        <time>2022-07-04T08:44:34Z</time>
      </trkpt>
      <trkpt lat="47.72624" lon="4.97278">
        <ele>425.03</ele>
        <time>2022-07-04T08:44:37Z</time>
      </trkpt>
      <trkpt lat="47.72627" lon="4.97281">
        <ele>425.48</ele>
        <time>2022-07-04T08:44:39Z</time>
      </trkpt>
      <trkpt lat="47.72629" lon="4.97283">
        <ele>425.81</ele>
        <time>2022-07-04T08:44:41Z</time>
      </trkpt>
      <trkpt lat="47.72632" lon="4.97285">
        <ele>426.17</ele>
        <time>2022-07-04T08:44:45Z</time>
      </trkpt>
      <trkpt lat="47.72635" lon="4.97287">
        <ele>426.57</ele>
        <time>2022-07-04T08:44:47Z</time>
      </trkpt>
      <trkpt lat="47.72638" lon="4.97288">
        <ele>426.82</ele>
        <time>2022-07-04T08:44:50Z</time>
      </trkpt>
      <trkpt lat="47.72641" lon="4.9729">
        <ele>427.07</ele>
        <time>2022-07-04T08:44:54Z</time>
      </trkpt>
      <trkpt lat="47.72644" lon="4.97291">
        <ele>427.09</ele>
        <time>2022-07-04T08:44:56Z</time>
      </trkpt>
      <trkpt lat="47.72647" lon="4.97292">
        <ele>427.13</ele>
        <time>2022-07-04T08:44:58Z</time>
      </trkpt>
      <trkpt lat="47.72649" lon="4.97293">
        <ele>427.25</ele>
        <time>2022-07-04T08:45:01Z</time>
      </trkpt>
      <trkpt lat="47.72652" lon="4.97293">
        <ele>427.1</ele>
        <time>2022-07-04T08:45:02Z</time>
      </trkpt>
      <trkpt lat="47.72655" lon="4.97295">
        <ele>427.44</ele>
        <time>2022-07-04T08:45:04Z</time>
      </trkpt>
      <trkpt lat="47.72659" lon="4.97297">
        <ele>427.79</ele>
        <time>2022-07-04T08:45:07Z</time>
      </trkpt>
      <trkpt lat="47.72662" lon="4.97299">
        <ele>428.23</ele>
        <time>2022-07-04T08:45:09Z</time>
      </trkpt>
      <trkpt lat="47.72664" lon="4.973">
        <ele>428.46</ele>
        <time>2022-07-04T08:45:11Z</time>
      </trkpt>
      <trkpt lat="47.72666" lon="4.97303">
        <ele>429.27</ele>
        <time>2022-07-04T08:45:14Z</time>
      </trkpt>
      <trkpt lat="47.72669" lon="4.97304">
        <ele>429.23</ele>
        <time>2022-07-04T08:45:19Z</time>
      </trkpt>
      <trkpt lat="47.72673" lon="4.97304">
        <ele>428.68</ele>
        <time>2022-07-04T08:45:23Z</time>
      </trkpt>
      <trkpt lat="47.72675" lon="4.97304">
        <ele>428.4</ele>
        <time>2022-07-04T08:45:25Z</time>
      </trkpt>
      <trkpt lat="47.72678" lon="4.97305">
        <ele>428.23</ele>
        <time>2022-07-04T08:45:29Z</time>
      </trkpt>
      <trkpt lat="47.72681" lon="4.97307">
        <ele>428.27</ele>
        <time>2022-07-04T08:45:31Z</time>
      </trkpt>
      <trkpt lat="47.72684" lon="4.97308">
        <ele>428.09</ele>
        <time>2022-07-04T08:45:33Z</time>
      </trkpt>
      <trkpt lat="47.72686" lon="4.97309">
        <ele>428.05</ele>
        <time>2022-07-04T08:45:36Z</time>
      </trkpt>
      <trkpt lat="47.72689" lon="4.97311">
        <ele>428.12</ele>
        <time>2022-07-04T08:45:38Z</time>
      </trkpt>
      <trkpt lat="47.72692" lon="4.97312">
        <ele>427.96</ele>
        <time>2022-07-04T08:45:41Z</time>
      </trkpt>
      <trkpt lat="47.72696" lon="4.97312">
        <ele>427.61</ele>
        <time>2022-07-04T08:45:43Z</time>
      </trkpt>
      <trkpt lat="47.72699" lon="4.97313">
        <ele>427.83</ele>
        <time>2022-07-04T08:45:45Z</time>
      </trkpt>
      <trkpt lat="47.72703" lon="4.97314">
        <ele>428.03</ele>
        <time>2022-07-04T08:45:48Z</time>
      </trkpt>
      <trkpt lat="47.72706" lon="4.97315">
        <ele>428.24</ele>
        <time>2022-07-04T08:45:50Z</time>
      </trkpt>
      <trkpt lat="47.72709" lon="4.97317">
        <ele>428.67</ele>
        <time>2022-07-04T08:45:52Z</time>
      </trkpt>
      <trkpt lat="47.72711" lon="4.97319">
        <ele>429.1</ele>
        <time>2022-07-04T08:45:54Z</time>
      </trkpt>
      <trkpt lat="47.72714" lon="4.97321">
        <ele>429.5</ele>
        <time>2022-07-04T08:45:57Z</time>
      </trkpt>
      <trkpt lat="47.72717" lon="4.97324">
        <ele>430.11</ele>
        <time>2022-07-04T08:45:59Z</time>
      </trkpt>
      <trkpt lat="47.7272" lon="4.97326">
        <ele>430.47</ele>
        <time>2022-07-04T08:46:03Z</time>
      </trkpt>
      <trkpt lat="47.72723" lon="4.97327">
        <ele>430.58</ele>
        <time>2022-07-04T08:46:06Z</time>
      </trkpt>
      <trkpt lat="47.72725" lon="4.97329">
        <ele>430.88</ele>
        <time>2022-07-04T08:46:09Z</time>
      </trkpt>
      <trkpt lat="47.72729" lon="4.97331">
        <ele>431.03</ele>
        <time>2022-07-04T08:46:11Z</time>
      </trkpt>
      <trkpt lat="47.72731" lon="4.97333">
        <ele>431.3</ele>
        <time>2022-07-04T08:46:12Z</time>
      </trkpt>
      <trkpt lat="47.72735" lon="4.97335">
        <ele>431.17</ele>
        <time>2022-07-04T08:46:15Z</time>
      </trkpt>
      <trkpt lat="47.72737" lon="4.97336">
        <ele>431.08</ele>
        <time>2022-07-04T08:46:18Z</time>
      </trkpt>
      <trkpt lat="47.7274" lon="4.97337">
        <ele>430.94</ele>
        <time>2022-07-04T08:46:20Z</time>
      </trkpt>
      <trkpt lat="47.72743" lon="4.97338">
        <ele>430.8</ele>
        <time>2022-07-04T08:46:22Z</time>
      </trkpt>
      <trkpt lat="47.72747" lon="4.9734">
        <ele>430.67</ele>
        <time>2022-07-04T08:46:25Z</time>
      </trkpt>
      <trkpt lat="47.7275" lon="4.97342">
        <ele>430.62</ele>
        <time>2022-07-04T08:46:27Z</time>
      </trkpt>
      <trkpt lat="47.72752" lon="4.97344">
        <ele>430.76</ele>
        <time>2022-07-04T08:46:30Z</time>
      </trkpt>
      <trkpt lat="47.72755" lon="4.97346">
        <ele>430.85</ele>
        <time>2022-07-04T08:46:32Z</time>
      </trkpt>
      <trkpt lat="47.72757" lon="4.97348">
        <ele>430.91</ele>
        <time>2022-07-04T08:46:34Z</time>
      </trkpt>
      <trkpt lat="47.72761" lon="4.9735">
        <ele>430.88</ele>
        <time>2022-07-04T08:46:37Z</time>
      </trkpt>
      <trkpt lat="47.72763" lon="4.97351">
        <ele>430.85</ele>
        <time>2022-07-04T08:46:38Z</time>
      </trkpt>
      <trkpt lat="47.72766" lon="4.97352">
        <ele>430.76</ele>
        <time>2022-07-04T08:46:40Z</time>
      </trkpt>
      <trkpt lat="47.72769" lon="4.97353">
        <ele>430.65</ele>
        <time>2022-07-04T08:46:43Z</time>
      </trkpt>
      <trkpt lat="47.72772" lon="4.97353">
        <ele>430.53</ele>
        <time>2022-07-04T08:46:44Z</time>
      </trkpt>
      <trkpt lat="47.72775" lon="4.97353">
        <ele>430.4</ele>
        <time>2022-07-04T08:46:47Z</time>
      </trkpt>
      <trkpt lat="47.72778" lon="4.97354">
        <ele>430.23</ele>
        <time>2022-07-04T08:46:49Z</time>
      </trkpt>
      <trkpt lat="47.72781" lon="4.97356">
        <ele>429.77</ele>
        <time>2022-07-04T08:46:51Z</time>
      </trkpt>
      <trkpt lat="47.72783" lon="4.97359">
        <ele>429.47</ele>
        <time>2022-07-04T08:46:53Z</time>
      </trkpt>
      <trkpt lat="47.72786" lon="4.97362">
        <ele>429.16</ele>
        <time>2022-07-04T08:46:57Z</time>
      </trkpt>
      <trkpt lat="47.72787" lon="4.97365">
        <ele>429.19</ele>
        <time>2022-07-04T08:46:58Z</time>
      </trkpt>
      <trkpt lat="47.72789" lon="4.97369">
        <ele>429.13</ele>
        <time>2022-07-04T08:47:01Z</time>
      </trkpt>
      <trkpt lat="47.72791" lon="4.97372">
        <ele>428.98</ele>
        <time>2022-07-04T08:47:03Z</time>
      </trkpt>
      <trkpt lat="47.72794" lon="4.97376">
        <ele>428.69</ele>
        <time>2022-07-04T08:47:07Z</time>
      </trkpt>
      <trkpt lat="47.72796" lon="4.97379">
        <ele>428.48</ele>
        <time>2022-07-04T08:47:08Z</time>
      </trkpt>
      <trkpt lat="47.72798" lon="4.97382">
        <ele>428.23</ele>
        <time>2022-07-04T08:47:11Z</time>
      </trkpt>
      <trkpt lat="47.728" lon="4.97385">
        <ele>427.94</ele>
        <time>2022-07-04T08:47:13Z</time>
      </trkpt>
      <trkpt lat="47.72803" lon="4.97389">
        <ele>427.46</ele>
        <time>2022-07-04T08:47:16Z</time>
      </trkpt>
      <trkpt lat="47.72806" lon="4.97391">
        <ele>426.97</ele>
        <time>2022-07-04T08:47:19Z</time>
      </trkpt>
      <trkpt lat="47.72809" lon="4.97393">
        <ele>426.32</ele>
        <time>2022-07-04T08:47:20Z</time>
      </trkpt>
      <trkpt lat="47.72811" lon="4.97396">
        <ele>425.98</ele>
        <time>2022-07-04T08:47:23Z</time>
      </trkpt>
      <trkpt lat="47.72814" lon="4.97398">
        <ele>425.4</ele>
        <time>2022-07-04T08:47:26Z</time>
      </trkpt>
      <trkpt lat="47.72816" lon="4.97401">
        <ele>425.13</ele>
        <time>2022-07-04T08:47:29Z</time>
      </trkpt>
      <trkpt lat="47.72818" lon="4.97403">
        <ele>424.83</ele>
        <time>2022-07-04T08:47:34Z</time>
      </trkpt>
      <trkpt lat="47.72821" lon="4.97407">
        <ele>424.49</ele>
        <time>2022-07-04T08:47:37Z</time>
      </trkpt>
      <trkpt lat="47.72823" lon="4.97411">
        <ele>424.4</ele>
        <time>2022-07-04T08:47:40Z</time>
      </trkpt>
      <trkpt lat="47.72826" lon="4.97413">
        <ele>423.99</ele>
        <time>2022-07-04T08:47:41Z</time>
      </trkpt>
      <trkpt lat="47.72828" lon="4.97416">
        <ele>423.9</ele>
        <time>2022-07-04T08:47:43Z</time>
      </trkpt>
      <trkpt lat="47.72831" lon="4.97419">
        <ele>423.59</ele>
        <time>2022-07-04T08:47:46Z</time>
      </trkpt>
      <trkpt lat="47.72833" lon="4.97423">
        <ele>423.52</ele>
        <time>2022-07-04T08:47:48Z</time>
      </trkpt>
      <trkpt lat="47.72835" lon="4.97426">
        <ele>423.19</ele>
        <time>2022-07-04T08:47:50Z</time>
      </trkpt>
      <trkpt lat="47.72838" lon="4.97429">
        <ele>422.54</ele>
        <time>2022-07-04T08:47:53Z</time>
      </trkpt>
      <trkpt lat="47.72841" lon="4.97431">
        <ele>421.82</ele>
        <time>2022-07-04T08:47:56Z</time>
      </trkpt>
      <trkpt lat="47.72844" lon="4.97433">
        <ele>421.1</ele>
        <time>2022-07-04T08:47:58Z</time>
      </trkpt>
      <trkpt lat="47.72847" lon="4.97435">
        <ele>420.38</ele>
        <time>2022-07-04T08:48:01Z</time>
      </trkpt>
      <trkpt lat="47.72849" lon="4.97437">
        <ele>419.95</ele>
        <time>2022-07-04T08:48:03Z</time>
      </trkpt>
      <trkpt lat="47.72852" lon="4.97438">
        <ele>419.16</ele>
        <time>2022-07-04T08:48:06Z</time>
      </trkpt>
      <trkpt lat="47.72855" lon="4.9744">
        <ele>418.44</ele>
        <time>2022-07-04T08:48:10Z</time>
      </trkpt>
      <trkpt lat="47.72858" lon="4.97442">
        <ele>417.72</ele>
        <time>2022-07-04T08:48:13Z</time>
      </trkpt>
      <trkpt lat="47.72862" lon="4.97445">
        <ele>416.89</ele>
        <time>2022-07-04T08:48:16Z</time>
      </trkpt>
      <trkpt lat="47.72864" lon="4.97447">
        <ele>416.72</ele>
        <time>2022-07-04T08:48:17Z</time>
      </trkpt>
      <trkpt lat="47.72867" lon="4.97448">
        <ele>416.19</ele>
        <time>2022-07-04T08:48:20Z</time>
      </trkpt>
      <trkpt lat="47.7287" lon="4.9745">
        <ele>415.75</ele>
        <time>2022-07-04T08:48:23Z</time>
      </trkpt>
      <trkpt lat="47.72873" lon="4.97451">
        <ele>415.17</ele>
        <time>2022-07-04T08:48:25Z</time>
      </trkpt>
      <trkpt lat="47.72877" lon="4.97452">
        <ele>414.34</ele>
        <time>2022-07-04T08:48:28Z</time>
      </trkpt>
      <trkpt lat="47.72879" lon="4.97452">
        <ele>413.87</ele>
        <time>2022-07-04T08:48:30Z</time>
      </trkpt>
      <trkpt lat="47.72882" lon="4.97454">
        <ele>413.35</ele>
        <time>2022-07-04T08:48:32Z</time>
      </trkpt>
      <trkpt lat="47.72885" lon="4.97455">
        <ele>412.71</ele>
        <time>2022-07-04T08:48:33Z</time>
      </trkpt>
      <trkpt lat="47.72888" lon="4.97458">
        <ele>412.2</ele>
        <time>2022-07-04T08:48:36Z</time>
      </trkpt>
      <trkpt lat="47.72891" lon="4.97459">
        <ele>411.67</ele>
        <time>2022-07-04T08:48:39Z</time>
      </trkpt>
      <trkpt lat="47.72893" lon="4.9746">
        <ele>411.38</ele>
        <time>2022-07-04T08:48:41Z</time>
      </trkpt>
      <trkpt lat="47.72896" lon="4.97461">
        <ele>410.91</ele>
        <time>2022-07-04T08:48:44Z</time>
      </trkpt>
      <trkpt lat="47.72899" lon="4.97461">
        <ele>410.37</ele>
        <time>2022-07-04T08:48:46Z</time>
      </trkpt>
      <trkpt lat="47.72902" lon="4.97462">
        <ele>409.9</ele>
        <time>2022-07-04T08:48:49Z</time>
      </trkpt>
      <trkpt lat="47.72906" lon="4.97462">
        <ele>409.18</ele>
        <time>2022-07-04T08:48:51Z</time>
      </trkpt>
      <trkpt lat="47.72909" lon="4.97462">
        <ele>408.64</ele>
        <time>2022-07-04T08:48:53Z</time>
      </trkpt>
      <trkpt lat="47.72913" lon="4.97462">
        <ele>407.92</ele>
        <time>2022-07-04T08:48:55Z</time>
      </trkpt>
      <trkpt lat="47.72916" lon="4.97462">
        <ele>407.38</ele>
        <time>2022-07-04T08:48:57Z</time>
      </trkpt>
      <trkpt lat="47.72919" lon="4.97462">
        <ele>407.29</ele>
        <time>2022-07-04T08:48:59Z</time>
      </trkpt>
      <trkpt lat="47.72922" lon="4.97462">
        <ele>407.31</ele>
        <time>2022-07-04T08:49:01Z</time>
      </trkpt>
      <trkpt lat="47.72925" lon="4.97461">
        <ele>407.25</ele>
        <time>2022-07-04T08:49:04Z</time>
      </trkpt>
      <trkpt lat="47.72928" lon="4.9746">
        <ele>407.17</ele>
        <time>2022-07-04T08:49:05Z</time>
      </trkpt>
      <trkpt lat="47.72931" lon="4.97459">
        <ele>407.07</ele>
        <time>2022-07-04T08:49:08Z</time>
      </trkpt>
      <trkpt lat="47.72934" lon="4.97458">
        <ele>406.96</ele>
        <time>2022-07-04T08:49:10Z</time>
      </trkpt>
      <trkpt lat="47.72938" lon="4.97458">
        <ele>406.96</ele>
        <time>2022-07-04T08:49:12Z</time>
      </trkpt>
      <trkpt lat="47.72942" lon="4.97457">
        <ele>406.82</ele>
        <time>2022-07-04T08:49:15Z</time>
      </trkpt>
      <trkpt lat="47.72945" lon="4.97457">
        <ele>406.89</ele>
        <time>2022-07-04T08:49:17Z</time>
      </trkpt>
      <trkpt lat="47.72948" lon="4.97456">
        <ele>407.18</ele>
        <time>2022-07-04T08:49:18Z</time>
      </trkpt>
      <trkpt lat="47.72951" lon="4.97454">
        <ele>407.32</ele>
        <time>2022-07-04T08:49:22Z</time>
      </trkpt>
      <trkpt lat="47.72954" lon="4.97453">
        <ele>407.61</ele>
        <time>2022-07-04T08:49:24Z</time>
      </trkpt>
      <trkpt lat="47.72957" lon="4.97451">
        <ele>407.75</ele>
        <time>2022-07-04T08:49:25Z</time>
      </trkpt>
      <trkpt lat="47.7296" lon="4.9745">
        <ele>408.04</ele>
        <time>2022-07-04T08:49:30Z</time>
      </trkpt>
      <trkpt lat="47.72963" lon="4.97449">
        <ele>408.33</ele>
        <time>2022-07-04T08:49:37Z</time>
      </trkpt>
      <trkpt lat="47.72966" lon="4.97447">
        <ele>408.47</ele>
        <time>2022-07-04T08:49:43Z</time>
      </trkpt>
      <trkpt lat="47.72968" lon="4.97444">
        <ele>408.27</ele>
        <time>2022-07-04T08:49:46Z</time>
      </trkpt>
      <trkpt lat="47.72971" lon="4.9744">
        <ele>407.57</ele>
        <time>2022-07-04T08:49:48Z</time>
      </trkpt>
      <trkpt lat="47.72973" lon="4.97436">
        <ele>406.68</ele>
        <time>2022-07-04T08:49:50Z</time>
      </trkpt>
      <trkpt lat="47.72974" lon="4.97432">
        <ele>405.67</ele>
        <time>2022-07-04T08:49:58Z</time>
      </trkpt>
      <trkpt lat="47.72976" lon="4.97429">
        <ele>405.1</ele>
        <time>2022-07-04T08:50:06Z</time>
      </trkpt>
      <trkpt lat="47.72979" lon="4.97428">
        <ele>405.24</ele>
        <time>2022-07-04T08:50:16Z</time>
      </trkpt>
      <trkpt lat="47.72981" lon="4.97429">
        <ele>405.82</ele>
        <time>2022-07-04T08:50:20Z</time>
      </trkpt>
      <trkpt lat="47.72984" lon="4.97432">
        <ele>407.11</ele>
        <time>2022-07-04T08:50:26Z</time>
      </trkpt>
      <trkpt lat="47.72986" lon="4.97435">
        <ele>408.26</ele>
        <time>2022-07-04T08:50:29Z</time>
      </trkpt>
      <trkpt lat="47.72988" lon="4.97437">
        <ele>409.13</ele>
        <time>2022-07-04T08:50:32Z</time>
      </trkpt>
      <trkpt lat="47.72991" lon="4.9744">
        <ele>410.42</ele>
        <time>2022-07-04T08:50:36Z</time>
      </trkpt>
      <trkpt lat="47.72994" lon="4.97439">
        <ele>410.57</ele>
        <time>2022-07-04T08:50:39Z</time>
      </trkpt>
      <trkpt lat="47.72997" lon="4.97437">
        <ele>410.42</ele>
        <time>2022-07-04T08:50:42Z</time>
      </trkpt>
      <trkpt lat="47.73" lon="4.97436">
        <ele>410.57</ele>
        <time>2022-07-04T08:50:45Z</time>
      </trkpt>
      <trkpt lat="47.73003" lon="4.97434">
        <ele>409.82</ele>
        <time>2022-07-04T08:50:46Z</time>
      </trkpt>
      <trkpt lat="47.73006" lon="4.97433">
        <ele>409.36</ele>
        <time>2022-07-04T08:50:50Z</time>
      </trkpt>
      <trkpt lat="47.73009" lon="4.97432">
        <ele>408.91</ele>
        <time>2022-07-04T08:50:52Z</time>
      </trkpt>
      <trkpt lat="47.73013" lon="4.97432">
        <ele>408.69</ele>
        <time>2022-07-04T08:50:55Z</time>
      </trkpt>
      <trkpt lat="47.73016" lon="4.97432">
        <ele>408.52</ele>
        <time>2022-07-04T08:50:58Z</time>
      </trkpt>
      <trkpt lat="47.73019" lon="4.97431">
        <ele>408.09</ele>
        <time>2022-07-04T08:51:01Z</time>
      </trkpt>
      <trkpt lat="47.73022" lon="4.97429">
        <ele>407.41</ele>
        <time>2022-07-04T08:51:05Z</time>
      </trkpt>
      <trkpt lat="47.73025" lon="4.97426">
        <ele>406.49</ele>
        <time>2022-07-04T08:51:09Z</time>
      </trkpt>
      <trkpt lat="47.73028" lon="4.97424">
        <ele>405.85</ele>
        <time>2022-07-04T08:51:11Z</time>
      </trkpt>
      <trkpt lat="47.73031" lon="4.97424">
        <ele>405.84</ele>
        <time>2022-07-04T08:51:15Z</time>
      </trkpt>
      <trkpt lat="47.73034" lon="4.97424">
        <ele>405.84</ele>
        <time>2022-07-04T08:51:18Z</time>
      </trkpt>
      <trkpt lat="47.73037" lon="4.97422">
        <ele>405.42</ele>
        <time>2022-07-04T08:51:22Z</time>
      </trkpt>
      <trkpt lat="47.7304" lon="4.97421">
        <ele>405.26</ele>
        <time>2022-07-04T08:51:25Z</time>
      </trkpt>
      <trkpt lat="47.73042" lon="4.9742">
        <ele>405.11</ele>
        <time>2022-07-04T08:51:27Z</time>
      </trkpt>
      <trkpt lat="47.73046" lon="4.97419">
        <ele>405.02</ele>
        <time>2022-07-04T08:51:29Z</time>
      </trkpt>
      <trkpt lat="47.73049" lon="4.97419">
        <ele>405.1</ele>
        <time>2022-07-04T08:51:31Z</time>
      </trkpt>
      <trkpt lat="47.73052" lon="4.97418">
        <ele>405.04</ele>
        <time>2022-07-04T08:51:35Z</time>
      </trkpt>
      <trkpt lat="47.73055" lon="4.97418">
        <ele>405.13</ele>
        <time>2022-07-04T08:51:39Z</time>
      </trkpt>
      <trkpt lat="47.73057" lon="4.97417">
        <ele>405.09</ele>
        <time>2022-07-04T08:51:41Z</time>
      </trkpt>
      <trkpt lat="47.73061" lon="4.97415">
        <ele>404.96</ele>
        <time>2022-07-04T08:51:43Z</time>
      </trkpt>
      <trkpt lat="47.73063" lon="4.97414">
        <ele>404.88</ele>
        <time>2022-07-04T08:51:46Z</time>
      </trkpt>
      <trkpt lat="47.73067" lon="4.97414">
        <ele>405.03</ele>
        <time>2022-07-04T08:51:47Z</time>
      </trkpt>
      <trkpt lat="47.73069" lon="4.97413">
        <ele>404.96</ele>
        <time>2022-07-04T08:51:50Z</time>
      </trkpt>
      <trkpt lat="47.73073" lon="4.97413">
        <ele>405.1</ele>
        <time>2022-07-04T08:51:52Z</time>
      </trkpt>
      <trkpt lat="47.73076" lon="4.97413">
        <ele>405.21</ele>
        <time>2022-07-04T08:51:53Z</time>
      </trkpt>
      <trkpt lat="47.73079" lon="4.97414">
        <ele>405.46</ele>
        <time>2022-07-04T08:51:56Z</time>
      </trkpt>
      <trkpt lat="47.73082" lon="4.97416">
        <ele>405.86</ele>
        <time>2022-07-04T08:51:59Z</time>
      </trkpt>
      <trkpt lat="47.73084" lon="4.97417">
        <ele>406.05</ele>
        <time>2022-07-04T08:52:01Z</time>
      </trkpt>
      <trkpt lat="47.73087" lon="4.97418">
        <ele>406.2</ele>
        <time>2022-07-04T08:52:05Z</time>
      </trkpt>
      <trkpt lat="47.7309" lon="4.97418">
        <ele>406.22</ele>
        <time>2022-07-04T08:52:07Z</time>
      </trkpt>
      <trkpt lat="47.73094" lon="4.97419">
        <ele>406.4</ele>
        <time>2022-07-04T08:52:09Z</time>
      </trkpt>
      <trkpt lat="47.73096" lon="4.97419">
        <ele>406.41</ele>
        <time>2022-07-04T08:52:10Z</time>
      </trkpt>
      <trkpt lat="47.73099" lon="4.9742">
        <ele>406.62</ele>
        <time>2022-07-04T08:52:13Z</time>
      </trkpt>
      <trkpt lat="47.73102" lon="4.97419">
        <ele>406.45</ele>
        <time>2022-07-04T08:52:14Z</time>
      </trkpt>
      <trkpt lat="47.73105" lon="4.97419">
        <ele>406.47</ele>
        <time>2022-07-04T08:52:17Z</time>
      </trkpt>
      <trkpt lat="47.73108" lon="4.97419">
        <ele>406.49</ele>
        <time>2022-07-04T08:52:20Z</time>
      </trkpt>
      <trkpt lat="47.73111" lon="4.97419">
        <ele>406.5</ele>
        <time>2022-07-04T08:52:22Z</time>
      </trkpt>
      <trkpt lat="47.73113" lon="4.97418">
        <ele>406.42</ele>
        <time>2022-07-04T08:52:26Z</time>
      </trkpt>
      <trkpt lat="47.73116" lon="4.97418">
        <ele>406.62</ele>
        <time>2022-07-04T08:52:32Z</time>
      </trkpt>
      <trkpt lat="47.73119" lon="4.97417">
        <ele>406.63</ele>
        <time>2022-07-04T08:52:35Z</time>
      </trkpt>
      <trkpt lat="47.73122" lon="4.97417">
        <ele>406.85</ele>
        <time>2022-07-04T08:52:40Z</time>
      </trkpt>
      <trkpt lat="47.73125" lon="4.97418">
        <ele>407.24</ele>
        <time>2022-07-04T08:52:44Z</time>
      </trkpt>
      <trkpt lat="47.73128" lon="4.97418">
        <ele>407.45</ele>
        <time>2022-07-04T08:52:46Z</time>
      </trkpt>
      <trkpt lat="47.73131" lon="4.97418">
        <ele>407.65</ele>
        <time>2022-07-04T08:52:50Z</time>
      </trkpt>
      <trkpt lat="47.73134" lon="4.97418">
        <ele>407.86</ele>
        <time>2022-07-04T08:52:54Z</time>
      </trkpt>
      <trkpt lat="47.73137" lon="4.97419">
        <ele>408.21</ele>
        <time>2022-07-04T08:52:56Z</time>
      </trkpt>
      <trkpt lat="47.7314" lon="4.97419">
        <ele>408.46</ele>
        <time>2022-07-04T08:52:59Z</time>
      </trkpt>
      <trkpt lat="47.73143" lon="4.97421">
        <ele>409.07</ele>
        <time>2022-07-04T08:53:01Z</time>
      </trkpt>
      <trkpt lat="47.73146" lon="4.97423">
        <ele>409.68</ele>
        <time>2022-07-04T08:53:05Z</time>
      </trkpt>
      <trkpt lat="47.73148" lon="4.97426">
        <ele>410.33</ele>
        <time>2022-07-04T08:53:08Z</time>
      </trkpt>
      <trkpt lat="47.7315" lon="4.97428">
        <ele>410.83</ele>
        <time>2022-07-04T08:53:12Z</time>
      </trkpt>
      <trkpt lat="47.73153" lon="4.9743">
        <ele>411.44</ele>
        <time>2022-07-04T08:53:15Z</time>
      </trkpt>
      <trkpt lat="47.73155" lon="4.97432">
        <ele>411.95</ele>
        <time>2022-07-04T08:53:17Z</time>
      </trkpt>
      <trkpt lat="47.73158" lon="4.97435">
        <ele>412.7</ele>
        <time>2022-07-04T08:53:21Z</time>
      </trkpt>
      <trkpt lat="47.7316" lon="4.97438">
        <ele>413.35</ele>
        <time>2022-07-04T08:53:23Z</time>
      </trkpt>
      <trkpt lat="47.73162" lon="4.97442">
        <ele>414.14</ele>
        <time>2022-07-04T08:53:27Z</time>
      </trkpt>
      <trkpt lat="47.73163" lon="4.97446">
        <ele>414.79</ele>
        <time>2022-07-04T08:53:30Z</time>
      </trkpt>
      <trkpt lat="47.73166" lon="4.97449">
        <ele>415.43</ele>
        <time>2022-07-04T08:53:34Z</time>
      </trkpt>
      <trkpt lat="47.73168" lon="4.97452">
        <ele>415.82</ele>
        <time>2022-07-04T08:53:38Z</time>
      </trkpt>
      <trkpt lat="47.73171" lon="4.97456">
        <ele>416.25</ele>
        <time>2022-07-04T08:53:43Z</time>
      </trkpt>
      <trkpt lat="47.73172" lon="4.97462">
        <ele>416.9</ele>
        <time>2022-07-04T08:53:46Z</time>
      </trkpt>
      <trkpt lat="47.73172" lon="4.97466">
        <ele>417.33</ele>
        <time>2022-07-04T08:53:49Z</time>
      </trkpt>
      <trkpt lat="47.73173" lon="4.9747">
        <ele>417.76</ele>
        <time>2022-07-04T08:53:52Z</time>
      </trkpt>
      <trkpt lat="47.73175" lon="4.97474">
        <ele>418.22</ele>
        <time>2022-07-04T08:53:58Z</time>
      </trkpt>
      <trkpt lat="47.73177" lon="4.97477">
        <ele>418.56</ele>
        <time>2022-07-04T08:54:02Z</time>
      </trkpt>
      <trkpt lat="47.73178" lon="4.97482">
        <ele>419.12</ele>
        <time>2022-07-04T08:54:07Z</time>
      </trkpt>
      <trkpt lat="47.73178" lon="4.97486">
        <ele>419.58</ele>
        <time>2022-07-04T08:54:11Z</time>
      </trkpt>
      <trkpt lat="47.73179" lon="4.97491">
        <ele>420.1</ele>
        <time>2022-07-04T08:54:14Z</time>
      </trkpt>
      <trkpt lat="47.7318" lon="4.97495">
        <ele>420.49</ele>
        <time>2022-07-04T08:54:18Z</time>
      </trkpt>
      <trkpt lat="47.7318" lon="4.975">
        <ele>421.04</ele>
        <time>2022-07-04T08:54:23Z</time>
      </trkpt>
      <trkpt lat="47.73181" lon="4.97504">
        <ele>421.4</ele>
        <time>2022-07-04T08:54:25Z</time>
      </trkpt>
      <trkpt lat="47.73182" lon="4.97508">
        <ele>421.76</ele>
        <time>2022-07-04T08:54:28Z</time>
      </trkpt>
      <trkpt lat="47.73184" lon="4.97512">
        <ele>422.05</ele>
        <time>2022-07-04T08:54:34Z</time>
      </trkpt>
      <trkpt lat="47.73185" lon="4.97515">
        <ele>422.3</ele>
        <time>2022-07-04T08:54:37Z</time>
      </trkpt>
      <trkpt lat="47.73186" lon="4.97518">
        <ele>422.55</ele>
        <time>2022-07-04T08:54:41Z</time>
      </trkpt>
      <trkpt lat="47.73189" lon="4.97522">
        <ele>422.77</ele>
        <time>2022-07-04T08:54:47Z</time>
      </trkpt>
      <trkpt lat="47.73191" lon="4.97525">
        <ele>422.95</ele>
        <time>2022-07-04T08:54:51Z</time>
      </trkpt>
      <trkpt lat="47.73192" lon="4.97529">
        <ele>423.35</ele>
        <time>2022-07-04T08:54:54Z</time>
      </trkpt>
      <trkpt lat="47.73194" lon="4.97533">
        <ele>423.78</ele>
        <time>2022-07-04T08:54:56Z</time>
      </trkpt>
      <trkpt lat="47.73195" lon="4.97536">
        <ele>424.2</ele>
        <time>2022-07-04T08:55:00Z</time>
      </trkpt>
      <trkpt lat="47.73195" lon="4.97541">
        <ele>424.91</ele>
        <time>2022-07-04T08:55:02Z</time>
      </trkpt>
      <trkpt lat="47.73195" lon="4.97545">
        <ele>425.49</ele>
        <time>2022-07-04T08:55:05Z</time>
      </trkpt>
      <trkpt lat="47.73195" lon="4.97549">
        <ele>426.06</ele>
        <time>2022-07-04T08:55:07Z</time>
      </trkpt>
      <trkpt lat="47.73194" lon="4.97554">
        <ele>426.79</ele>
        <time>2022-07-04T08:55:10Z</time>
      </trkpt>
      <trkpt lat="47.73193" lon="4.97557">
        <ele>427.3</ele>
        <time>2022-07-04T08:55:14Z</time>
      </trkpt>
      <trkpt lat="47.73192" lon="4.97562">
        <ele>428.19</ele>
        <time>2022-07-04T08:55:20Z</time>
      </trkpt>
      <trkpt lat="47.73192" lon="4.97566">
        <ele>428.87</ele>
        <time>2022-07-04T08:55:23Z</time>
      </trkpt>
      <trkpt lat="47.73193" lon="4.9757">
        <ele>429.57</ele>
        <time>2022-07-04T08:55:27Z</time>
      </trkpt>
      <trkpt lat="47.73195" lon="4.97575">
        <ele>430.49</ele>
        <time>2022-07-04T08:55:30Z</time>
      </trkpt>
      <trkpt lat="47.73196" lon="4.97579">
        <ele>431.17</ele>
        <time>2022-07-04T08:55:35Z</time>
      </trkpt>
      <trkpt lat="47.73196" lon="4.97584">
        <ele>432.01</ele>
        <time>2022-07-04T08:55:39Z</time>
      </trkpt>
      <trkpt lat="47.73196" lon="4.97588">
        <ele>432.44</ele>
        <time>2022-07-04T08:55:43Z</time>
      </trkpt>
      <trkpt lat="47.73197" lon="4.97592">
        <ele>432.82</ele>
        <time>2022-07-04T08:55:46Z</time>
      </trkpt>
      <trkpt lat="47.73198" lon="4.97597">
        <ele>433.29</ele>
        <time>2022-07-04T08:55:52Z</time>
      </trkpt>
      <trkpt lat="47.73198" lon="4.97602">
        <ele>433.8</ele>
        <time>2022-07-04T08:55:56Z</time>
      </trkpt>
      <trkpt lat="47.73198" lon="4.97606">
        <ele>434.22</ele>
        <time>2022-07-04T08:56:03Z</time>
      </trkpt>
      <trkpt lat="47.73197" lon="4.9761">
        <ele>434.7</ele>
        <time>2022-07-04T08:56:06Z</time>
      </trkpt>
      <trkpt lat="47.73196" lon="4.97614">
        <ele>434.9</ele>
        <time>2022-07-04T08:56:10Z</time>
      </trkpt>
      <trkpt lat="47.73195" lon="4.97619">
        <ele>434.97</ele>
        <time>2022-07-04T08:56:12Z</time>
      </trkpt>
      <trkpt lat="47.73195" lon="4.97623">
        <ele>434.98</ele>
        <time>2022-07-04T08:56:16Z</time>
      </trkpt>
      <trkpt lat="47.73193" lon="4.97627">
        <ele>434.93</ele>
        <time>2022-07-04T08:56:20Z</time>
      </trkpt>
      <trkpt lat="47.73192" lon="4.97631">
        <ele>434.93</ele>
        <time>2022-07-04T08:56:25Z</time>
      </trkpt>
      <trkpt lat="47.73192" lon="4.97635">
        <ele>434.96</ele>
        <time>2022-07-04T08:56:28Z</time>
      </trkpt>
      <trkpt lat="47.7319" lon="4.9764">
        <ele>435.19</ele>
        <time>2022-07-04T08:56:31Z</time>
      </trkpt>
      <trkpt lat="47.73189" lon="4.97643">
        <ele>435.71</ele>
        <time>2022-07-04T08:56:33Z</time>
      </trkpt>
      <trkpt lat="47.73187" lon="4.97647">
        <ele>436.38</ele>
        <time>2022-07-04T08:56:39Z</time>
      </trkpt>
      <trkpt lat="47.73186" lon="4.97651">
        <ele>437.05</ele>
        <time>2022-07-04T08:56:43Z</time>
      </trkpt>
      <trkpt lat="47.73185" lon="4.97655">
        <ele>437.7</ele>
        <time>2022-07-04T08:56:47Z</time>
      </trkpt>
      <trkpt lat="47.73185" lon="4.9766">
        <ele>438.54</ele>
        <time>2022-07-04T08:56:52Z</time>
      </trkpt>
      <trkpt lat="47.73185" lon="4.97664">
        <ele>439.21</ele>
        <time>2022-07-04T08:56:55Z</time>
      </trkpt>
      <trkpt lat="47.73183" lon="4.97668">
        <ele>439.72</ele>
        <time>2022-07-04T08:56:59Z</time>
      </trkpt>
      <trkpt lat="47.73182" lon="4.97672">
        <ele>440.11</ele>
        <time>2022-07-04T08:57:03Z</time>
      </trkpt>
      <trkpt lat="47.7318" lon="4.97676">
        <ele>440.5</ele>
        <time>2022-07-04T08:57:08Z</time>
      </trkpt>
      <trkpt lat="47.7318" lon="4.9768">
        <ele>440.94</ele>
        <time>2022-07-04T08:57:14Z</time>
      </trkpt>
      <trkpt lat="47.7318" lon="4.97685">
        <ele>441.49</ele>
        <time>2022-07-04T08:57:19Z</time>
      </trkpt>
      <trkpt lat="47.7318" lon="4.9769">
        <ele>442.03</ele>
        <time>2022-07-04T08:57:22Z</time>
      </trkpt>
      <trkpt lat="47.7318" lon="4.97695">
        <ele>442.57</ele>
        <time>2022-07-04T08:57:26Z</time>
      </trkpt>
      <trkpt lat="47.73179" lon="4.97699">
        <ele>442.99</ele>
        <time>2022-07-04T08:57:30Z</time>
      </trkpt>
      <trkpt lat="47.73179" lon="4.97704">
        <ele>443.47</ele>
        <time>2022-07-04T08:57:35Z</time>
      </trkpt>
      <trkpt lat="47.73177" lon="4.97708">
        <ele>444.04</ele>
        <time>2022-07-04T08:57:40Z</time>
      </trkpt>
      <trkpt lat="47.73177" lon="4.97713">
        <ele>444.55</ele>
        <time>2022-07-04T08:57:43Z</time>
      </trkpt>
      <trkpt lat="47.73178" lon="4.97717">
        <ele>444.85</ele>
        <time>2022-07-04T08:57:48Z</time>
      </trkpt>
      <trkpt lat="47.73177" lon="4.97721">
        <ele>445.39</ele>
        <time>2022-07-04T08:57:52Z</time>
      </trkpt>
      <trkpt lat="47.73177" lon="4.97726">
        <ele>445.94</ele>
        <time>2022-07-04T08:57:56Z</time>
      </trkpt>
      <trkpt lat="47.73177" lon="4.9773">
        <ele>446.38</ele>
        <time>2022-07-04T08:57:59Z</time>
      </trkpt>
      <trkpt lat="47.73178" lon="4.97734">
        <ele>446.73</ele>
        <time>2022-07-04T08:58:04Z</time>
      </trkpt>
      <trkpt lat="47.73178" lon="4.97738">
        <ele>447.2</ele>
        <time>2022-07-04T08:58:10Z</time>
      </trkpt>
      <trkpt lat="47.73179" lon="4.97742">
        <ele>447.6</ele>
        <time>2022-07-04T08:58:15Z</time>
      </trkpt>
      <trkpt lat="47.73179" lon="4.97747">
        <ele>448.2</ele>
        <time>2022-07-04T08:58:17Z</time>
      </trkpt>
      <trkpt lat="47.7318" lon="4.97752">
        <ele>448.77</ele>
        <time>2022-07-04T08:58:20Z</time>
      </trkpt>
      <trkpt lat="47.7318" lon="4.97756">
        <ele>449.27</ele>
        <time>2022-07-04T08:58:24Z</time>
      </trkpt>
      <trkpt lat="47.73178" lon="4.9776">
        <ele>449.82</ele>
        <time>2022-07-04T08:58:28Z</time>
      </trkpt>
      <trkpt lat="47.73177" lon="4.97764">
        <ele>450.33</ele>
        <time>2022-07-04T08:58:31Z</time>
      </trkpt>
      <trkpt lat="47.73177" lon="4.97769">
        <ele>450.93</ele>
        <time>2022-07-04T08:58:34Z</time>
      </trkpt>
      <trkpt lat="47.73176" lon="4.97773">
        <ele>451.43</ele>
        <time>2022-07-04T08:58:37Z</time>
      </trkpt>
      <trkpt lat="47.73176" lon="4.97777">
        <ele>451.91</ele>
        <time>2022-07-04T08:58:43Z</time>
      </trkpt>
      <trkpt lat="47.73176" lon="4.97781">
        <ele>452.35</ele>
        <time>2022-07-04T08:58:47Z</time>
      </trkpt>
      <trkpt lat="47.73175" lon="4.97785">
        <ele>452.78</ele>
        <time>2022-07-04T08:58:54Z</time>
      </trkpt>
      <trkpt lat="47.73175" lon="4.9779">
        <ele>453.32</ele>
        <time>2022-07-04T08:58:59Z</time>
      </trkpt>
      <trkpt lat="47.73175" lon="4.97795">
        <ele>453.86</ele>
        <time>2022-07-04T08:59:05Z</time>
      </trkpt>
      <trkpt lat="47.73173" lon="4.97798">
        <ele>454.18</ele>
        <time>2022-07-04T08:59:14Z</time>
      </trkpt>
      <trkpt lat="47.73174" lon="4.97802">
        <ele>454.62</ele>
        <time>2022-07-04T09:01:05Z</time>
      </trkpt>
      <trkpt lat="47.73176" lon="4.97805">
        <ele>454.94</ele>
        <time>2022-07-04T09:01:09Z</time>
      </trkpt>
      <trkpt lat="47.73178" lon="4.97808">
        <ele>455.3</ele>
        <time>2022-07-04T09:01:11Z</time>
      </trkpt>
      <trkpt lat="47.73179" lon="4.97813">
        <ele>455.92</ele>
        <time>2022-07-04T09:01:17Z</time>
      </trkpt>
      <trkpt lat="47.73181" lon="4.97816">
        <ele>456.32</ele>
        <time>2022-07-04T09:01:21Z</time>
      </trkpt>
      <trkpt lat="47.73182" lon="4.9782">
        <ele>456.85</ele>
        <time>2022-07-04T09:01:24Z</time>
      </trkpt>
      <trkpt lat="47.73183" lon="4.97825">
        <ele>457.51</ele>
        <time>2022-07-04T09:01:28Z</time>
      </trkpt>
      <trkpt lat="47.73183" lon="4.9783">
        <ele>458.16</ele>
        <time>2022-07-04T09:01:30Z</time>
      </trkpt>
      <trkpt lat="47.73183" lon="4.97834">
        <ele>458.62</ele>
        <time>2022-07-04T09:01:33Z</time>
      </trkpt>
      <trkpt lat="47.73184" lon="4.97838">
        <ele>458.83</ele>
        <time>2022-07-04T09:01:38Z</time>
      </trkpt>
      <trkpt lat="47.73185" lon="4.97842">
        <ele>459.07</ele>
        <time>2022-07-04T09:01:43Z</time>
      </trkpt>
      <trkpt lat="47.73186" lon="4.97848">
        <ele>459.43</ele>
        <time>2022-07-04T09:01:48Z</time>
      </trkpt>
      <trkpt lat="47.73187" lon="4.97852">
        <ele>459.72</ele>
        <time>2022-07-04T09:01:50Z</time>
      </trkpt>
      <trkpt lat="47.73188" lon="4.97856">
        <ele>460.02</ele>
        <time>2022-07-04T09:01:53Z</time>
      </trkpt>
      <trkpt lat="47.73189" lon="4.9786">
        <ele>460.35</ele>
        <time>2022-07-04T09:01:56Z</time>
      </trkpt>
      <trkpt lat="47.73191" lon="4.97865">
        <ele>460.26</ele>
        <time>2022-07-04T09:01:58Z</time>
      </trkpt>
      <trkpt lat="47.73193" lon="4.97869">
        <ele>460.04</ele>
        <time>2022-07-04T09:02:01Z</time>
      </trkpt>
      <trkpt lat="47.73195" lon="4.97873">
        <ele>459.69</ele>
        <time>2022-07-04T09:02:04Z</time>
      </trkpt>
      <trkpt lat="47.73197" lon="4.97876">
        <ele>459.31</ele>
        <time>2022-07-04T09:02:07Z</time>
      </trkpt>
      <trkpt lat="47.73199" lon="4.97879">
        <ele>459</ele>
        <time>2022-07-04T09:02:09Z</time>
      </trkpt>
      <trkpt lat="47.732" lon="4.97883">
        <ele>458.67</ele>
        <time>2022-07-04T09:02:11Z</time>
      </trkpt>
      <trkpt lat="47.73201" lon="4.97887">
        <ele>458.38</ele>
        <time>2022-07-04T09:02:14Z</time>
      </trkpt>
      <trkpt lat="47.73202" lon="4.97891">
        <ele>458.44</ele>
        <time>2022-07-04T09:02:17Z</time>
      </trkpt>
      <trkpt lat="47.73203" lon="4.97895">
        <ele>458.76</ele>
        <time>2022-07-04T09:02:20Z</time>
      </trkpt>
      <trkpt lat="47.73205" lon="4.97899">
        <ele>459.06</ele>
        <time>2022-07-04T09:02:23Z</time>
      </trkpt>
      <trkpt lat="47.73207" lon="4.97904">
        <ele>459.35</ele>
        <time>2022-07-04T09:02:26Z</time>
      </trkpt>
      <trkpt lat="47.73209" lon="4.97908">
        <ele>459.51</ele>
        <time>2022-07-04T09:02:29Z</time>
      </trkpt>
      <trkpt lat="47.7321" lon="4.97912">
        <ele>459.66</ele>
        <time>2022-07-04T09:02:30Z</time>
      </trkpt>
      <trkpt lat="47.73211" lon="4.97917">
        <ele>459.8</ele>
        <time>2022-07-04T09:02:33Z</time>
      </trkpt>
      <trkpt lat="47.73211" lon="4.97921">
        <ele>459.68</ele>
        <time>2022-07-04T09:02:37Z</time>
      </trkpt>
      <trkpt lat="47.73212" lon="4.97925">
        <ele>459.52</ele>
        <time>2022-07-04T09:02:41Z</time>
      </trkpt>
      <trkpt lat="47.73213" lon="4.9793">
        <ele>459.35</ele>
        <time>2022-07-04T09:02:44Z</time>
      </trkpt>
      <trkpt lat="47.73216" lon="4.97933">
        <ele>459.18</ele>
        <time>2022-07-04T09:02:45Z</time>
      </trkpt>
      <trkpt lat="47.73218" lon="4.97936">
        <ele>459.09</ele>
        <time>2022-07-04T09:02:47Z</time>
      </trkpt>
      <trkpt lat="47.7322" lon="4.9794">
        <ele>459.03</ele>
        <time>2022-07-04T09:02:50Z</time>
      </trkpt>
      <trkpt lat="47.73222" lon="4.97943">
        <ele>459</ele>
        <time>2022-07-04T09:02:52Z</time>
      </trkpt>
      <trkpt lat="47.73224" lon="4.97947">
        <ele>459.08</ele>
        <time>2022-07-04T09:02:54Z</time>
      </trkpt>
      <trkpt lat="47.73225" lon="4.97951">
        <ele>459.41</ele>
        <time>2022-07-04T09:02:56Z</time>
      </trkpt>
      <trkpt lat="47.73227" lon="4.97955">
        <ele>459.62</ele>
        <time>2022-07-04T09:02:59Z</time>
      </trkpt>
      <trkpt lat="47.73228" lon="4.97959">
        <ele>459.95</ele>
        <time>2022-07-04T09:03:00Z</time>
      </trkpt>
      <trkpt lat="47.7323" lon="4.97962">
        <ele>460.06</ele>
        <time>2022-07-04T09:03:03Z</time>
      </trkpt>
      <trkpt lat="47.73232" lon="4.97966">
        <ele>460.27</ele>
        <time>2022-07-04T09:03:06Z</time>
      </trkpt>
      <trkpt lat="47.73235" lon="4.97968">
        <ele>460.16</ele>
        <time>2022-07-04T09:03:07Z</time>
      </trkpt>
      <trkpt lat="47.73237" lon="4.97971">
        <ele>460.27</ele>
        <time>2022-07-04T09:03:10Z</time>
      </trkpt>
      <trkpt lat="47.73239" lon="4.97975">
        <ele>460.39</ele>
        <time>2022-07-04T09:03:12Z</time>
      </trkpt>
      <trkpt lat="47.73241" lon="4.97978">
        <ele>460.47</ele>
        <time>2022-07-04T09:03:15Z</time>
      </trkpt>
      <trkpt lat="47.73242" lon="4.97983">
        <ele>460.86</ele>
        <time>2022-07-04T09:03:18Z</time>
      </trkpt>
      <trkpt lat="47.73244" lon="4.97986">
        <ele>461.1</ele>
        <time>2022-07-04T09:03:20Z</time>
      </trkpt>
      <trkpt lat="47.73247" lon="4.97988">
        <ele>461.29</ele>
        <time>2022-07-04T09:03:21Z</time>
      </trkpt>
      <trkpt lat="47.73249" lon="4.97991">
        <ele>461.69</ele>
        <time>2022-07-04T09:03:24Z</time>
      </trkpt>
      <trkpt lat="47.73251" lon="4.97993">
        <ele>461.97</ele>
        <time>2022-07-04T09:03:27Z</time>
      </trkpt>
      <trkpt lat="47.73254" lon="4.97992">
        <ele>461.77</ele>
        <time>2022-07-04T09:03:31Z</time>
      </trkpt>
      <trkpt lat="47.73258" lon="4.97989">
        <ele>461.41</ele>
        <time>2022-07-04T09:03:34Z</time>
      </trkpt>
      <trkpt lat="47.7326" lon="4.97987">
        <ele>461.25</ele>
        <time>2022-07-04T09:03:36Z</time>
      </trkpt>
      <trkpt lat="47.73263" lon="4.97984">
        <ele>461.11</ele>
        <time>2022-07-04T09:03:38Z</time>
      </trkpt>
      <trkpt lat="47.73265" lon="4.97982">
        <ele>461.08</ele>
        <time>2022-07-04T09:03:41Z</time>
      </trkpt>
      <trkpt lat="47.73268" lon="4.97979">
        <ele>461.13</ele>
        <time>2022-07-04T09:03:43Z</time>
      </trkpt>
      <trkpt lat="47.7327" lon="4.97977">
        <ele>461.23</ele>
        <time>2022-07-04T09:03:45Z</time>
      </trkpt>
      <trkpt lat="47.73273" lon="4.97975">
        <ele>461.47</ele>
        <time>2022-07-04T09:03:48Z</time>
      </trkpt>
      <trkpt lat="47.73275" lon="4.97973">
        <ele>461.69</ele>
        <time>2022-07-04T09:03:50Z</time>
      </trkpt>
      <trkpt lat="47.73278" lon="4.97972">
        <ele>461.96</ele>
        <time>2022-07-04T09:03:52Z</time>
      </trkpt>
      <trkpt lat="47.73281" lon="4.97971">
        <ele>461.74</ele>
        <time>2022-07-04T09:03:54Z</time>
      </trkpt>
      <trkpt lat="47.73284" lon="4.97971">
        <ele>461.66</ele>
        <time>2022-07-04T09:03:58Z</time>
      </trkpt>
      <trkpt lat="47.73287" lon="4.9797">
        <ele>461.51</ele>
        <time>2022-07-04T09:04:01Z</time>
      </trkpt>
      <trkpt lat="47.73289" lon="4.97967">
        <ele>461.3</ele>
        <time>2022-07-04T09:04:04Z</time>
      </trkpt>
      <trkpt lat="47.73291" lon="4.97964">
        <ele>461.19</ele>
        <time>2022-07-04T09:04:06Z</time>
      </trkpt>
      <trkpt lat="47.73294" lon="4.97962">
        <ele>461.23</ele>
        <time>2022-07-04T09:04:10Z</time>
      </trkpt>
      <trkpt lat="47.73297" lon="4.97961">
        <ele>461.37</ele>
        <time>2022-07-04T09:04:15Z</time>
      </trkpt>
      <trkpt lat="47.73299" lon="4.9796">
        <ele>461.49</ele>
        <time>2022-07-04T09:04:17Z</time>
      </trkpt>
      <trkpt lat="47.73302" lon="4.9796">
        <ele>461.67</ele>
        <time>2022-07-04T09:04:20Z</time>
      </trkpt>
      <trkpt lat="47.73305" lon="4.97961">
        <ele>461.78</ele>
        <time>2022-07-04T09:04:25Z</time>
      </trkpt>
      <trkpt lat="47.73308" lon="4.97963">
        <ele>462.02</ele>
        <time>2022-07-04T09:04:28Z</time>
      </trkpt>
      <trkpt lat="47.73311" lon="4.97964">
        <ele>462.4</ele>
        <time>2022-07-04T09:04:32Z</time>
      </trkpt>
      <trkpt lat="47.73314" lon="4.97966">
        <ele>462.76</ele>
        <time>2022-07-04T09:04:35Z</time>
      </trkpt>
      <trkpt lat="47.73317" lon="4.97966">
        <ele>463.23</ele>
        <time>2022-07-04T09:04:39Z</time>
      </trkpt>
      <trkpt lat="47.7332" lon="4.97967">
        <ele>463.68</ele>
        <time>2022-07-04T09:04:43Z</time>
      </trkpt>
      <trkpt lat="47.73324" lon="4.97968">
        <ele>464.32</ele>
        <time>2022-07-04T09:04:45Z</time>
      </trkpt>
      <trkpt lat="47.73326" lon="4.97968">
        <ele>464.65</ele>
        <time>2022-07-04T09:04:49Z</time>
      </trkpt>
      <trkpt lat="47.73329" lon="4.97969">
        <ele>465.16</ele>
        <time>2022-07-04T09:04:53Z</time>
      </trkpt>
      <trkpt lat="47.73333" lon="4.97969">
        <ele>465.83</ele>
        <time>2022-07-04T09:04:56Z</time>
      </trkpt>
      <trkpt lat="47.73335" lon="4.97969">
        <ele>465.79</ele>
        <time>2022-07-04T09:04:57Z</time>
      </trkpt>
      <trkpt lat="47.73338" lon="4.9797">
        <ele>465.64</ele>
        <time>2022-07-04T09:05:00Z</time>
      </trkpt>
      <trkpt lat="47.73342" lon="4.97971">
        <ele>465.39</ele>
        <time>2022-07-04T09:05:02Z</time>
      </trkpt>
      <trkpt lat="47.73346" lon="4.97971">
        <ele>465.12</ele>
        <time>2022-07-04T09:05:03Z</time>
      </trkpt>
      <trkpt lat="47.73349" lon="4.97972">
        <ele>464.88</ele>
        <time>2022-07-04T09:05:06Z</time>
      </trkpt>
      <trkpt lat="47.73352" lon="4.97974">
        <ele>464.42</ele>
        <time>2022-07-04T09:05:08Z</time>
      </trkpt>
      <trkpt lat="47.73354" lon="4.97976">
        <ele>464</ele>
        <time>2022-07-04T09:05:12Z</time>
      </trkpt>
      <trkpt lat="47.73357" lon="4.97978">
        <ele>463.49</ele>
        <time>2022-07-04T09:05:17Z</time>
      </trkpt>
      <trkpt lat="47.7336" lon="4.97979">
        <ele>463.11</ele>
        <time>2022-07-04T09:05:21Z</time>
      </trkpt>
      <trkpt lat="47.73362" lon="4.9798">
        <ele>462.88</ele>
        <time>2022-07-04T09:05:24Z</time>
      </trkpt>
      <trkpt lat="47.73365" lon="4.97981">
        <ele>462.74</ele>
        <time>2022-07-04T09:05:27Z</time>
      </trkpt>
      <trkpt lat="47.73368" lon="4.97981">
        <ele>462.74</ele>
        <time>2022-07-04T09:05:30Z</time>
      </trkpt>
      <trkpt lat="47.73371" lon="4.97981">
        <ele>462.74</ele>
        <time>2022-07-04T09:05:34Z</time>
      </trkpt>
      <trkpt lat="47.73375" lon="4.9798">
        <ele>462.88</ele>
        <time>2022-07-04T09:05:36Z</time>
      </trkpt>
      <trkpt lat="47.73379" lon="4.97978">
        <ele>463.17</ele>
        <time>2022-07-04T09:05:38Z</time>
      </trkpt>
      <trkpt lat="47.73381" lon="4.97977">
        <ele>463.31</ele>
        <time>2022-07-04T09:05:41Z</time>
      </trkpt>
      <trkpt lat="47.73385" lon="4.97975">
        <ele>463.6</ele>
        <time>2022-07-04T09:05:42Z</time>
      </trkpt>
      <trkpt lat="47.73388" lon="4.97975">
        <ele>463.6</ele>
        <time>2022-07-04T09:05:46Z</time>
      </trkpt>
      <trkpt lat="47.7339" lon="4.97975">
        <ele>463.6</ele>
        <time>2022-07-04T09:05:48Z</time>
      </trkpt>
      <trkpt lat="47.73393" lon="4.97973">
        <ele>463.89</ele>
        <time>2022-07-04T09:05:52Z</time>
      </trkpt>
      <trkpt lat="47.73396" lon="4.97971">
        <ele>464.16</ele>
        <time>2022-07-04T09:05:55Z</time>
      </trkpt>
      <trkpt lat="47.734" lon="4.97969">
        <ele>464.42</ele>
        <time>2022-07-04T09:05:58Z</time>
      </trkpt>
      <trkpt lat="47.73403" lon="4.97967">
        <ele>464.66</ele>
        <time>2022-07-04T09:05:59Z</time>
      </trkpt>
      <trkpt lat="47.73405" lon="4.97966">
        <ele>464.77</ele>
        <time>2022-07-04T09:06:02Z</time>
      </trkpt>
      <trkpt lat="47.73408" lon="4.97965">
        <ele>464.86</ele>
        <time>2022-07-04T09:06:05Z</time>
      </trkpt>
      <trkpt lat="47.73411" lon="4.97964">
        <ele>464.95</ele>
        <time>2022-07-04T09:06:08Z</time>
      </trkpt>
      <trkpt lat="47.73415" lon="4.97964">
        <ele>464.91</ele>
        <time>2022-07-04T09:06:10Z</time>
      </trkpt>
      <trkpt lat="47.73418" lon="4.97964">
        <ele>464.96</ele>
        <time>2022-07-04T09:06:13Z</time>
      </trkpt>
      <trkpt lat="47.73421" lon="4.97964">
        <ele>465.11</ele>
        <time>2022-07-04T09:06:15Z</time>
      </trkpt>
      <trkpt lat="47.73424" lon="4.97964">
        <ele>465.26</ele>
        <time>2022-07-04T09:06:17Z</time>
      </trkpt>
      <trkpt lat="47.73427" lon="4.97962">
        <ele>465.57</ele>
        <time>2022-07-04T09:06:20Z</time>
      </trkpt>
      <trkpt lat="47.7343" lon="4.97961">
        <ele>465.78</ele>
        <time>2022-07-04T09:06:23Z</time>
      </trkpt>
      <trkpt lat="47.73433" lon="4.9796">
        <ele>465.98</ele>
        <time>2022-07-04T09:06:25Z</time>
      </trkpt>
      <trkpt lat="47.73436" lon="4.97959">
        <ele>466.16</ele>
        <time>2022-07-04T09:06:28Z</time>
      </trkpt>
      <trkpt lat="47.73439" lon="4.97958">
        <ele>466.32</ele>
        <time>2022-07-04T09:06:30Z</time>
      </trkpt>
      <trkpt lat="47.73441" lon="4.97956">
        <ele>466.48</ele>
        <time>2022-07-04T09:06:33Z</time>
      </trkpt>
      <trkpt lat="47.73444" lon="4.97955">
        <ele>466.61</ele>
        <time>2022-07-04T09:06:36Z</time>
      </trkpt>
      <trkpt lat="47.73448" lon="4.97953">
        <ele>466.99</ele>
        <time>2022-07-04T09:06:40Z</time>
      </trkpt>
      <trkpt lat="47.73451" lon="4.97952">
        <ele>467.26</ele>
        <time>2022-07-04T09:06:42Z</time>
      </trkpt>
      <trkpt lat="47.73455" lon="4.9795">
        <ele>467.64</ele>
        <time>2022-07-04T09:06:44Z</time>
      </trkpt>
      <trkpt lat="47.73458" lon="4.97949">
        <ele>467.89</ele>
        <time>2022-07-04T09:06:46Z</time>
      </trkpt>
      <trkpt lat="47.73461" lon="4.97948">
        <ele>468.14</ele>
        <time>2022-07-04T09:06:49Z</time>
      </trkpt>
      <trkpt lat="47.73464" lon="4.97947">
        <ele>468.38</ele>
        <time>2022-07-04T09:06:52Z</time>
      </trkpt>
      <trkpt lat="47.73467" lon="4.97945">
        <ele>468.62</ele>
        <time>2022-07-04T09:06:54Z</time>
      </trkpt>
      <trkpt lat="47.7347" lon="4.97943">
        <ele>468.69</ele>
        <time>2022-07-04T09:06:58Z</time>
      </trkpt>
      <trkpt lat="47.73473" lon="4.97941">
        <ele>468.57</ele>
        <time>2022-07-04T09:07:00Z</time>
      </trkpt>
      <trkpt lat="47.73476" lon="4.97938">
        <ele>468</ele>
        <time>2022-07-04T09:07:02Z</time>
      </trkpt>
      <trkpt lat="47.73479" lon="4.97935">
        <ele>467.41</ele>
        <time>2022-07-04T09:07:04Z</time>
      </trkpt>
      <trkpt lat="47.73481" lon="4.97932">
        <ele>466.88</ele>
        <time>2022-07-04T09:07:07Z</time>
      </trkpt>
      <trkpt lat="47.73483" lon="4.97929">
        <ele>466.34</ele>
        <time>2022-07-04T09:07:08Z</time>
      </trkpt>
      <trkpt lat="47.73486" lon="4.97927">
        <ele>465.81</ele>
        <time>2022-07-04T09:07:12Z</time>
      </trkpt>
      <trkpt lat="47.73489" lon="4.97926">
        <ele>465.4</ele>
        <time>2022-07-04T09:07:14Z</time>
      </trkpt>
      <trkpt lat="47.73492" lon="4.97924">
        <ele>464.84</ele>
        <time>2022-07-04T09:07:16Z</time>
      </trkpt>
      <trkpt lat="47.73495" lon="4.97922">
        <ele>464.27</ele>
        <time>2022-07-04T09:07:18Z</time>
      </trkpt>
      <trkpt lat="47.73497" lon="4.9792">
        <ele>463.79</ele>
        <time>2022-07-04T09:07:20Z</time>
      </trkpt>
      <trkpt lat="47.73501" lon="4.97918">
        <ele>463.12</ele>
        <time>2022-07-04T09:07:23Z</time>
      </trkpt>
      <trkpt lat="47.73503" lon="4.97917">
        <ele>462.83</ele>
        <time>2022-07-04T09:07:24Z</time>
      </trkpt>
      <trkpt lat="47.73506" lon="4.97915">
        <ele>462.76</ele>
        <time>2022-07-04T09:07:26Z</time>
      </trkpt>
      <trkpt lat="47.73509" lon="4.97913">
        <ele>462.71</ele>
        <time>2022-07-04T09:07:28Z</time>
      </trkpt>
      <trkpt lat="47.73512" lon="4.97911">
        <ele>462.6</ele>
        <time>2022-07-04T09:07:31Z</time>
      </trkpt>
      <trkpt lat="47.73515" lon="4.97909">
        <ele>462.43</ele>
        <time>2022-07-04T09:07:34Z</time>
      </trkpt>
      <trkpt lat="47.73519" lon="4.97908">
        <ele>462.03</ele>
        <time>2022-07-04T09:07:37Z</time>
      </trkpt>
      <trkpt lat="47.73521" lon="4.97907">
        <ele>461.83</ele>
        <time>2022-07-04T09:07:40Z</time>
      </trkpt>
      <trkpt lat="47.73524" lon="4.97904">
        <ele>461.52</ele>
        <time>2022-07-04T09:07:42Z</time>
      </trkpt>
      <trkpt lat="47.73526" lon="4.97902">
        <ele>461.26</ele>
        <time>2022-07-04T09:07:45Z</time>
      </trkpt>
      <trkpt lat="47.73529" lon="4.97899">
        <ele>460.81</ele>
        <time>2022-07-04T09:07:49Z</time>
      </trkpt>
      <trkpt lat="47.73532" lon="4.97896">
        <ele>460.32</ele>
        <time>2022-07-04T09:07:52Z</time>
      </trkpt>
      <trkpt lat="47.73534" lon="4.97894">
        <ele>459.96</ele>
        <time>2022-07-04T09:07:55Z</time>
      </trkpt>
      <trkpt lat="47.73536" lon="4.97892">
        <ele>459.59</ele>
        <time>2022-07-04T09:07:58Z</time>
      </trkpt>
      <trkpt lat="47.73539" lon="4.9789">
        <ele>459.01</ele>
        <time>2022-07-04T09:08:02Z</time>
      </trkpt>
      <trkpt lat="47.73543" lon="4.9789">
        <ele>458.3</ele>
        <time>2022-07-04T09:08:03Z</time>
      </trkpt>
      <trkpt lat="47.73546" lon="4.97891">
        <ele>457.82</ele>
        <time>2022-07-04T09:08:06Z</time>
      </trkpt>
      <trkpt lat="47.73549" lon="4.97891">
        <ele>457.3</ele>
        <time>2022-07-04T09:08:12Z</time>
      </trkpt>
      <trkpt lat="47.73552" lon="4.97892">
        <ele>456.84</ele>
        <time>2022-07-04T09:08:17Z</time>
      </trkpt>
      <trkpt lat="47.73555" lon="4.97893">
        <ele>456.39</ele>
        <time>2022-07-04T09:08:20Z</time>
      </trkpt>
      <trkpt lat="47.73557" lon="4.97894">
        <ele>456.35</ele>
        <time>2022-07-04T09:08:22Z</time>
      </trkpt>
      <trkpt lat="47.7356" lon="4.97896">
        <ele>456.43</ele>
        <time>2022-07-04T09:08:25Z</time>
      </trkpt>
      <trkpt lat="47.73563" lon="4.97897">
        <ele>456.43</ele>
        <time>2022-07-04T09:08:29Z</time>
      </trkpt>
      <trkpt lat="47.73565" lon="4.97898">
        <ele>456.43</ele>
        <time>2022-07-04T09:08:33Z</time>
      </trkpt>
      <trkpt lat="47.73568" lon="4.97898">
        <ele>456.36</ele>
        <time>2022-07-04T09:08:37Z</time>
      </trkpt>
      <trkpt lat="47.73571" lon="4.97899">
        <ele>456.32</ele>
        <time>2022-07-04T09:08:40Z</time>
      </trkpt>
      <trkpt lat="47.73574" lon="4.979">
        <ele>456.27</ele>
        <time>2022-07-04T09:08:44Z</time>
      </trkpt>
      <trkpt lat="47.73577" lon="4.979">
        <ele>456.18</ele>
        <time>2022-07-04T09:08:47Z</time>
      </trkpt>
      <trkpt lat="47.7358" lon="4.979">
        <ele>456.1</ele>
        <time>2022-07-04T09:08:49Z</time>
      </trkpt>
      <trkpt lat="47.73583" lon="4.97901">
        <ele>456.01</ele>
        <time>2022-07-04T09:08:51Z</time>
      </trkpt>
      <trkpt lat="47.73587" lon="4.97903">
        <ele>455.94</ele>
        <time>2022-07-04T09:08:54Z</time>
      </trkpt>
      <trkpt lat="47.7359" lon="4.97904">
        <ele>455.89</ele>
        <time>2022-07-04T09:08:56Z</time>
      </trkpt>
      <trkpt lat="47.73592" lon="4.97905">
        <ele>455.87</ele>
        <time>2022-07-04T09:08:58Z</time>
      </trkpt>
      <trkpt lat="47.73595" lon="4.97907">
        <ele>455.85</ele>
        <time>2022-07-04T09:09:02Z</time>
      </trkpt>
      <trkpt lat="47.73598" lon="4.97908">
        <ele>455.84</ele>
        <time>2022-07-04T09:09:04Z</time>
      </trkpt>
      <trkpt lat="47.736" lon="4.9791">
        <ele>455.86</ele>
        <time>2022-07-04T09:09:09Z</time>
      </trkpt>
      <trkpt lat="47.73603" lon="4.97912">
        <ele>455.88</ele>
        <time>2022-07-04T09:09:12Z</time>
      </trkpt>
      <trkpt lat="47.73605" lon="4.97915">
        <ele>455.95</ele>
        <time>2022-07-04T09:09:16Z</time>
      </trkpt>
      <trkpt lat="47.73607" lon="4.97918">
        <ele>456.1</ele>
        <time>2022-07-04T09:09:19Z</time>
      </trkpt>
      <trkpt lat="47.73609" lon="4.97921">
        <ele>456.31</ele>
        <time>2022-07-04T09:09:22Z</time>
      </trkpt>
      <trkpt lat="47.73611" lon="4.97924">
        <ele>456.53</ele>
        <time>2022-07-04T09:09:26Z</time>
      </trkpt>
      <trkpt lat="47.73614" lon="4.97928">
        <ele>456.61</ele>
        <time>2022-07-04T09:09:29Z</time>
      </trkpt>
      <trkpt lat="47.73617" lon="4.9793">
        <ele>456.54</ele>
        <time>2022-07-04T09:09:31Z</time>
      </trkpt>
      <trkpt lat="47.73619" lon="4.97933">
        <ele>456.61</ele>
        <time>2022-07-04T09:09:34Z</time>
      </trkpt>
      <trkpt lat="47.73622" lon="4.97935">
        <ele>456.54</ele>
        <time>2022-07-04T09:09:36Z</time>
      </trkpt>
      <trkpt lat="47.73625" lon="4.97936">
        <ele>456.39</ele>
        <time>2022-07-04T09:09:38Z</time>
      </trkpt>
      <trkpt lat="47.73627" lon="4.97939">
        <ele>456.46</ele>
        <time>2022-07-04T09:09:41Z</time>
      </trkpt>
      <trkpt lat="47.7363" lon="4.9794">
        <ele>456.32</ele>
        <time>2022-07-04T09:09:43Z</time>
      </trkpt>
      <trkpt lat="47.73633" lon="4.97942">
        <ele>456.25</ele>
        <time>2022-07-04T09:09:46Z</time>
      </trkpt>
      <trkpt lat="47.73635" lon="4.97944">
        <ele>456.25</ele>
        <time>2022-07-04T09:09:48Z</time>
      </trkpt>
      <trkpt lat="47.73637" lon="4.97947">
        <ele>456.5</ele>
        <time>2022-07-04T09:09:52Z</time>
      </trkpt>
      <trkpt lat="47.7364" lon="4.9795">
        <ele>456.71</ele>
        <time>2022-07-04T09:09:54Z</time>
      </trkpt>
      <trkpt lat="47.73643" lon="4.97953">
        <ele>456.89</ele>
        <time>2022-07-04T09:09:57Z</time>
      </trkpt>
      <trkpt lat="47.73645" lon="4.97955">
        <ele>457</ele>
        <time>2022-07-04T09:09:58Z</time>
      </trkpt>
      <trkpt lat="47.73648" lon="4.97958">
        <ele>457.14</ele>
        <time>2022-07-04T09:10:00Z</time>
      </trkpt>
      <trkpt lat="47.7365" lon="4.9796">
        <ele>457.22</ele>
        <time>2022-07-04T09:10:04Z</time>
      </trkpt>
      <trkpt lat="47.73653" lon="4.97963">
        <ele>457.32</ele>
        <time>2022-07-04T09:10:05Z</time>
      </trkpt>
      <trkpt lat="47.73655" lon="4.97965">
        <ele>457.37</ele>
        <time>2022-07-04T09:10:07Z</time>
      </trkpt>
      <trkpt lat="47.73658" lon="4.97967">
        <ele>457.31</ele>
        <time>2022-07-04T09:10:10Z</time>
      </trkpt>
      <trkpt lat="47.73661" lon="4.97968">
        <ele>457.12</ele>
        <time>2022-07-04T09:10:12Z</time>
      </trkpt>
      <trkpt lat="47.73664" lon="4.9797">
        <ele>457.04</ele>
        <time>2022-07-04T09:10:14Z</time>
      </trkpt>
      <trkpt lat="47.73666" lon="4.97972">
        <ele>457.05</ele>
        <time>2022-07-04T09:10:16Z</time>
      </trkpt>
      <trkpt lat="47.73668" lon="4.97975">
        <ele>457.15</ele>
        <time>2022-07-04T09:10:18Z</time>
      </trkpt>
      <trkpt lat="47.73671" lon="4.97977">
        <ele>457.16</ele>
        <time>2022-07-04T09:10:21Z</time>
      </trkpt>
      <trkpt lat="47.73674" lon="4.9798">
        <ele>457.22</ele>
        <time>2022-07-04T09:10:23Z</time>
      </trkpt>
      <trkpt lat="47.73676" lon="4.97983">
        <ele>457.31</ele>
        <time>2022-07-04T09:10:25Z</time>
      </trkpt>
      <trkpt lat="47.73678" lon="4.97985">
        <ele>457.32</ele>
        <time>2022-07-04T09:10:27Z</time>
      </trkpt>
      <trkpt lat="47.73681" lon="4.97988">
        <ele>457.33</ele>
        <time>2022-07-04T09:10:30Z</time>
      </trkpt>
      <trkpt lat="47.73684" lon="4.97989">
        <ele>457.21</ele>
        <time>2022-07-04T09:10:32Z</time>
      </trkpt>
      <trkpt lat="47.73686" lon="4.97991">
        <ele>457.19</ele>
        <time>2022-07-04T09:10:35Z</time>
      </trkpt>
      <trkpt lat="47.73689" lon="4.97993">
        <ele>457.09</ele>
        <time>2022-07-04T09:10:38Z</time>
      </trkpt>
      <trkpt lat="47.73691" lon="4.97995">
        <ele>457.05</ele>
        <time>2022-07-04T09:10:40Z</time>
      </trkpt>
      <trkpt lat="47.73696" lon="4.97997">
        <ele>456.89</ele>
        <time>2022-07-04T09:10:44Z</time>
      </trkpt>
      <trkpt lat="47.73699" lon="4.97998">
        <ele>456.93</ele>
        <time>2022-07-04T09:10:45Z</time>
      </trkpt>
      <trkpt lat="47.73702" lon="4.98">
        <ele>457</ele>
        <time>2022-07-04T09:10:47Z</time>
      </trkpt>
      <trkpt lat="47.73706" lon="4.98003">
        <ele>457.11</ele>
        <time>2022-07-04T09:10:50Z</time>
      </trkpt>
      <trkpt lat="47.73708" lon="4.98005">
        <ele>457.18</ele>
        <time>2022-07-04T09:10:51Z</time>
      </trkpt>
      <trkpt lat="47.73711" lon="4.98008">
        <ele>457.29</ele>
        <time>2022-07-04T09:10:53Z</time>
      </trkpt>
      <trkpt lat="47.73714" lon="4.9801">
        <ele>457.36</ele>
        <time>2022-07-04T09:10:56Z</time>
      </trkpt>
      <trkpt lat="47.73717" lon="4.98012">
        <ele>457.43</ele>
        <time>2022-07-04T09:10:58Z</time>
      </trkpt>
      <trkpt lat="47.7372" lon="4.98014">
        <ele>457.5</ele>
        <time>2022-07-04T09:11:00Z</time>
      </trkpt>
      <trkpt lat="47.73723" lon="4.98016">
        <ele>457.42</ele>
        <time>2022-07-04T09:11:02Z</time>
      </trkpt>
      <trkpt lat="47.73725" lon="4.98018">
        <ele>457.08</ele>
        <time>2022-07-04T09:11:04Z</time>
      </trkpt>
      <trkpt lat="47.73728" lon="4.9802">
        <ele>456.53</ele>
        <time>2022-07-04T09:11:07Z</time>
      </trkpt>
      <trkpt lat="47.73731" lon="4.98022">
        <ele>455.96</ele>
        <time>2022-07-04T09:11:10Z</time>
      </trkpt>
      <trkpt lat="47.73735" lon="4.98025">
        <ele>455.19</ele>
        <time>2022-07-04T09:11:13Z</time>
      </trkpt>
      <trkpt lat="47.73737" lon="4.98027">
        <ele>454.79</ele>
        <time>2022-07-04T09:11:14Z</time>
      </trkpt>
      <trkpt lat="47.7374" lon="4.98028">
        <ele>454.17</ele>
        <time>2022-07-04T09:11:17Z</time>
      </trkpt>
      <trkpt lat="47.73743" lon="4.9803">
        <ele>453.65</ele>
        <time>2022-07-04T09:11:21Z</time>
      </trkpt>
      <trkpt lat="47.73746" lon="4.98032">
        <ele>453.15</ele>
        <time>2022-07-04T09:11:23Z</time>
      </trkpt>
      <trkpt lat="47.73748" lon="4.98035">
        <ele>452.93</ele>
        <time>2022-07-04T09:11:26Z</time>
      </trkpt>
      <trkpt lat="47.73751" lon="4.98038">
        <ele>452.72</ele>
        <time>2022-07-04T09:11:29Z</time>
      </trkpt>
      <trkpt lat="47.73754" lon="4.9804">
        <ele>452.82</ele>
        <time>2022-07-04T09:11:30Z</time>
      </trkpt>
      <trkpt lat="47.73757" lon="4.98042">
        <ele>452.89</ele>
        <time>2022-07-04T09:11:32Z</time>
      </trkpt>
      <trkpt lat="47.73761" lon="4.98043">
        <ele>452.88</ele>
        <time>2022-07-04T09:11:36Z</time>
      </trkpt>
      <trkpt lat="47.73764" lon="4.98045">
        <ele>452.93</ele>
        <time>2022-07-04T09:11:38Z</time>
      </trkpt>
      <trkpt lat="47.73767" lon="4.98046">
        <ele>452.91</ele>
        <time>2022-07-04T09:11:39Z</time>
      </trkpt>
      <trkpt lat="47.73769" lon="4.98048">
        <ele>452.96</ele>
        <time>2022-07-04T09:11:42Z</time>
      </trkpt>
      <trkpt lat="47.73772" lon="4.98051">
        <ele>453.01</ele>
        <time>2022-07-04T09:11:44Z</time>
      </trkpt>
      <trkpt lat="47.73775" lon="4.98054">
        <ele>453.04</ele>
        <time>2022-07-04T09:11:47Z</time>
      </trkpt>
      <trkpt lat="47.73778" lon="4.98056">
        <ele>453.01</ele>
        <time>2022-07-04T09:11:48Z</time>
      </trkpt>
      <trkpt lat="47.7378" lon="4.98058">
        <ele>453</ele>
        <time>2022-07-04T09:11:51Z</time>
      </trkpt>
      <trkpt lat="47.73783" lon="4.9806">
        <ele>452.94</ele>
        <time>2022-07-04T09:11:52Z</time>
      </trkpt>
      <trkpt lat="47.73785" lon="4.98062">
        <ele>452.91</ele>
        <time>2022-07-04T09:11:55Z</time>
      </trkpt>
      <trkpt lat="47.73788" lon="4.98064">
        <ele>452.82</ele>
        <time>2022-07-04T09:11:58Z</time>
      </trkpt>
      <trkpt lat="47.73791" lon="4.98065">
        <ele>452.7</ele>
        <time>2022-07-04T09:11:59Z</time>
      </trkpt>
      <trkpt lat="47.73794" lon="4.98066">
        <ele>452.57</ele>
        <time>2022-07-04T09:12:02Z</time>
      </trkpt>
      <trkpt lat="47.73796" lon="4.98068">
        <ele>452.5</ele>
        <time>2022-07-04T09:12:05Z</time>
      </trkpt>
      <trkpt lat="47.73799" lon="4.9807">
        <ele>452.36</ele>
        <time>2022-07-04T09:12:07Z</time>
      </trkpt>
      <trkpt lat="47.73801" lon="4.98073">
        <ele>452.27</ele>
        <time>2022-07-04T09:12:10Z</time>
      </trkpt>
      <trkpt lat="47.73803" lon="4.98076">
        <ele>452.16</ele>
        <time>2022-07-04T09:12:12Z</time>
      </trkpt>
      <trkpt lat="47.73806" lon="4.9808">
        <ele>452</ele>
        <time>2022-07-04T09:12:14Z</time>
      </trkpt>
      <trkpt lat="47.73808" lon="4.98082">
        <ele>451.99</ele>
        <time>2022-07-04T09:12:17Z</time>
      </trkpt>
      <trkpt lat="47.73811" lon="4.98085">
        <ele>452.16</ele>
        <time>2022-07-04T09:12:20Z</time>
      </trkpt>
      <trkpt lat="47.73814" lon="4.98087">
        <ele>452.32</ele>
        <time>2022-07-04T09:12:22Z</time>
      </trkpt>
      <trkpt lat="47.73817" lon="4.98089">
        <ele>452.44</ele>
        <time>2022-07-04T09:12:24Z</time>
      </trkpt>
      <trkpt lat="47.7382" lon="4.98091">
        <ele>452.54</ele>
        <time>2022-07-04T09:12:26Z</time>
      </trkpt>
      <trkpt lat="47.73823" lon="4.98093">
        <ele>452.61</ele>
        <time>2022-07-04T09:12:29Z</time>
      </trkpt>
      <trkpt lat="47.73826" lon="4.98095">
        <ele>452.64</ele>
        <time>2022-07-04T09:12:31Z</time>
      </trkpt>
      <trkpt lat="47.73829" lon="4.98097">
        <ele>452.65</ele>
        <time>2022-07-04T09:12:33Z</time>
      </trkpt>
      <trkpt lat="47.73832" lon="4.98099">
        <ele>452.62</ele>
        <time>2022-07-04T09:12:35Z</time>
      </trkpt>
      <trkpt lat="47.73834" lon="4.981">
        <ele>452.62</ele>
        <time>2022-07-04T09:12:37Z</time>
      </trkpt>
      <trkpt lat="47.73837" lon="4.98102">
        <ele>452.8</ele>
        <time>2022-07-04T09:12:40Z</time>
      </trkpt>
      <trkpt lat="47.7384" lon="4.98104">
        <ele>452.98</ele>
        <time>2022-07-04T09:12:42Z</time>
      </trkpt>
      <trkpt lat="47.73842" lon="4.98106">
        <ele>453.13</ele>
        <time>2022-07-04T09:12:44Z</time>
      </trkpt>
      <trkpt lat="47.73845" lon="4.98108">
        <ele>453.31</ele>
        <time>2022-07-04T09:12:45Z</time>
      </trkpt>
      <trkpt lat="47.73847" lon="4.9811">
        <ele>453.45</ele>
        <time>2022-07-04T09:12:47Z</time>
      </trkpt>
      <trkpt lat="47.7385" lon="4.98111">
        <ele>453.6</ele>
        <time>2022-07-04T09:12:49Z</time>
      </trkpt>
      <trkpt lat="47.73854" lon="4.98113">
        <ele>453.66</ele>
        <time>2022-07-04T09:12:52Z</time>
      </trkpt>
      <trkpt lat="47.73857" lon="4.98115">
        <ele>453.69</ele>
        <time>2022-07-04T09:12:54Z</time>
      </trkpt>
      <trkpt lat="47.7386" lon="4.98117">
        <ele>453.74</ele>
        <time>2022-07-04T09:12:57Z</time>
      </trkpt>
      <trkpt lat="47.73863" lon="4.98119">
        <ele>453.85</ele>
        <time>2022-07-04T09:12:59Z</time>
      </trkpt>
      <trkpt lat="47.73866" lon="4.9812">
        <ele>454.03</ele>
        <time>2022-07-04T09:13:01Z</time>
      </trkpt>
      <trkpt lat="47.73869" lon="4.98122">
        <ele>454.18</ele>
        <time>2022-07-04T09:13:03Z</time>
      </trkpt>
      <trkpt lat="47.73871" lon="4.98124">
        <ele>454.25</ele>
        <time>2022-07-04T09:13:06Z</time>
      </trkpt>
      <trkpt lat="47.73875" lon="4.98126">
        <ele>454.46</ele>
        <time>2022-07-04T09:13:08Z</time>
      </trkpt>
      <trkpt lat="47.73879" lon="4.98127">
        <ele>454.72</ele>
        <time>2022-07-04T09:13:10Z</time>
      </trkpt>
      <trkpt lat="47.73882" lon="4.98129">
        <ele>454.86</ele>
        <time>2022-07-04T09:13:12Z</time>
      </trkpt>
      <trkpt lat="47.73884" lon="4.9813">
        <ele>454.97</ele>
        <time>2022-07-04T09:13:14Z</time>
      </trkpt>
      <trkpt lat="47.73888" lon="4.98132">
        <ele>455.18</ele>
        <time>2022-07-04T09:13:16Z</time>
      </trkpt>
      <trkpt lat="47.73891" lon="4.98133">
        <ele>455.29</ele>
        <time>2022-07-04T09:13:18Z</time>
      </trkpt>
      <trkpt lat="47.73894" lon="4.98135">
        <ele>455.32</ele>
        <time>2022-07-04T09:13:19Z</time>
      </trkpt>
      <trkpt lat="47.73897" lon="4.98137">
        <ele>455.36</ele>
        <time>2022-07-04T09:13:21Z</time>
      </trkpt>
      <trkpt lat="47.739" lon="4.98139">
        <ele>455.4</ele>
        <time>2022-07-04T09:13:24Z</time>
      </trkpt>
      <trkpt lat="47.73902" lon="4.9814">
        <ele>455.51</ele>
        <time>2022-07-04T09:13:26Z</time>
      </trkpt>
      <trkpt lat="47.73905" lon="4.98142">
        <ele>455.69</ele>
        <time>2022-07-04T09:13:29Z</time>
      </trkpt>
      <trkpt lat="47.73908" lon="4.98143">
        <ele>455.84</ele>
        <time>2022-07-04T09:13:31Z</time>
      </trkpt>
      <trkpt lat="47.73911" lon="4.98145">
        <ele>456.02</ele>
        <time>2022-07-04T09:13:33Z</time>
      </trkpt>
      <trkpt lat="47.73915" lon="4.98148">
        <ele>456.27</ele>
        <time>2022-07-04T09:13:36Z</time>
      </trkpt>
      <trkpt lat="47.73917" lon="4.98151">
        <ele>456.4</ele>
        <time>2022-07-04T09:13:38Z</time>
      </trkpt>
      <trkpt lat="47.73919" lon="4.98153">
        <ele>456.26</ele>
        <time>2022-07-04T09:13:42Z</time>
      </trkpt>
      <trkpt lat="47.73921" lon="4.98156">
        <ele>456.15</ele>
        <time>2022-07-04T09:13:45Z</time>
      </trkpt>
      <trkpt lat="47.73924" lon="4.98158">
        <ele>455.9</ele>
        <time>2022-07-04T09:13:49Z</time>
      </trkpt>
      <trkpt lat="47.73926" lon="4.9816">
        <ele>455.75</ele>
        <time>2022-07-04T09:13:52Z</time>
      </trkpt>
      <trkpt lat="47.73928" lon="4.98163">
        <ele>455.64</ele>
        <time>2022-07-04T09:13:54Z</time>
      </trkpt>
      <trkpt lat="47.7393" lon="4.98167">
        <ele>455.57</ele>
        <time>2022-07-04T09:13:56Z</time>
      </trkpt>
      <trkpt lat="47.73932" lon="4.9817">
        <ele>455.46</ele>
        <time>2022-07-04T09:13:59Z</time>
      </trkpt>
      <trkpt lat="47.73934" lon="4.98174">
        <ele>455.39</ele>
        <time>2022-07-04T09:14:02Z</time>
      </trkpt>
      <trkpt lat="47.73935" lon="4.98179">
        <ele>455.46</ele>
        <time>2022-07-04T09:14:05Z</time>
      </trkpt>
      <trkpt lat="47.73937" lon="4.98183">
        <ele>455.39</ele>
        <time>2022-07-04T09:14:07Z</time>
      </trkpt>
      <trkpt lat="47.73939" lon="4.98186">
        <ele>455.28</ele>
        <time>2022-07-04T09:14:09Z</time>
      </trkpt>
      <trkpt lat="47.73941" lon="4.98189">
        <ele>455.18</ele>
        <time>2022-07-04T09:14:11Z</time>
      </trkpt>
      <trkpt lat="47.73944" lon="4.98194">
        <ele>455.03</ele>
        <time>2022-07-04T09:14:15Z</time>
      </trkpt>
      <trkpt lat="47.73946" lon="4.98198">
        <ele>454.99</ele>
        <time>2022-07-04T09:14:18Z</time>
      </trkpt>
      <trkpt lat="47.73948" lon="4.98203">
        <ele>454.96</ele>
        <time>2022-07-04T09:14:20Z</time>
      </trkpt>
      <trkpt lat="47.7395" lon="4.98207">
        <ele>454.91</ele>
        <time>2022-07-04T09:14:23Z</time>
      </trkpt>
      <trkpt lat="47.73951" lon="4.98211">
        <ele>454.86</ele>
        <time>2022-07-04T09:14:26Z</time>
      </trkpt>
      <trkpt lat="47.73953" lon="4.98214">
        <ele>454.78</ele>
        <time>2022-07-04T09:14:28Z</time>
      </trkpt>
      <trkpt lat="47.73954" lon="4.98218">
        <ele>454.71</ele>
        <time>2022-07-04T09:14:29Z</time>
      </trkpt>
      <trkpt lat="47.73955" lon="4.98223">
        <ele>454.63</ele>
        <time>2022-07-04T09:14:31Z</time>
      </trkpt>
      <trkpt lat="47.73955" lon="4.98227">
        <ele>454.69</ele>
        <time>2022-07-04T09:14:34Z</time>
      </trkpt>
      <trkpt lat="47.73956" lon="4.98232">
        <ele>454.73</ele>
        <time>2022-07-04T09:14:37Z</time>
      </trkpt>
      <trkpt lat="47.73956" lon="4.98238">
        <ele>454.82</ele>
        <time>2022-07-04T09:14:40Z</time>
      </trkpt>
      <trkpt lat="47.73957" lon="4.98243">
        <ele>454.89</ele>
        <time>2022-07-04T09:14:42Z</time>
      </trkpt>
      <trkpt lat="47.73958" lon="4.98247">
        <ele>454.95</ele>
        <time>2022-07-04T09:14:45Z</time>
      </trkpt>
      <trkpt lat="47.73959" lon="4.98251">
        <ele>455.07</ele>
        <time>2022-07-04T09:14:47Z</time>
      </trkpt>
      <trkpt lat="47.73961" lon="4.98256">
        <ele>455.39</ele>
        <time>2022-07-04T09:14:50Z</time>
      </trkpt>
      <trkpt lat="47.73963" lon="4.98259">
        <ele>455.54</ele>
        <time>2022-07-04T09:14:52Z</time>
      </trkpt>
      <trkpt lat="47.73964" lon="4.98264">
        <ele>455.8</ele>
        <time>2022-07-04T09:14:54Z</time>
      </trkpt>
      <trkpt lat="47.73966" lon="4.98267">
        <ele>455.89</ele>
        <time>2022-07-04T09:14:56Z</time>
      </trkpt>
      <trkpt lat="47.73967" lon="4.98272">
        <ele>456.09</ele>
        <time>2022-07-04T09:14:58Z</time>
      </trkpt>
      <trkpt lat="47.73969" lon="4.98276">
        <ele>456.15</ele>
        <time>2022-07-04T09:15:01Z</time>
      </trkpt>
      <trkpt lat="47.7397" lon="4.9828">
        <ele>456.31</ele>
        <time>2022-07-04T09:15:03Z</time>
      </trkpt>
      <trkpt lat="47.73971" lon="4.98285">
        <ele>456.6</ele>
        <time>2022-07-04T09:15:06Z</time>
      </trkpt>
      <trkpt lat="47.73972" lon="4.98289">
        <ele>456.82</ele>
        <time>2022-07-04T09:15:08Z</time>
      </trkpt>
      <trkpt lat="47.73973" lon="4.98293">
        <ele>457.14</ele>
        <time>2022-07-04T09:15:10Z</time>
      </trkpt>
      <trkpt lat="47.73975" lon="4.98298">
        <ele>457.58</ele>
        <time>2022-07-04T09:15:13Z</time>
      </trkpt>
      <trkpt lat="47.73977" lon="4.983">
        <ele>457.81</ele>
        <time>2022-07-04T09:15:14Z</time>
      </trkpt>
      <trkpt lat="47.73979" lon="4.98304">
        <ele>458.15</ele>
        <time>2022-07-04T09:15:16Z</time>
      </trkpt>
      <trkpt lat="47.73981" lon="4.98307">
        <ele>458.24</ele>
        <time>2022-07-04T09:15:19Z</time>
      </trkpt>
      <trkpt lat="47.73983" lon="4.98311">
        <ele>458.15</ele>
        <time>2022-07-04T09:15:21Z</time>
      </trkpt>
      <trkpt lat="47.73985" lon="4.98314">
        <ele>458.13</ele>
        <time>2022-07-04T09:15:24Z</time>
      </trkpt>
      <trkpt lat="47.73987" lon="4.98318">
        <ele>458.11</ele>
        <time>2022-07-04T09:15:26Z</time>
      </trkpt>
      <trkpt lat="47.73989" lon="4.98322">
        <ele>458.14</ele>
        <time>2022-07-04T09:15:29Z</time>
      </trkpt>
      <trkpt lat="47.73991" lon="4.98325">
        <ele>458.22</ele>
        <time>2022-07-04T09:15:31Z</time>
      </trkpt>
      <trkpt lat="47.73992" lon="4.9833">
        <ele>458.21</ele>
        <time>2022-07-04T09:15:33Z</time>
      </trkpt>
      <trkpt lat="47.73995" lon="4.98333">
        <ele>458.46</ele>
        <time>2022-07-04T09:15:37Z</time>
      </trkpt>
      <trkpt lat="47.73997" lon="4.98336">
        <ele>458.68</ele>
        <time>2022-07-04T09:15:41Z</time>
      </trkpt>
      <trkpt lat="47.74" lon="4.98339">
        <ele>459</ele>
        <time>2022-07-04T09:15:43Z</time>
      </trkpt>
      <trkpt lat="47.74002" lon="4.98342">
        <ele>459.22</ele>
        <time>2022-07-04T09:15:46Z</time>
      </trkpt>
      <trkpt lat="47.74005" lon="4.98344">
        <ele>459.54</ele>
        <time>2022-07-04T09:15:48Z</time>
      </trkpt>
      <trkpt lat="47.74007" lon="4.98347">
        <ele>459.76</ele>
        <time>2022-07-04T09:15:50Z</time>
      </trkpt>
      <trkpt lat="47.74009" lon="4.98349">
        <ele>459.97</ele>
        <time>2022-07-04T09:15:53Z</time>
      </trkpt>
      <trkpt lat="47.74012" lon="4.98352">
        <ele>460.3</ele>
        <time>2022-07-04T09:15:55Z</time>
      </trkpt>
      <trkpt lat="47.74014" lon="4.98356">
        <ele>460.51</ele>
        <time>2022-07-04T09:15:58Z</time>
      </trkpt>
      <trkpt lat="47.74017" lon="4.98359">
        <ele>460.84</ele>
        <time>2022-07-04T09:16:00Z</time>
      </trkpt>
      <trkpt lat="47.74019" lon="4.98362">
        <ele>460.97</ele>
        <time>2022-07-04T09:16:02Z</time>
      </trkpt>
      <trkpt lat="47.74022" lon="4.98365">
        <ele>460.99</ele>
        <time>2022-07-04T09:16:05Z</time>
      </trkpt>
      <trkpt lat="47.74024" lon="4.98368">
        <ele>460.88</ele>
        <time>2022-07-04T09:16:07Z</time>
      </trkpt>
      <trkpt lat="47.74026" lon="4.98371">
        <ele>460.76</ele>
        <time>2022-07-04T09:16:09Z</time>
      </trkpt>
      <trkpt lat="47.74029" lon="4.98374">
        <ele>460.52</ele>
        <time>2022-07-04T09:16:12Z</time>
      </trkpt>
      <trkpt lat="47.74031" lon="4.98377">
        <ele>460.05</ele>
        <time>2022-07-04T09:16:16Z</time>
      </trkpt>
      <trkpt lat="47.74033" lon="4.98379">
        <ele>459.69</ele>
        <time>2022-07-04T09:16:18Z</time>
      </trkpt>
      <trkpt lat="47.74036" lon="4.98383">
        <ele>459.04</ele>
        <time>2022-07-04T09:16:22Z</time>
      </trkpt>
      <trkpt lat="47.74038" lon="4.98386">
        <ele>458.58</ele>
        <time>2022-07-04T09:16:23Z</time>
      </trkpt>
      <trkpt lat="47.7404" lon="4.98389">
        <ele>458.1</ele>
        <time>2022-07-04T09:16:26Z</time>
      </trkpt>
      <trkpt lat="47.74043" lon="4.98392">
        <ele>457.41</ele>
        <time>2022-07-04T09:16:27Z</time>
      </trkpt>
      <trkpt lat="47.74045" lon="4.98395">
        <ele>456.8</ele>
        <time>2022-07-04T09:16:29Z</time>
      </trkpt>
      <trkpt lat="47.74048" lon="4.98397">
        <ele>456.3</ele>
        <time>2022-07-04T09:16:32Z</time>
      </trkpt>
      <trkpt lat="47.7405" lon="4.984">
        <ele>455.72</ele>
        <time>2022-07-04T09:16:35Z</time>
      </trkpt>
      <trkpt lat="47.74052" lon="4.98404">
        <ele>455.01</ele>
        <time>2022-07-04T09:16:37Z</time>
      </trkpt>
      <trkpt lat="47.74054" lon="4.98408">
        <ele>454.32</ele>
        <time>2022-07-04T09:16:40Z</time>
      </trkpt>
      <trkpt lat="47.74055" lon="4.98412">
        <ele>453.7</ele>
        <time>2022-07-04T09:16:42Z</time>
      </trkpt>
      <trkpt lat="47.74057" lon="4.98416">
        <ele>452.73</ele>
        <time>2022-07-04T09:16:47Z</time>
      </trkpt>
      <trkpt lat="47.7406" lon="4.98419">
        <ele>451.27</ele>
        <time>2022-07-04T09:16:50Z</time>
      </trkpt>
      <trkpt lat="47.74063" lon="4.98422">
        <ele>449.68</ele>
        <time>2022-07-04T09:16:53Z</time>
      </trkpt>
      <trkpt lat="47.74066" lon="4.98425">
        <ele>448.04</ele>
        <time>2022-07-04T09:16:56Z</time>
      </trkpt>
      <trkpt lat="47.74068" lon="4.98428">
        <ele>446.64</ele>
        <time>2022-07-04T09:16:57Z</time>
      </trkpt>
      <trkpt lat="47.7407" lon="4.98432">
        <ele>444.92</ele>
        <time>2022-07-04T09:17:00Z</time>
      </trkpt>
      <trkpt lat="47.74072" lon="4.98435">
        <ele>443.45</ele>
        <time>2022-07-04T09:17:03Z</time>
      </trkpt>
      <trkpt lat="47.74074" lon="4.98438">
        <ele>441.96</ele>
        <time>2022-07-04T09:17:07Z</time>
      </trkpt>
      <trkpt lat="47.74076" lon="4.98441">
        <ele>440.43</ele>
        <time>2022-07-04T09:17:09Z</time>
      </trkpt>
      <trkpt lat="47.74079" lon="4.98443">
        <ele>438.86</ele>
        <time>2022-07-04T09:17:11Z</time>
      </trkpt>
      <trkpt lat="47.74082" lon="4.98446">
        <ele>437.03</ele>
        <time>2022-07-04T09:17:15Z</time>
      </trkpt>
      <trkpt lat="47.74084" lon="4.98448">
        <ele>435.98</ele>
        <time>2022-07-04T09:17:21Z</time>
      </trkpt>
      <trkpt lat="47.74085" lon="4.98452">
        <ele>434.78</ele>
        <time>2022-07-04T09:17:25Z</time>
      </trkpt>
      <trkpt lat="47.74087" lon="4.9845">
        <ele>434.91</ele>
        <time>2022-07-04T09:17:35Z</time>
      </trkpt>
      <trkpt lat="47.7409" lon="4.9845">
        <ele>434.35</ele>
        <time>2022-07-04T09:17:48Z</time>
      </trkpt>
      <trkpt lat="47.74093" lon="4.98452">
        <ele>433.26</ele>
        <time>2022-07-04T09:17:57Z</time>
      </trkpt>
      <trkpt lat="47.74095" lon="4.98455">
        <ele>432.08</ele>
        <time>2022-07-04T09:18:08Z</time>
      </trkpt>
      <trkpt lat="47.74098" lon="4.98456">
        <ele>431.23</ele>
        <time>2022-07-04T09:18:11Z</time>
      </trkpt>
      <trkpt lat="47.741" lon="4.9846">
        <ele>429.74</ele>
        <time>2022-07-04T09:18:14Z</time>
      </trkpt>
      <trkpt lat="47.74102" lon="4.98464">
        <ele>428.24</ele>
        <time>2022-07-04T09:18:16Z</time>
      </trkpt>
      <trkpt lat="47.74104" lon="4.98468">
        <ele>426.71</ele>
        <time>2022-07-04T09:18:17Z</time>
      </trkpt>
      <trkpt lat="47.74106" lon="4.98472">
        <ele>425.17</ele>
        <time>2022-07-04T09:18:19Z</time>
      </trkpt>
      <trkpt lat="47.74107" lon="4.98477">
        <ele>425.25</ele>
        <time>2022-07-04T09:18:23Z</time>
      </trkpt>
      <trkpt lat="47.74109" lon="4.98481">
        <ele>425.26</ele>
        <time>2022-07-04T09:18:25Z</time>
      </trkpt>
      <trkpt lat="47.74111" lon="4.98486">
        <ele>425.5</ele>
        <time>2022-07-04T09:18:27Z</time>
      </trkpt>
      <trkpt lat="47.74112" lon="4.98489">
        <ele>426.02</ele>
        <time>2022-07-04T09:18:29Z</time>
      </trkpt>
      <trkpt lat="47.74114" lon="4.98493">
        <ele>426.82</ele>
        <time>2022-07-04T09:18:32Z</time>
      </trkpt>
      <trkpt lat="47.74116" lon="4.98496">
        <ele>427.42</ele>
        <time>2022-07-04T09:18:35Z</time>
      </trkpt>
      <trkpt lat="47.74118" lon="4.98499">
        <ele>427.94</ele>
        <time>2022-07-04T09:18:38Z</time>
      </trkpt>
      <trkpt lat="47.74121" lon="4.98504">
        <ele>428.22</ele>
        <time>2022-07-04T09:18:42Z</time>
      </trkpt>
      <trkpt lat="47.74123" lon="4.98507">
        <ele>428.28</ele>
        <time>2022-07-04T09:18:44Z</time>
      </trkpt>
      <trkpt lat="47.74125" lon="4.98511">
        <ele>428.21</ele>
        <time>2022-07-04T09:18:48Z</time>
      </trkpt>
      <trkpt lat="47.74127" lon="4.98515">
        <ele>428.05</ele>
        <time>2022-07-04T09:18:50Z</time>
      </trkpt>
      <trkpt lat="47.74129" lon="4.98519">
        <ele>427.81</ele>
        <time>2022-07-04T09:18:52Z</time>
      </trkpt>
      <trkpt lat="47.7413" lon="4.98522">
        <ele>427.57</ele>
        <time>2022-07-04T09:18:54Z</time>
      </trkpt>
      <trkpt lat="47.74132" lon="4.98526">
        <ele>427.19</ele>
        <time>2022-07-04T09:18:57Z</time>
      </trkpt>
      <trkpt lat="47.74134" lon="4.98529">
        <ele>426.87</ele>
        <time>2022-07-04T09:19:00Z</time>
      </trkpt>
      <trkpt lat="47.74137" lon="4.98532">
        <ele>426.64</ele>
        <time>2022-07-04T09:19:02Z</time>
      </trkpt>
      <trkpt lat="47.74138" lon="4.98535">
        <ele>426.44</ele>
        <time>2022-07-04T09:19:04Z</time>
      </trkpt>
      <trkpt lat="47.74141" lon="4.98538">
        <ele>426.17</ele>
        <time>2022-07-04T09:19:08Z</time>
      </trkpt>
      <trkpt lat="47.74143" lon="4.9854">
        <ele>425.88</ele>
        <time>2022-07-04T09:19:10Z</time>
      </trkpt>
      <trkpt lat="47.74146" lon="4.98543">
        <ele>425.32</ele>
        <time>2022-07-04T09:19:13Z</time>
      </trkpt>
      <trkpt lat="47.74149" lon="4.98545">
        <ele>424.77</ele>
        <time>2022-07-04T09:19:15Z</time>
      </trkpt>
      <trkpt lat="47.74152" lon="4.98546">
        <ele>424.3</ele>
        <time>2022-07-04T09:19:16Z</time>
      </trkpt>
      <trkpt lat="47.74155" lon="4.98547">
        <ele>423.79</ele>
        <time>2022-07-04T09:19:19Z</time>
      </trkpt>
      <trkpt lat="47.74162" lon="4.9855">
        <ele>422.24</ele>
        <time>2022-07-04T09:19:22Z</time>
      </trkpt>
      <trkpt lat="47.74167" lon="4.98551">
        <ele>421.34</ele>
        <time>2022-07-04T09:19:25Z</time>
      </trkpt>
      <trkpt lat="47.74172" lon="4.98554">
        <ele>420.96</ele>
        <time>2022-07-04T09:19:29Z</time>
      </trkpt>
      <trkpt lat="47.74176" lon="4.98557">
        <ele>420.85</ele>
        <time>2022-07-04T09:19:31Z</time>
      </trkpt>
      <trkpt lat="47.74179" lon="4.98558">
        <ele>421.01</ele>
        <time>2022-07-04T09:19:33Z</time>
      </trkpt>
      <trkpt lat="47.74184" lon="4.98561">
        <ele>420.94</ele>
        <time>2022-07-04T09:19:36Z</time>
      </trkpt>
      <trkpt lat="47.7419" lon="4.98564">
        <ele>420.68</ele>
        <time>2022-07-04T09:19:41Z</time>
      </trkpt>
      <trkpt lat="47.74196" lon="4.98566">
        <ele>420.14</ele>
        <time>2022-07-04T09:19:45Z</time>
      </trkpt>
      <trkpt lat="47.74202" lon="4.98569">
        <ele>418.4</ele>
        <time>2022-07-04T09:19:49Z</time>
      </trkpt>
      <trkpt lat="47.74207" lon="4.98573">
        <ele>416.4</ele>
        <time>2022-07-04T09:19:52Z</time>
      </trkpt>
      <trkpt lat="47.74213" lon="4.98575">
        <ele>414.69</ele>
        <time>2022-07-04T09:19:57Z</time>
      </trkpt>
      <trkpt lat="47.74219" lon="4.98577">
        <ele>412.9</ele>
        <time>2022-07-04T09:20:01Z</time>
      </trkpt>
      <trkpt lat="47.74223" lon="4.98578">
        <ele>411.64</ele>
        <time>2022-07-04T09:20:03Z</time>
      </trkpt>
      <trkpt lat="47.74228" lon="4.98578">
        <ele>409.85</ele>
        <time>2022-07-04T09:20:07Z</time>
      </trkpt>
      <trkpt lat="47.74235" lon="4.98578">
        <ele>407.34</ele>
        <time>2022-07-04T09:20:12Z</time>
      </trkpt>
      <trkpt lat="47.74241" lon="4.98579">
        <ele>404.95</ele>
        <time>2022-07-04T09:20:17Z</time>
      </trkpt>
      <trkpt lat="47.74248" lon="4.98579">
        <ele>402.48</ele>
        <time>2022-07-04T09:20:20Z</time>
      </trkpt>
      <trkpt lat="47.74253" lon="4.98579">
        <ele>402.02</ele>
        <time>2022-07-04T09:20:24Z</time>
      </trkpt>
      <trkpt lat="47.7426" lon="4.98578">
        <ele>402.69</ele>
        <time>2022-07-04T09:20:29Z</time>
      </trkpt>
      <trkpt lat="47.74265" lon="4.98577">
        <ele>403.14</ele>
        <time>2022-07-04T09:20:32Z</time>
      </trkpt>
      <trkpt lat="47.74271" lon="4.98576">
        <ele>403.59</ele>
        <time>2022-07-04T09:20:36Z</time>
      </trkpt>
      <trkpt lat="47.74277" lon="4.98574">
        <ele>403.96</ele>
        <time>2022-07-04T09:20:42Z</time>
      </trkpt>
      <trkpt lat="47.74284" lon="4.98572">
        <ele>403.47</ele>
        <time>2022-07-04T09:20:46Z</time>
      </trkpt>
      <trkpt lat="47.7429" lon="4.98571">
        <ele>403.02</ele>
        <time>2022-07-04T09:20:51Z</time>
      </trkpt>
      <trkpt lat="47.74294" lon="4.98571">
        <ele>402.7</ele>
        <time>2022-07-04T09:20:53Z</time>
      </trkpt>
      <trkpt lat="47.74298" lon="4.98571">
        <ele>402.38</ele>
        <time>2022-07-04T09:20:57Z</time>
      </trkpt>
      <trkpt lat="47.74305" lon="4.98568">
        <ele>402.24</ele>
        <time>2022-07-04T09:21:02Z</time>
      </trkpt>
      <trkpt lat="47.74311" lon="4.98566">
        <ele>402.37</ele>
        <time>2022-07-04T09:21:06Z</time>
      </trkpt>
      <trkpt lat="47.74316" lon="4.98564">
        <ele>402.52</ele>
        <time>2022-07-04T09:21:11Z</time>
      </trkpt>
      <trkpt lat="47.74321" lon="4.98562">
        <ele>402.64</ele>
        <time>2022-07-04T09:21:14Z</time>
      </trkpt>
      <trkpt lat="47.74327" lon="4.98558">
        <ele>402.94</ele>
        <time>2022-07-04T09:21:19Z</time>
      </trkpt>
      <trkpt lat="47.74334" lon="4.98557">
        <ele>402.73</ele>
        <time>2022-07-04T09:21:24Z</time>
      </trkpt>
      <trkpt lat="47.7434" lon="4.98557">
        <ele>401.68</ele>
        <time>2022-07-04T09:21:28Z</time>
      </trkpt>
      <trkpt lat="47.74345" lon="4.98557">
        <ele>400.81</ele>
        <time>2022-07-04T09:21:32Z</time>
      </trkpt>
      <trkpt lat="47.74349" lon="4.98556">
        <ele>400.16</ele>
        <time>2022-07-04T09:21:36Z</time>
      </trkpt>
      <trkpt lat="47.74354" lon="4.98555">
        <ele>399.34</ele>
        <time>2022-07-04T09:21:39Z</time>
      </trkpt>
      <trkpt lat="47.74359" lon="4.98554">
        <ele>398.59</ele>
        <time>2022-07-04T09:21:43Z</time>
      </trkpt>
      <trkpt lat="47.74362" lon="4.98553">
        <ele>398.4</ele>
        <time>2022-07-04T09:21:52Z</time>
      </trkpt>
      <trkpt lat="47.74365" lon="4.98553">
        <ele>398.51</ele>
        <time>2022-07-04T09:21:53Z</time>
      </trkpt>
      <trkpt lat="47.74369" lon="4.98552">
        <ele>398.8</ele>
        <time>2022-07-04T09:21:57Z</time>
      </trkpt>
      <trkpt lat="47.74372" lon="4.9855">
        <ele>399.19</ele>
        <time>2022-07-04T09:21:59Z</time>
      </trkpt>
      <trkpt lat="47.74375" lon="4.98548">
        <ele>399.59</ele>
        <time>2022-07-04T09:22:05Z</time>
      </trkpt>
      <trkpt lat="47.74378" lon="4.9855">
        <ele>399.41</ele>
        <time>2022-07-04T09:22:07Z</time>
      </trkpt>
      <trkpt lat="47.74381" lon="4.98551">
        <ele>399.37</ele>
        <time>2022-07-04T09:22:10Z</time>
      </trkpt>
      <trkpt lat="47.74383" lon="4.9855">
        <ele>399.59</ele>
        <time>2022-07-04T09:22:13Z</time>
      </trkpt>
      <trkpt lat="47.74387" lon="4.98549">
        <ele>399.88</ele>
        <time>2022-07-04T09:22:30Z</time>
      </trkpt>
      <trkpt lat="47.74389" lon="4.9855">
        <ele>399.8</ele>
        <time>2022-07-04T09:22:33Z</time>
      </trkpt>
      <trkpt lat="47.74393" lon="4.98549">
        <ele>400.07</ele>
        <time>2022-07-04T09:22:34Z</time>
      </trkpt>
      <trkpt lat="47.74396" lon="4.98548">
        <ele>400.25</ele>
        <time>2022-07-04T09:22:36Z</time>
      </trkpt>
      <trkpt lat="47.74399" lon="4.98548">
        <ele>400.32</ele>
        <time>2022-07-04T09:22:39Z</time>
      </trkpt>
      <trkpt lat="47.74401" lon="4.98546">
        <ele>400.5</ele>
        <time>2022-07-04T09:22:43Z</time>
      </trkpt>
      <trkpt lat="47.74404" lon="4.98548">
        <ele>400.44</ele>
        <time>2022-07-04T09:22:47Z</time>
      </trkpt>
      <trkpt lat="47.74407" lon="4.98548">
        <ele>400.51</ele>
        <time>2022-07-04T09:22:49Z</time>
      </trkpt>
      <trkpt lat="47.7441" lon="4.98548">
        <ele>400.57</ele>
        <time>2022-07-04T09:22:51Z</time>
      </trkpt>
      <trkpt lat="47.74414" lon="4.98547">
        <ele>400.65</ele>
        <time>2022-07-04T09:22:55Z</time>
      </trkpt>
      <trkpt lat="47.74416" lon="4.98546">
        <ele>400.65</ele>
        <time>2022-07-04T09:22:58Z</time>
      </trkpt>
      <trkpt lat="47.74419" lon="4.98545">
        <ele>400.52</ele>
        <time>2022-07-04T09:22:59Z</time>
      </trkpt>
      <trkpt lat="47.74422" lon="4.98545">
        <ele>400.38</ele>
        <time>2022-07-04T09:23:02Z</time>
      </trkpt>
      <trkpt lat="47.74424" lon="4.98545">
        <ele>400.29</ele>
        <time>2022-07-04T09:23:03Z</time>
      </trkpt>
      <trkpt lat="47.74427" lon="4.98544">
        <ele>400.15</ele>
        <time>2022-07-04T09:23:06Z</time>
      </trkpt>
      <trkpt lat="47.74432" lon="4.98541">
        <ele>399.95</ele>
        <time>2022-07-04T09:23:10Z</time>
      </trkpt>
      <trkpt lat="47.74437" lon="4.98537">
        <ele>399.85</ele>
        <time>2022-07-04T09:23:14Z</time>
      </trkpt>
      <trkpt lat="47.74441" lon="4.98534">
        <ele>399.83</ele>
        <time>2022-07-04T09:23:18Z</time>
      </trkpt>
      <trkpt lat="47.74446" lon="4.98532">
        <ele>399.53</ele>
        <time>2022-07-04T09:23:21Z</time>
      </trkpt>
      <trkpt lat="47.7445" lon="4.98529">
        <ele>398.77</ele>
        <time>2022-07-04T09:23:25Z</time>
      </trkpt>
      <trkpt lat="47.74452" lon="4.98526">
        <ele>398.41</ele>
        <time>2022-07-04T09:23:28Z</time>
      </trkpt>
      <trkpt lat="47.74454" lon="4.98523">
        <ele>398.05</ele>
        <time>2022-07-04T09:23:31Z</time>
      </trkpt>
      <trkpt lat="47.74458" lon="4.98522">
        <ele>397.18</ele>
        <time>2022-07-04T09:23:35Z</time>
      </trkpt>
      <trkpt lat="47.7446" lon="4.98521">
        <ele>396.75</ele>
        <time>2022-07-04T09:23:36Z</time>
      </trkpt>
      <trkpt lat="47.74463" lon="4.98518">
        <ele>396.11</ele>
        <time>2022-07-04T09:23:39Z</time>
      </trkpt>
      <trkpt lat="47.74466" lon="4.98516">
        <ele>395.44</ele>
        <time>2022-07-04T09:23:41Z</time>
      </trkpt>
      <trkpt lat="47.74468" lon="4.98514">
        <ele>394.99</ele>
        <time>2022-07-04T09:23:43Z</time>
      </trkpt>
      <trkpt lat="47.74471" lon="4.98508">
        <ele>394.3</ele>
        <time>2022-07-04T09:23:48Z</time>
      </trkpt>
      <trkpt lat="47.74475" lon="4.98501">
        <ele>393.7</ele>
        <time>2022-07-04T09:23:51Z</time>
      </trkpt>
      <trkpt lat="47.74478" lon="4.98494">
        <ele>393.16</ele>
        <time>2022-07-04T09:23:55Z</time>
      </trkpt>
      <trkpt lat="47.7448" lon="4.98487">
        <ele>392.69</ele>
        <time>2022-07-04T09:23:59Z</time>
      </trkpt>
      <trkpt lat="47.74482" lon="4.9848">
        <ele>392.22</ele>
        <time>2022-07-04T09:24:02Z</time>
      </trkpt>
      <trkpt lat="47.74484" lon="4.98472">
        <ele>391.72</ele>
        <time>2022-07-04T09:24:06Z</time>
      </trkpt>
      <trkpt lat="47.74486" lon="4.98465">
        <ele>391.38</ele>
        <time>2022-07-04T09:24:09Z</time>
      </trkpt>
      <trkpt lat="47.74488" lon="4.98457">
        <ele>390.98</ele>
        <time>2022-07-04T09:24:13Z</time>
      </trkpt>
      <trkpt lat="47.7449" lon="4.98452">
        <ele>390.61</ele>
        <time>2022-07-04T09:24:15Z</time>
      </trkpt>
      <trkpt lat="47.74491" lon="4.98448">
        <ele>390.38</ele>
        <time>2022-07-04T09:24:18Z</time>
      </trkpt>
      <trkpt lat="47.74491" lon="4.98443">
        <ele>390.31</ele>
        <time>2022-07-04T09:24:20Z</time>
      </trkpt>
      <trkpt lat="47.74492" lon="4.98439">
        <ele>390.21</ele>
        <time>2022-07-04T09:24:22Z</time>
      </trkpt>
      <trkpt lat="47.74493" lon="4.98434">
        <ele>390.1</ele>
        <time>2022-07-04T09:24:24Z</time>
      </trkpt>
      <trkpt lat="47.74494" lon="4.98426">
        <ele>390.01</ele>
        <time>2022-07-04T09:24:29Z</time>
      </trkpt>
      <trkpt lat="47.74495" lon="4.98419">
        <ele>389.88</ele>
        <time>2022-07-04T09:24:33Z</time>
      </trkpt>
      <trkpt lat="47.74497" lon="4.98414">
        <ele>389.43</ele>
        <time>2022-07-04T09:24:35Z</time>
      </trkpt>
      <trkpt lat="47.74497" lon="4.98409">
        <ele>389.23</ele>
        <time>2022-07-04T09:24:38Z</time>
      </trkpt>
      <trkpt lat="47.74499" lon="4.98401">
        <ele>388.6</ele>
        <time>2022-07-04T09:24:41Z</time>
      </trkpt>
      <trkpt lat="47.74499" lon="4.98396">
        <ele>388.41</ele>
        <time>2022-07-04T09:24:44Z</time>
      </trkpt>
      <trkpt lat="47.74501" lon="4.98391">
        <ele>387.86</ele>
        <time>2022-07-04T09:24:46Z</time>
      </trkpt>
      <trkpt lat="47.74502" lon="4.98385">
        <ele>387.43</ele>
        <time>2022-07-04T09:24:49Z</time>
      </trkpt>
      <trkpt lat="47.74504" lon="4.98376">
        <ele>386.67</ele>
        <time>2022-07-04T09:24:53Z</time>
      </trkpt>
      <trkpt lat="47.74505" lon="4.98371">
        <ele>386.28</ele>
        <time>2022-07-04T09:24:56Z</time>
      </trkpt>
      <trkpt lat="47.74507" lon="4.98363">
        <ele>385.56</ele>
        <time>2022-07-04T09:24:59Z</time>
      </trkpt>
      <trkpt lat="47.74508" lon="4.98358">
        <ele>385.08</ele>
        <time>2022-07-04T09:25:03Z</time>
      </trkpt>
      <trkpt lat="47.74508" lon="4.98353">
        <ele>384.77</ele>
        <time>2022-07-04T09:25:05Z</time>
      </trkpt>
      <trkpt lat="47.74509" lon="4.98348">
        <ele>384.26</ele>
        <time>2022-07-04T09:25:07Z</time>
      </trkpt>
      <trkpt lat="47.7451" lon="4.98343">
        <ele>383.77</ele>
        <time>2022-07-04T09:25:10Z</time>
      </trkpt>
      <trkpt lat="47.74511" lon="4.98339">
        <ele>383.35</ele>
        <time>2022-07-04T09:25:11Z</time>
      </trkpt>
      <trkpt lat="47.74511" lon="4.98335">
        <ele>383.12</ele>
        <time>2022-07-04T09:25:13Z</time>
      </trkpt>
      <trkpt lat="47.74512" lon="4.98331">
        <ele>382.76</ele>
        <time>2022-07-04T09:25:16Z</time>
      </trkpt>
      <trkpt lat="47.74513" lon="4.98327">
        <ele>382.43</ele>
        <time>2022-07-04T09:25:18Z</time>
      </trkpt>
      <trkpt lat="47.74514" lon="4.98323">
        <ele>382.11</ele>
        <time>2022-07-04T09:25:20Z</time>
      </trkpt>
      <trkpt lat="47.74515" lon="4.98319">
        <ele>381.78</ele>
        <time>2022-07-04T09:25:23Z</time>
      </trkpt>
      <trkpt lat="47.74516" lon="4.98314">
        <ele>381.42</ele>
        <time>2022-07-04T09:25:28Z</time>
      </trkpt>
      <trkpt lat="47.74516" lon="4.9831">
        <ele>381.28</ele>
        <time>2022-07-04T09:25:30Z</time>
      </trkpt>
      <trkpt lat="47.74517" lon="4.98306">
        <ele>380.96</ele>
        <time>2022-07-04T09:25:33Z</time>
      </trkpt>
      <trkpt lat="47.74518" lon="4.98301">
        <ele>380.71</ele>
        <time>2022-07-04T09:25:46Z</time>
      </trkpt>
      <trkpt lat="47.74519" lon="4.98297">
        <ele>380.47</ele>
        <time>2022-07-04T09:25:48Z</time>
      </trkpt>
      <trkpt lat="47.7452" lon="4.98293">
        <ele>380.2</ele>
        <time>2022-07-04T09:25:49Z</time>
      </trkpt>
      <trkpt lat="47.74521" lon="4.98289">
        <ele>379.91</ele>
        <time>2022-07-04T09:25:51Z</time>
      </trkpt>
      <trkpt lat="47.74522" lon="4.98284">
        <ele>379.59</ele>
        <time>2022-07-04T09:25:54Z</time>
      </trkpt>
      <trkpt lat="47.74523" lon="4.98279">
        <ele>379.23</ele>
        <time>2022-07-04T09:25:56Z</time>
      </trkpt>
      <trkpt lat="47.74524" lon="4.98275">
        <ele>379.01</ele>
        <time>2022-07-04T09:25:58Z</time>
      </trkpt>
      <trkpt lat="47.74525" lon="4.9827">
        <ele>378.9</ele>
        <time>2022-07-04T09:26:01Z</time>
      </trkpt>
      <trkpt lat="47.74527" lon="4.98265">
        <ele>378.62</ele>
        <time>2022-07-04T09:26:03Z</time>
      </trkpt>
      <trkpt lat="47.74528" lon="4.98261">
        <ele>378.56</ele>
        <time>2022-07-04T09:26:05Z</time>
      </trkpt>
      <trkpt lat="47.74529" lon="4.98257">
        <ele>378.53</ele>
        <time>2022-07-04T09:26:07Z</time>
      </trkpt>
      <trkpt lat="47.7453" lon="4.98253">
        <ele>378.49</ele>
        <time>2022-07-04T09:26:10Z</time>
      </trkpt>
      <trkpt lat="47.74531" lon="4.98249">
        <ele>378.39</ele>
        <time>2022-07-04T09:26:11Z</time>
      </trkpt>
      <trkpt lat="47.74532" lon="4.98245">
        <ele>378.11</ele>
        <time>2022-07-04T09:26:13Z</time>
      </trkpt>
      <trkpt lat="47.74534" lon="4.98241">
        <ele>377.7</ele>
        <time>2022-07-04T09:26:15Z</time>
      </trkpt>
      <trkpt lat="47.74536" lon="4.98235">
        <ele>377.3</ele>
        <time>2022-07-04T09:26:19Z</time>
      </trkpt>
      <trkpt lat="47.74539" lon="4.98229">
        <ele>376.83</ele>
        <time>2022-07-04T09:26:22Z</time>
      </trkpt>
      <trkpt lat="47.74542" lon="4.98225">
        <ele>376.46</ele>
        <time>2022-07-04T09:26:25Z</time>
      </trkpt>
      <trkpt lat="47.74544" lon="4.98221">
        <ele>376.15</ele>
        <time>2022-07-04T09:26:27Z</time>
      </trkpt>
      <trkpt lat="47.74546" lon="4.98217">
        <ele>375.6</ele>
        <time>2022-07-04T09:26:29Z</time>
      </trkpt>
      <trkpt lat="47.74547" lon="4.98212">
        <ele>375.05</ele>
        <time>2022-07-04T09:26:31Z</time>
      </trkpt>
      <trkpt lat="47.74549" lon="4.98208">
        <ele>374.41</ele>
        <time>2022-07-04T09:26:34Z</time>
      </trkpt>
      <trkpt lat="47.7455" lon="4.98204">
        <ele>373.89</ele>
        <time>2022-07-04T09:26:36Z</time>
      </trkpt>
      <trkpt lat="47.74552" lon="4.98199">
        <ele>373.09</ele>
        <time>2022-07-04T09:26:39Z</time>
      </trkpt>
      <trkpt lat="47.74554" lon="4.98194">
        <ele>372.33</ele>
        <time>2022-07-04T09:26:42Z</time>
      </trkpt>
      <trkpt lat="47.74556" lon="4.9819">
        <ele>372.51</ele>
        <time>2022-07-04T09:26:44Z</time>
      </trkpt>
      <trkpt lat="47.74558" lon="4.98185">
        <ele>373.14</ele>
        <time>2022-07-04T09:26:47Z</time>
      </trkpt>
      <trkpt lat="47.74559" lon="4.98181">
        <ele>373.58</ele>
        <time>2022-07-04T09:26:48Z</time>
      </trkpt>
      <trkpt lat="47.7456" lon="4.98176">
        <ele>374.1</ele>
        <time>2022-07-04T09:26:51Z</time>
      </trkpt>
      <trkpt lat="47.7456" lon="4.98171">
        <ele>374.58</ele>
        <time>2022-07-04T09:26:53Z</time>
      </trkpt>
      <trkpt lat="47.7456" lon="4.98166">
        <ele>375.02</ele>
        <time>2022-07-04T09:26:56Z</time>
      </trkpt>
      <trkpt lat="47.74561" lon="4.98162">
        <ele>375.17</ele>
        <time>2022-07-04T09:26:58Z</time>
      </trkpt>
      <trkpt lat="47.74561" lon="4.98157">
        <ele>375.35</ele>
        <time>2022-07-04T09:27:01Z</time>
      </trkpt>
      <trkpt lat="47.74562" lon="4.98151">
        <ele>375.56</ele>
        <time>2022-07-04T09:27:03Z</time>
      </trkpt>
      <trkpt lat="47.74563" lon="4.98147">
        <ele>375.71</ele>
        <time>2022-07-04T09:27:06Z</time>
      </trkpt>
      <trkpt lat="47.74564" lon="4.98143">
        <ele>375.85</ele>
        <time>2022-07-04T09:27:08Z</time>
      </trkpt>
      <trkpt lat="47.74565" lon="4.98139">
        <ele>376</ele>
        <time>2022-07-04T09:27:09Z</time>
      </trkpt>
      <trkpt lat="47.74567" lon="4.98135">
        <ele>375.72</ele>
        <time>2022-07-04T09:27:13Z</time>
      </trkpt>
      <trkpt lat="47.74568" lon="4.98131">
        <ele>375.43</ele>
        <time>2022-07-04T09:27:14Z</time>
      </trkpt>
      <trkpt lat="47.7457" lon="4.98128">
        <ele>375.22</ele>
        <time>2022-07-04T09:27:16Z</time>
      </trkpt>
      <trkpt lat="47.74572" lon="4.98123">
        <ele>374.86</ele>
        <time>2022-07-04T09:27:19Z</time>
      </trkpt>
      <trkpt lat="47.74573" lon="4.98118">
        <ele>374.5</ele>
        <time>2022-07-04T09:27:22Z</time>
      </trkpt>
      <trkpt lat="47.74575" lon="4.98113">
        <ele>374.14</ele>
        <time>2022-07-04T09:27:24Z</time>
      </trkpt>
      <trkpt lat="47.74578" lon="4.98107">
        <ele>373.68</ele>
        <time>2022-07-04T09:27:28Z</time>
      </trkpt>
      <trkpt lat="47.7458" lon="4.98101">
        <ele>373.23</ele>
        <time>2022-07-04T09:27:30Z</time>
      </trkpt>
      <trkpt lat="47.74581" lon="4.98097">
        <ele>372.94</ele>
        <time>2022-07-04T09:27:32Z</time>
      </trkpt>
      <trkpt lat="47.74582" lon="4.98092">
        <ele>372.59</ele>
        <time>2022-07-04T09:27:35Z</time>
      </trkpt>
      <trkpt lat="47.74583" lon="4.98088">
        <ele>372.33</ele>
        <time>2022-07-04T09:27:37Z</time>
      </trkpt>
      <trkpt lat="47.74584" lon="4.98084">
        <ele>371.95</ele>
        <time>2022-07-04T09:27:38Z</time>
      </trkpt>
      <trkpt lat="47.74585" lon="4.98079">
        <ele>371.17</ele>
        <time>2022-07-04T09:27:41Z</time>
      </trkpt>
      <trkpt lat="47.74586" lon="4.98075">
        <ele>370.53</ele>
        <time>2022-07-04T09:27:43Z</time>
      </trkpt>
      <trkpt lat="47.74588" lon="4.9807">
        <ele>369.73</ele>
        <time>2022-07-04T09:27:45Z</time>
      </trkpt>
      <trkpt lat="47.74589" lon="4.98065">
        <ele>369.08</ele>
        <time>2022-07-04T09:27:48Z</time>
      </trkpt>
      <trkpt lat="47.7459" lon="4.98061">
        <ele>368.6</ele>
        <time>2022-07-04T09:27:50Z</time>
      </trkpt>
      <trkpt lat="47.74591" lon="4.98057">
        <ele>368.15</ele>
        <time>2022-07-04T09:27:52Z</time>
      </trkpt>
      <trkpt lat="47.74592" lon="4.98052">
        <ele>367.62</ele>
        <time>2022-07-04T09:27:54Z</time>
      </trkpt>
      <trkpt lat="47.74592" lon="4.98048">
        <ele>367.18</ele>
        <time>2022-07-04T09:27:57Z</time>
      </trkpt>
      <trkpt lat="47.74592" lon="4.98041">
        <ele>366.43</ele>
        <time>2022-07-04T09:28:00Z</time>
      </trkpt>
      <trkpt lat="47.74592" lon="4.98035">
        <ele>365.78</ele>
        <time>2022-07-04T09:28:02Z</time>
      </trkpt>
      <trkpt lat="47.74593" lon="4.98031">
        <ele>365.35</ele>
        <time>2022-07-04T09:28:05Z</time>
      </trkpt>
      <trkpt lat="47.74594" lon="4.98026">
        <ele>364.83</ele>
        <time>2022-07-04T09:28:06Z</time>
      </trkpt>
      <trkpt lat="47.74594" lon="4.98022">
        <ele>364.46</ele>
        <time>2022-07-04T09:28:08Z</time>
      </trkpt>
      <trkpt lat="47.74595" lon="4.98017">
        <ele>364</ele>
        <time>2022-07-04T09:28:10Z</time>
      </trkpt>
      <trkpt lat="47.74595" lon="4.98013">
        <ele>363.63</ele>
        <time>2022-07-04T09:28:14Z</time>
      </trkpt>
      <trkpt lat="47.74597" lon="4.98007">
        <ele>363.12</ele>
        <time>2022-07-04T09:28:17Z</time>
      </trkpt>
      <trkpt lat="47.74598" lon="4.98002">
        <ele>362.71</ele>
        <time>2022-07-04T09:28:20Z</time>
      </trkpt>
      <trkpt lat="47.746" lon="4.97995">
        <ele>362.71</ele>
        <time>2022-07-04T09:28:23Z</time>
      </trkpt>
      <trkpt lat="47.74602" lon="4.97987">
        <ele>362.99</ele>
        <time>2022-07-04T09:28:26Z</time>
      </trkpt>
      <trkpt lat="47.74604" lon="4.9798">
        <ele>363.28</ele>
        <time>2022-07-04T09:28:29Z</time>
      </trkpt>
      <trkpt lat="47.74606" lon="4.97972">
        <ele>363.63</ele>
        <time>2022-07-04T09:28:33Z</time>
      </trkpt>
      <trkpt lat="47.74609" lon="4.97964">
        <ele>363.85</ele>
        <time>2022-07-04T09:28:38Z</time>
      </trkpt>
      <trkpt lat="47.74611" lon="4.97957">
        <ele>363.99</ele>
        <time>2022-07-04T09:28:41Z</time>
      </trkpt>
      <trkpt lat="47.74613" lon="4.97949">
        <ele>363.73</ele>
        <time>2022-07-04T09:28:45Z</time>
      </trkpt>
      <trkpt lat="47.74615" lon="4.97942">
        <ele>363.26</ele>
        <time>2022-07-04T09:28:48Z</time>
      </trkpt>
      <trkpt lat="47.74617" lon="4.97934">
        <ele>362.4</ele>
        <time>2022-07-04T09:28:52Z</time>
      </trkpt>
      <trkpt lat="47.7462" lon="4.97928">
        <ele>361.54</ele>
        <time>2022-07-04T09:28:55Z</time>
      </trkpt>
      <trkpt lat="47.74623" lon="4.97923">
        <ele>360.74</ele>
        <time>2022-07-04T09:28:58Z</time>
      </trkpt>
      <trkpt lat="47.74624" lon="4.97918">
        <ele>360.24</ele>
        <time>2022-07-04T09:29:01Z</time>
      </trkpt>
      <trkpt lat="47.74626" lon="4.9791">
        <ele>359.63</ele>
        <time>2022-07-04T09:29:04Z</time>
      </trkpt>
      <trkpt lat="47.74629" lon="4.97901">
        <ele>359.02</ele>
        <time>2022-07-04T09:29:09Z</time>
      </trkpt>
      <trkpt lat="47.74631" lon="4.97895">
        <ele>358.69</ele>
        <time>2022-07-04T09:29:12Z</time>
      </trkpt>
      <trkpt lat="47.74633" lon="4.97891">
        <ele>358.46</ele>
        <time>2022-07-04T09:29:14Z</time>
      </trkpt>
      <trkpt lat="47.74637" lon="4.97886">
        <ele>358.03</ele>
        <time>2022-07-04T09:29:19Z</time>
      </trkpt>
      <trkpt lat="47.74643" lon="4.9788">
        <ele>357.98</ele>
        <time>2022-07-04T09:29:24Z</time>
      </trkpt>
      <trkpt lat="47.74649" lon="4.97876">
        <ele>358.26</ele>
        <time>2022-07-04T09:29:27Z</time>
      </trkpt>
      <trkpt lat="47.74655" lon="4.9787">
        <ele>358.48</ele>
        <time>2022-07-04T09:29:33Z</time>
      </trkpt>
      <trkpt lat="47.74659" lon="4.97866">
        <ele>358.62</ele>
        <time>2022-07-04T09:29:37Z</time>
      </trkpt>
      <trkpt lat="47.74664" lon="4.97863">
        <ele>358.88</ele>
        <time>2022-07-04T09:29:40Z</time>
      </trkpt>
      <trkpt lat="47.74669" lon="4.97859">
        <ele>358.92</ele>
        <time>2022-07-04T09:29:44Z</time>
      </trkpt>
      <trkpt lat="47.74675" lon="4.97855">
        <ele>358.7</ele>
        <time>2022-07-04T09:29:48Z</time>
      </trkpt>
      <trkpt lat="47.74681" lon="4.97852">
        <ele>358.48</ele>
        <time>2022-07-04T09:29:53Z</time>
      </trkpt>
      <trkpt lat="47.74685" lon="4.9785">
        <ele>358.34</ele>
        <time>2022-07-04T09:29:56Z</time>
      </trkpt>
      <trkpt lat="47.74688" lon="4.97848">
        <ele>358.23</ele>
        <time>2022-07-04T09:29:58Z</time>
      </trkpt>
      <trkpt lat="47.74695" lon="4.97845">
        <ele>358.05</ele>
        <time>2022-07-04T09:30:03Z</time>
      </trkpt>
      <trkpt lat="47.747" lon="4.97843">
        <ele>358.41</ele>
        <time>2022-07-04T09:30:08Z</time>
      </trkpt>
      <trkpt lat="47.74704" lon="4.97842">
        <ele>358.67</ele>
        <time>2022-07-04T09:30:09Z</time>
      </trkpt>
      <trkpt lat="47.74706" lon="4.97842">
        <ele>358.81</ele>
        <time>2022-07-04T09:30:11Z</time>
      </trkpt>
      <trkpt lat="47.74709" lon="4.97842">
        <ele>359.01</ele>
        <time>2022-07-04T09:30:14Z</time>
      </trkpt>
      <trkpt lat="47.74712" lon="4.97843">
        <ele>359.29</ele>
        <time>2022-07-04T09:30:17Z</time>
      </trkpt>
      <trkpt lat="47.74715" lon="4.97843">
        <ele>359.51</ele>
        <time>2022-07-04T09:30:20Z</time>
      </trkpt>
      <trkpt lat="47.74718" lon="4.97843">
        <ele>359.73</ele>
        <time>2022-07-04T09:30:25Z</time>
      </trkpt>
      <trkpt lat="47.74721" lon="4.97844">
        <ele>360.06</ele>
        <time>2022-07-04T09:30:27Z</time>
      </trkpt>
      <trkpt lat="47.74725" lon="4.97844">
        <ele>360.11</ele>
        <time>2022-07-04T09:30:30Z</time>
      </trkpt>
      <trkpt lat="47.74729" lon="4.97845">
        <ele>360.16</ele>
        <time>2022-07-04T09:30:32Z</time>
      </trkpt>
      <trkpt lat="47.74732" lon="4.97845">
        <ele>360.11</ele>
        <time>2022-07-04T09:30:34Z</time>
      </trkpt>
      <trkpt lat="47.74735" lon="4.97845">
        <ele>360.07</ele>
        <time>2022-07-04T09:30:37Z</time>
      </trkpt>
      <trkpt lat="47.74739" lon="4.97846">
        <ele>360.09</ele>
        <time>2022-07-04T09:30:40Z</time>
      </trkpt>
      <trkpt lat="47.74742" lon="4.97845">
        <ele>359.96</ele>
        <time>2022-07-04T09:30:42Z</time>
      </trkpt>
      <trkpt lat="47.74746" lon="4.97845">
        <ele>359.9</ele>
        <time>2022-07-04T09:30:45Z</time>
      </trkpt>
      <trkpt lat="47.74749" lon="4.97845">
        <ele>359.86</ele>
        <time>2022-07-04T09:30:47Z</time>
      </trkpt>
      <trkpt lat="47.74752" lon="4.97845">
        <ele>359.47</ele>
        <time>2022-07-04T09:30:50Z</time>
      </trkpt>
      <trkpt lat="47.74755" lon="4.97844">
        <ele>358.83</ele>
        <time>2022-07-04T09:30:52Z</time>
      </trkpt>
      <trkpt lat="47.74763" lon="4.97842">
        <ele>357.11</ele>
        <time>2022-07-04T09:30:56Z</time>
      </trkpt>
      <trkpt lat="47.74768" lon="4.9784">
        <ele>355.9</ele>
        <time>2022-07-04T09:31:00Z</time>
      </trkpt>
      <trkpt lat="47.74776" lon="4.97838">
        <ele>354.03</ele>
        <time>2022-07-04T09:31:04Z</time>
      </trkpt>
      <trkpt lat="47.74783" lon="4.97833">
        <ele>353.56</ele>
        <time>2022-07-04T09:31:09Z</time>
      </trkpt>
      <trkpt lat="47.74791" lon="4.97828">
        <ele>354.42</ele>
        <time>2022-07-04T09:31:14Z</time>
      </trkpt>
      <trkpt lat="47.74796" lon="4.97826">
        <ele>355.05</ele>
        <time>2022-07-04T09:31:17Z</time>
      </trkpt>
      <trkpt lat="47.74801" lon="4.97823">
        <ele>355.76</ele>
        <time>2022-07-04T09:31:20Z</time>
      </trkpt>
      <trkpt lat="47.74807" lon="4.97821">
        <ele>356.55</ele>
        <time>2022-07-04T09:31:24Z</time>
      </trkpt>
      <trkpt lat="47.74812" lon="4.97817">
        <ele>357.05</ele>
        <time>2022-07-04T09:31:29Z</time>
      </trkpt>
      <trkpt lat="47.74816" lon="4.97815">
        <ele>357.41</ele>
        <time>2022-07-04T09:31:31Z</time>
      </trkpt>
      <trkpt lat="47.74819" lon="4.97813">
        <ele>357.7</ele>
        <time>2022-07-04T09:31:33Z</time>
      </trkpt>
      <trkpt lat="47.74822" lon="4.97812">
        <ele>357.95</ele>
        <time>2022-07-04T09:31:34Z</time>
      </trkpt>
      <trkpt lat="47.74825" lon="4.97812">
        <ele>358.17</ele>
        <time>2022-07-04T09:31:37Z</time>
      </trkpt>
      <trkpt lat="47.74828" lon="4.9781">
        <ele>358.46</ele>
        <time>2022-07-04T09:31:39Z</time>
      </trkpt>
      <trkpt lat="47.74831" lon="4.97808">
        <ele>358.74</ele>
        <time>2022-07-04T09:31:42Z</time>
      </trkpt>
      <trkpt lat="47.74834" lon="4.97807">
        <ele>359.04</ele>
        <time>2022-07-04T09:31:44Z</time>
      </trkpt>
      <trkpt lat="47.74836" lon="4.97806">
        <ele>359.37</ele>
        <time>2022-07-04T09:31:46Z</time>
      </trkpt>
      <trkpt lat="47.74842" lon="4.97806">
        <ele>360.23</ele>
        <time>2022-07-04T09:31:50Z</time>
      </trkpt>
      <trkpt lat="47.74846" lon="4.97806">
        <ele>360.8</ele>
        <time>2022-07-04T09:31:52Z</time>
      </trkpt>
      <trkpt lat="47.7485" lon="4.97806">
        <ele>361.37</ele>
        <time>2022-07-04T09:31:55Z</time>
      </trkpt>
      <trkpt lat="47.74855" lon="4.97806">
        <ele>362.09</ele>
        <time>2022-07-04T09:31:59Z</time>
      </trkpt>
      <trkpt lat="47.74859" lon="4.97807">
        <ele>362.6</ele>
        <time>2022-07-04T09:32:01Z</time>
      </trkpt>
      <trkpt lat="47.74862" lon="4.97809">
        <ele>362.72</ele>
        <time>2022-07-04T09:32:04Z</time>
      </trkpt>
      <trkpt lat="47.74865" lon="4.9781">
        <ele>362.54</ele>
        <time>2022-07-04T09:32:06Z</time>
      </trkpt>
      <trkpt lat="47.7487" lon="4.97811">
        <ele>362.29</ele>
        <time>2022-07-04T09:32:11Z</time>
      </trkpt>
      <trkpt lat="47.74876" lon="4.97813">
        <ele>361.93</ele>
        <time>2022-07-04T09:32:15Z</time>
      </trkpt>
      <trkpt lat="47.74881" lon="4.97816">
        <ele>361.53</ele>
        <time>2022-07-04T09:32:19Z</time>
      </trkpt>
      <trkpt lat="47.74885" lon="4.97817">
        <ele>361.32</ele>
        <time>2022-07-04T09:32:21Z</time>
      </trkpt>
      <trkpt lat="47.74889" lon="4.97817">
        <ele>361.18</ele>
        <time>2022-07-04T09:32:25Z</time>
      </trkpt>
      <trkpt lat="47.74892" lon="4.97818">
        <ele>361.27</ele>
        <time>2022-07-04T09:32:27Z</time>
      </trkpt>
      <trkpt lat="47.74895" lon="4.97819">
        <ele>361.36</ele>
        <time>2022-07-04T09:32:30Z</time>
      </trkpt>
      <trkpt lat="47.74899" lon="4.9782">
        <ele>361.51</ele>
        <time>2022-07-04T09:32:32Z</time>
      </trkpt>
      <trkpt lat="47.74902" lon="4.97821">
        <ele>361.62</ele>
        <time>2022-07-04T09:32:34Z</time>
      </trkpt>
      <trkpt lat="47.74905" lon="4.97822">
        <ele>361.74</ele>
        <time>2022-07-04T09:32:37Z</time>
      </trkpt>
      <trkpt lat="47.74908" lon="4.97823">
        <ele>361.86</ele>
        <time>2022-07-04T09:32:39Z</time>
      </trkpt>
      <trkpt lat="47.74912" lon="4.97826">
        <ele>361.97</ele>
        <time>2022-07-04T09:32:43Z</time>
      </trkpt>
      <trkpt lat="47.74916" lon="4.97828">
        <ele>362.15</ele>
        <time>2022-07-04T09:32:47Z</time>
      </trkpt>
      <trkpt lat="47.7492" lon="4.97828">
        <ele>361.88</ele>
        <time>2022-07-04T09:32:49Z</time>
      </trkpt>
      <trkpt lat="47.74923" lon="4.97828">
        <ele>361.6</ele>
        <time>2022-07-04T09:32:53Z</time>
      </trkpt>
      <trkpt lat="47.74927" lon="4.97828">
        <ele>361.22</ele>
        <time>2022-07-04T09:32:55Z</time>
      </trkpt>
      <trkpt lat="47.7493" lon="4.97828">
        <ele>360.94</ele>
        <time>2022-07-04T09:32:57Z</time>
      </trkpt>
      <trkpt lat="47.74933" lon="4.97827">
        <ele>360.73</ele>
        <time>2022-07-04T09:32:59Z</time>
      </trkpt>
      <trkpt lat="47.74936" lon="4.97826">
        <ele>360.54</ele>
        <time>2022-07-04T09:33:03Z</time>
      </trkpt>
      <trkpt lat="47.74939" lon="4.97825">
        <ele>360.37</ele>
        <time>2022-07-04T09:33:04Z</time>
      </trkpt>
      <trkpt lat="47.74942" lon="4.97823">
        <ele>360.31</ele>
        <time>2022-07-04T09:33:06Z</time>
      </trkpt>
      <trkpt lat="47.74945" lon="4.97822">
        <ele>360.21</ele>
        <time>2022-07-04T09:33:08Z</time>
      </trkpt>
      <trkpt lat="47.74948" lon="4.9782">
        <ele>360.37</ele>
        <time>2022-07-04T09:33:11Z</time>
      </trkpt>
      <trkpt lat="47.74951" lon="4.97819">
        <ele>360.43</ele>
        <time>2022-07-04T09:33:13Z</time>
      </trkpt>
      <trkpt lat="47.74954" lon="4.97818">
        <ele>360.5</ele>
        <time>2022-07-04T09:33:14Z</time>
      </trkpt>
      <trkpt lat="47.74959" lon="4.97818">
        <ele>360.42</ele>
        <time>2022-07-04T09:33:18Z</time>
      </trkpt>
      <trkpt lat="47.74965" lon="4.97817">
        <ele>360.46</ele>
        <time>2022-07-04T09:33:21Z</time>
      </trkpt>
      <trkpt lat="47.74972" lon="4.97815">
        <ele>360.64</ele>
        <time>2022-07-04T09:33:26Z</time>
      </trkpt>
      <trkpt lat="47.74978" lon="4.97813">
        <ele>360.3</ele>
        <time>2022-07-04T09:33:30Z</time>
      </trkpt>
      <trkpt lat="47.74984" lon="4.97811">
        <ele>359.94</ele>
        <time>2022-07-04T09:33:33Z</time>
      </trkpt>
      <trkpt lat="47.74987" lon="4.97809">
        <ele>359.91</ele>
        <time>2022-07-04T09:33:35Z</time>
      </trkpt>
      <trkpt lat="47.74991" lon="4.97806">
        <ele>359.91</ele>
        <time>2022-07-04T09:33:39Z</time>
      </trkpt>
      <trkpt lat="47.74998" lon="4.97801">
        <ele>359.19</ele>
        <time>2022-07-04T09:33:43Z</time>
      </trkpt>
      <trkpt lat="47.75004" lon="4.97795">
        <ele>358.48</ele>
        <time>2022-07-04T09:33:47Z</time>
      </trkpt>
      <trkpt lat="47.75009" lon="4.97792">
        <ele>357.86</ele>
        <time>2022-07-04T09:33:51Z</time>
      </trkpt>
      <trkpt lat="47.75012" lon="4.97791">
        <ele>357.5</ele>
        <time>2022-07-04T09:33:53Z</time>
      </trkpt>
      <trkpt lat="47.75015" lon="4.97789">
        <ele>357.16</ele>
        <time>2022-07-04T09:33:56Z</time>
      </trkpt>
      <trkpt lat="47.75018" lon="4.97787">
        <ele>356.84</ele>
        <time>2022-07-04T09:33:58Z</time>
      </trkpt>
      <trkpt lat="47.7502" lon="4.97785">
        <ele>356.65</ele>
        <time>2022-07-04T09:34:00Z</time>
      </trkpt>
      <trkpt lat="47.75023" lon="4.97783">
        <ele>356.36</ele>
        <time>2022-07-04T09:34:02Z</time>
      </trkpt>
      <trkpt lat="47.75026" lon="4.97782">
        <ele>356.05</ele>
        <time>2022-07-04T09:34:04Z</time>
      </trkpt>
      <trkpt lat="47.75028" lon="4.97781">
        <ele>355.86</ele>
        <time>2022-07-04T09:34:08Z</time>
      </trkpt>
      <trkpt lat="47.75031" lon="4.97779">
        <ele>355.6</ele>
        <time>2022-07-04T09:34:10Z</time>
      </trkpt>
      <trkpt lat="47.75034" lon="4.97777">
        <ele>355.37</ele>
        <time>2022-07-04T09:34:12Z</time>
      </trkpt>
      <trkpt lat="47.75032" lon="4.9778">
        <ele>355.45</ele>
        <time>2022-07-04T09:35:10Z</time>
      </trkpt>
      <trkpt lat="47.75035" lon="4.97778">
        <ele>355.21</ele>
        <time>2022-07-04T09:35:30Z</time>
      </trkpt>
      <trkpt lat="47.75038" lon="4.97777">
        <ele>354.93</ele>
        <time>2022-07-04T09:35:33Z</time>
      </trkpt>
      <trkpt lat="47.75041" lon="4.97775">
        <ele>354.68</ele>
        <time>2022-07-04T09:35:36Z</time>
      </trkpt>
      <trkpt lat="47.75045" lon="4.97773">
        <ele>354.27</ele>
        <time>2022-07-04T09:35:38Z</time>
      </trkpt>
      <trkpt lat="47.75047" lon="4.9777">
        <ele>354.1</ele>
        <time>2022-07-04T09:35:40Z</time>
      </trkpt>
      <trkpt lat="47.7505" lon="4.97769">
        <ele>353.73</ele>
        <time>2022-07-04T09:35:42Z</time>
      </trkpt>
      <trkpt lat="47.75053" lon="4.97768">
        <ele>353.34</ele>
        <time>2022-07-04T09:35:45Z</time>
      </trkpt>
      <trkpt lat="47.75056" lon="4.97768">
        <ele>352.96</ele>
        <time>2022-07-04T09:35:48Z</time>
      </trkpt>
      <trkpt lat="47.75059" lon="4.97767">
        <ele>352.66</ele>
        <time>2022-07-04T09:35:50Z</time>
      </trkpt>
      <trkpt lat="47.75062" lon="4.97767">
        <ele>352.36</ele>
        <time>2022-07-04T09:35:53Z</time>
      </trkpt>
      <trkpt lat="47.75065" lon="4.97766">
        <ele>352.03</ele>
        <time>2022-07-04T09:35:55Z</time>
      </trkpt>
      <trkpt lat="47.75068" lon="4.97765">
        <ele>351.69</ele>
        <time>2022-07-04T09:35:58Z</time>
      </trkpt>
      <trkpt lat="47.75071" lon="4.97764">
        <ele>351.34</ele>
        <time>2022-07-04T09:36:00Z</time>
      </trkpt>
      <trkpt lat="47.75074" lon="4.97763">
        <ele>350.97</ele>
        <time>2022-07-04T09:36:03Z</time>
      </trkpt>
      <trkpt lat="47.75077" lon="4.97763">
        <ele>350.63</ele>
        <time>2022-07-04T09:36:06Z</time>
      </trkpt>
      <trkpt lat="47.7508" lon="4.97762">
        <ele>350.24</ele>
        <time>2022-07-04T09:36:09Z</time>
      </trkpt>
      <trkpt lat="47.75083" lon="4.97762">
        <ele>349.9</ele>
        <time>2022-07-04T09:36:15Z</time>
      </trkpt>
      <trkpt lat="47.75086" lon="4.97761">
        <ele>349.5</ele>
        <time>2022-07-04T09:36:19Z</time>
      </trkpt>
      <trkpt lat="47.75088" lon="4.9776">
        <ele>349.22</ele>
        <time>2022-07-04T09:36:21Z</time>
      </trkpt>
      <trkpt lat="47.75091" lon="4.9776">
        <ele>348.89</ele>
        <time>2022-07-04T09:36:24Z</time>
      </trkpt>
      <trkpt lat="47.75094" lon="4.97759">
        <ele>348.5</ele>
        <time>2022-07-04T09:36:28Z</time>
      </trkpt>
      <trkpt lat="47.75097" lon="4.97758">
        <ele>348.1</ele>
        <time>2022-07-04T09:36:30Z</time>
      </trkpt>
      <trkpt lat="47.751" lon="4.97759">
        <ele>347.85</ele>
        <time>2022-07-04T09:36:32Z</time>
      </trkpt>
      <trkpt lat="47.75103" lon="4.97758">
        <ele>347.45</ele>
        <time>2022-07-04T09:36:36Z</time>
      </trkpt>
      <trkpt lat="47.75106" lon="4.97758">
        <ele>347.13</ele>
        <time>2022-07-04T09:36:40Z</time>
      </trkpt>
      <trkpt lat="47.7511" lon="4.97758">
        <ele>346.7</ele>
        <time>2022-07-04T09:36:43Z</time>
      </trkpt>
      <trkpt lat="47.75113" lon="4.97757">
        <ele>346.13</ele>
        <time>2022-07-04T09:36:44Z</time>
      </trkpt>
      <trkpt lat="47.75116" lon="4.97757">
        <ele>345.54</ele>
        <time>2022-07-04T09:36:47Z</time>
      </trkpt>
      <trkpt lat="47.75119" lon="4.97757">
        <ele>344.94</ele>
        <time>2022-07-04T09:36:51Z</time>
      </trkpt>
      <trkpt lat="47.75123" lon="4.97756">
        <ele>344.11</ele>
        <time>2022-07-04T09:36:53Z</time>
      </trkpt>
      <trkpt lat="47.75125" lon="4.97754">
        <ele>343.64</ele>
        <time>2022-07-04T09:36:58Z</time>
      </trkpt>
      <trkpt lat="47.75128" lon="4.97757">
        <ele>343.16</ele>
        <time>2022-07-04T09:37:10Z</time>
      </trkpt>
      <trkpt lat="47.75126" lon="4.9776">
        <ele>343.65</ele>
        <time>2022-07-04T09:37:13Z</time>
      </trkpt>
      <trkpt lat="47.75123" lon="4.97761">
        <ele>344.31</ele>
        <time>2022-07-04T09:37:16Z</time>
      </trkpt>
      <trkpt lat="47.7512" lon="4.97762">
        <ele>344.99</ele>
        <time>2022-07-04T09:37:18Z</time>
      </trkpt>
      <trkpt lat="47.75117" lon="4.97762">
        <ele>345.62</ele>
        <time>2022-07-04T09:37:22Z</time>
      </trkpt>
      <trkpt lat="47.75114" lon="4.97761">
        <ele>346.19</ele>
        <time>2022-07-04T09:37:29Z</time>
      </trkpt>
      <trkpt lat="47.75112" lon="4.97764">
        <ele>346.82</ele>
        <time>2022-07-04T09:38:46Z</time>
      </trkpt>
      <trkpt lat="47.7511" lon="4.97766">
        <ele>347.27</ele>
        <time>2022-07-04T09:40:02Z</time>
      </trkpt>
      <trkpt lat="47.75107" lon="4.97767">
        <ele>347.67</ele>
        <time>2022-07-04T09:40:22Z</time>
      </trkpt>
      <trkpt lat="47.75105" lon="4.97764">
        <ele>347.67</ele>
        <time>2022-07-04T09:41:26Z</time>
      </trkpt>
      <trkpt lat="47.75107" lon="4.97767">
        <ele>347.67</ele>
        <time>2022-07-04T09:43:04Z</time>
      </trkpt>
      <trkpt lat="47.75105" lon="4.97763">
        <ele>347.6</ele>
        <time>2022-07-04T09:43:19Z</time>
      </trkpt>
      <trkpt lat="47.75108" lon="4.97764">
        <ele>347.34</ele>
        <time>2022-07-04T09:45:40Z</time>
      </trkpt>
      <trkpt lat="47.75109" lon="4.9776">
        <ele>346.95</ele>
        <time>2022-07-04T09:45:55Z</time>
      </trkpt>
      <trkpt lat="47.7511" lon="4.97755">
        <ele>346.48</ele>
        <time>2022-07-04T09:46:09Z</time>
      </trkpt>
    </trkseg>
  </trk>
</gpx>